<?xml version="1.0" encoding="UTF-8" standalone="no" ?>
<gpx xmlns="http://www.topografix.com/GPX/1/1" xmlns:xsi="http://www.w3.org/2001/XMLSchema-instance" xsi:schemaLocation="http://www.topografix.com/GPX/1/1 http://www.topografix.com/GPX/1/1/gpx.xsd" version="1.1" creator="VisuGPX - https://www.visugpx.com">
  <metadata>
    <name>2017-03-02pm Walk from Chambost-Longessaigne</name>
    <desc><![CDATA[2017-03-02pm Walk from Chambost-Longessaigne]]></desc>
  </metadata>
  <wpt lat="45.77274" lon="4.36859">
    <ele>547</ele>
    <name><![CDATA[2017-03-02 13:38 (Start)]]></name>
  </wpt>
  <wpt lat="45.77263" lon="4.36853">
    <ele>546</ele>
    <name><![CDATA[2017-03-02 13:38 (End)]]></name>
    <desc><![CDATA[Created by Google My Tracks on Android  Name: 2017-03-02 13:38 Activity type: walking Description: - Total distance: 15.90 km (9.9 mi) Total time: 3:47:49 Moving time: 3:46:37 Average speed: 4.19 km/h (2.6 mi/h) Average moving speed: 4.21 km/h (2.6 mi/h) Max speed: 5.40 km/h (3.4 mi/h) Average pace: 14:20 min/km (23:04 min/mi) Average moving pace: 14:15 min/km (22:56 min/mi) Fastest pace: 11:07 min/km (17:53 min/mi) Max elevation: 693 m (2273 ft) Min elevation: 531 m (1742 ft) Elevation gain: 1078 m (3537 ft) Max grade: 19 % Min grade: -34 % Recorded: 02/03/2017 13:38]]></desc>
  </wpt>
  <trk>
    <name><![CDATA[2017-03-02 13:38]]></name>
    <trkseg>
      <trkpt lat="45.77274" lon="4.36859">
        <ele>547</ele>
        <time>2017-03-02T12:38:21.416Z</time>
      </trkpt>
      <trkpt lat="45.77267" lon="4.36853">
        <ele>546</ele>
        <time>2017-03-02T12:38:28.123Z</time>
      </trkpt>
      <trkpt lat="45.7726" lon="4.36851">
        <ele>545</ele>
        <time>2017-03-02T12:38:29.132Z</time>
      </trkpt>
      <trkpt lat="45.77265" lon="4.36857">
        <ele>546</ele>
        <time>2017-03-02T12:38:30.14Z</time>
      </trkpt>
      <trkpt lat="45.77268" lon="4.36861">
        <ele>546</ele>
        <time>2017-03-02T12:38:31.133Z</time>
      </trkpt>
      <trkpt lat="45.7726" lon="4.36865">
        <ele>546</ele>
        <time>2017-03-02T12:41:03Z</time>
      </trkpt>
      <trkpt lat="45.77259" lon="4.36865">
        <ele>546</ele>
        <time>2017-03-02T12:41:04Z</time>
      </trkpt>
      <trkpt lat="45.77259" lon="4.36877">
        <ele>546</ele>
        <time>2017-03-02T12:41:16Z</time>
      </trkpt>
      <trkpt lat="45.77259" lon="4.36879">
        <ele>546</ele>
        <time>2017-03-02T12:41:17Z</time>
      </trkpt>
      <trkpt lat="45.77257" lon="4.3689">
        <ele>546</ele>
        <time>2017-03-02T12:41:24Z</time>
      </trkpt>
      <trkpt lat="45.77256" lon="4.36891">
        <ele>546</ele>
        <time>2017-03-02T12:41:25Z</time>
      </trkpt>
      <trkpt lat="45.77249" lon="4.36898">
        <ele>540</ele>
        <time>2017-03-02T12:41:30Z</time>
      </trkpt>
      <trkpt lat="45.77248" lon="4.369">
        <ele>540</ele>
        <time>2017-03-02T12:41:31Z</time>
      </trkpt>
      <trkpt lat="45.77239" lon="4.369">
        <ele>539</ele>
        <time>2017-03-02T12:41:39Z</time>
      </trkpt>
      <trkpt lat="45.77238" lon="4.36899">
        <ele>539</ele>
        <time>2017-03-02T12:41:40Z</time>
      </trkpt>
      <trkpt lat="45.7723" lon="4.36894">
        <ele>538</ele>
        <time>2017-03-02T12:41:50Z</time>
      </trkpt>
      <trkpt lat="45.77229" lon="4.36893">
        <ele>538</ele>
        <time>2017-03-02T12:41:51Z</time>
      </trkpt>
      <trkpt lat="45.77223" lon="4.36885">
        <ele>537</ele>
        <time>2017-03-02T12:41:58Z</time>
      </trkpt>
      <trkpt lat="45.77222" lon="4.36884">
        <ele>537</ele>
        <time>2017-03-02T12:41:59Z</time>
      </trkpt>
      <trkpt lat="45.77214" lon="4.36878">
        <ele>536</ele>
        <time>2017-03-02T12:42:06Z</time>
      </trkpt>
      <trkpt lat="45.77212" lon="4.36878">
        <ele>536</ele>
        <time>2017-03-02T12:42:07Z</time>
      </trkpt>
      <trkpt lat="45.77204" lon="4.36875">
        <ele>535</ele>
        <time>2017-03-02T12:42:12Z</time>
      </trkpt>
      <trkpt lat="45.77202" lon="4.36875">
        <ele>535</ele>
        <time>2017-03-02T12:42:13Z</time>
      </trkpt>
      <trkpt lat="45.77195" lon="4.36871">
        <ele>535</ele>
        <time>2017-03-02T12:42:19Z</time>
      </trkpt>
      <trkpt lat="45.77194" lon="4.3687">
        <ele>535</ele>
        <time>2017-03-02T12:42:20Z</time>
      </trkpt>
      <trkpt lat="45.77191" lon="4.36859">
        <ele>534</ele>
        <time>2017-03-02T12:42:27Z</time>
      </trkpt>
      <trkpt lat="45.77191" lon="4.36857">
        <ele>534</ele>
        <time>2017-03-02T12:42:28Z</time>
      </trkpt>
      <trkpt lat="45.77184" lon="4.36849">
        <ele>533</ele>
        <time>2017-03-02T12:42:34Z</time>
      </trkpt>
      <trkpt lat="45.77182" lon="4.36848">
        <ele>533</ele>
        <time>2017-03-02T12:42:35Z</time>
      </trkpt>
      <trkpt lat="45.77175" lon="4.36844">
        <ele>532</ele>
        <time>2017-03-02T12:42:40Z</time>
      </trkpt>
      <trkpt lat="45.77174" lon="4.36843">
        <ele>532</ele>
        <time>2017-03-02T12:42:41Z</time>
      </trkpt>
      <trkpt lat="45.77167" lon="4.36838">
        <ele>531</ele>
        <time>2017-03-02T12:42:46Z</time>
      </trkpt>
      <trkpt lat="45.77165" lon="4.36837">
        <ele>529</ele>
        <time>2017-03-02T12:42:47Z</time>
      </trkpt>
      <trkpt lat="45.77158" lon="4.36832">
        <ele>528</ele>
        <time>2017-03-02T12:42:52Z</time>
      </trkpt>
      <trkpt lat="45.77157" lon="4.36831">
        <ele>528</ele>
        <time>2017-03-02T12:42:53Z</time>
      </trkpt>
      <trkpt lat="45.7715" lon="4.36826">
        <ele>527</ele>
        <time>2017-03-02T12:42:58Z</time>
      </trkpt>
      <trkpt lat="45.77148" lon="4.36825">
        <ele>527</ele>
        <time>2017-03-02T12:42:59Z</time>
      </trkpt>
      <trkpt lat="45.77141" lon="4.36818">
        <ele>526</ele>
        <time>2017-03-02T12:43:05Z</time>
      </trkpt>
      <trkpt lat="45.7714" lon="4.36817">
        <ele>526</ele>
        <time>2017-03-02T12:43:06Z</time>
      </trkpt>
      <trkpt lat="45.77133" lon="4.3681">
        <ele>525</ele>
        <time>2017-03-02T12:43:12Z</time>
      </trkpt>
      <trkpt lat="45.77131" lon="4.36809">
        <ele>525</ele>
        <time>2017-03-02T12:43:13Z</time>
      </trkpt>
      <trkpt lat="45.77124" lon="4.36802">
        <ele>525</ele>
        <time>2017-03-02T12:43:19Z</time>
      </trkpt>
      <trkpt lat="45.77123" lon="4.36801">
        <ele>524</ele>
        <time>2017-03-02T12:43:20Z</time>
      </trkpt>
      <trkpt lat="45.77116" lon="4.36793">
        <ele>524</ele>
        <time>2017-03-02T12:43:26Z</time>
      </trkpt>
      <trkpt lat="45.77115" lon="4.36792">
        <ele>524</ele>
        <time>2017-03-02T12:43:27Z</time>
      </trkpt>
      <trkpt lat="45.77108" lon="4.36785">
        <ele>524</ele>
        <time>2017-03-02T12:43:33Z</time>
      </trkpt>
      <trkpt lat="45.77107" lon="4.36783">
        <ele>524</ele>
        <time>2017-03-02T12:43:34Z</time>
      </trkpt>
      <trkpt lat="45.771" lon="4.36776">
        <ele>523</ele>
        <time>2017-03-02T12:43:40Z</time>
      </trkpt>
      <trkpt lat="45.77099" lon="4.36775">
        <ele>523</ele>
        <time>2017-03-02T12:43:41Z</time>
      </trkpt>
      <trkpt lat="45.77092" lon="4.36767">
        <ele>522</ele>
        <time>2017-03-02T12:43:47Z</time>
      </trkpt>
      <trkpt lat="45.77091" lon="4.36766">
        <ele>522</ele>
        <time>2017-03-02T12:43:48Z</time>
      </trkpt>
      <trkpt lat="45.77085" lon="4.36758">
        <ele>521</ele>
        <time>2017-03-02T12:43:54Z</time>
      </trkpt>
      <trkpt lat="45.77084" lon="4.36757">
        <ele>521</ele>
        <time>2017-03-02T12:43:55Z</time>
      </trkpt>
      <trkpt lat="45.77078" lon="4.36748">
        <ele>520</ele>
        <time>2017-03-02T12:44:02Z</time>
      </trkpt>
      <trkpt lat="45.77078" lon="4.36748">
        <ele>520</ele>
        <time>2017-03-02T12:44:03Z</time>
      </trkpt>
      <trkpt lat="45.77072" lon="4.36738">
        <ele>521</ele>
        <time>2017-03-02T12:44:11Z</time>
      </trkpt>
      <trkpt lat="45.77071" lon="4.36737">
        <ele>521</ele>
        <time>2017-03-02T12:44:12Z</time>
      </trkpt>
      <trkpt lat="45.77065" lon="4.36728">
        <ele>522</ele>
        <time>2017-03-02T12:44:19Z</time>
      </trkpt>
      <trkpt lat="45.77064" lon="4.36726">
        <ele>522</ele>
        <time>2017-03-02T12:44:20Z</time>
      </trkpt>
      <trkpt lat="45.77058" lon="4.36718">
        <ele>522</ele>
        <time>2017-03-02T12:44:26Z</time>
      </trkpt>
      <trkpt lat="45.77057" lon="4.36716">
        <ele>522</ele>
        <time>2017-03-02T12:44:27Z</time>
      </trkpt>
      <trkpt lat="45.77051" lon="4.36707">
        <ele>522</ele>
        <time>2017-03-02T12:44:33Z</time>
      </trkpt>
      <trkpt lat="45.7705" lon="4.36706">
        <ele>522</ele>
        <time>2017-03-02T12:44:34Z</time>
      </trkpt>
      <trkpt lat="45.77044" lon="4.36699">
        <ele>522</ele>
        <time>2017-03-02T12:44:40Z</time>
      </trkpt>
      <trkpt lat="45.77042" lon="4.36698">
        <ele>522</ele>
        <time>2017-03-02T12:44:41Z</time>
      </trkpt>
      <trkpt lat="45.77035" lon="4.36691">
        <ele>522</ele>
        <time>2017-03-02T12:44:47Z</time>
      </trkpt>
      <trkpt lat="45.77034" lon="4.3669">
        <ele>522</ele>
        <time>2017-03-02T12:44:48Z</time>
      </trkpt>
      <trkpt lat="45.77027" lon="4.36683">
        <ele>523</ele>
        <time>2017-03-02T12:44:55Z</time>
      </trkpt>
      <trkpt lat="45.77026" lon="4.36682">
        <ele>523</ele>
        <time>2017-03-02T12:44:56Z</time>
      </trkpt>
      <trkpt lat="45.77019" lon="4.36676">
        <ele>523</ele>
        <time>2017-03-02T12:45:02Z</time>
      </trkpt>
      <trkpt lat="45.77017" lon="4.36675">
        <ele>523</ele>
        <time>2017-03-02T12:45:03Z</time>
      </trkpt>
      <trkpt lat="45.77009" lon="4.36669">
        <ele>523</ele>
        <time>2017-03-02T12:45:09Z</time>
      </trkpt>
      <trkpt lat="45.77008" lon="4.36668">
        <ele>523</ele>
        <time>2017-03-02T12:45:10Z</time>
      </trkpt>
      <trkpt lat="45.77" lon="4.36664">
        <ele>523</ele>
        <time>2017-03-02T12:45:16Z</time>
      </trkpt>
      <trkpt lat="45.76999" lon="4.36664">
        <ele>522</ele>
        <time>2017-03-02T12:45:17Z</time>
      </trkpt>
      <trkpt lat="45.7699" lon="4.36662">
        <ele>521</ele>
        <time>2017-03-02T12:45:23Z</time>
      </trkpt>
      <trkpt lat="45.76989" lon="4.36662">
        <ele>521</ele>
        <time>2017-03-02T12:45:24Z</time>
      </trkpt>
      <trkpt lat="45.7698" lon="4.36662">
        <ele>520</ele>
        <time>2017-03-02T12:45:30Z</time>
      </trkpt>
      <trkpt lat="45.76979" lon="4.36663">
        <ele>520</ele>
        <time>2017-03-02T12:45:31Z</time>
      </trkpt>
      <trkpt lat="45.7697" lon="4.36664">
        <ele>520</ele>
        <time>2017-03-02T12:45:38Z</time>
      </trkpt>
      <trkpt lat="45.76969" lon="4.36664">
        <ele>520</ele>
        <time>2017-03-02T12:45:39Z</time>
      </trkpt>
      <trkpt lat="45.76961" lon="4.36666">
        <ele>519</ele>
        <time>2017-03-02T12:45:45Z</time>
      </trkpt>
      <trkpt lat="45.76959" lon="4.36666">
        <ele>519</ele>
        <time>2017-03-02T12:45:46Z</time>
      </trkpt>
      <trkpt lat="45.76951" lon="4.36668">
        <ele>516</ele>
        <time>2017-03-02T12:45:52Z</time>
      </trkpt>
      <trkpt lat="45.76949" lon="4.36668">
        <ele>516</ele>
        <time>2017-03-02T12:45:53Z</time>
      </trkpt>
      <trkpt lat="45.7694" lon="4.3667">
        <ele>516</ele>
        <time>2017-03-02T12:45:59Z</time>
      </trkpt>
      <trkpt lat="45.76939" lon="4.3667">
        <ele>516</ele>
        <time>2017-03-02T12:46:00Z</time>
      </trkpt>
      <trkpt lat="45.76931" lon="4.36669">
        <ele>515</ele>
        <time>2017-03-02T12:46:06Z</time>
      </trkpt>
      <trkpt lat="45.7693" lon="4.36669">
        <ele>515</ele>
        <time>2017-03-02T12:46:07Z</time>
      </trkpt>
      <trkpt lat="45.76922" lon="4.36663">
        <ele>515</ele>
        <time>2017-03-02T12:46:14Z</time>
      </trkpt>
      <trkpt lat="45.76921" lon="4.36662">
        <ele>515</ele>
        <time>2017-03-02T12:46:15Z</time>
      </trkpt>
      <trkpt lat="45.76914" lon="4.36656">
        <ele>513</ele>
        <time>2017-03-02T12:46:22Z</time>
      </trkpt>
      <trkpt lat="45.76913" lon="4.36655">
        <ele>513</ele>
        <time>2017-03-02T12:46:23Z</time>
      </trkpt>
      <trkpt lat="45.76906" lon="4.36648">
        <ele>513</ele>
        <time>2017-03-02T12:46:31Z</time>
      </trkpt>
      <trkpt lat="45.76905" lon="4.36647">
        <ele>513</ele>
        <time>2017-03-02T12:46:32Z</time>
      </trkpt>
      <trkpt lat="45.76898" lon="4.36641">
        <ele>513</ele>
        <time>2017-03-02T12:46:38Z</time>
      </trkpt>
      <trkpt lat="45.76896" lon="4.36639">
        <ele>513</ele>
        <time>2017-03-02T12:46:39Z</time>
      </trkpt>
      <trkpt lat="45.7689" lon="4.3663">
        <ele>512</ele>
        <time>2017-03-02T12:46:44Z</time>
      </trkpt>
      <trkpt lat="45.76889" lon="4.36628">
        <ele>512</ele>
        <time>2017-03-02T12:46:45Z</time>
      </trkpt>
      <trkpt lat="45.76884" lon="4.36618">
        <ele>512</ele>
        <time>2017-03-02T12:46:50Z</time>
      </trkpt>
      <trkpt lat="45.76883" lon="4.36616">
        <ele>512</ele>
        <time>2017-03-02T12:46:51Z</time>
      </trkpt>
      <trkpt lat="45.76879" lon="4.36606">
        <ele>512</ele>
        <time>2017-03-02T12:46:56Z</time>
      </trkpt>
      <trkpt lat="45.76878" lon="4.36605">
        <ele>512</ele>
        <time>2017-03-02T12:46:57Z</time>
      </trkpt>
      <trkpt lat="45.76872" lon="4.36594">
        <ele>512</ele>
        <time>2017-03-02T12:47:03Z</time>
      </trkpt>
      <trkpt lat="45.76872" lon="4.36593">
        <ele>512</ele>
        <time>2017-03-02T12:47:04Z</time>
      </trkpt>
      <trkpt lat="45.76867" lon="4.36584">
        <ele>511</ele>
        <time>2017-03-02T12:47:09Z</time>
      </trkpt>
      <trkpt lat="45.76866" lon="4.36582">
        <ele>511</ele>
        <time>2017-03-02T12:47:10Z</time>
      </trkpt>
      <trkpt lat="45.76862" lon="4.36574">
        <ele>511</ele>
        <time>2017-03-02T12:47:15Z</time>
      </trkpt>
      <trkpt lat="45.76861" lon="4.36572">
        <ele>511</ele>
        <time>2017-03-02T12:47:16Z</time>
      </trkpt>
      <trkpt lat="45.76856" lon="4.36563">
        <ele>511</ele>
        <time>2017-03-02T12:47:21Z</time>
      </trkpt>
      <trkpt lat="45.76855" lon="4.36561">
        <ele>511</ele>
        <time>2017-03-02T12:47:22Z</time>
      </trkpt>
      <trkpt lat="45.76851" lon="4.3655">
        <ele>511</ele>
        <time>2017-03-02T12:47:28Z</time>
      </trkpt>
      <trkpt lat="45.7685" lon="4.36549">
        <ele>511</ele>
        <time>2017-03-02T12:47:29Z</time>
      </trkpt>
      <trkpt lat="45.76845" lon="4.36539">
        <ele>511</ele>
        <time>2017-03-02T12:47:35Z</time>
      </trkpt>
      <trkpt lat="45.76844" lon="4.36537">
        <ele>510</ele>
        <time>2017-03-02T12:47:36Z</time>
      </trkpt>
      <trkpt lat="45.76839" lon="4.36527">
        <ele>510</ele>
        <time>2017-03-02T12:47:42Z</time>
      </trkpt>
      <trkpt lat="45.76838" lon="4.36526">
        <ele>510</ele>
        <time>2017-03-02T12:47:43Z</time>
      </trkpt>
      <trkpt lat="45.76833" lon="4.36517">
        <ele>509</ele>
        <time>2017-03-02T12:47:49Z</time>
      </trkpt>
      <trkpt lat="45.76832" lon="4.36515">
        <ele>508</ele>
        <time>2017-03-02T12:47:50Z</time>
      </trkpt>
      <trkpt lat="45.76826" lon="4.36507">
        <ele>508</ele>
        <time>2017-03-02T12:47:56Z</time>
      </trkpt>
      <trkpt lat="45.76825" lon="4.36506">
        <ele>508</ele>
        <time>2017-03-02T12:47:57Z</time>
      </trkpt>
      <trkpt lat="45.76818" lon="4.36497">
        <ele>508</ele>
        <time>2017-03-02T12:48:03Z</time>
      </trkpt>
      <trkpt lat="45.76817" lon="4.36496">
        <ele>508</ele>
        <time>2017-03-02T12:48:04Z</time>
      </trkpt>
      <trkpt lat="45.76811" lon="4.36487">
        <ele>508</ele>
        <time>2017-03-02T12:48:10Z</time>
      </trkpt>
      <trkpt lat="45.7681" lon="4.36485">
        <ele>509</ele>
        <time>2017-03-02T12:48:11Z</time>
      </trkpt>
      <trkpt lat="45.76804" lon="4.36477">
        <ele>509</ele>
        <time>2017-03-02T12:48:17Z</time>
      </trkpt>
      <trkpt lat="45.76803" lon="4.36476">
        <ele>509</ele>
        <time>2017-03-02T12:48:18Z</time>
      </trkpt>
      <trkpt lat="45.76797" lon="4.36467">
        <ele>509</ele>
        <time>2017-03-02T12:48:24Z</time>
      </trkpt>
      <trkpt lat="45.76796" lon="4.36466">
        <ele>509</ele>
        <time>2017-03-02T12:48:25Z</time>
      </trkpt>
      <trkpt lat="45.76789" lon="4.36459">
        <ele>509</ele>
        <time>2017-03-02T12:48:31Z</time>
      </trkpt>
      <trkpt lat="45.76788" lon="4.36458">
        <ele>509</ele>
        <time>2017-03-02T12:48:32Z</time>
      </trkpt>
      <trkpt lat="45.76781" lon="4.3645">
        <ele>509</ele>
        <time>2017-03-02T12:48:39Z</time>
      </trkpt>
      <trkpt lat="45.7678" lon="4.36449">
        <ele>509</ele>
        <time>2017-03-02T12:48:40Z</time>
      </trkpt>
      <trkpt lat="45.76774" lon="4.36443">
        <ele>509</ele>
        <time>2017-03-02T12:48:46Z</time>
      </trkpt>
      <trkpt lat="45.76773" lon="4.36441">
        <ele>508</ele>
        <time>2017-03-02T12:48:47Z</time>
      </trkpt>
      <trkpt lat="45.76767" lon="4.36434">
        <ele>508</ele>
        <time>2017-03-02T12:48:53Z</time>
      </trkpt>
      <trkpt lat="45.76766" lon="4.36433">
        <ele>508</ele>
        <time>2017-03-02T12:48:54Z</time>
      </trkpt>
      <trkpt lat="45.76761" lon="4.36424">
        <ele>507</ele>
        <time>2017-03-02T12:49:00Z</time>
      </trkpt>
      <trkpt lat="45.7676" lon="4.36423">
        <ele>507</ele>
        <time>2017-03-02T12:49:01Z</time>
      </trkpt>
      <trkpt lat="45.76753" lon="4.36415">
        <ele>507</ele>
        <time>2017-03-02T12:49:08Z</time>
      </trkpt>
      <trkpt lat="45.76753" lon="4.36413">
        <ele>507</ele>
        <time>2017-03-02T12:49:09Z</time>
      </trkpt>
      <trkpt lat="45.76746" lon="4.36408">
        <ele>506</ele>
        <time>2017-03-02T12:49:14Z</time>
      </trkpt>
      <trkpt lat="45.76745" lon="4.36407">
        <ele>506</ele>
        <time>2017-03-02T12:49:15Z</time>
      </trkpt>
      <trkpt lat="45.76736" lon="4.36403">
        <ele>506</ele>
        <time>2017-03-02T12:49:20Z</time>
      </trkpt>
      <trkpt lat="45.76735" lon="4.36402">
        <ele>506</ele>
        <time>2017-03-02T12:49:21Z</time>
      </trkpt>
      <trkpt lat="45.76728" lon="4.36398">
        <ele>506</ele>
        <time>2017-03-02T12:49:26Z</time>
      </trkpt>
      <trkpt lat="45.76727" lon="4.36396">
        <ele>506</ele>
        <time>2017-03-02T12:49:27Z</time>
      </trkpt>
      <trkpt lat="45.7672" lon="4.36389">
        <ele>506</ele>
        <time>2017-03-02T12:49:33Z</time>
      </trkpt>
      <trkpt lat="45.76719" lon="4.36388">
        <ele>506</ele>
        <time>2017-03-02T12:49:34Z</time>
      </trkpt>
      <trkpt lat="45.76711" lon="4.36383">
        <ele>506</ele>
        <time>2017-03-02T12:49:40Z</time>
      </trkpt>
      <trkpt lat="45.7671" lon="4.36382">
        <ele>506</ele>
        <time>2017-03-02T12:49:41Z</time>
      </trkpt>
      <trkpt lat="45.76702" lon="4.36377">
        <ele>506</ele>
        <time>2017-03-02T12:49:47Z</time>
      </trkpt>
      <trkpt lat="45.76701" lon="4.36377">
        <ele>506</ele>
        <time>2017-03-02T12:49:48Z</time>
      </trkpt>
      <trkpt lat="45.76693" lon="4.36371">
        <ele>505</ele>
        <time>2017-03-02T12:49:54Z</time>
      </trkpt>
      <trkpt lat="45.76691" lon="4.36369">
        <ele>505</ele>
        <time>2017-03-02T12:49:55Z</time>
      </trkpt>
      <trkpt lat="45.76684" lon="4.36365">
        <ele>505</ele>
        <time>2017-03-02T12:50:00Z</time>
      </trkpt>
      <trkpt lat="45.76682" lon="4.36364">
        <ele>505</ele>
        <time>2017-03-02T12:50:01Z</time>
      </trkpt>
      <trkpt lat="45.76675" lon="4.3636">
        <ele>505</ele>
        <time>2017-03-02T12:50:07Z</time>
      </trkpt>
      <trkpt lat="45.76674" lon="4.36359">
        <ele>505</ele>
        <time>2017-03-02T12:50:08Z</time>
      </trkpt>
      <trkpt lat="45.76666" lon="4.36355">
        <ele>504</ele>
        <time>2017-03-02T12:50:14Z</time>
      </trkpt>
      <trkpt lat="45.76665" lon="4.36354">
        <ele>504</ele>
        <time>2017-03-02T12:50:15Z</time>
      </trkpt>
      <trkpt lat="45.76658" lon="4.36349">
        <ele>504</ele>
        <time>2017-03-02T12:50:21Z</time>
      </trkpt>
      <trkpt lat="45.76657" lon="4.36348">
        <ele>504</ele>
        <time>2017-03-02T12:50:22Z</time>
      </trkpt>
      <trkpt lat="45.76649" lon="4.36343">
        <ele>505</ele>
        <time>2017-03-02T12:50:28Z</time>
      </trkpt>
      <trkpt lat="45.76647" lon="4.36342">
        <ele>505</ele>
        <time>2017-03-02T12:50:29Z</time>
      </trkpt>
      <trkpt lat="45.7664" lon="4.36334">
        <ele>505</ele>
        <time>2017-03-02T12:50:35Z</time>
      </trkpt>
      <trkpt lat="45.76639" lon="4.36333">
        <ele>505</ele>
        <time>2017-03-02T12:50:36Z</time>
      </trkpt>
      <trkpt lat="45.76632" lon="4.36327">
        <ele>505</ele>
        <time>2017-03-02T12:50:42Z</time>
      </trkpt>
      <trkpt lat="45.76631" lon="4.36325">
        <ele>505</ele>
        <time>2017-03-02T12:50:43Z</time>
      </trkpt>
      <trkpt lat="45.76625" lon="4.36317">
        <ele>505</ele>
        <time>2017-03-02T12:50:50Z</time>
      </trkpt>
      <trkpt lat="45.76624" lon="4.36316">
        <ele>506</ele>
        <time>2017-03-02T12:50:51Z</time>
      </trkpt>
      <trkpt lat="45.76618" lon="4.36307">
        <ele>506</ele>
        <time>2017-03-02T12:50:59Z</time>
      </trkpt>
      <trkpt lat="45.76618" lon="4.36306">
        <ele>506</ele>
        <time>2017-03-02T12:51:00Z</time>
      </trkpt>
      <trkpt lat="45.76611" lon="4.36299">
        <ele>506</ele>
        <time>2017-03-02T12:51:08Z</time>
      </trkpt>
      <trkpt lat="45.7661" lon="4.36298">
        <ele>506</ele>
        <time>2017-03-02T12:51:09Z</time>
      </trkpt>
      <trkpt lat="45.76604" lon="4.36291">
        <ele>506</ele>
        <time>2017-03-02T12:51:15Z</time>
      </trkpt>
      <trkpt lat="45.76603" lon="4.3629">
        <ele>506</ele>
        <time>2017-03-02T12:51:16Z</time>
      </trkpt>
      <trkpt lat="45.76595" lon="4.36285">
        <ele>506</ele>
        <time>2017-03-02T12:51:22Z</time>
      </trkpt>
      <trkpt lat="45.76594" lon="4.36284">
        <ele>506</ele>
        <time>2017-03-02T12:51:23Z</time>
      </trkpt>
      <trkpt lat="45.76589" lon="4.36274">
        <ele>507</ele>
        <time>2017-03-02T12:51:30Z</time>
      </trkpt>
      <trkpt lat="45.76588" lon="4.36272">
        <ele>507</ele>
        <time>2017-03-02T12:51:31Z</time>
      </trkpt>
      <trkpt lat="45.7659" lon="4.3626">
        <ele>507</ele>
        <time>2017-03-02T12:51:41Z</time>
      </trkpt>
      <trkpt lat="45.76589" lon="4.36259">
        <ele>507</ele>
        <time>2017-03-02T12:51:42Z</time>
      </trkpt>
      <trkpt lat="45.76584" lon="4.3625">
        <ele>508</ele>
        <time>2017-03-02T12:51:51Z</time>
      </trkpt>
      <trkpt lat="45.76583" lon="4.36249">
        <ele>508</ele>
        <time>2017-03-02T12:51:52Z</time>
      </trkpt>
      <trkpt lat="45.76576" lon="4.36244">
        <ele>510</ele>
        <time>2017-03-02T12:51:56Z</time>
      </trkpt>
      <trkpt lat="45.76575" lon="4.36243">
        <ele>510</ele>
        <time>2017-03-02T12:51:57Z</time>
      </trkpt>
      <trkpt lat="45.76566" lon="4.3624">
        <ele>512</ele>
        <time>2017-03-02T12:52:02Z</time>
      </trkpt>
      <trkpt lat="45.76564" lon="4.36239">
        <ele>512</ele>
        <time>2017-03-02T12:52:03Z</time>
      </trkpt>
      <trkpt lat="45.76557" lon="4.36236">
        <ele>513</ele>
        <time>2017-03-02T12:52:07Z</time>
      </trkpt>
      <trkpt lat="45.76555" lon="4.36235">
        <ele>514</ele>
        <time>2017-03-02T12:52:08Z</time>
      </trkpt>
      <trkpt lat="45.76548" lon="4.3623">
        <ele>514</ele>
        <time>2017-03-02T12:52:13Z</time>
      </trkpt>
      <trkpt lat="45.76547" lon="4.36229">
        <ele>515</ele>
        <time>2017-03-02T12:52:14Z</time>
      </trkpt>
      <trkpt lat="45.76542" lon="4.36219">
        <ele>515</ele>
        <time>2017-03-02T12:52:23Z</time>
      </trkpt>
      <trkpt lat="45.76541" lon="4.36218">
        <ele>515</ele>
        <time>2017-03-02T12:52:24Z</time>
      </trkpt>
      <trkpt lat="45.76534" lon="4.36211">
        <ele>515</ele>
        <time>2017-03-02T12:52:30Z</time>
      </trkpt>
      <trkpt lat="45.76533" lon="4.3621">
        <ele>515</ele>
        <time>2017-03-02T12:52:31Z</time>
      </trkpt>
      <trkpt lat="45.76527" lon="4.36202">
        <ele>515</ele>
        <time>2017-03-02T12:52:38Z</time>
      </trkpt>
      <trkpt lat="45.76526" lon="4.36201">
        <ele>515</ele>
        <time>2017-03-02T12:52:39Z</time>
      </trkpt>
      <trkpt lat="45.76522" lon="4.3619">
        <ele>515</ele>
        <time>2017-03-02T12:52:47Z</time>
      </trkpt>
      <trkpt lat="45.76521" lon="4.36188">
        <ele>515</ele>
        <time>2017-03-02T12:52:48Z</time>
      </trkpt>
      <trkpt lat="45.76515" lon="4.36182">
        <ele>515</ele>
        <time>2017-03-02T12:52:54Z</time>
      </trkpt>
      <trkpt lat="45.76514" lon="4.36181">
        <ele>515</ele>
        <time>2017-03-02T12:52:55Z</time>
      </trkpt>
      <trkpt lat="45.76507" lon="4.36176">
        <ele>516</ele>
        <time>2017-03-02T12:53:00Z</time>
      </trkpt>
      <trkpt lat="45.76505" lon="4.36175">
        <ele>516</ele>
        <time>2017-03-02T12:53:01Z</time>
      </trkpt>
      <trkpt lat="45.76499" lon="4.3617">
        <ele>518</ele>
        <time>2017-03-02T12:53:06Z</time>
      </trkpt>
      <trkpt lat="45.76497" lon="4.36169">
        <ele>518</ele>
        <time>2017-03-02T12:53:07Z</time>
      </trkpt>
      <trkpt lat="45.7649" lon="4.36166">
        <ele>516</ele>
        <time>2017-03-02T12:53:12Z</time>
      </trkpt>
      <trkpt lat="45.76488" lon="4.36166">
        <ele>515</ele>
        <time>2017-03-02T12:53:13Z</time>
      </trkpt>
      <trkpt lat="45.76481" lon="4.36161">
        <ele>515</ele>
        <time>2017-03-02T12:53:19Z</time>
      </trkpt>
      <trkpt lat="45.7648" lon="4.36159">
        <ele>515</ele>
        <time>2017-03-02T12:53:20Z</time>
      </trkpt>
      <trkpt lat="45.76473" lon="4.36153">
        <ele>515</ele>
        <time>2017-03-02T12:53:25Z</time>
      </trkpt>
      <trkpt lat="45.76471" lon="4.36152">
        <ele>515</ele>
        <time>2017-03-02T12:53:26Z</time>
      </trkpt>
      <trkpt lat="45.76464" lon="4.36149">
        <ele>516</ele>
        <time>2017-03-02T12:53:31Z</time>
      </trkpt>
      <trkpt lat="45.76463" lon="4.36147">
        <ele>516</ele>
        <time>2017-03-02T12:53:32Z</time>
      </trkpt>
      <trkpt lat="45.76455" lon="4.36142">
        <ele>516</ele>
        <time>2017-03-02T12:53:39Z</time>
      </trkpt>
      <trkpt lat="45.76453" lon="4.36141">
        <ele>516</ele>
        <time>2017-03-02T12:53:40Z</time>
      </trkpt>
      <trkpt lat="45.76445" lon="4.36141">
        <ele>517</ele>
        <time>2017-03-02T12:53:48Z</time>
      </trkpt>
      <trkpt lat="45.76444" lon="4.36142">
        <ele>517</ele>
        <time>2017-03-02T12:53:49Z</time>
      </trkpt>
      <trkpt lat="45.76435" lon="4.36143">
        <ele>518</ele>
        <time>2017-03-02T12:53:56Z</time>
      </trkpt>
      <trkpt lat="45.76434" lon="4.36143">
        <ele>518</ele>
        <time>2017-03-02T12:53:57Z</time>
      </trkpt>
      <trkpt lat="45.76426" lon="4.3614">
        <ele>518</ele>
        <time>2017-03-02T12:54:03Z</time>
      </trkpt>
      <trkpt lat="45.76425" lon="4.3614">
        <ele>518</ele>
        <time>2017-03-02T12:54:04Z</time>
      </trkpt>
      <trkpt lat="45.76417" lon="4.36136">
        <ele>518</ele>
        <time>2017-03-02T12:54:10Z</time>
      </trkpt>
      <trkpt lat="45.76416" lon="4.36135">
        <ele>523</ele>
        <time>2017-03-02T12:54:11Z</time>
      </trkpt>
      <trkpt lat="45.76408" lon="4.36132">
        <ele>523</ele>
        <time>2017-03-02T12:54:17Z</time>
      </trkpt>
      <trkpt lat="45.76406" lon="4.36132">
        <ele>523</ele>
        <time>2017-03-02T12:54:18Z</time>
      </trkpt>
      <trkpt lat="45.76397" lon="4.36134">
        <ele>523</ele>
        <time>2017-03-02T12:54:24Z</time>
      </trkpt>
      <trkpt lat="45.76396" lon="4.36136">
        <ele>523</ele>
        <time>2017-03-02T12:54:25Z</time>
      </trkpt>
      <trkpt lat="45.76389" lon="4.3614">
        <ele>524</ele>
        <time>2017-03-02T12:54:30Z</time>
      </trkpt>
      <trkpt lat="45.76387" lon="4.3614">
        <ele>524</ele>
        <time>2017-03-02T12:54:31Z</time>
      </trkpt>
      <trkpt lat="45.7638" lon="4.36143">
        <ele>524</ele>
        <time>2017-03-02T12:54:36Z</time>
      </trkpt>
      <trkpt lat="45.76378" lon="4.36142">
        <ele>524</ele>
        <time>2017-03-02T12:54:37Z</time>
      </trkpt>
      <trkpt lat="45.7637" lon="4.36138">
        <ele>524</ele>
        <time>2017-03-02T12:54:43Z</time>
      </trkpt>
      <trkpt lat="45.76369" lon="4.36138">
        <ele>524</ele>
        <time>2017-03-02T12:54:44Z</time>
      </trkpt>
      <trkpt lat="45.7636" lon="4.36134">
        <ele>525</ele>
        <time>2017-03-02T12:54:50Z</time>
      </trkpt>
      <trkpt lat="45.76359" lon="4.36133">
        <ele>525</ele>
        <time>2017-03-02T12:54:51Z</time>
      </trkpt>
      <trkpt lat="45.76352" lon="4.36126">
        <ele>524</ele>
        <time>2017-03-02T12:54:56Z</time>
      </trkpt>
      <trkpt lat="45.76351" lon="4.36124">
        <ele>524</ele>
        <time>2017-03-02T12:54:57Z</time>
      </trkpt>
      <trkpt lat="45.76344" lon="4.36116">
        <ele>524</ele>
        <time>2017-03-02T12:55:03Z</time>
      </trkpt>
      <trkpt lat="45.76343" lon="4.36115">
        <ele>524</ele>
        <time>2017-03-02T12:55:04Z</time>
      </trkpt>
      <trkpt lat="45.76337" lon="4.36107">
        <ele>523</ele>
        <time>2017-03-02T12:55:10Z</time>
      </trkpt>
      <trkpt lat="45.76335" lon="4.36105">
        <ele>523</ele>
        <time>2017-03-02T12:55:11Z</time>
      </trkpt>
      <trkpt lat="45.7633" lon="4.36095">
        <ele>527</ele>
        <time>2017-03-02T12:55:18Z</time>
      </trkpt>
      <trkpt lat="45.7633" lon="4.36093">
        <ele>526</ele>
        <time>2017-03-02T12:55:19Z</time>
      </trkpt>
      <trkpt lat="45.76327" lon="4.36082">
        <ele>524</ele>
        <time>2017-03-02T12:55:26Z</time>
      </trkpt>
      <trkpt lat="45.76327" lon="4.3608">
        <ele>524</ele>
        <time>2017-03-02T12:55:27Z</time>
      </trkpt>
      <trkpt lat="45.76325" lon="4.36069">
        <ele>526</ele>
        <time>2017-03-02T12:55:34Z</time>
      </trkpt>
      <trkpt lat="45.76324" lon="4.36068">
        <ele>526</ele>
        <time>2017-03-02T12:55:35Z</time>
      </trkpt>
      <trkpt lat="45.76321" lon="4.36057">
        <ele>528</ele>
        <time>2017-03-02T12:55:42Z</time>
      </trkpt>
      <trkpt lat="45.7632" lon="4.36056">
        <ele>528</ele>
        <time>2017-03-02T12:55:43Z</time>
      </trkpt>
      <trkpt lat="45.76317" lon="4.36045">
        <ele>529</ele>
        <time>2017-03-02T12:55:51Z</time>
      </trkpt>
      <trkpt lat="45.76318" lon="4.36044">
        <ele>529</ele>
        <time>2017-03-02T12:55:52Z</time>
      </trkpt>
      <trkpt lat="45.76316" lon="4.36031">
        <ele>529</ele>
        <time>2017-03-02T12:56:01Z</time>
      </trkpt>
      <trkpt lat="45.76316" lon="4.3603">
        <ele>529</ele>
        <time>2017-03-02T12:56:02Z</time>
      </trkpt>
      <trkpt lat="45.76316" lon="4.36018">
        <ele>529</ele>
        <time>2017-03-02T12:56:09Z</time>
      </trkpt>
      <trkpt lat="45.76316" lon="4.36016">
        <ele>529</ele>
        <time>2017-03-02T12:56:10Z</time>
      </trkpt>
      <trkpt lat="45.76315" lon="4.36004">
        <ele>528</ele>
        <time>2017-03-02T12:56:17Z</time>
      </trkpt>
      <trkpt lat="45.76315" lon="4.36003">
        <ele>528</ele>
        <time>2017-03-02T12:56:18Z</time>
      </trkpt>
      <trkpt lat="45.76313" lon="4.35991">
        <ele>529</ele>
        <time>2017-03-02T12:56:25Z</time>
      </trkpt>
      <trkpt lat="45.76313" lon="4.3599">
        <ele>529</ele>
        <time>2017-03-02T12:56:26Z</time>
      </trkpt>
      <trkpt lat="45.76311" lon="4.35977">
        <ele>529</ele>
        <time>2017-03-02T12:56:33Z</time>
      </trkpt>
      <trkpt lat="45.7631" lon="4.35976">
        <ele>529</ele>
        <time>2017-03-02T12:56:34Z</time>
      </trkpt>
      <trkpt lat="45.76306" lon="4.35967">
        <ele>529</ele>
        <time>2017-03-02T12:56:40Z</time>
      </trkpt>
      <trkpt lat="45.76305" lon="4.35965">
        <ele>529</ele>
        <time>2017-03-02T12:56:41Z</time>
      </trkpt>
      <trkpt lat="45.76302" lon="4.35955">
        <ele>529</ele>
        <time>2017-03-02T12:56:46Z</time>
      </trkpt>
      <trkpt lat="45.76301" lon="4.35953">
        <ele>529</ele>
        <time>2017-03-02T12:56:47Z</time>
      </trkpt>
      <trkpt lat="45.76299" lon="4.35941">
        <ele>529</ele>
        <time>2017-03-02T12:56:53Z</time>
      </trkpt>
      <trkpt lat="45.76298" lon="4.35939">
        <ele>529</ele>
        <time>2017-03-02T12:56:54Z</time>
      </trkpt>
      <trkpt lat="45.76298" lon="4.35927">
        <ele>529</ele>
        <time>2017-03-02T12:57:01Z</time>
      </trkpt>
      <trkpt lat="45.76297" lon="4.35926">
        <ele>529</ele>
        <time>2017-03-02T12:57:02Z</time>
      </trkpt>
      <trkpt lat="45.76296" lon="4.35913">
        <ele>529</ele>
        <time>2017-03-02T12:57:09Z</time>
      </trkpt>
      <trkpt lat="45.76295" lon="4.35911">
        <ele>529</ele>
        <time>2017-03-02T12:57:10Z</time>
      </trkpt>
      <trkpt lat="45.76291" lon="4.359">
        <ele>530</ele>
        <time>2017-03-02T12:57:16Z</time>
      </trkpt>
      <trkpt lat="45.76291" lon="4.35898">
        <ele>530</ele>
        <time>2017-03-02T12:57:17Z</time>
      </trkpt>
      <trkpt lat="45.76287" lon="4.35888">
        <ele>530</ele>
        <time>2017-03-02T12:57:23Z</time>
      </trkpt>
      <trkpt lat="45.76287" lon="4.35886">
        <ele>530</ele>
        <time>2017-03-02T12:57:24Z</time>
      </trkpt>
      <trkpt lat="45.76283" lon="4.35876">
        <ele>530</ele>
        <time>2017-03-02T12:57:30Z</time>
      </trkpt>
      <trkpt lat="45.76283" lon="4.35875">
        <ele>530</ele>
        <time>2017-03-02T12:57:31Z</time>
      </trkpt>
      <trkpt lat="45.76277" lon="4.35865">
        <ele>530</ele>
        <time>2017-03-02T12:57:38Z</time>
      </trkpt>
      <trkpt lat="45.76276" lon="4.35864">
        <ele>531</ele>
        <time>2017-03-02T12:57:39Z</time>
      </trkpt>
      <trkpt lat="45.76269" lon="4.35857">
        <ele>531</ele>
        <time>2017-03-02T12:57:46Z</time>
      </trkpt>
      <trkpt lat="45.76268" lon="4.35856">
        <ele>531</ele>
        <time>2017-03-02T12:57:47Z</time>
      </trkpt>
      <trkpt lat="45.76259" lon="4.35853">
        <ele>532</ele>
        <time>2017-03-02T12:57:55Z</time>
      </trkpt>
      <trkpt lat="45.76258" lon="4.35853">
        <ele>532</ele>
        <time>2017-03-02T12:57:56Z</time>
      </trkpt>
      <trkpt lat="45.76249" lon="4.3585">
        <ele>537</ele>
        <time>2017-03-02T12:58:03Z</time>
      </trkpt>
      <trkpt lat="45.76248" lon="4.35849">
        <ele>537</ele>
        <time>2017-03-02T12:58:04Z</time>
      </trkpt>
      <trkpt lat="45.76241" lon="4.35845">
        <ele>537</ele>
        <time>2017-03-02T12:58:11Z</time>
      </trkpt>
      <trkpt lat="45.7624" lon="4.35844">
        <ele>537</ele>
        <time>2017-03-02T12:58:12Z</time>
      </trkpt>
      <trkpt lat="45.76232" lon="4.35838">
        <ele>537</ele>
        <time>2017-03-02T12:58:21Z</time>
      </trkpt>
      <trkpt lat="45.76231" lon="4.35837">
        <ele>537</ele>
        <time>2017-03-02T12:58:22Z</time>
      </trkpt>
      <trkpt lat="45.76223" lon="4.35831">
        <ele>535</ele>
        <time>2017-03-02T12:58:28Z</time>
      </trkpt>
      <trkpt lat="45.76222" lon="4.35829">
        <ele>535</ele>
        <time>2017-03-02T12:58:29Z</time>
      </trkpt>
      <trkpt lat="45.76215" lon="4.35825">
        <ele>536</ele>
        <time>2017-03-02T12:58:35Z</time>
      </trkpt>
      <trkpt lat="45.76213" lon="4.35824">
        <ele>536</ele>
        <time>2017-03-02T12:58:36Z</time>
      </trkpt>
      <trkpt lat="45.76205" lon="4.35821">
        <ele>536</ele>
        <time>2017-03-02T12:58:42Z</time>
      </trkpt>
      <trkpt lat="45.76204" lon="4.3582">
        <ele>536</ele>
        <time>2017-03-02T12:58:43Z</time>
      </trkpt>
      <trkpt lat="45.76197" lon="4.35815">
        <ele>536</ele>
        <time>2017-03-02T12:58:50Z</time>
      </trkpt>
      <trkpt lat="45.76195" lon="4.35814">
        <ele>536</ele>
        <time>2017-03-02T12:58:51Z</time>
      </trkpt>
      <trkpt lat="45.76188" lon="4.35808">
        <ele>537</ele>
        <time>2017-03-02T12:58:58Z</time>
      </trkpt>
      <trkpt lat="45.76187" lon="4.35808">
        <ele>537</ele>
        <time>2017-03-02T12:58:59Z</time>
      </trkpt>
      <trkpt lat="45.76179" lon="4.35806">
        <ele>537</ele>
        <time>2017-03-02T12:59:04Z</time>
      </trkpt>
      <trkpt lat="45.76178" lon="4.35805">
        <ele>537</ele>
        <time>2017-03-02T12:59:05Z</time>
      </trkpt>
      <trkpt lat="45.7617" lon="4.358">
        <ele>537</ele>
        <time>2017-03-02T12:59:11Z</time>
      </trkpt>
      <trkpt lat="45.76169" lon="4.35799">
        <ele>537</ele>
        <time>2017-03-02T12:59:12Z</time>
      </trkpt>
      <trkpt lat="45.76162" lon="4.35793">
        <ele>541</ele>
        <time>2017-03-02T12:59:18Z</time>
      </trkpt>
      <trkpt lat="45.76161" lon="4.35792">
        <ele>541</ele>
        <time>2017-03-02T12:59:19Z</time>
      </trkpt>
      <trkpt lat="45.76153" lon="4.35788">
        <ele>541</ele>
        <time>2017-03-02T12:59:25Z</time>
      </trkpt>
      <trkpt lat="45.76152" lon="4.35788">
        <ele>541</ele>
        <time>2017-03-02T12:59:26Z</time>
      </trkpt>
      <trkpt lat="45.76144" lon="4.35784">
        <ele>541</ele>
        <time>2017-03-02T12:59:31Z</time>
      </trkpt>
      <trkpt lat="45.76143" lon="4.35783">
        <ele>541</ele>
        <time>2017-03-02T12:59:32Z</time>
      </trkpt>
      <trkpt lat="45.76135" lon="4.35778">
        <ele>541</ele>
        <time>2017-03-02T12:59:38Z</time>
      </trkpt>
      <trkpt lat="45.76134" lon="4.35777">
        <ele>541</ele>
        <time>2017-03-02T12:59:39Z</time>
      </trkpt>
      <trkpt lat="45.76126" lon="4.35773">
        <ele>541</ele>
        <time>2017-03-02T12:59:46Z</time>
      </trkpt>
      <trkpt lat="45.76125" lon="4.35772">
        <ele>541</ele>
        <time>2017-03-02T12:59:47Z</time>
      </trkpt>
      <trkpt lat="45.76119" lon="4.35763">
        <ele>541</ele>
        <time>2017-03-02T12:59:54Z</time>
      </trkpt>
      <trkpt lat="45.76118" lon="4.35762">
        <ele>541</ele>
        <time>2017-03-02T12:59:55Z</time>
      </trkpt>
      <trkpt lat="45.76114" lon="4.35752">
        <ele>541</ele>
        <time>2017-03-02T13:00:03Z</time>
      </trkpt>
      <trkpt lat="45.76113" lon="4.35751">
        <ele>541</ele>
        <time>2017-03-02T13:00:04Z</time>
      </trkpt>
      <trkpt lat="45.76109" lon="4.3574">
        <ele>536</ele>
        <time>2017-03-02T13:00:11Z</time>
      </trkpt>
      <trkpt lat="45.76108" lon="4.35738">
        <ele>536</ele>
        <time>2017-03-02T13:00:12Z</time>
      </trkpt>
      <trkpt lat="45.76104" lon="4.35728">
        <ele>536</ele>
        <time>2017-03-02T13:00:18Z</time>
      </trkpt>
      <trkpt lat="45.76103" lon="4.35726">
        <ele>536</ele>
        <time>2017-03-02T13:00:19Z</time>
      </trkpt>
      <trkpt lat="45.76097" lon="4.35718">
        <ele>536</ele>
        <time>2017-03-02T13:00:25Z</time>
      </trkpt>
      <trkpt lat="45.76096" lon="4.35717">
        <ele>536</ele>
        <time>2017-03-02T13:00:26Z</time>
      </trkpt>
      <trkpt lat="45.76088" lon="4.35714">
        <ele>536</ele>
        <time>2017-03-02T13:00:33Z</time>
      </trkpt>
      <trkpt lat="45.76086" lon="4.35713">
        <ele>536</ele>
        <time>2017-03-02T13:00:34Z</time>
      </trkpt>
      <trkpt lat="45.76078" lon="4.35711">
        <ele>540</ele>
        <time>2017-03-02T13:00:40Z</time>
      </trkpt>
      <trkpt lat="45.76076" lon="4.35711">
        <ele>540</ele>
        <time>2017-03-02T13:00:41Z</time>
      </trkpt>
      <trkpt lat="45.76067" lon="4.35708">
        <ele>540</ele>
        <time>2017-03-02T13:00:47Z</time>
      </trkpt>
      <trkpt lat="45.76066" lon="4.35708">
        <ele>540</ele>
        <time>2017-03-02T13:00:48Z</time>
      </trkpt>
      <trkpt lat="45.76057" lon="4.35705">
        <ele>540</ele>
        <time>2017-03-02T13:00:55Z</time>
      </trkpt>
      <trkpt lat="45.76056" lon="4.35705">
        <ele>540</ele>
        <time>2017-03-02T13:00:56Z</time>
      </trkpt>
      <trkpt lat="45.76048" lon="4.35705">
        <ele>540</ele>
        <time>2017-03-02T13:01:03Z</time>
      </trkpt>
      <trkpt lat="45.76046" lon="4.35705">
        <ele>540</ele>
        <time>2017-03-02T13:01:04Z</time>
      </trkpt>
      <trkpt lat="45.76038" lon="4.35704">
        <ele>540</ele>
        <time>2017-03-02T13:01:10Z</time>
      </trkpt>
      <trkpt lat="45.76036" lon="4.35704">
        <ele>540</ele>
        <time>2017-03-02T13:01:11Z</time>
      </trkpt>
      <trkpt lat="45.76029" lon="4.35701">
        <ele>540</ele>
        <time>2017-03-02T13:01:17Z</time>
      </trkpt>
      <trkpt lat="45.76027" lon="4.35701">
        <ele>540</ele>
        <time>2017-03-02T13:01:18Z</time>
      </trkpt>
      <trkpt lat="45.76019" lon="4.35696">
        <ele>540</ele>
        <time>2017-03-02T13:01:24Z</time>
      </trkpt>
      <trkpt lat="45.76018" lon="4.35696">
        <ele>540</ele>
        <time>2017-03-02T13:01:25Z</time>
      </trkpt>
      <trkpt lat="45.76009" lon="4.35694">
        <ele>540</ele>
        <time>2017-03-02T13:01:31Z</time>
      </trkpt>
      <trkpt lat="45.76008" lon="4.35694">
        <ele>540</ele>
        <time>2017-03-02T13:01:32Z</time>
      </trkpt>
      <trkpt lat="45.76" lon="4.35692">
        <ele>542</ele>
        <time>2017-03-02T13:01:38Z</time>
      </trkpt>
      <trkpt lat="45.75999" lon="4.35691">
        <ele>542</ele>
        <time>2017-03-02T13:01:39Z</time>
      </trkpt>
      <trkpt lat="45.75991" lon="4.35689">
        <ele>542</ele>
        <time>2017-03-02T13:01:45Z</time>
      </trkpt>
      <trkpt lat="45.75989" lon="4.35689">
        <ele>542</ele>
        <time>2017-03-02T13:01:46Z</time>
      </trkpt>
      <trkpt lat="45.75981" lon="4.35691">
        <ele>543</ele>
        <time>2017-03-02T13:01:52Z</time>
      </trkpt>
      <trkpt lat="45.7598" lon="4.35691">
        <ele>543</ele>
        <time>2017-03-02T13:01:53Z</time>
      </trkpt>
      <trkpt lat="45.75972" lon="4.35697">
        <ele>544</ele>
        <time>2017-03-02T13:01:59Z</time>
      </trkpt>
      <trkpt lat="45.75971" lon="4.35697">
        <ele>544</ele>
        <time>2017-03-02T13:02:00Z</time>
      </trkpt>
      <trkpt lat="45.75964" lon="4.35701">
        <ele>545</ele>
        <time>2017-03-02T13:02:06Z</time>
      </trkpt>
      <trkpt lat="45.75962" lon="4.35702">
        <ele>545</ele>
        <time>2017-03-02T13:02:07Z</time>
      </trkpt>
      <trkpt lat="45.75956" lon="4.35708">
        <ele>546</ele>
        <time>2017-03-02T13:02:14Z</time>
      </trkpt>
      <trkpt lat="45.75954" lon="4.35708">
        <ele>546</ele>
        <time>2017-03-02T13:02:15Z</time>
      </trkpt>
      <trkpt lat="45.75946" lon="4.35709">
        <ele>546</ele>
        <time>2017-03-02T13:02:22Z</time>
      </trkpt>
      <trkpt lat="45.75945" lon="4.35709">
        <ele>546</ele>
        <time>2017-03-02T13:02:23Z</time>
      </trkpt>
      <trkpt lat="45.75937" lon="4.35705">
        <ele>546</ele>
        <time>2017-03-02T13:02:29Z</time>
      </trkpt>
      <trkpt lat="45.75936" lon="4.35704">
        <ele>546</ele>
        <time>2017-03-02T13:02:30Z</time>
      </trkpt>
      <trkpt lat="45.75929" lon="4.35697">
        <ele>546</ele>
        <time>2017-03-02T13:02:37Z</time>
      </trkpt>
      <trkpt lat="45.75929" lon="4.35696">
        <ele>546</ele>
        <time>2017-03-02T13:02:38Z</time>
      </trkpt>
      <trkpt lat="45.75922" lon="4.35689">
        <ele>546</ele>
        <time>2017-03-02T13:02:45Z</time>
      </trkpt>
      <trkpt lat="45.7592" lon="4.35689">
        <ele>546</ele>
        <time>2017-03-02T13:02:46Z</time>
      </trkpt>
      <trkpt lat="45.75914" lon="4.35681">
        <ele>547</ele>
        <time>2017-03-02T13:02:52Z</time>
      </trkpt>
      <trkpt lat="45.75913" lon="4.35679">
        <ele>547</ele>
        <time>2017-03-02T13:02:53Z</time>
      </trkpt>
      <trkpt lat="45.75909" lon="4.35671">
        <ele>547</ele>
        <time>2017-03-02T13:02:58Z</time>
      </trkpt>
      <trkpt lat="45.75908" lon="4.35669">
        <ele>547</ele>
        <time>2017-03-02T13:02:59Z</time>
      </trkpt>
      <trkpt lat="45.75902" lon="4.35659">
        <ele>544</ele>
        <time>2017-03-02T13:03:05Z</time>
      </trkpt>
      <trkpt lat="45.75901" lon="4.35658">
        <ele>544</ele>
        <time>2017-03-02T13:03:06Z</time>
      </trkpt>
      <trkpt lat="45.75896" lon="4.35648">
        <ele>544</ele>
        <time>2017-03-02T13:03:12Z</time>
      </trkpt>
      <trkpt lat="45.75895" lon="4.35646">
        <ele>544</ele>
        <time>2017-03-02T13:03:13Z</time>
      </trkpt>
      <trkpt lat="45.75889" lon="4.35638">
        <ele>543</ele>
        <time>2017-03-02T13:03:19Z</time>
      </trkpt>
      <trkpt lat="45.75888" lon="4.35637">
        <ele>543</ele>
        <time>2017-03-02T13:03:20Z</time>
      </trkpt>
      <trkpt lat="45.75884" lon="4.35627">
        <ele>543</ele>
        <time>2017-03-02T13:03:26Z</time>
      </trkpt>
      <trkpt lat="45.75884" lon="4.35625">
        <ele>543</ele>
        <time>2017-03-02T13:03:27Z</time>
      </trkpt>
      <trkpt lat="45.7588" lon="4.35615">
        <ele>543</ele>
        <time>2017-03-02T13:03:33Z</time>
      </trkpt>
      <trkpt lat="45.75879" lon="4.35613">
        <ele>543</ele>
        <time>2017-03-02T13:03:34Z</time>
      </trkpt>
      <trkpt lat="45.75875" lon="4.35601">
        <ele>542</ele>
        <time>2017-03-02T13:03:40Z</time>
      </trkpt>
      <trkpt lat="45.75875" lon="4.35599">
        <ele>542</ele>
        <time>2017-03-02T13:03:41Z</time>
      </trkpt>
      <trkpt lat="45.75872" lon="4.35589">
        <ele>542</ele>
        <time>2017-03-02T13:03:46Z</time>
      </trkpt>
      <trkpt lat="45.75871" lon="4.35587">
        <ele>542</ele>
        <time>2017-03-02T13:03:47Z</time>
      </trkpt>
      <trkpt lat="45.75867" lon="4.35576">
        <ele>541</ele>
        <time>2017-03-02T13:03:53Z</time>
      </trkpt>
      <trkpt lat="45.75866" lon="4.35575">
        <ele>541</ele>
        <time>2017-03-02T13:03:54Z</time>
      </trkpt>
      <trkpt lat="45.75861" lon="4.35565">
        <ele>541</ele>
        <time>2017-03-02T13:04:00Z</time>
      </trkpt>
      <trkpt lat="45.7586" lon="4.35564">
        <ele>541</ele>
        <time>2017-03-02T13:04:01Z</time>
      </trkpt>
      <trkpt lat="45.75855" lon="4.35555">
        <ele>541</ele>
        <time>2017-03-02T13:04:07Z</time>
      </trkpt>
      <trkpt lat="45.75854" lon="4.35554">
        <ele>541</ele>
        <time>2017-03-02T13:04:08Z</time>
      </trkpt>
      <trkpt lat="45.75849" lon="4.35545">
        <ele>541</ele>
        <time>2017-03-02T13:04:14Z</time>
      </trkpt>
      <trkpt lat="45.75848" lon="4.35544">
        <ele>541</ele>
        <time>2017-03-02T13:04:15Z</time>
      </trkpt>
      <trkpt lat="45.75842" lon="4.35537">
        <ele>541</ele>
        <time>2017-03-02T13:04:21Z</time>
      </trkpt>
      <trkpt lat="45.75841" lon="4.35535">
        <ele>541</ele>
        <time>2017-03-02T13:04:22Z</time>
      </trkpt>
      <trkpt lat="45.75834" lon="4.35528">
        <ele>541</ele>
        <time>2017-03-02T13:04:28Z</time>
      </trkpt>
      <trkpt lat="45.75833" lon="4.35526">
        <ele>543</ele>
        <time>2017-03-02T13:04:29Z</time>
      </trkpt>
      <trkpt lat="45.75827" lon="4.35519">
        <ele>543</ele>
        <time>2017-03-02T13:04:35Z</time>
      </trkpt>
      <trkpt lat="45.75826" lon="4.35518">
        <ele>543</ele>
        <time>2017-03-02T13:04:36Z</time>
      </trkpt>
      <trkpt lat="45.7582" lon="4.3551">
        <ele>543</ele>
        <time>2017-03-02T13:04:42Z</time>
      </trkpt>
      <trkpt lat="45.75819" lon="4.35509">
        <ele>543</ele>
        <time>2017-03-02T13:04:43Z</time>
      </trkpt>
      <trkpt lat="45.75812" lon="4.35502">
        <ele>543</ele>
        <time>2017-03-02T13:04:49Z</time>
      </trkpt>
      <trkpt lat="45.75811" lon="4.355">
        <ele>543</ele>
        <time>2017-03-02T13:04:50Z</time>
      </trkpt>
      <trkpt lat="45.75804" lon="4.35493">
        <ele>542</ele>
        <time>2017-03-02T13:04:56Z</time>
      </trkpt>
      <trkpt lat="45.75803" lon="4.35492">
        <ele>542</ele>
        <time>2017-03-02T13:04:57Z</time>
      </trkpt>
      <trkpt lat="45.75796" lon="4.35486">
        <ele>542</ele>
        <time>2017-03-02T13:05:03Z</time>
      </trkpt>
      <trkpt lat="45.75795" lon="4.35485">
        <ele>542</ele>
        <time>2017-03-02T13:05:04Z</time>
      </trkpt>
      <trkpt lat="45.75789" lon="4.35478">
        <ele>542</ele>
        <time>2017-03-02T13:05:10Z</time>
      </trkpt>
      <trkpt lat="45.75787" lon="4.35477">
        <ele>542</ele>
        <time>2017-03-02T13:05:11Z</time>
      </trkpt>
      <trkpt lat="45.75781" lon="4.35471">
        <ele>542</ele>
        <time>2017-03-02T13:05:17Z</time>
      </trkpt>
      <trkpt lat="45.7578" lon="4.3547">
        <ele>542</ele>
        <time>2017-03-02T13:05:18Z</time>
      </trkpt>
      <trkpt lat="45.75774" lon="4.35462">
        <ele>541</ele>
        <time>2017-03-02T13:05:24Z</time>
      </trkpt>
      <trkpt lat="45.75773" lon="4.35461">
        <ele>541</ele>
        <time>2017-03-02T13:05:25Z</time>
      </trkpt>
      <trkpt lat="45.75769" lon="4.3545">
        <ele>541</ele>
        <time>2017-03-02T13:05:32Z</time>
      </trkpt>
      <trkpt lat="45.75768" lon="4.35448">
        <ele>541</ele>
        <time>2017-03-02T13:05:33Z</time>
      </trkpt>
      <trkpt lat="45.75766" lon="4.35438">
        <ele>541</ele>
        <time>2017-03-02T13:05:39Z</time>
      </trkpt>
      <trkpt lat="45.75766" lon="4.35436">
        <ele>541</ele>
        <time>2017-03-02T13:05:40Z</time>
      </trkpt>
      <trkpt lat="45.75764" lon="4.35425">
        <ele>541</ele>
        <time>2017-03-02T13:05:46Z</time>
      </trkpt>
      <trkpt lat="45.75764" lon="4.35423">
        <ele>541</ele>
        <time>2017-03-02T13:05:47Z</time>
      </trkpt>
      <trkpt lat="45.75762" lon="4.35412">
        <ele>540</ele>
        <time>2017-03-02T13:05:53Z</time>
      </trkpt>
      <trkpt lat="45.75762" lon="4.3541">
        <ele>540</ele>
        <time>2017-03-02T13:05:54Z</time>
      </trkpt>
      <trkpt lat="45.7576" lon="4.35398">
        <ele>540</ele>
        <time>2017-03-02T13:06:01Z</time>
      </trkpt>
      <trkpt lat="45.7576" lon="4.35396">
        <ele>540</ele>
        <time>2017-03-02T13:06:02Z</time>
      </trkpt>
      <trkpt lat="45.75758" lon="4.35385">
        <ele>540</ele>
        <time>2017-03-02T13:06:08Z</time>
      </trkpt>
      <trkpt lat="45.75758" lon="4.35383">
        <ele>540</ele>
        <time>2017-03-02T13:06:09Z</time>
      </trkpt>
      <trkpt lat="45.75756" lon="4.35372">
        <ele>540</ele>
        <time>2017-03-02T13:06:15Z</time>
      </trkpt>
      <trkpt lat="45.75755" lon="4.3537">
        <ele>540</ele>
        <time>2017-03-02T13:06:16Z</time>
      </trkpt>
      <trkpt lat="45.75752" lon="4.35359">
        <ele>540</ele>
        <time>2017-03-02T13:06:22Z</time>
      </trkpt>
      <trkpt lat="45.75752" lon="4.35357">
        <ele>540</ele>
        <time>2017-03-02T13:06:23Z</time>
      </trkpt>
      <trkpt lat="45.75751" lon="4.35345">
        <ele>540</ele>
        <time>2017-03-02T13:06:29Z</time>
      </trkpt>
      <trkpt lat="45.7575" lon="4.35343">
        <ele>539</ele>
        <time>2017-03-02T13:06:30Z</time>
      </trkpt>
      <trkpt lat="45.75747" lon="4.35331">
        <ele>539</ele>
        <time>2017-03-02T13:06:36Z</time>
      </trkpt>
      <trkpt lat="45.75747" lon="4.35329">
        <ele>539</ele>
        <time>2017-03-02T13:06:37Z</time>
      </trkpt>
      <trkpt lat="45.75746" lon="4.35317">
        <ele>538</ele>
        <time>2017-03-02T13:06:43Z</time>
      </trkpt>
      <trkpt lat="45.75745" lon="4.35315">
        <ele>537</ele>
        <time>2017-03-02T13:06:44Z</time>
      </trkpt>
      <trkpt lat="45.75742" lon="4.35304">
        <ele>537</ele>
        <time>2017-03-02T13:06:50Z</time>
      </trkpt>
      <trkpt lat="45.75742" lon="4.35303">
        <ele>537</ele>
        <time>2017-03-02T13:06:51Z</time>
      </trkpt>
      <trkpt lat="45.7574" lon="4.3529">
        <ele>536</ele>
        <time>2017-03-02T13:06:58Z</time>
      </trkpt>
      <trkpt lat="45.75739" lon="4.35288">
        <ele>536</ele>
        <time>2017-03-02T13:06:59Z</time>
      </trkpt>
      <trkpt lat="45.75737" lon="4.35277">
        <ele>536</ele>
        <time>2017-03-02T13:07:05Z</time>
      </trkpt>
      <trkpt lat="45.75737" lon="4.35275">
        <ele>536</ele>
        <time>2017-03-02T13:07:06Z</time>
      </trkpt>
      <trkpt lat="45.75734" lon="4.35263">
        <ele>537</ele>
        <time>2017-03-02T13:07:12Z</time>
      </trkpt>
      <trkpt lat="45.75733" lon="4.35261">
        <ele>537</ele>
        <time>2017-03-02T13:07:13Z</time>
      </trkpt>
      <trkpt lat="45.75729" lon="4.35251">
        <ele>536</ele>
        <time>2017-03-02T13:07:19Z</time>
      </trkpt>
      <trkpt lat="45.75728" lon="4.35249">
        <ele>535</ele>
        <time>2017-03-02T13:07:20Z</time>
      </trkpt>
      <trkpt lat="45.75725" lon="4.35238">
        <ele>535</ele>
        <time>2017-03-02T13:07:26Z</time>
      </trkpt>
      <trkpt lat="45.75724" lon="4.35236">
        <ele>534</ele>
        <time>2017-03-02T13:07:27Z</time>
      </trkpt>
      <trkpt lat="45.75717" lon="4.35228">
        <ele>534</ele>
        <time>2017-03-02T13:07:33Z</time>
      </trkpt>
      <trkpt lat="45.75717" lon="4.35226">
        <ele>534</ele>
        <time>2017-03-02T13:07:34Z</time>
      </trkpt>
      <trkpt lat="45.75711" lon="4.35217">
        <ele>533</ele>
        <time>2017-03-02T13:07:40Z</time>
      </trkpt>
      <trkpt lat="45.7571" lon="4.35215">
        <ele>533</ele>
        <time>2017-03-02T13:07:41Z</time>
      </trkpt>
      <trkpt lat="45.75705" lon="4.35207">
        <ele>533</ele>
        <time>2017-03-02T13:07:47Z</time>
      </trkpt>
      <trkpt lat="45.75704" lon="4.35206">
        <ele>532</ele>
        <time>2017-03-02T13:07:48Z</time>
      </trkpt>
      <trkpt lat="45.757" lon="4.35196">
        <ele>532</ele>
        <time>2017-03-02T13:07:54Z</time>
      </trkpt>
      <trkpt lat="45.757" lon="4.35194">
        <ele>532</ele>
        <time>2017-03-02T13:07:55Z</time>
      </trkpt>
      <trkpt lat="45.75697" lon="4.35182">
        <ele>531</ele>
        <time>2017-03-02T13:08:02Z</time>
      </trkpt>
      <trkpt lat="45.75696" lon="4.3518">
        <ele>531</ele>
        <time>2017-03-02T13:08:03Z</time>
      </trkpt>
      <trkpt lat="45.75694" lon="4.35169">
        <ele>531</ele>
        <time>2017-03-02T13:08:09Z</time>
      </trkpt>
      <trkpt lat="45.75694" lon="4.35167">
        <ele>531</ele>
        <time>2017-03-02T13:08:10Z</time>
      </trkpt>
      <trkpt lat="45.75696" lon="4.35156">
        <ele>529</ele>
        <time>2017-03-02T13:08:16Z</time>
      </trkpt>
      <trkpt lat="45.75696" lon="4.35154">
        <ele>529</ele>
        <time>2017-03-02T13:08:17Z</time>
      </trkpt>
      <trkpt lat="45.75699" lon="4.35143">
        <ele>529</ele>
        <time>2017-03-02T13:08:23Z</time>
      </trkpt>
      <trkpt lat="45.757" lon="4.35141">
        <ele>529</ele>
        <time>2017-03-02T13:08:24Z</time>
      </trkpt>
      <trkpt lat="45.757" lon="4.35129">
        <ele>529</ele>
        <time>2017-03-02T13:08:31Z</time>
      </trkpt>
      <trkpt lat="45.75701" lon="4.35127">
        <ele>529</ele>
        <time>2017-03-02T13:08:32Z</time>
      </trkpt>
      <trkpt lat="45.75701" lon="4.35116">
        <ele>529</ele>
        <time>2017-03-02T13:08:39Z</time>
      </trkpt>
      <trkpt lat="45.75702" lon="4.35114">
        <ele>529</ele>
        <time>2017-03-02T13:08:40Z</time>
      </trkpt>
      <trkpt lat="45.75705" lon="4.35104">
        <ele>529</ele>
        <time>2017-03-02T13:08:47Z</time>
      </trkpt>
      <trkpt lat="45.75706" lon="4.35102">
        <ele>529</ele>
        <time>2017-03-02T13:08:48Z</time>
      </trkpt>
      <trkpt lat="45.75711" lon="4.35094">
        <ele>529</ele>
        <time>2017-03-02T13:08:54Z</time>
      </trkpt>
      <trkpt lat="45.75712" lon="4.35092">
        <ele>529</ele>
        <time>2017-03-02T13:08:55Z</time>
      </trkpt>
      <trkpt lat="45.7572" lon="4.35087">
        <ele>529</ele>
        <time>2017-03-02T13:09:03Z</time>
      </trkpt>
      <trkpt lat="45.75721" lon="4.35087">
        <ele>529</ele>
        <time>2017-03-02T13:09:04Z</time>
      </trkpt>
      <trkpt lat="45.75729" lon="4.35088">
        <ele>530</ele>
        <time>2017-03-02T13:09:10Z</time>
      </trkpt>
      <trkpt lat="45.7573" lon="4.35089">
        <ele>530</ele>
        <time>2017-03-02T13:09:11Z</time>
      </trkpt>
      <trkpt lat="45.75738" lon="4.3509">
        <ele>530</ele>
        <time>2017-03-02T13:09:17Z</time>
      </trkpt>
      <trkpt lat="45.75739" lon="4.3509">
        <ele>530</ele>
        <time>2017-03-02T13:09:18Z</time>
      </trkpt>
      <trkpt lat="45.75748" lon="4.35089">
        <ele>531</ele>
        <time>2017-03-02T13:09:24Z</time>
      </trkpt>
      <trkpt lat="45.75749" lon="4.35088">
        <ele>531</ele>
        <time>2017-03-02T13:09:25Z</time>
      </trkpt>
      <trkpt lat="45.75758" lon="4.35088">
        <ele>531</ele>
        <time>2017-03-02T13:09:31Z</time>
      </trkpt>
      <trkpt lat="45.75759" lon="4.35088">
        <ele>531</ele>
        <time>2017-03-02T13:09:32Z</time>
      </trkpt>
      <trkpt lat="45.75767" lon="4.3509">
        <ele>532</ele>
        <time>2017-03-02T13:09:38Z</time>
      </trkpt>
      <trkpt lat="45.75769" lon="4.3509">
        <ele>532</ele>
        <time>2017-03-02T13:09:39Z</time>
      </trkpt>
      <trkpt lat="45.75776" lon="4.35087">
        <ele>531</ele>
        <time>2017-03-02T13:09:44Z</time>
      </trkpt>
      <trkpt lat="45.75778" lon="4.35086">
        <ele>531</ele>
        <time>2017-03-02T13:09:45Z</time>
      </trkpt>
      <trkpt lat="45.75786" lon="4.35082">
        <ele>528</ele>
        <time>2017-03-02T13:09:51Z</time>
      </trkpt>
      <trkpt lat="45.75787" lon="4.35082">
        <ele>528</ele>
        <time>2017-03-02T13:09:52Z</time>
      </trkpt>
      <trkpt lat="45.75795" lon="4.35079">
        <ele>528</ele>
        <time>2017-03-02T13:09:59Z</time>
      </trkpt>
      <trkpt lat="45.75796" lon="4.35078">
        <ele>528</ele>
        <time>2017-03-02T13:10:00Z</time>
      </trkpt>
      <trkpt lat="45.75804" lon="4.35074">
        <ele>527</ele>
        <time>2017-03-02T13:10:06Z</time>
      </trkpt>
      <trkpt lat="45.75805" lon="4.35074">
        <ele>527</ele>
        <time>2017-03-02T13:10:07Z</time>
      </trkpt>
      <trkpt lat="45.75813" lon="4.35073">
        <ele>527</ele>
        <time>2017-03-02T13:10:13Z</time>
      </trkpt>
      <trkpt lat="45.75815" lon="4.35072">
        <ele>527</ele>
        <time>2017-03-02T13:10:14Z</time>
      </trkpt>
      <trkpt lat="45.75823" lon="4.35072">
        <ele>527</ele>
        <time>2017-03-02T13:10:20Z</time>
      </trkpt>
      <trkpt lat="45.75824" lon="4.35071">
        <ele>527</ele>
        <time>2017-03-02T13:10:21Z</time>
      </trkpt>
      <trkpt lat="45.75832" lon="4.35068">
        <ele>527</ele>
        <time>2017-03-02T13:10:27Z</time>
      </trkpt>
      <trkpt lat="45.75834" lon="4.35068">
        <ele>527</ele>
        <time>2017-03-02T13:10:28Z</time>
      </trkpt>
      <trkpt lat="45.75841" lon="4.35069">
        <ele>528</ele>
        <time>2017-03-02T13:10:33Z</time>
      </trkpt>
      <trkpt lat="45.75843" lon="4.35069">
        <ele>528</ele>
        <time>2017-03-02T13:10:34Z</time>
      </trkpt>
      <trkpt lat="45.75851" lon="4.3507">
        <ele>528</ele>
        <time>2017-03-02T13:10:40Z</time>
      </trkpt>
      <trkpt lat="45.75852" lon="4.3507">
        <ele>527</ele>
        <time>2017-03-02T13:10:41Z</time>
      </trkpt>
      <trkpt lat="45.7586" lon="4.35069">
        <ele>528</ele>
        <time>2017-03-02T13:10:47Z</time>
      </trkpt>
      <trkpt lat="45.75861" lon="4.35069">
        <ele>528</ele>
        <time>2017-03-02T13:10:48Z</time>
      </trkpt>
      <trkpt lat="45.75869" lon="4.3507">
        <ele>528</ele>
        <time>2017-03-02T13:10:54Z</time>
      </trkpt>
      <trkpt lat="45.75871" lon="4.35071">
        <ele>528</ele>
        <time>2017-03-02T13:10:55Z</time>
      </trkpt>
      <trkpt lat="45.75879" lon="4.35072">
        <ele>528</ele>
        <time>2017-03-02T13:11:02Z</time>
      </trkpt>
      <trkpt lat="45.7588" lon="4.35073">
        <ele>528</ele>
        <time>2017-03-02T13:11:03Z</time>
      </trkpt>
      <trkpt lat="45.75888" lon="4.35071">
        <ele>528</ele>
        <time>2017-03-02T13:11:10Z</time>
      </trkpt>
      <trkpt lat="45.7589" lon="4.35071">
        <ele>528</ele>
        <time>2017-03-02T13:11:11Z</time>
      </trkpt>
      <trkpt lat="45.75896" lon="4.35066">
        <ele>528</ele>
        <time>2017-03-02T13:11:17Z</time>
      </trkpt>
      <trkpt lat="45.75898" lon="4.35065">
        <ele>528</ele>
        <time>2017-03-02T13:11:18Z</time>
      </trkpt>
      <trkpt lat="45.75906" lon="4.3506">
        <ele>528</ele>
        <time>2017-03-02T13:11:25Z</time>
      </trkpt>
      <trkpt lat="45.75907" lon="4.35059">
        <ele>528</ele>
        <time>2017-03-02T13:11:26Z</time>
      </trkpt>
      <trkpt lat="45.75916" lon="4.35057">
        <ele>528</ele>
        <time>2017-03-02T13:11:33Z</time>
      </trkpt>
      <trkpt lat="45.75917" lon="4.35057">
        <ele>529</ele>
        <time>2017-03-02T13:11:34Z</time>
      </trkpt>
      <trkpt lat="45.75925" lon="4.35056">
        <ele>529</ele>
        <time>2017-03-02T13:11:40Z</time>
      </trkpt>
      <trkpt lat="45.75926" lon="4.35055">
        <ele>529</ele>
        <time>2017-03-02T13:11:41Z</time>
      </trkpt>
      <trkpt lat="45.75935" lon="4.35054">
        <ele>529</ele>
        <time>2017-03-02T13:11:48Z</time>
      </trkpt>
      <trkpt lat="45.75936" lon="4.35053">
        <ele>529</ele>
        <time>2017-03-02T13:11:49Z</time>
      </trkpt>
      <trkpt lat="45.75944" lon="4.35049">
        <ele>529</ele>
        <time>2017-03-02T13:11:56Z</time>
      </trkpt>
      <trkpt lat="45.75945" lon="4.35048">
        <ele>528</ele>
        <time>2017-03-02T13:11:57Z</time>
      </trkpt>
      <trkpt lat="45.75953" lon="4.35046">
        <ele>528</ele>
        <time>2017-03-02T13:12:04Z</time>
      </trkpt>
      <trkpt lat="45.75954" lon="4.35046">
        <ele>528</ele>
        <time>2017-03-02T13:12:05Z</time>
      </trkpt>
      <trkpt lat="45.75961" lon="4.35044">
        <ele>528</ele>
        <time>2017-03-02T13:12:11Z</time>
      </trkpt>
      <trkpt lat="45.75963" lon="4.35043">
        <ele>528</ele>
        <time>2017-03-02T13:12:12Z</time>
      </trkpt>
      <trkpt lat="45.75971" lon="4.35042">
        <ele>528</ele>
        <time>2017-03-02T13:12:18Z</time>
      </trkpt>
      <trkpt lat="45.75972" lon="4.35042">
        <ele>528</ele>
        <time>2017-03-02T13:12:19Z</time>
      </trkpt>
      <trkpt lat="45.75981" lon="4.35038">
        <ele>528</ele>
        <time>2017-03-02T13:12:25Z</time>
      </trkpt>
      <trkpt lat="45.75982" lon="4.35037">
        <ele>528</ele>
        <time>2017-03-02T13:12:26Z</time>
      </trkpt>
      <trkpt lat="45.7599" lon="4.35035">
        <ele>528</ele>
        <time>2017-03-02T13:12:32Z</time>
      </trkpt>
      <trkpt lat="45.75991" lon="4.35035">
        <ele>528</ele>
        <time>2017-03-02T13:12:33Z</time>
      </trkpt>
      <trkpt lat="45.75999" lon="4.35039">
        <ele>528</ele>
        <time>2017-03-02T13:12:39Z</time>
      </trkpt>
      <trkpt lat="45.76" lon="4.3504">
        <ele>528</ele>
        <time>2017-03-02T13:12:40Z</time>
      </trkpt>
      <trkpt lat="45.76008" lon="4.35044">
        <ele>528</ele>
        <time>2017-03-02T13:12:46Z</time>
      </trkpt>
      <trkpt lat="45.76009" lon="4.35045">
        <ele>528</ele>
        <time>2017-03-02T13:12:47Z</time>
      </trkpt>
      <trkpt lat="45.76017" lon="4.35049">
        <ele>528</ele>
        <time>2017-03-02T13:12:53Z</time>
      </trkpt>
      <trkpt lat="45.76019" lon="4.35049">
        <ele>528</ele>
        <time>2017-03-02T13:12:54Z</time>
      </trkpt>
      <trkpt lat="45.76027" lon="4.35051">
        <ele>528</ele>
        <time>2017-03-02T13:13:00Z</time>
      </trkpt>
      <trkpt lat="45.76028" lon="4.35052">
        <ele>528</ele>
        <time>2017-03-02T13:13:01Z</time>
      </trkpt>
      <trkpt lat="45.76036" lon="4.35055">
        <ele>528</ele>
        <time>2017-03-02T13:13:07Z</time>
      </trkpt>
      <trkpt lat="45.76037" lon="4.35055">
        <ele>528</ele>
        <time>2017-03-02T13:13:08Z</time>
      </trkpt>
      <trkpt lat="45.76044" lon="4.35059">
        <ele>528</ele>
        <time>2017-03-02T13:13:14Z</time>
      </trkpt>
      <trkpt lat="45.76045" lon="4.3506">
        <ele>528</ele>
        <time>2017-03-02T13:13:15Z</time>
      </trkpt>
      <trkpt lat="45.76053" lon="4.35066">
        <ele>529</ele>
        <time>2017-03-02T13:13:21Z</time>
      </trkpt>
      <trkpt lat="45.76054" lon="4.35067">
        <ele>529</ele>
        <time>2017-03-02T13:13:22Z</time>
      </trkpt>
      <trkpt lat="45.76062" lon="4.3507">
        <ele>529</ele>
        <time>2017-03-02T13:13:28Z</time>
      </trkpt>
      <trkpt lat="45.76063" lon="4.35071">
        <ele>529</ele>
        <time>2017-03-02T13:13:29Z</time>
      </trkpt>
      <trkpt lat="45.76071" lon="4.35072">
        <ele>529</ele>
        <time>2017-03-02T13:13:35Z</time>
      </trkpt>
      <trkpt lat="45.76072" lon="4.35073">
        <ele>529</ele>
        <time>2017-03-02T13:13:36Z</time>
      </trkpt>
      <trkpt lat="45.7608" lon="4.35077">
        <ele>530</ele>
        <time>2017-03-02T13:13:42Z</time>
      </trkpt>
      <trkpt lat="45.76082" lon="4.35077">
        <ele>530</ele>
        <time>2017-03-02T13:13:43Z</time>
      </trkpt>
      <trkpt lat="45.76089" lon="4.35082">
        <ele>529</ele>
        <time>2017-03-02T13:13:50Z</time>
      </trkpt>
      <trkpt lat="45.76091" lon="4.35082">
        <ele>528</ele>
        <time>2017-03-02T13:13:51Z</time>
      </trkpt>
      <trkpt lat="45.76099" lon="4.35085">
        <ele>528</ele>
        <time>2017-03-02T13:13:58Z</time>
      </trkpt>
      <trkpt lat="45.761" lon="4.35085">
        <ele>528</ele>
        <time>2017-03-02T13:13:59Z</time>
      </trkpt>
      <trkpt lat="45.76108" lon="4.35084">
        <ele>527</ele>
        <time>2017-03-02T13:14:07Z</time>
      </trkpt>
      <trkpt lat="45.76109" lon="4.35084">
        <ele>527</ele>
        <time>2017-03-02T13:14:08Z</time>
      </trkpt>
      <trkpt lat="45.76118" lon="4.35082">
        <ele>523</ele>
        <time>2017-03-02T13:14:15Z</time>
      </trkpt>
      <trkpt lat="45.76119" lon="4.35082">
        <ele>523</ele>
        <time>2017-03-02T13:14:16Z</time>
      </trkpt>
      <trkpt lat="45.76127" lon="4.35081">
        <ele>522</ele>
        <time>2017-03-02T13:14:22Z</time>
      </trkpt>
      <trkpt lat="45.76129" lon="4.35081">
        <ele>521</ele>
        <time>2017-03-02T13:14:23Z</time>
      </trkpt>
      <trkpt lat="45.76136" lon="4.35077">
        <ele>521</ele>
        <time>2017-03-02T13:14:29Z</time>
      </trkpt>
      <trkpt lat="45.76137" lon="4.35077">
        <ele>520</ele>
        <time>2017-03-02T13:14:30Z</time>
      </trkpt>
      <trkpt lat="45.76146" lon="4.35074">
        <ele>520</ele>
        <time>2017-03-02T13:14:37Z</time>
      </trkpt>
      <trkpt lat="45.76147" lon="4.35074">
        <ele>520</ele>
        <time>2017-03-02T13:14:38Z</time>
      </trkpt>
      <trkpt lat="45.76155" lon="4.35069">
        <ele>519</ele>
        <time>2017-03-02T13:14:45Z</time>
      </trkpt>
      <trkpt lat="45.76156" lon="4.35068">
        <ele>519</ele>
        <time>2017-03-02T13:14:46Z</time>
      </trkpt>
      <trkpt lat="45.76163" lon="4.35063">
        <ele>519</ele>
        <time>2017-03-02T13:14:53Z</time>
      </trkpt>
      <trkpt lat="45.76164" lon="4.35063">
        <ele>519</ele>
        <time>2017-03-02T13:14:54Z</time>
      </trkpt>
      <trkpt lat="45.76171" lon="4.35058">
        <ele>512</ele>
        <time>2017-03-02T13:15:01Z</time>
      </trkpt>
      <trkpt lat="45.76172" lon="4.35057">
        <ele>512</ele>
        <time>2017-03-02T13:15:02Z</time>
      </trkpt>
      <trkpt lat="45.76179" lon="4.35051">
        <ele>511</ele>
        <time>2017-03-02T13:15:09Z</time>
      </trkpt>
      <trkpt lat="45.7618" lon="4.3505">
        <ele>511</ele>
        <time>2017-03-02T13:15:10Z</time>
      </trkpt>
      <trkpt lat="45.76189" lon="4.35049">
        <ele>510</ele>
        <time>2017-03-02T13:15:16Z</time>
      </trkpt>
      <trkpt lat="45.76191" lon="4.35049">
        <ele>510</ele>
        <time>2017-03-02T13:15:17Z</time>
      </trkpt>
      <trkpt lat="45.76198" lon="4.35048">
        <ele>509</ele>
        <time>2017-03-02T13:15:22Z</time>
      </trkpt>
      <trkpt lat="45.762" lon="4.35047">
        <ele>509</ele>
        <time>2017-03-02T13:15:23Z</time>
      </trkpt>
      <trkpt lat="45.76207" lon="4.35045">
        <ele>509</ele>
        <time>2017-03-02T13:15:28Z</time>
      </trkpt>
      <trkpt lat="45.76209" lon="4.35045">
        <ele>509</ele>
        <time>2017-03-02T13:15:29Z</time>
      </trkpt>
      <trkpt lat="45.76217" lon="4.35045">
        <ele>508</ele>
        <time>2017-03-02T13:15:35Z</time>
      </trkpt>
      <trkpt lat="45.76219" lon="4.35045">
        <ele>508</ele>
        <time>2017-03-02T13:15:36Z</time>
      </trkpt>
      <trkpt lat="45.76227" lon="4.35045">
        <ele>507</ele>
        <time>2017-03-02T13:15:42Z</time>
      </trkpt>
      <trkpt lat="45.76229" lon="4.35045">
        <ele>507</ele>
        <time>2017-03-02T13:15:43Z</time>
      </trkpt>
      <trkpt lat="45.76237" lon="4.35044">
        <ele>507</ele>
        <time>2017-03-02T13:15:49Z</time>
      </trkpt>
      <trkpt lat="45.76238" lon="4.35044">
        <ele>507</ele>
        <time>2017-03-02T13:15:50Z</time>
      </trkpt>
      <trkpt lat="45.76247" lon="4.35046">
        <ele>507</ele>
        <time>2017-03-02T13:15:57Z</time>
      </trkpt>
      <trkpt lat="45.76248" lon="4.35045">
        <ele>507</ele>
        <time>2017-03-02T13:15:58Z</time>
      </trkpt>
      <trkpt lat="45.76257" lon="4.35046">
        <ele>501</ele>
        <time>2017-03-02T13:16:05Z</time>
      </trkpt>
      <trkpt lat="45.76258" lon="4.35047">
        <ele>501</ele>
        <time>2017-03-02T13:16:06Z</time>
      </trkpt>
      <trkpt lat="45.76263" lon="4.35055">
        <ele>501</ele>
        <time>2017-03-02T13:16:12Z</time>
      </trkpt>
      <trkpt lat="45.76265" lon="4.35057">
        <ele>501</ele>
        <time>2017-03-02T13:16:13Z</time>
      </trkpt>
      <trkpt lat="45.76271" lon="4.35064">
        <ele>502</ele>
        <time>2017-03-02T13:16:20Z</time>
      </trkpt>
      <trkpt lat="45.76272" lon="4.35065">
        <ele>502</ele>
        <time>2017-03-02T13:16:21Z</time>
      </trkpt>
      <trkpt lat="45.76279" lon="4.35073">
        <ele>501</ele>
        <time>2017-03-02T13:16:28Z</time>
      </trkpt>
      <trkpt lat="45.7628" lon="4.35074">
        <ele>501</ele>
        <time>2017-03-02T13:16:29Z</time>
      </trkpt>
      <trkpt lat="45.76288" lon="4.3508">
        <ele>501</ele>
        <time>2017-03-02T13:16:35Z</time>
      </trkpt>
      <trkpt lat="45.76289" lon="4.35081">
        <ele>501</ele>
        <time>2017-03-02T13:16:36Z</time>
      </trkpt>
      <trkpt lat="45.76294" lon="4.35089">
        <ele>502</ele>
        <time>2017-03-02T13:16:42Z</time>
      </trkpt>
      <trkpt lat="45.76295" lon="4.35091">
        <ele>502</ele>
        <time>2017-03-02T13:16:43Z</time>
      </trkpt>
      <trkpt lat="45.76301" lon="4.35098">
        <ele>501</ele>
        <time>2017-03-02T13:16:49Z</time>
      </trkpt>
      <trkpt lat="45.76302" lon="4.35099">
        <ele>501</ele>
        <time>2017-03-02T13:16:50Z</time>
      </trkpt>
      <trkpt lat="45.76309" lon="4.35107">
        <ele>501</ele>
        <time>2017-03-02T13:16:56Z</time>
      </trkpt>
      <trkpt lat="45.7631" lon="4.35109">
        <ele>501</ele>
        <time>2017-03-02T13:16:57Z</time>
      </trkpt>
      <trkpt lat="45.76319" lon="4.35109">
        <ele>501</ele>
        <time>2017-03-02T13:17:04Z</time>
      </trkpt>
      <trkpt lat="45.7632" lon="4.35108">
        <ele>501</ele>
        <time>2017-03-02T13:17:05Z</time>
      </trkpt>
      <trkpt lat="45.76324" lon="4.35098">
        <ele>500</ele>
        <time>2017-03-02T13:17:10Z</time>
      </trkpt>
      <trkpt lat="45.76325" lon="4.35096">
        <ele>500</ele>
        <time>2017-03-02T13:17:11Z</time>
      </trkpt>
      <trkpt lat="45.76329" lon="4.35086">
        <ele>499</ele>
        <time>2017-03-02T13:17:18Z</time>
      </trkpt>
      <trkpt lat="45.76329" lon="4.35084">
        <ele>499</ele>
        <time>2017-03-02T13:17:19Z</time>
      </trkpt>
      <trkpt lat="45.76334" lon="4.35074">
        <ele>495</ele>
        <time>2017-03-02T13:17:26Z</time>
      </trkpt>
      <trkpt lat="45.76335" lon="4.35072">
        <ele>495</ele>
        <time>2017-03-02T13:17:27Z</time>
      </trkpt>
      <trkpt lat="45.7634" lon="4.35063">
        <ele>492</ele>
        <time>2017-03-02T13:17:32Z</time>
      </trkpt>
      <trkpt lat="45.76341" lon="4.35061">
        <ele>492</ele>
        <time>2017-03-02T13:17:33Z</time>
      </trkpt>
      <trkpt lat="45.76345" lon="4.35051">
        <ele>490</ele>
        <time>2017-03-02T13:17:39Z</time>
      </trkpt>
      <trkpt lat="45.76346" lon="4.35049">
        <ele>490</ele>
        <time>2017-03-02T13:17:40Z</time>
      </trkpt>
      <trkpt lat="45.76351" lon="4.35041">
        <ele>489</ele>
        <time>2017-03-02T13:17:45Z</time>
      </trkpt>
      <trkpt lat="45.76352" lon="4.35039">
        <ele>489</ele>
        <time>2017-03-02T13:17:46Z</time>
      </trkpt>
      <trkpt lat="45.76357" lon="4.35029">
        <ele>488</ele>
        <time>2017-03-02T13:17:52Z</time>
      </trkpt>
      <trkpt lat="45.76358" lon="4.35027">
        <ele>488</ele>
        <time>2017-03-02T13:17:53Z</time>
      </trkpt>
      <trkpt lat="45.76361" lon="4.35016">
        <ele>488</ele>
        <time>2017-03-02T13:18:07Z</time>
      </trkpt>
      <trkpt lat="45.76362" lon="4.35014">
        <ele>488</ele>
        <time>2017-03-02T13:18:08Z</time>
      </trkpt>
      <trkpt lat="45.76365" lon="4.35003">
        <ele>488</ele>
        <time>2017-03-02T13:18:16Z</time>
      </trkpt>
      <trkpt lat="45.76366" lon="4.35002">
        <ele>488</ele>
        <time>2017-03-02T13:18:17Z</time>
      </trkpt>
      <trkpt lat="45.76368" lon="4.3499">
        <ele>484</ele>
        <time>2017-03-02T13:18:26Z</time>
      </trkpt>
      <trkpt lat="45.76368" lon="4.34989">
        <ele>484</ele>
        <time>2017-03-02T13:18:27Z</time>
      </trkpt>
      <trkpt lat="45.76373" lon="4.34978">
        <ele>483</ele>
        <time>2017-03-02T13:18:34Z</time>
      </trkpt>
      <trkpt lat="45.76374" lon="4.34977">
        <ele>483</ele>
        <time>2017-03-02T13:18:35Z</time>
      </trkpt>
      <trkpt lat="45.76378" lon="4.34966">
        <ele>483</ele>
        <time>2017-03-02T13:18:42Z</time>
      </trkpt>
      <trkpt lat="45.76378" lon="4.34965">
        <ele>483</ele>
        <time>2017-03-02T13:18:43Z</time>
      </trkpt>
      <trkpt lat="45.76382" lon="4.34954">
        <ele>482</ele>
        <time>2017-03-02T13:19:45Z</time>
      </trkpt>
      <trkpt lat="45.76382" lon="4.34952">
        <ele>482</ele>
        <time>2017-03-02T13:19:46Z</time>
      </trkpt>
      <trkpt lat="45.76382" lon="4.34941">
        <ele>481</ele>
        <time>2017-03-02T13:19:54Z</time>
      </trkpt>
      <trkpt lat="45.76382" lon="4.34939">
        <ele>481</ele>
        <time>2017-03-02T13:19:55Z</time>
      </trkpt>
      <trkpt lat="45.76385" lon="4.34928">
        <ele>481</ele>
        <time>2017-03-02T13:20:04Z</time>
      </trkpt>
      <trkpt lat="45.76386" lon="4.34928">
        <ele>481</ele>
        <time>2017-03-02T13:20:05Z</time>
      </trkpt>
      <trkpt lat="45.76394" lon="4.34931">
        <ele>480</ele>
        <time>2017-03-02T13:20:12Z</time>
      </trkpt>
      <trkpt lat="45.76395" lon="4.34932">
        <ele>480</ele>
        <time>2017-03-02T13:20:13Z</time>
      </trkpt>
      <trkpt lat="45.76401" lon="4.3494">
        <ele>480</ele>
        <time>2017-03-02T13:20:19Z</time>
      </trkpt>
      <trkpt lat="45.76402" lon="4.34941">
        <ele>480</ele>
        <time>2017-03-02T13:20:20Z</time>
      </trkpt>
      <trkpt lat="45.76409" lon="4.34946">
        <ele>480</ele>
        <time>2017-03-02T13:20:26Z</time>
      </trkpt>
      <trkpt lat="45.7641" lon="4.34947">
        <ele>480</ele>
        <time>2017-03-02T13:20:27Z</time>
      </trkpt>
      <trkpt lat="45.76417" lon="4.34952">
        <ele>477</ele>
        <time>2017-03-02T13:20:33Z</time>
      </trkpt>
      <trkpt lat="45.76418" lon="4.34953">
        <ele>477</ele>
        <time>2017-03-02T13:20:34Z</time>
      </trkpt>
      <trkpt lat="45.76425" lon="4.3496">
        <ele>477</ele>
        <time>2017-03-02T13:20:41Z</time>
      </trkpt>
      <trkpt lat="45.76425" lon="4.34961">
        <ele>477</ele>
        <time>2017-03-02T13:20:42Z</time>
      </trkpt>
      <trkpt lat="45.76434" lon="4.34965">
        <ele>477</ele>
        <time>2017-03-02T13:20:50Z</time>
      </trkpt>
      <trkpt lat="45.76435" lon="4.34965">
        <ele>477</ele>
        <time>2017-03-02T13:20:51Z</time>
      </trkpt>
      <trkpt lat="45.76443" lon="4.34969">
        <ele>477</ele>
        <time>2017-03-02T13:20:57Z</time>
      </trkpt>
      <trkpt lat="45.76444" lon="4.3497">
        <ele>477</ele>
        <time>2017-03-02T13:20:58Z</time>
      </trkpt>
      <trkpt lat="45.76453" lon="4.34976">
        <ele>477</ele>
        <time>2017-03-02T13:21:04Z</time>
      </trkpt>
      <trkpt lat="45.76454" lon="4.34977">
        <ele>477</ele>
        <time>2017-03-02T13:21:05Z</time>
      </trkpt>
      <trkpt lat="45.7646" lon="4.34985">
        <ele>477</ele>
        <time>2017-03-02T13:21:13Z</time>
      </trkpt>
      <trkpt lat="45.7646" lon="4.34986">
        <ele>477</ele>
        <time>2017-03-02T13:21:14Z</time>
      </trkpt>
      <trkpt lat="45.76465" lon="4.34996">
        <ele>477</ele>
        <time>2017-03-02T13:21:23Z</time>
      </trkpt>
      <trkpt lat="45.76465" lon="4.34998">
        <ele>477</ele>
        <time>2017-03-02T13:21:24Z</time>
      </trkpt>
      <trkpt lat="45.76467" lon="4.3501">
        <ele>477</ele>
        <time>2017-03-02T13:21:31Z</time>
      </trkpt>
      <trkpt lat="45.76467" lon="4.35012">
        <ele>477</ele>
        <time>2017-03-02T13:21:32Z</time>
      </trkpt>
      <trkpt lat="45.76469" lon="4.35023">
        <ele>477</ele>
        <time>2017-03-02T13:21:38Z</time>
      </trkpt>
      <trkpt lat="45.76469" lon="4.35025">
        <ele>477</ele>
        <time>2017-03-02T13:21:39Z</time>
      </trkpt>
      <trkpt lat="45.76471" lon="4.35037">
        <ele>477</ele>
        <time>2017-03-02T13:21:45Z</time>
      </trkpt>
      <trkpt lat="45.76471" lon="4.35038">
        <ele>477</ele>
        <time>2017-03-02T13:21:46Z</time>
      </trkpt>
      <trkpt lat="45.76474" lon="4.3505">
        <ele>477</ele>
        <time>2017-03-02T13:21:53Z</time>
      </trkpt>
      <trkpt lat="45.76474" lon="4.35052">
        <ele>477</ele>
        <time>2017-03-02T13:21:54Z</time>
      </trkpt>
      <trkpt lat="45.76476" lon="4.35064">
        <ele>477</ele>
        <time>2017-03-02T13:22:01Z</time>
      </trkpt>
      <trkpt lat="45.76476" lon="4.35066">
        <ele>477</ele>
        <time>2017-03-02T13:22:02Z</time>
      </trkpt>
      <trkpt lat="45.76479" lon="4.35077">
        <ele>476</ele>
        <time>2017-03-02T13:22:08Z</time>
      </trkpt>
      <trkpt lat="45.7648" lon="4.35078">
        <ele>476</ele>
        <time>2017-03-02T13:22:09Z</time>
      </trkpt>
      <trkpt lat="45.76484" lon="4.35089">
        <ele>476</ele>
        <time>2017-03-02T13:22:15Z</time>
      </trkpt>
      <trkpt lat="45.76484" lon="4.35091">
        <ele>476</ele>
        <time>2017-03-02T13:22:16Z</time>
      </trkpt>
      <trkpt lat="45.76487" lon="4.35103">
        <ele>477</ele>
        <time>2017-03-02T13:22:22Z</time>
      </trkpt>
      <trkpt lat="45.76487" lon="4.35105">
        <ele>477</ele>
        <time>2017-03-02T13:22:23Z</time>
      </trkpt>
      <trkpt lat="45.76492" lon="4.35116">
        <ele>477</ele>
        <time>2017-03-02T13:22:29Z</time>
      </trkpt>
      <trkpt lat="45.76492" lon="4.35118">
        <ele>477</ele>
        <time>2017-03-02T13:22:30Z</time>
      </trkpt>
      <trkpt lat="45.76496" lon="4.35129">
        <ele>477</ele>
        <time>2017-03-02T13:22:36Z</time>
      </trkpt>
      <trkpt lat="45.76496" lon="4.35131">
        <ele>477</ele>
        <time>2017-03-02T13:22:37Z</time>
      </trkpt>
      <trkpt lat="45.76498" lon="4.35142">
        <ele>478</ele>
        <time>2017-03-02T13:22:43Z</time>
      </trkpt>
      <trkpt lat="45.76499" lon="4.35143">
        <ele>478</ele>
        <time>2017-03-02T13:22:44Z</time>
      </trkpt>
      <trkpt lat="45.76502" lon="4.35154">
        <ele>479</ele>
        <time>2017-03-02T13:22:51Z</time>
      </trkpt>
      <trkpt lat="45.76502" lon="4.35155">
        <ele>479</ele>
        <time>2017-03-02T13:22:52Z</time>
      </trkpt>
      <trkpt lat="45.76506" lon="4.35166">
        <ele>479</ele>
        <time>2017-03-02T13:22:59Z</time>
      </trkpt>
      <trkpt lat="45.76507" lon="4.35167">
        <ele>480</ele>
        <time>2017-03-02T13:23:00Z</time>
      </trkpt>
      <trkpt lat="45.76512" lon="4.35177">
        <ele>480</ele>
        <time>2017-03-02T13:23:06Z</time>
      </trkpt>
      <trkpt lat="45.76513" lon="4.35179">
        <ele>480</ele>
        <time>2017-03-02T13:23:07Z</time>
      </trkpt>
      <trkpt lat="45.76518" lon="4.35188">
        <ele>481</ele>
        <time>2017-03-02T13:23:14Z</time>
      </trkpt>
      <trkpt lat="45.76518" lon="4.35189">
        <ele>481</ele>
        <time>2017-03-02T13:23:15Z</time>
      </trkpt>
      <trkpt lat="45.76522" lon="4.352">
        <ele>481</ele>
        <time>2017-03-02T13:23:22Z</time>
      </trkpt>
      <trkpt lat="45.76523" lon="4.35202">
        <ele>481</ele>
        <time>2017-03-02T13:23:23Z</time>
      </trkpt>
      <trkpt lat="45.76526" lon="4.35213">
        <ele>482</ele>
        <time>2017-03-02T13:23:29Z</time>
      </trkpt>
      <trkpt lat="45.76526" lon="4.35215">
        <ele>482</ele>
        <time>2017-03-02T13:23:30Z</time>
      </trkpt>
      <trkpt lat="45.76529" lon="4.35227">
        <ele>482</ele>
        <time>2017-03-02T13:23:36Z</time>
      </trkpt>
      <trkpt lat="45.7653" lon="4.35228">
        <ele>482</ele>
        <time>2017-03-02T13:23:37Z</time>
      </trkpt>
      <trkpt lat="45.76533" lon="4.35239">
        <ele>482</ele>
        <time>2017-03-02T13:23:43Z</time>
      </trkpt>
      <trkpt lat="45.76534" lon="4.35241">
        <ele>482</ele>
        <time>2017-03-02T13:23:44Z</time>
      </trkpt>
      <trkpt lat="45.76538" lon="4.35252">
        <ele>485</ele>
        <time>2017-03-02T13:23:52Z</time>
      </trkpt>
      <trkpt lat="45.76538" lon="4.35253">
        <ele>485</ele>
        <time>2017-03-02T13:23:53Z</time>
      </trkpt>
      <trkpt lat="45.76542" lon="4.35264">
        <ele>485</ele>
        <time>2017-03-02T13:24:00Z</time>
      </trkpt>
      <trkpt lat="45.76542" lon="4.35265">
        <ele>485</ele>
        <time>2017-03-02T13:24:01Z</time>
      </trkpt>
      <trkpt lat="45.76547" lon="4.35274">
        <ele>486</ele>
        <time>2017-03-02T13:24:07Z</time>
      </trkpt>
      <trkpt lat="45.76548" lon="4.35276">
        <ele>486</ele>
        <time>2017-03-02T13:24:08Z</time>
      </trkpt>
      <trkpt lat="45.76552" lon="4.35285">
        <ele>487</ele>
        <time>2017-03-02T13:24:14Z</time>
      </trkpt>
      <trkpt lat="45.76553" lon="4.35287">
        <ele>487</ele>
        <time>2017-03-02T13:24:15Z</time>
      </trkpt>
      <trkpt lat="45.76559" lon="4.35295">
        <ele>487</ele>
        <time>2017-03-02T13:26:59Z</time>
      </trkpt>
      <trkpt lat="45.7656" lon="4.35296">
        <ele>487</ele>
        <time>2017-03-02T13:27:00Z</time>
      </trkpt>
      <trkpt lat="45.76565" lon="4.35306">
        <ele>488</ele>
        <time>2017-03-02T13:27:09Z</time>
      </trkpt>
      <trkpt lat="45.76566" lon="4.35307">
        <ele>488</ele>
        <time>2017-03-02T13:27:10Z</time>
      </trkpt>
      <trkpt lat="45.76571" lon="4.35316">
        <ele>490</ele>
        <time>2017-03-02T13:27:19Z</time>
      </trkpt>
      <trkpt lat="45.76572" lon="4.35317">
        <ele>490</ele>
        <time>2017-03-02T13:27:20Z</time>
      </trkpt>
      <trkpt lat="45.76577" lon="4.35327">
        <ele>492</ele>
        <time>2017-03-02T13:27:28Z</time>
      </trkpt>
      <trkpt lat="45.76578" lon="4.35328">
        <ele>492</ele>
        <time>2017-03-02T13:27:29Z</time>
      </trkpt>
      <trkpt lat="45.76583" lon="4.35337">
        <ele>494</ele>
        <time>2017-03-02T13:27:37Z</time>
      </trkpt>
      <trkpt lat="45.76583" lon="4.35338">
        <ele>495</ele>
        <time>2017-03-02T13:27:38Z</time>
      </trkpt>
      <trkpt lat="45.76588" lon="4.35348">
        <ele>498</ele>
        <time>2017-03-02T13:27:46Z</time>
      </trkpt>
      <trkpt lat="45.76589" lon="4.35349">
        <ele>498</ele>
        <time>2017-03-02T13:27:47Z</time>
      </trkpt>
      <trkpt lat="45.76594" lon="4.35359">
        <ele>499</ele>
        <time>2017-03-02T13:27:55Z</time>
      </trkpt>
      <trkpt lat="45.76594" lon="4.3536">
        <ele>499</ele>
        <time>2017-03-02T13:27:56Z</time>
      </trkpt>
      <trkpt lat="45.76599" lon="4.3537">
        <ele>500</ele>
        <time>2017-03-02T13:28:04Z</time>
      </trkpt>
      <trkpt lat="45.766" lon="4.35371">
        <ele>500</ele>
        <time>2017-03-02T13:28:05Z</time>
      </trkpt>
      <trkpt lat="45.76605" lon="4.35381">
        <ele>501</ele>
        <time>2017-03-02T13:28:14Z</time>
      </trkpt>
      <trkpt lat="45.76606" lon="4.35382">
        <ele>501</ele>
        <time>2017-03-02T13:28:15Z</time>
      </trkpt>
      <trkpt lat="45.76611" lon="4.35392">
        <ele>502</ele>
        <time>2017-03-02T13:28:24Z</time>
      </trkpt>
      <trkpt lat="45.76612" lon="4.35393">
        <ele>502</ele>
        <time>2017-03-02T13:28:25Z</time>
      </trkpt>
      <trkpt lat="45.76617" lon="4.35404">
        <ele>502</ele>
        <time>2017-03-02T13:28:34Z</time>
      </trkpt>
      <trkpt lat="45.76617" lon="4.35405">
        <ele>503</ele>
        <time>2017-03-02T13:28:35Z</time>
      </trkpt>
      <trkpt lat="45.76623" lon="4.35415">
        <ele>503</ele>
        <time>2017-03-02T13:28:44Z</time>
      </trkpt>
      <trkpt lat="45.76623" lon="4.35416">
        <ele>503</ele>
        <time>2017-03-02T13:28:45Z</time>
      </trkpt>
      <trkpt lat="45.76628" lon="4.35427">
        <ele>508</ele>
        <time>2017-03-02T13:28:55Z</time>
      </trkpt>
      <trkpt lat="45.76628" lon="4.35428">
        <ele>508</ele>
        <time>2017-03-02T13:28:56Z</time>
      </trkpt>
      <trkpt lat="45.76634" lon="4.35437">
        <ele>509</ele>
        <time>2017-03-02T13:29:06Z</time>
      </trkpt>
      <trkpt lat="45.76635" lon="4.35438">
        <ele>509</ele>
        <time>2017-03-02T13:29:07Z</time>
      </trkpt>
      <trkpt lat="45.7664" lon="4.35448">
        <ele>509</ele>
        <time>2017-03-02T13:29:17Z</time>
      </trkpt>
      <trkpt lat="45.76641" lon="4.35449">
        <ele>509</ele>
        <time>2017-03-02T13:29:18Z</time>
      </trkpt>
      <trkpt lat="45.76646" lon="4.35458">
        <ele>510</ele>
        <time>2017-03-02T13:29:27Z</time>
      </trkpt>
      <trkpt lat="45.76647" lon="4.35459">
        <ele>510</ele>
        <time>2017-03-02T13:29:28Z</time>
      </trkpt>
      <trkpt lat="45.76652" lon="4.35468">
        <ele>511</ele>
        <time>2017-03-02T13:29:37Z</time>
      </trkpt>
      <trkpt lat="45.76653" lon="4.35469">
        <ele>511</ele>
        <time>2017-03-02T13:29:38Z</time>
      </trkpt>
      <trkpt lat="45.76658" lon="4.35479">
        <ele>512</ele>
        <time>2017-03-02T13:29:49Z</time>
      </trkpt>
      <trkpt lat="45.76658" lon="4.3548">
        <ele>512</ele>
        <time>2017-03-02T13:29:50Z</time>
      </trkpt>
      <trkpt lat="45.76666" lon="4.35476">
        <ele>512</ele>
        <time>2017-03-02T13:40:35Z</time>
      </trkpt>
      <trkpt lat="45.76667" lon="4.35475">
        <ele>515</ele>
        <time>2017-03-02T13:40:36Z</time>
      </trkpt>
      <trkpt lat="45.76673" lon="4.35467">
        <ele>514</ele>
        <time>2017-03-02T13:40:43Z</time>
      </trkpt>
      <trkpt lat="45.76673" lon="4.35465">
        <ele>514</ele>
        <time>2017-03-02T13:40:44Z</time>
      </trkpt>
      <trkpt lat="45.7668" lon="4.35456">
        <ele>513</ele>
        <time>2017-03-02T13:40:51Z</time>
      </trkpt>
      <trkpt lat="45.76681" lon="4.35455">
        <ele>513</ele>
        <time>2017-03-02T13:40:52Z</time>
      </trkpt>
      <trkpt lat="45.76689" lon="4.3545">
        <ele>513</ele>
        <time>2017-03-02T13:40:59Z</time>
      </trkpt>
      <trkpt lat="45.7669" lon="4.3545">
        <ele>513</ele>
        <time>2017-03-02T13:41:00Z</time>
      </trkpt>
      <trkpt lat="45.76696" lon="4.35441">
        <ele>513</ele>
        <time>2017-03-02T13:41:07Z</time>
      </trkpt>
      <trkpt lat="45.76697" lon="4.3544">
        <ele>513</ele>
        <time>2017-03-02T13:41:08Z</time>
      </trkpt>
      <trkpt lat="45.76704" lon="4.35431">
        <ele>512</ele>
        <time>2017-03-02T13:41:15Z</time>
      </trkpt>
      <trkpt lat="45.76704" lon="4.3543">
        <ele>512</ele>
        <time>2017-03-02T13:41:16Z</time>
      </trkpt>
      <trkpt lat="45.76712" lon="4.35425">
        <ele>512</ele>
        <time>2017-03-02T13:41:23Z</time>
      </trkpt>
      <trkpt lat="45.76713" lon="4.35424">
        <ele>512</ele>
        <time>2017-03-02T13:41:24Z</time>
      </trkpt>
      <trkpt lat="45.76718" lon="4.35414">
        <ele>508</ele>
        <time>2017-03-02T13:41:31Z</time>
      </trkpt>
      <trkpt lat="45.76719" lon="4.35413">
        <ele>508</ele>
        <time>2017-03-02T13:41:32Z</time>
      </trkpt>
      <trkpt lat="45.76727" lon="4.35405">
        <ele>508</ele>
        <time>2017-03-02T13:41:39Z</time>
      </trkpt>
      <trkpt lat="45.76727" lon="4.35404">
        <ele>508</ele>
        <time>2017-03-02T13:41:40Z</time>
      </trkpt>
      <trkpt lat="45.76733" lon="4.35396">
        <ele>508</ele>
        <time>2017-03-02T13:41:46Z</time>
      </trkpt>
      <trkpt lat="45.76734" lon="4.35394">
        <ele>508</ele>
        <time>2017-03-02T13:41:47Z</time>
      </trkpt>
      <trkpt lat="45.76741" lon="4.35387">
        <ele>508</ele>
        <time>2017-03-02T13:41:54Z</time>
      </trkpt>
      <trkpt lat="45.76742" lon="4.35385">
        <ele>508</ele>
        <time>2017-03-02T13:41:55Z</time>
      </trkpt>
      <trkpt lat="45.76748" lon="4.35376">
        <ele>507</ele>
        <time>2017-03-02T13:42:01Z</time>
      </trkpt>
      <trkpt lat="45.76749" lon="4.35375">
        <ele>507</ele>
        <time>2017-03-02T13:42:02Z</time>
      </trkpt>
      <trkpt lat="45.76756" lon="4.35367">
        <ele>506</ele>
        <time>2017-03-02T13:42:08Z</time>
      </trkpt>
      <trkpt lat="45.76757" lon="4.35366">
        <ele>506</ele>
        <time>2017-03-02T13:42:09Z</time>
      </trkpt>
      <trkpt lat="45.76763" lon="4.35359">
        <ele>505</ele>
        <time>2017-03-02T13:42:15Z</time>
      </trkpt>
      <trkpt lat="45.76764" lon="4.35358">
        <ele>505</ele>
        <time>2017-03-02T13:42:16Z</time>
      </trkpt>
      <trkpt lat="45.7677" lon="4.35351">
        <ele>505</ele>
        <time>2017-03-02T13:42:21Z</time>
      </trkpt>
      <trkpt lat="45.76771" lon="4.3535">
        <ele>505</ele>
        <time>2017-03-02T13:42:22Z</time>
      </trkpt>
      <trkpt lat="45.76777" lon="4.35344">
        <ele>505</ele>
        <time>2017-03-02T13:42:27Z</time>
      </trkpt>
      <trkpt lat="45.76779" lon="4.35342">
        <ele>505</ele>
        <time>2017-03-02T13:42:28Z</time>
      </trkpt>
      <trkpt lat="45.76786" lon="4.35335">
        <ele>504</ele>
        <time>2017-03-02T13:42:34Z</time>
      </trkpt>
      <trkpt lat="45.76787" lon="4.35333">
        <ele>504</ele>
        <time>2017-03-02T13:42:35Z</time>
      </trkpt>
      <trkpt lat="45.76793" lon="4.35325">
        <ele>501</ele>
        <time>2017-03-02T13:42:41Z</time>
      </trkpt>
      <trkpt lat="45.76794" lon="4.35324">
        <ele>501</ele>
        <time>2017-03-02T13:42:42Z</time>
      </trkpt>
      <trkpt lat="45.768" lon="4.35315">
        <ele>501</ele>
        <time>2017-03-02T13:42:49Z</time>
      </trkpt>
      <trkpt lat="45.76801" lon="4.35314">
        <ele>501</ele>
        <time>2017-03-02T13:42:50Z</time>
      </trkpt>
      <trkpt lat="45.76807" lon="4.35306">
        <ele>501</ele>
        <time>2017-03-02T13:42:56Z</time>
      </trkpt>
      <trkpt lat="45.76808" lon="4.35305">
        <ele>501</ele>
        <time>2017-03-02T13:42:57Z</time>
      </trkpt>
      <trkpt lat="45.76816" lon="4.353">
        <ele>500</ele>
        <time>2017-03-02T13:43:03Z</time>
      </trkpt>
      <trkpt lat="45.76817" lon="4.35299">
        <ele>500</ele>
        <time>2017-03-02T13:43:04Z</time>
      </trkpt>
      <trkpt lat="45.76825" lon="4.35296">
        <ele>500</ele>
        <time>2017-03-02T13:43:10Z</time>
      </trkpt>
      <trkpt lat="45.76826" lon="4.35297">
        <ele>500</ele>
        <time>2017-03-02T13:43:11Z</time>
      </trkpt>
      <trkpt lat="45.76834" lon="4.35301">
        <ele>497</ele>
        <time>2017-03-02T13:43:19Z</time>
      </trkpt>
      <trkpt lat="45.76835" lon="4.35301">
        <ele>497</ele>
        <time>2017-03-02T13:43:20Z</time>
      </trkpt>
      <trkpt lat="45.76844" lon="4.35304">
        <ele>496</ele>
        <time>2017-03-02T13:43:29Z</time>
      </trkpt>
      <trkpt lat="45.76845" lon="4.35304">
        <ele>496</ele>
        <time>2017-03-02T13:43:30Z</time>
      </trkpt>
      <trkpt lat="45.76853" lon="4.35302">
        <ele>496</ele>
        <time>2017-03-02T13:43:35Z</time>
      </trkpt>
      <trkpt lat="45.76854" lon="4.35301">
        <ele>496</ele>
        <time>2017-03-02T13:43:36Z</time>
      </trkpt>
      <trkpt lat="45.76862" lon="4.35298">
        <ele>495</ele>
        <time>2017-03-02T13:43:42Z</time>
      </trkpt>
      <trkpt lat="45.76864" lon="4.35297">
        <ele>495</ele>
        <time>2017-03-02T13:43:43Z</time>
      </trkpt>
      <trkpt lat="45.76872" lon="4.35295">
        <ele>495</ele>
        <time>2017-03-02T13:43:49Z</time>
      </trkpt>
      <trkpt lat="45.76873" lon="4.35295">
        <ele>495</ele>
        <time>2017-03-02T13:43:50Z</time>
      </trkpt>
      <trkpt lat="45.76881" lon="4.35293">
        <ele>494</ele>
        <time>2017-03-02T13:43:56Z</time>
      </trkpt>
      <trkpt lat="45.76883" lon="4.35292">
        <ele>494</ele>
        <time>2017-03-02T13:43:57Z</time>
      </trkpt>
      <trkpt lat="45.7689" lon="4.35288">
        <ele>494</ele>
        <time>2017-03-02T13:44:03Z</time>
      </trkpt>
      <trkpt lat="45.76892" lon="4.35287">
        <ele>494</ele>
        <time>2017-03-02T13:44:04Z</time>
      </trkpt>
      <trkpt lat="45.76899" lon="4.35283">
        <ele>493</ele>
        <time>2017-03-02T13:44:10Z</time>
      </trkpt>
      <trkpt lat="45.76901" lon="4.35283">
        <ele>493</ele>
        <time>2017-03-02T13:44:11Z</time>
      </trkpt>
      <trkpt lat="45.76908" lon="4.35276">
        <ele>493</ele>
        <time>2017-03-02T13:44:17Z</time>
      </trkpt>
      <trkpt lat="45.76908" lon="4.35274">
        <ele>493</ele>
        <time>2017-03-02T13:44:18Z</time>
      </trkpt>
      <trkpt lat="45.76913" lon="4.35266">
        <ele>492</ele>
        <time>2017-03-02T13:44:24Z</time>
      </trkpt>
      <trkpt lat="45.76914" lon="4.35264">
        <ele>492</ele>
        <time>2017-03-02T13:44:25Z</time>
      </trkpt>
      <trkpt lat="45.76919" lon="4.35254">
        <ele>490</ele>
        <time>2017-03-02T13:44:32Z</time>
      </trkpt>
      <trkpt lat="45.7692" lon="4.35253">
        <ele>490</ele>
        <time>2017-03-02T13:44:33Z</time>
      </trkpt>
      <trkpt lat="45.76926" lon="4.35243">
        <ele>493</ele>
        <time>2017-03-02T13:44:40Z</time>
      </trkpt>
      <trkpt lat="45.76927" lon="4.35242">
        <ele>493</ele>
        <time>2017-03-02T13:44:41Z</time>
      </trkpt>
      <trkpt lat="45.76932" lon="4.35234">
        <ele>495</ele>
        <time>2017-03-02T13:44:48Z</time>
      </trkpt>
      <trkpt lat="45.76933" lon="4.35232">
        <ele>495</ele>
        <time>2017-03-02T13:44:49Z</time>
      </trkpt>
      <trkpt lat="45.76939" lon="4.35225">
        <ele>496</ele>
        <time>2017-03-02T13:44:57Z</time>
      </trkpt>
      <trkpt lat="45.7694" lon="4.35224">
        <ele>496</ele>
        <time>2017-03-02T13:44:58Z</time>
      </trkpt>
      <trkpt lat="45.76947" lon="4.35218">
        <ele>497</ele>
        <time>2017-03-02T13:45:07Z</time>
      </trkpt>
      <trkpt lat="45.76948" lon="4.35217">
        <ele>497</ele>
        <time>2017-03-02T13:45:08Z</time>
      </trkpt>
      <trkpt lat="45.76956" lon="4.35214">
        <ele>498</ele>
        <time>2017-03-02T13:45:17Z</time>
      </trkpt>
      <trkpt lat="45.76957" lon="4.35214">
        <ele>498</ele>
        <time>2017-03-02T13:45:18Z</time>
      </trkpt>
      <trkpt lat="45.76965" lon="4.35216">
        <ele>499</ele>
        <time>2017-03-02T13:45:27Z</time>
      </trkpt>
      <trkpt lat="45.76966" lon="4.35216">
        <ele>499</ele>
        <time>2017-03-02T13:45:28Z</time>
      </trkpt>
      <trkpt lat="45.76975" lon="4.35214">
        <ele>499</ele>
        <time>2017-03-02T13:45:38Z</time>
      </trkpt>
      <trkpt lat="45.76976" lon="4.35214">
        <ele>499</ele>
        <time>2017-03-02T13:45:39Z</time>
      </trkpt>
      <trkpt lat="45.76985" lon="4.35216">
        <ele>500</ele>
        <time>2017-03-02T13:45:48Z</time>
      </trkpt>
      <trkpt lat="45.76986" lon="4.35215">
        <ele>500</ele>
        <time>2017-03-02T13:45:49Z</time>
      </trkpt>
      <trkpt lat="45.76994" lon="4.35215">
        <ele>500</ele>
        <time>2017-03-02T13:45:59Z</time>
      </trkpt>
      <trkpt lat="45.76995" lon="4.35216">
        <ele>500</ele>
        <time>2017-03-02T13:46:00Z</time>
      </trkpt>
      <trkpt lat="45.77003" lon="4.35221">
        <ele>508</ele>
        <time>2017-03-02T13:46:07Z</time>
      </trkpt>
      <trkpt lat="45.77004" lon="4.35222">
        <ele>508</ele>
        <time>2017-03-02T13:46:08Z</time>
      </trkpt>
      <trkpt lat="45.77011" lon="4.35227">
        <ele>507</ele>
        <time>2017-03-02T13:46:14Z</time>
      </trkpt>
      <trkpt lat="45.77012" lon="4.35228">
        <ele>507</ele>
        <time>2017-03-02T13:46:15Z</time>
      </trkpt>
      <trkpt lat="45.7702" lon="4.35231">
        <ele>508</ele>
        <time>2017-03-02T13:46:22Z</time>
      </trkpt>
      <trkpt lat="45.77022" lon="4.35231">
        <ele>508</ele>
        <time>2017-03-02T13:46:23Z</time>
      </trkpt>
      <trkpt lat="45.7703" lon="4.3523">
        <ele>510</ele>
        <time>2017-03-02T13:46:31Z</time>
      </trkpt>
      <trkpt lat="45.77031" lon="4.35229">
        <ele>510</ele>
        <time>2017-03-02T13:46:32Z</time>
      </trkpt>
      <trkpt lat="45.77039" lon="4.3523">
        <ele>511</ele>
        <time>2017-03-02T13:46:39Z</time>
      </trkpt>
      <trkpt lat="45.7704" lon="4.3523">
        <ele>511</ele>
        <time>2017-03-02T13:46:40Z</time>
      </trkpt>
      <trkpt lat="45.77049" lon="4.35229">
        <ele>512</ele>
        <time>2017-03-02T13:46:46Z</time>
      </trkpt>
      <trkpt lat="45.7705" lon="4.35229">
        <ele>512</ele>
        <time>2017-03-02T13:46:47Z</time>
      </trkpt>
      <trkpt lat="45.77058" lon="4.35232">
        <ele>512</ele>
        <time>2017-03-02T13:46:58Z</time>
      </trkpt>
      <trkpt lat="45.77059" lon="4.35233">
        <ele>512</ele>
        <time>2017-03-02T13:46:59Z</time>
      </trkpt>
      <trkpt lat="45.77067" lon="4.35239">
        <ele>511</ele>
        <time>2017-03-02T13:47:04Z</time>
      </trkpt>
      <trkpt lat="45.77068" lon="4.3524">
        <ele>511</ele>
        <time>2017-03-02T13:47:05Z</time>
      </trkpt>
      <trkpt lat="45.77074" lon="4.35248">
        <ele>510</ele>
        <time>2017-03-02T13:47:11Z</time>
      </trkpt>
      <trkpt lat="45.77075" lon="4.3525">
        <ele>510</ele>
        <time>2017-03-02T13:47:12Z</time>
      </trkpt>
      <trkpt lat="45.7708" lon="4.3526">
        <ele>505</ele>
        <time>2017-03-02T13:47:20Z</time>
      </trkpt>
      <trkpt lat="45.77081" lon="4.35261">
        <ele>505</ele>
        <time>2017-03-02T13:47:21Z</time>
      </trkpt>
      <trkpt lat="45.77087" lon="4.35268">
        <ele>508</ele>
        <time>2017-03-02T13:47:26Z</time>
      </trkpt>
      <trkpt lat="45.77088" lon="4.35269">
        <ele>508</ele>
        <time>2017-03-02T13:47:27Z</time>
      </trkpt>
      <trkpt lat="45.77094" lon="4.35278">
        <ele>507</ele>
        <time>2017-03-02T13:47:32Z</time>
      </trkpt>
      <trkpt lat="45.77095" lon="4.35279">
        <ele>507</ele>
        <time>2017-03-02T13:47:33Z</time>
      </trkpt>
      <trkpt lat="45.77101" lon="4.35287">
        <ele>507</ele>
        <time>2017-03-02T13:47:39Z</time>
      </trkpt>
      <trkpt lat="45.77102" lon="4.35288">
        <ele>507</ele>
        <time>2017-03-02T13:47:40Z</time>
      </trkpt>
      <trkpt lat="45.77107" lon="4.35295">
        <ele>506</ele>
        <time>2017-03-02T13:47:45Z</time>
      </trkpt>
      <trkpt lat="45.77108" lon="4.35297">
        <ele>506</ele>
        <time>2017-03-02T13:47:46Z</time>
      </trkpt>
      <trkpt lat="45.77114" lon="4.35307">
        <ele>506</ele>
        <time>2017-03-02T13:47:51Z</time>
      </trkpt>
      <trkpt lat="45.77115" lon="4.35308">
        <ele>506</ele>
        <time>2017-03-02T13:47:52Z</time>
      </trkpt>
      <trkpt lat="45.77121" lon="4.35316">
        <ele>506</ele>
        <time>2017-03-02T13:47:57Z</time>
      </trkpt>
      <trkpt lat="45.77122" lon="4.35317">
        <ele>506</ele>
        <time>2017-03-02T13:47:58Z</time>
      </trkpt>
      <trkpt lat="45.77127" lon="4.35326">
        <ele>506</ele>
        <time>2017-03-02T13:48:04Z</time>
      </trkpt>
      <trkpt lat="45.77128" lon="4.35328">
        <ele>506</ele>
        <time>2017-03-02T13:48:05Z</time>
      </trkpt>
      <trkpt lat="45.77133" lon="4.35338">
        <ele>502</ele>
        <time>2017-03-02T13:48:12Z</time>
      </trkpt>
      <trkpt lat="45.77134" lon="4.35339">
        <ele>502</ele>
        <time>2017-03-02T13:48:13Z</time>
      </trkpt>
      <trkpt lat="45.7714" lon="4.35348">
        <ele>502</ele>
        <time>2017-03-02T13:48:19Z</time>
      </trkpt>
      <trkpt lat="45.7714" lon="4.3535">
        <ele>502</ele>
        <time>2017-03-02T13:48:20Z</time>
      </trkpt>
      <trkpt lat="45.77144" lon="4.3536">
        <ele>502</ele>
        <time>2017-03-02T13:48:26Z</time>
      </trkpt>
      <trkpt lat="45.77145" lon="4.35362">
        <ele>502</ele>
        <time>2017-03-02T13:48:27Z</time>
      </trkpt>
      <trkpt lat="45.7715" lon="4.35371">
        <ele>502</ele>
        <time>2017-03-02T13:48:33Z</time>
      </trkpt>
      <trkpt lat="45.77151" lon="4.35373">
        <ele>502</ele>
        <time>2017-03-02T13:48:34Z</time>
      </trkpt>
      <trkpt lat="45.77157" lon="4.3538">
        <ele>502</ele>
        <time>2017-03-02T13:48:40Z</time>
      </trkpt>
      <trkpt lat="45.77158" lon="4.35382">
        <ele>502</ele>
        <time>2017-03-02T13:48:41Z</time>
      </trkpt>
      <trkpt lat="45.77161" lon="4.35393">
        <ele>502</ele>
        <time>2017-03-02T13:48:48Z</time>
      </trkpt>
      <trkpt lat="45.77161" lon="4.35395">
        <ele>502</ele>
        <time>2017-03-02T13:48:49Z</time>
      </trkpt>
      <trkpt lat="45.77161" lon="4.35407">
        <ele>503</ele>
        <time>2017-03-02T13:48:56Z</time>
      </trkpt>
      <trkpt lat="45.77161" lon="4.35409">
        <ele>503</ele>
        <time>2017-03-02T13:48:57Z</time>
      </trkpt>
      <trkpt lat="45.77157" lon="4.35419">
        <ele>502</ele>
        <time>2017-03-02T13:49:03Z</time>
      </trkpt>
      <trkpt lat="45.77157" lon="4.35421">
        <ele>502</ele>
        <time>2017-03-02T13:49:04Z</time>
      </trkpt>
      <trkpt lat="45.77158" lon="4.35434">
        <ele>501</ele>
        <time>2017-03-02T13:49:12Z</time>
      </trkpt>
      <trkpt lat="45.77158" lon="4.35435">
        <ele>501</ele>
        <time>2017-03-02T13:49:13Z</time>
      </trkpt>
      <trkpt lat="45.77162" lon="4.35446">
        <ele>500</ele>
        <time>2017-03-02T13:49:22Z</time>
      </trkpt>
      <trkpt lat="45.77162" lon="4.35447">
        <ele>500</ele>
        <time>2017-03-02T13:49:23Z</time>
      </trkpt>
      <trkpt lat="45.77167" lon="4.35457">
        <ele>500</ele>
        <time>2017-03-02T13:49:30Z</time>
      </trkpt>
      <trkpt lat="45.77167" lon="4.35459">
        <ele>505</ele>
        <time>2017-03-02T13:49:31Z</time>
      </trkpt>
      <trkpt lat="45.7717" lon="4.35469">
        <ele>504</ele>
        <time>2017-03-02T13:49:37Z</time>
      </trkpt>
      <trkpt lat="45.7717" lon="4.35471">
        <ele>504</ele>
        <time>2017-03-02T13:49:38Z</time>
      </trkpt>
      <trkpt lat="45.77174" lon="4.35481">
        <ele>503</ele>
        <time>2017-03-02T13:49:45Z</time>
      </trkpt>
      <trkpt lat="45.77175" lon="4.35483">
        <ele>503</ele>
        <time>2017-03-02T13:49:46Z</time>
      </trkpt>
      <trkpt lat="45.77182" lon="4.35491">
        <ele>503</ele>
        <time>2017-03-02T13:49:53Z</time>
      </trkpt>
      <trkpt lat="45.77183" lon="4.35492">
        <ele>503</ele>
        <time>2017-03-02T13:49:54Z</time>
      </trkpt>
      <trkpt lat="45.77188" lon="4.35502">
        <ele>503</ele>
        <time>2017-03-02T13:50:01Z</time>
      </trkpt>
      <trkpt lat="45.77189" lon="4.35503">
        <ele>503</ele>
        <time>2017-03-02T13:50:02Z</time>
      </trkpt>
      <trkpt lat="45.77193" lon="4.35512">
        <ele>503</ele>
        <time>2017-03-02T13:50:08Z</time>
      </trkpt>
      <trkpt lat="45.77194" lon="4.35513">
        <ele>503</ele>
        <time>2017-03-02T13:50:09Z</time>
      </trkpt>
      <trkpt lat="45.77201" lon="4.35522">
        <ele>504</ele>
        <time>2017-03-02T13:50:15Z</time>
      </trkpt>
      <trkpt lat="45.77201" lon="4.35523">
        <ele>504</ele>
        <time>2017-03-02T13:50:16Z</time>
      </trkpt>
      <trkpt lat="45.77206" lon="4.35532">
        <ele>504</ele>
        <time>2017-03-02T13:50:23Z</time>
      </trkpt>
      <trkpt lat="45.77207" lon="4.35534">
        <ele>504</ele>
        <time>2017-03-02T13:50:24Z</time>
      </trkpt>
      <trkpt lat="45.77213" lon="4.35542">
        <ele>504</ele>
        <time>2017-03-02T13:50:33Z</time>
      </trkpt>
      <trkpt lat="45.77213" lon="4.35543">
        <ele>504</ele>
        <time>2017-03-02T13:50:34Z</time>
      </trkpt>
      <trkpt lat="45.77219" lon="4.35552">
        <ele>504</ele>
        <time>2017-03-02T13:50:44Z</time>
      </trkpt>
      <trkpt lat="45.7722" lon="4.35554">
        <ele>504</ele>
        <time>2017-03-02T13:50:45Z</time>
      </trkpt>
      <trkpt lat="45.77226" lon="4.35561">
        <ele>505</ele>
        <time>2017-03-02T13:50:51Z</time>
      </trkpt>
      <trkpt lat="45.77227" lon="4.35562">
        <ele>505</ele>
        <time>2017-03-02T13:50:52Z</time>
      </trkpt>
      <trkpt lat="45.77232" lon="4.35572">
        <ele>505</ele>
        <time>2017-03-02T13:50:58Z</time>
      </trkpt>
      <trkpt lat="45.77233" lon="4.35574">
        <ele>505</ele>
        <time>2017-03-02T13:50:59Z</time>
      </trkpt>
      <trkpt lat="45.77237" lon="4.35583">
        <ele>506</ele>
        <time>2017-03-02T13:51:09Z</time>
      </trkpt>
      <trkpt lat="45.77238" lon="4.35584">
        <ele>506</ele>
        <time>2017-03-02T13:51:10Z</time>
      </trkpt>
      <trkpt lat="45.77245" lon="4.35592">
        <ele>507</ele>
        <time>2017-03-02T13:51:15Z</time>
      </trkpt>
      <trkpt lat="45.77246" lon="4.35593">
        <ele>507</ele>
        <time>2017-03-02T13:51:16Z</time>
      </trkpt>
      <trkpt lat="45.77253" lon="4.35599">
        <ele>508</ele>
        <time>2017-03-02T13:51:21Z</time>
      </trkpt>
      <trkpt lat="45.77255" lon="4.356">
        <ele>508</ele>
        <time>2017-03-02T13:51:22Z</time>
      </trkpt>
      <trkpt lat="45.77262" lon="4.35607">
        <ele>508</ele>
        <time>2017-03-02T13:51:28Z</time>
      </trkpt>
      <trkpt lat="45.77263" lon="4.35609">
        <ele>508</ele>
        <time>2017-03-02T13:51:29Z</time>
      </trkpt>
      <trkpt lat="45.77271" lon="4.35614">
        <ele>508</ele>
        <time>2017-03-02T13:51:34Z</time>
      </trkpt>
      <trkpt lat="45.77273" lon="4.35614">
        <ele>509</ele>
        <time>2017-03-02T13:51:35Z</time>
      </trkpt>
      <trkpt lat="45.7728" lon="4.35619">
        <ele>509</ele>
        <time>2017-03-02T13:51:40Z</time>
      </trkpt>
      <trkpt lat="45.77282" lon="4.3562">
        <ele>509</ele>
        <time>2017-03-02T13:51:41Z</time>
      </trkpt>
      <trkpt lat="45.77288" lon="4.35627">
        <ele>509</ele>
        <time>2017-03-02T13:51:47Z</time>
      </trkpt>
      <trkpt lat="45.77289" lon="4.35628">
        <ele>509</ele>
        <time>2017-03-02T13:51:48Z</time>
      </trkpt>
      <trkpt lat="45.77296" lon="4.35634">
        <ele>509</ele>
        <time>2017-03-02T13:51:56Z</time>
      </trkpt>
      <trkpt lat="45.77297" lon="4.35634">
        <ele>509</ele>
        <time>2017-03-02T13:51:57Z</time>
      </trkpt>
      <trkpt lat="45.77304" lon="4.3564">
        <ele>509</ele>
        <time>2017-03-02T13:52:05Z</time>
      </trkpt>
      <trkpt lat="45.77305" lon="4.35641">
        <ele>509</ele>
        <time>2017-03-02T13:52:06Z</time>
      </trkpt>
      <trkpt lat="45.77312" lon="4.35645">
        <ele>509</ele>
        <time>2017-03-02T13:52:12Z</time>
      </trkpt>
      <trkpt lat="45.77314" lon="4.35645">
        <ele>509</ele>
        <time>2017-03-02T13:52:13Z</time>
      </trkpt>
      <trkpt lat="45.77323" lon="4.35648">
        <ele>509</ele>
        <time>2017-03-02T13:52:18Z</time>
      </trkpt>
      <trkpt lat="45.77324" lon="4.35649">
        <ele>509</ele>
        <time>2017-03-02T13:52:19Z</time>
      </trkpt>
      <trkpt lat="45.77332" lon="4.35652">
        <ele>509</ele>
        <time>2017-03-02T13:52:24Z</time>
      </trkpt>
      <trkpt lat="45.77333" lon="4.35653">
        <ele>512</ele>
        <time>2017-03-02T13:52:25Z</time>
      </trkpt>
      <trkpt lat="45.77342" lon="4.35656">
        <ele>512</ele>
        <time>2017-03-02T13:52:33Z</time>
      </trkpt>
      <trkpt lat="45.77342" lon="4.35657">
        <ele>512</ele>
        <time>2017-03-02T13:52:34Z</time>
      </trkpt>
      <trkpt lat="45.77351" lon="4.3566">
        <ele>513</ele>
        <time>2017-03-02T13:52:43Z</time>
      </trkpt>
      <trkpt lat="45.77352" lon="4.3566">
        <ele>514</ele>
        <time>2017-03-02T13:52:44Z</time>
      </trkpt>
      <trkpt lat="45.77361" lon="4.35663">
        <ele>515</ele>
        <time>2017-03-02T13:52:49Z</time>
      </trkpt>
      <trkpt lat="45.77362" lon="4.35664">
        <ele>515</ele>
        <time>2017-03-02T13:52:50Z</time>
      </trkpt>
      <trkpt lat="45.7737" lon="4.35669">
        <ele>512</ele>
        <time>2017-03-02T13:52:58Z</time>
      </trkpt>
      <trkpt lat="45.7737" lon="4.3567">
        <ele>512</ele>
        <time>2017-03-02T13:52:59Z</time>
      </trkpt>
      <trkpt lat="45.77377" lon="4.35677">
        <ele>512</ele>
        <time>2017-03-02T13:53:10Z</time>
      </trkpt>
      <trkpt lat="45.77378" lon="4.35678">
        <ele>512</ele>
        <time>2017-03-02T13:53:11Z</time>
      </trkpt>
      <trkpt lat="45.77385" lon="4.35684">
        <ele>513</ele>
        <time>2017-03-02T13:53:17Z</time>
      </trkpt>
      <trkpt lat="45.77386" lon="4.35685">
        <ele>513</ele>
        <time>2017-03-02T13:53:18Z</time>
      </trkpt>
      <trkpt lat="45.77393" lon="4.35693">
        <ele>513</ele>
        <time>2017-03-02T13:53:25Z</time>
      </trkpt>
      <trkpt lat="45.77394" lon="4.35694">
        <ele>513</ele>
        <time>2017-03-02T13:53:26Z</time>
      </trkpt>
      <trkpt lat="45.77402" lon="4.35698">
        <ele>513</ele>
        <time>2017-03-02T13:53:31Z</time>
      </trkpt>
      <trkpt lat="45.77404" lon="4.357">
        <ele>513</ele>
        <time>2017-03-02T13:53:32Z</time>
      </trkpt>
      <trkpt lat="45.77411" lon="4.35706">
        <ele>513</ele>
        <time>2017-03-02T13:53:37Z</time>
      </trkpt>
      <trkpt lat="45.77412" lon="4.35707">
        <ele>513</ele>
        <time>2017-03-02T13:53:38Z</time>
      </trkpt>
      <trkpt lat="45.77419" lon="4.35713">
        <ele>515</ele>
        <time>2017-03-02T13:53:43Z</time>
      </trkpt>
      <trkpt lat="45.7742" lon="4.35714">
        <ele>515</ele>
        <time>2017-03-02T13:53:44Z</time>
      </trkpt>
      <trkpt lat="45.77428" lon="4.35718">
        <ele>515</ele>
        <time>2017-03-02T13:53:51Z</time>
      </trkpt>
      <trkpt lat="45.77429" lon="4.35718">
        <ele>515</ele>
        <time>2017-03-02T13:53:52Z</time>
      </trkpt>
      <trkpt lat="45.77437" lon="4.35717">
        <ele>516</ele>
        <time>2017-03-02T13:53:57Z</time>
      </trkpt>
      <trkpt lat="45.77439" lon="4.35717">
        <ele>516</ele>
        <time>2017-03-02T13:53:58Z</time>
      </trkpt>
      <trkpt lat="45.77448" lon="4.35718">
        <ele>516</ele>
        <time>2017-03-02T13:54:04Z</time>
      </trkpt>
      <trkpt lat="45.77449" lon="4.35718">
        <ele>516</ele>
        <time>2017-03-02T13:54:05Z</time>
      </trkpt>
      <trkpt lat="45.77457" lon="4.3572">
        <ele>516</ele>
        <time>2017-03-02T13:54:11Z</time>
      </trkpt>
      <trkpt lat="45.77458" lon="4.3572">
        <ele>516</ele>
        <time>2017-03-02T13:54:12Z</time>
      </trkpt>
      <trkpt lat="45.77466" lon="4.35722">
        <ele>516</ele>
        <time>2017-03-02T13:54:18Z</time>
      </trkpt>
      <trkpt lat="45.77468" lon="4.35723">
        <ele>516</ele>
        <time>2017-03-02T13:54:19Z</time>
      </trkpt>
      <trkpt lat="45.77475" lon="4.35727">
        <ele>516</ele>
        <time>2017-03-02T13:54:25Z</time>
      </trkpt>
      <trkpt lat="45.77476" lon="4.35728">
        <ele>516</ele>
        <time>2017-03-02T13:54:26Z</time>
      </trkpt>
      <trkpt lat="45.77485" lon="4.35732">
        <ele>516</ele>
        <time>2017-03-02T13:54:34Z</time>
      </trkpt>
      <trkpt lat="45.77486" lon="4.35733">
        <ele>515</ele>
        <time>2017-03-02T13:54:35Z</time>
      </trkpt>
      <trkpt lat="45.77492" lon="4.35741">
        <ele>515</ele>
        <time>2017-03-02T13:54:44Z</time>
      </trkpt>
      <trkpt lat="45.77493" lon="4.35742">
        <ele>514</ele>
        <time>2017-03-02T13:54:45Z</time>
      </trkpt>
      <trkpt lat="45.77497" lon="4.35752">
        <ele>513</ele>
        <time>2017-03-02T13:54:54Z</time>
      </trkpt>
      <trkpt lat="45.77499" lon="4.35754">
        <ele>513</ele>
        <time>2017-03-02T13:54:55Z</time>
      </trkpt>
      <trkpt lat="45.77504" lon="4.35762">
        <ele>514</ele>
        <time>2017-03-02T13:54:59Z</time>
      </trkpt>
      <trkpt lat="45.77505" lon="4.35763">
        <ele>514</ele>
        <time>2017-03-02T13:55:00Z</time>
      </trkpt>
      <trkpt lat="45.7751" lon="4.35772">
        <ele>515</ele>
        <time>2017-03-02T13:55:05Z</time>
      </trkpt>
      <trkpt lat="45.77511" lon="4.35774">
        <ele>515</ele>
        <time>2017-03-02T13:55:06Z</time>
      </trkpt>
      <trkpt lat="45.77512" lon="4.35786">
        <ele>515</ele>
        <time>2017-03-02T13:55:20Z</time>
      </trkpt>
      <trkpt lat="45.77513" lon="4.35787">
        <ele>515</ele>
        <time>2017-03-02T13:55:21Z</time>
      </trkpt>
      <trkpt lat="45.7752" lon="4.35794">
        <ele>515</ele>
        <time>2017-03-02T13:55:31Z</time>
      </trkpt>
      <trkpt lat="45.77521" lon="4.35795">
        <ele>515</ele>
        <time>2017-03-02T13:55:32Z</time>
      </trkpt>
      <trkpt lat="45.77528" lon="4.358">
        <ele>515</ele>
        <time>2017-03-02T13:55:39Z</time>
      </trkpt>
      <trkpt lat="45.77529" lon="4.35801">
        <ele>515</ele>
        <time>2017-03-02T13:55:40Z</time>
      </trkpt>
      <trkpt lat="45.77535" lon="4.35804">
        <ele>515</ele>
        <time>2017-03-02T13:55:43Z</time>
      </trkpt>
      <trkpt lat="45.77538" lon="4.35806">
        <ele>515</ele>
        <time>2017-03-02T13:55:44Z</time>
      </trkpt>
      <trkpt lat="45.77544" lon="4.35809">
        <ele>515</ele>
        <time>2017-03-02T13:55:46Z</time>
      </trkpt>
      <trkpt lat="45.77547" lon="4.3581">
        <ele>515</ele>
        <time>2017-03-02T13:55:47Z</time>
      </trkpt>
      <trkpt lat="45.77554" lon="4.35816">
        <ele>515</ele>
        <time>2017-03-02T13:55:50Z</time>
      </trkpt>
      <trkpt lat="45.77557" lon="4.35817">
        <ele>515</ele>
        <time>2017-03-02T13:55:51Z</time>
      </trkpt>
      <trkpt lat="45.77564" lon="4.35821">
        <ele>515</ele>
        <time>2017-03-02T13:55:55Z</time>
      </trkpt>
      <trkpt lat="45.77566" lon="4.35822">
        <ele>515</ele>
        <time>2017-03-02T13:55:56Z</time>
      </trkpt>
      <trkpt lat="45.77575" lon="4.35822">
        <ele>515</ele>
        <time>2017-03-02T13:56:01Z</time>
      </trkpt>
      <trkpt lat="45.77576" lon="4.35822">
        <ele>515</ele>
        <time>2017-03-02T13:56:02Z</time>
      </trkpt>
      <trkpt lat="45.77584" lon="4.35822">
        <ele>519</ele>
        <time>2017-03-02T13:56:08Z</time>
      </trkpt>
      <trkpt lat="45.77585" lon="4.35823">
        <ele>519</ele>
        <time>2017-03-02T13:56:09Z</time>
      </trkpt>
      <trkpt lat="45.77593" lon="4.35823">
        <ele>520</ele>
        <time>2017-03-02T13:56:15Z</time>
      </trkpt>
      <trkpt lat="45.77594" lon="4.35824">
        <ele>520</ele>
        <time>2017-03-02T13:56:16Z</time>
      </trkpt>
      <trkpt lat="45.77602" lon="4.35829">
        <ele>521</ele>
        <time>2017-03-02T13:56:23Z</time>
      </trkpt>
      <trkpt lat="45.77603" lon="4.35829">
        <ele>521</ele>
        <time>2017-03-02T13:56:24Z</time>
      </trkpt>
      <trkpt lat="45.77611" lon="4.35836">
        <ele>518</ele>
        <time>2017-03-02T13:56:37Z</time>
      </trkpt>
      <trkpt lat="45.77611" lon="4.35836">
        <ele>518</ele>
        <time>2017-03-02T13:56:38Z</time>
      </trkpt>
      <trkpt lat="45.77616" lon="4.35845">
        <ele>519</ele>
        <time>2017-03-02T13:56:46Z</time>
      </trkpt>
      <trkpt lat="45.77617" lon="4.35847">
        <ele>519</ele>
        <time>2017-03-02T13:56:47Z</time>
      </trkpt>
      <trkpt lat="45.77621" lon="4.35857">
        <ele>519</ele>
        <time>2017-03-02T13:56:54Z</time>
      </trkpt>
      <trkpt lat="45.77622" lon="4.35858">
        <ele>519</ele>
        <time>2017-03-02T13:56:55Z</time>
      </trkpt>
      <trkpt lat="45.77622" lon="4.3587">
        <ele>519</ele>
        <time>2017-03-02T13:57:00Z</time>
      </trkpt>
      <trkpt lat="45.77622" lon="4.35872">
        <ele>518</ele>
        <time>2017-03-02T13:57:01Z</time>
      </trkpt>
      <trkpt lat="45.77627" lon="4.35881">
        <ele>518</ele>
        <time>2017-03-02T13:57:07Z</time>
      </trkpt>
      <trkpt lat="45.77627" lon="4.35883">
        <ele>518</ele>
        <time>2017-03-02T13:57:08Z</time>
      </trkpt>
      <trkpt lat="45.77631" lon="4.35894">
        <ele>518</ele>
        <time>2017-03-02T13:57:14Z</time>
      </trkpt>
      <trkpt lat="45.77632" lon="4.35896">
        <ele>518</ele>
        <time>2017-03-02T13:57:15Z</time>
      </trkpt>
      <trkpt lat="45.77636" lon="4.35906">
        <ele>518</ele>
        <time>2017-03-02T13:57:21Z</time>
      </trkpt>
      <trkpt lat="45.77637" lon="4.35908">
        <ele>518</ele>
        <time>2017-03-02T13:57:22Z</time>
      </trkpt>
      <trkpt lat="45.77639" lon="4.3592">
        <ele>517</ele>
        <time>2017-03-02T13:57:28Z</time>
      </trkpt>
      <trkpt lat="45.77638" lon="4.35922">
        <ele>517</ele>
        <time>2017-03-02T13:57:29Z</time>
      </trkpt>
      <trkpt lat="45.77638" lon="4.35934">
        <ele>517</ele>
        <time>2017-03-02T13:57:34Z</time>
      </trkpt>
      <trkpt lat="45.77638" lon="4.35936">
        <ele>517</ele>
        <time>2017-03-02T13:57:35Z</time>
      </trkpt>
      <trkpt lat="45.77638" lon="4.35948">
        <ele>517</ele>
        <time>2017-03-02T13:57:41Z</time>
      </trkpt>
      <trkpt lat="45.77638" lon="4.3595">
        <ele>517</ele>
        <time>2017-03-02T13:57:42Z</time>
      </trkpt>
      <trkpt lat="45.7764" lon="4.35961">
        <ele>517</ele>
        <time>2017-03-02T13:57:48Z</time>
      </trkpt>
      <trkpt lat="45.77641" lon="4.35963">
        <ele>517</ele>
        <time>2017-03-02T13:57:49Z</time>
      </trkpt>
      <trkpt lat="45.77642" lon="4.35974">
        <ele>517</ele>
        <time>2017-03-02T13:57:55Z</time>
      </trkpt>
      <trkpt lat="45.77642" lon="4.35976">
        <ele>517</ele>
        <time>2017-03-02T13:57:56Z</time>
      </trkpt>
      <trkpt lat="45.7764" lon="4.35988">
        <ele>517</ele>
        <time>2017-03-02T13:58:02Z</time>
      </trkpt>
      <trkpt lat="45.7764" lon="4.3599">
        <ele>517</ele>
        <time>2017-03-02T13:58:03Z</time>
      </trkpt>
      <trkpt lat="45.77636" lon="4.36001">
        <ele>518</ele>
        <time>2017-03-02T13:58:09Z</time>
      </trkpt>
      <trkpt lat="45.77636" lon="4.36002">
        <ele>518</ele>
        <time>2017-03-02T13:58:10Z</time>
      </trkpt>
      <trkpt lat="45.7763" lon="4.36013">
        <ele>519</ele>
        <time>2017-03-02T13:58:17Z</time>
      </trkpt>
      <trkpt lat="45.7763" lon="4.36014">
        <ele>519</ele>
        <time>2017-03-02T13:58:18Z</time>
      </trkpt>
      <trkpt lat="45.77625" lon="4.36024">
        <ele>519</ele>
        <time>2017-03-02T13:58:26Z</time>
      </trkpt>
      <trkpt lat="45.77624" lon="4.36025">
        <ele>519</ele>
        <time>2017-03-02T13:58:27Z</time>
      </trkpt>
      <trkpt lat="45.77616" lon="4.36029">
        <ele>520</ele>
        <time>2017-03-02T13:58:36Z</time>
      </trkpt>
      <trkpt lat="45.77615" lon="4.36029">
        <ele>520</ele>
        <time>2017-03-02T13:58:37Z</time>
      </trkpt>
      <trkpt lat="45.77607" lon="4.36033">
        <ele>520</ele>
        <time>2017-03-02T13:58:44Z</time>
      </trkpt>
      <trkpt lat="45.77606" lon="4.36034">
        <ele>520</ele>
        <time>2017-03-02T13:58:45Z</time>
      </trkpt>
      <trkpt lat="45.77604" lon="4.36045">
        <ele>521</ele>
        <time>2017-03-02T13:58:52Z</time>
      </trkpt>
      <trkpt lat="45.77604" lon="4.36046">
        <ele>521</ele>
        <time>2017-03-02T13:58:53Z</time>
      </trkpt>
      <trkpt lat="45.77601" lon="4.36058">
        <ele>521</ele>
        <time>2017-03-02T13:59:01Z</time>
      </trkpt>
      <trkpt lat="45.77602" lon="4.36059">
        <ele>521</ele>
        <time>2017-03-02T13:59:02Z</time>
      </trkpt>
      <trkpt lat="45.77599" lon="4.3607">
        <ele>522</ele>
        <time>2017-03-02T13:59:11Z</time>
      </trkpt>
      <trkpt lat="45.77599" lon="4.36071">
        <ele>522</ele>
        <time>2017-03-02T13:59:12Z</time>
      </trkpt>
      <trkpt lat="45.77598" lon="4.36084">
        <ele>522</ele>
        <time>2017-03-02T13:59:20Z</time>
      </trkpt>
      <trkpt lat="45.77598" lon="4.36085">
        <ele>522</ele>
        <time>2017-03-02T13:59:21Z</time>
      </trkpt>
      <trkpt lat="45.77595" lon="4.36097">
        <ele>521</ele>
        <time>2017-03-02T13:59:28Z</time>
      </trkpt>
      <trkpt lat="45.77595" lon="4.36099">
        <ele>521</ele>
        <time>2017-03-02T13:59:29Z</time>
      </trkpt>
      <trkpt lat="45.7759" lon="4.36109">
        <ele>521</ele>
        <time>2017-03-02T13:59:38Z</time>
      </trkpt>
      <trkpt lat="45.77588" lon="4.3611">
        <ele>521</ele>
        <time>2017-03-02T13:59:39Z</time>
      </trkpt>
      <trkpt lat="45.77583" lon="4.36118">
        <ele>530</ele>
        <time>2017-03-02T13:59:45Z</time>
      </trkpt>
      <trkpt lat="45.77582" lon="4.36119">
        <ele>530</ele>
        <time>2017-03-02T13:59:46Z</time>
      </trkpt>
      <trkpt lat="45.77576" lon="4.36128">
        <ele>531</ele>
        <time>2017-03-02T13:59:53Z</time>
      </trkpt>
      <trkpt lat="45.77576" lon="4.3613">
        <ele>530</ele>
        <time>2017-03-02T13:59:54Z</time>
      </trkpt>
      <trkpt lat="45.77571" lon="4.36138">
        <ele>530</ele>
        <time>2017-03-02T14:00:01Z</time>
      </trkpt>
      <trkpt lat="45.7757" lon="4.36139">
        <ele>530</ele>
        <time>2017-03-02T14:00:02Z</time>
      </trkpt>
      <trkpt lat="45.77563" lon="4.36144">
        <ele>531</ele>
        <time>2017-03-02T14:00:11Z</time>
      </trkpt>
      <trkpt lat="45.77562" lon="4.36145">
        <ele>531</ele>
        <time>2017-03-02T14:00:12Z</time>
      </trkpt>
      <trkpt lat="45.77555" lon="4.36152">
        <ele>531</ele>
        <time>2017-03-02T14:00:19Z</time>
      </trkpt>
      <trkpt lat="45.77554" lon="4.36154">
        <ele>531</ele>
        <time>2017-03-02T14:00:20Z</time>
      </trkpt>
      <trkpt lat="45.77546" lon="4.36158">
        <ele>533</ele>
        <time>2017-03-02T14:00:28Z</time>
      </trkpt>
      <trkpt lat="45.77545" lon="4.36159">
        <ele>533</ele>
        <time>2017-03-02T14:00:29Z</time>
      </trkpt>
      <trkpt lat="45.77537" lon="4.36161">
        <ele>534</ele>
        <time>2017-03-02T14:00:35Z</time>
      </trkpt>
      <trkpt lat="45.77535" lon="4.36161">
        <ele>535</ele>
        <time>2017-03-02T14:00:36Z</time>
      </trkpt>
      <trkpt lat="45.77527" lon="4.36163">
        <ele>536</ele>
        <time>2017-03-02T14:00:42Z</time>
      </trkpt>
      <trkpt lat="45.77526" lon="4.36164">
        <ele>536</ele>
        <time>2017-03-02T14:00:43Z</time>
      </trkpt>
      <trkpt lat="45.77521" lon="4.36174">
        <ele>535</ele>
        <time>2017-03-02T14:00:52Z</time>
      </trkpt>
      <trkpt lat="45.7752" lon="4.36175">
        <ele>535</ele>
        <time>2017-03-02T14:00:53Z</time>
      </trkpt>
      <trkpt lat="45.77514" lon="4.36182">
        <ele>535</ele>
        <time>2017-03-02T14:01:02Z</time>
      </trkpt>
      <trkpt lat="45.77513" lon="4.36183">
        <ele>535</ele>
        <time>2017-03-02T14:01:03Z</time>
      </trkpt>
      <trkpt lat="45.77505" lon="4.36189">
        <ele>535</ele>
        <time>2017-03-02T14:01:17Z</time>
      </trkpt>
      <trkpt lat="45.77504" lon="4.36189">
        <ele>535</ele>
        <time>2017-03-02T14:01:18Z</time>
      </trkpt>
      <trkpt lat="45.77498" lon="4.36194">
        <ele>545</ele>
        <time>2017-03-02T14:01:25Z</time>
      </trkpt>
      <trkpt lat="45.77496" lon="4.36196">
        <ele>545</ele>
        <time>2017-03-02T14:01:26Z</time>
      </trkpt>
      <trkpt lat="45.77489" lon="4.36203">
        <ele>545</ele>
        <time>2017-03-02T14:01:33Z</time>
      </trkpt>
      <trkpt lat="45.77489" lon="4.36204">
        <ele>545</ele>
        <time>2017-03-02T14:01:34Z</time>
      </trkpt>
      <trkpt lat="45.77482" lon="4.36212">
        <ele>546</ele>
        <time>2017-03-02T14:01:43Z</time>
      </trkpt>
      <trkpt lat="45.77481" lon="4.36213">
        <ele>546</ele>
        <time>2017-03-02T14:01:44Z</time>
      </trkpt>
      <trkpt lat="45.77477" lon="4.36225">
        <ele>546</ele>
        <time>2017-03-02T14:01:54Z</time>
      </trkpt>
      <trkpt lat="45.77477" lon="4.36226">
        <ele>545</ele>
        <time>2017-03-02T14:01:55Z</time>
      </trkpt>
      <trkpt lat="45.77473" lon="4.36237">
        <ele>545</ele>
        <time>2017-03-02T14:02:05Z</time>
      </trkpt>
      <trkpt lat="45.77473" lon="4.36238">
        <ele>545</ele>
        <time>2017-03-02T14:02:06Z</time>
      </trkpt>
      <trkpt lat="45.77469" lon="4.36249">
        <ele>546</ele>
        <time>2017-03-02T14:02:14Z</time>
      </trkpt>
      <trkpt lat="45.77469" lon="4.3625">
        <ele>547</ele>
        <time>2017-03-02T14:02:15Z</time>
      </trkpt>
      <trkpt lat="45.77465" lon="4.36262">
        <ele>548</ele>
        <time>2017-03-02T14:02:22Z</time>
      </trkpt>
      <trkpt lat="45.77465" lon="4.36263">
        <ele>548</ele>
        <time>2017-03-02T14:02:23Z</time>
      </trkpt>
      <trkpt lat="45.77464" lon="4.36275">
        <ele>549</ele>
        <time>2017-03-02T14:02:31Z</time>
      </trkpt>
      <trkpt lat="45.77464" lon="4.36276">
        <ele>549</ele>
        <time>2017-03-02T14:02:32Z</time>
      </trkpt>
      <trkpt lat="45.77458" lon="4.36284">
        <ele>550</ele>
        <time>2017-03-02T14:02:39Z</time>
      </trkpt>
      <trkpt lat="45.77458" lon="4.36285">
        <ele>550</ele>
        <time>2017-03-02T14:02:40Z</time>
      </trkpt>
      <trkpt lat="45.77458" lon="4.36298">
        <ele>550</ele>
        <time>2017-03-02T14:02:48Z</time>
      </trkpt>
      <trkpt lat="45.77458" lon="4.36299">
        <ele>550</ele>
        <time>2017-03-02T14:02:49Z</time>
      </trkpt>
      <trkpt lat="45.77455" lon="4.36311">
        <ele>551</ele>
        <time>2017-03-02T14:02:57Z</time>
      </trkpt>
      <trkpt lat="45.77455" lon="4.36313">
        <ele>551</ele>
        <time>2017-03-02T14:02:58Z</time>
      </trkpt>
      <trkpt lat="45.77453" lon="4.36324">
        <ele>552</ele>
        <time>2017-03-02T14:03:04Z</time>
      </trkpt>
      <trkpt lat="45.77453" lon="4.36327">
        <ele>552</ele>
        <time>2017-03-02T14:03:05Z</time>
      </trkpt>
      <trkpt lat="45.7745" lon="4.36338">
        <ele>557</ele>
        <time>2017-03-02T14:03:11Z</time>
      </trkpt>
      <trkpt lat="45.77449" lon="4.36339">
        <ele>557</ele>
        <time>2017-03-02T14:03:12Z</time>
      </trkpt>
      <trkpt lat="45.77447" lon="4.36351">
        <ele>557</ele>
        <time>2017-03-02T14:03:18Z</time>
      </trkpt>
      <trkpt lat="45.77447" lon="4.36353">
        <ele>558</ele>
        <time>2017-03-02T14:03:19Z</time>
      </trkpt>
      <trkpt lat="45.77449" lon="4.36365">
        <ele>558</ele>
        <time>2017-03-02T14:03:27Z</time>
      </trkpt>
      <trkpt lat="45.77449" lon="4.36367">
        <ele>558</ele>
        <time>2017-03-02T14:03:28Z</time>
      </trkpt>
      <trkpt lat="45.77445" lon="4.36378">
        <ele>558</ele>
        <time>2017-03-02T14:03:37Z</time>
      </trkpt>
      <trkpt lat="45.77445" lon="4.36379">
        <ele>559</ele>
        <time>2017-03-02T14:03:38Z</time>
      </trkpt>
      <trkpt lat="45.77442" lon="4.3639">
        <ele>559</ele>
        <time>2017-03-02T14:03:51Z</time>
      </trkpt>
      <trkpt lat="45.77441" lon="4.36391">
        <ele>559</ele>
        <time>2017-03-02T14:03:52Z</time>
      </trkpt>
      <trkpt lat="45.77436" lon="4.36401">
        <ele>560</ele>
        <time>2017-03-02T14:04:03Z</time>
      </trkpt>
      <trkpt lat="45.77435" lon="4.36402">
        <ele>560</ele>
        <time>2017-03-02T14:04:04Z</time>
      </trkpt>
      <trkpt lat="45.77429" lon="4.36411">
        <ele>561</ele>
        <time>2017-03-02T14:04:12Z</time>
      </trkpt>
      <trkpt lat="45.77429" lon="4.36412">
        <ele>561</ele>
        <time>2017-03-02T14:04:13Z</time>
      </trkpt>
      <trkpt lat="45.77424" lon="4.36423">
        <ele>562</ele>
        <time>2017-03-02T14:04:23Z</time>
      </trkpt>
      <trkpt lat="45.77423" lon="4.36424">
        <ele>562</ele>
        <time>2017-03-02T14:04:24Z</time>
      </trkpt>
      <trkpt lat="45.77419" lon="4.36434">
        <ele>562</ele>
        <time>2017-03-02T14:04:31Z</time>
      </trkpt>
      <trkpt lat="45.77418" lon="4.36436">
        <ele>562</ele>
        <time>2017-03-02T14:04:32Z</time>
      </trkpt>
      <trkpt lat="45.77415" lon="4.36447">
        <ele>561</ele>
        <time>2017-03-02T14:04:39Z</time>
      </trkpt>
      <trkpt lat="45.77414" lon="4.36448">
        <ele>561</ele>
        <time>2017-03-02T14:04:40Z</time>
      </trkpt>
      <trkpt lat="45.77416" lon="4.3646">
        <ele>561</ele>
        <time>2017-03-02T14:04:56Z</time>
      </trkpt>
      <trkpt lat="45.77416" lon="4.36461">
        <ele>561</ele>
        <time>2017-03-02T14:04:57Z</time>
      </trkpt>
      <trkpt lat="45.77415" lon="4.36474">
        <ele>561</ele>
        <time>2017-03-02T14:07:58Z</time>
      </trkpt>
      <trkpt lat="45.77414" lon="4.36475">
        <ele>561</ele>
        <time>2017-03-02T14:07:59Z</time>
      </trkpt>
      <trkpt lat="45.77417" lon="4.36487">
        <ele>561</ele>
        <time>2017-03-02T14:12:35Z</time>
      </trkpt>
      <trkpt lat="45.77417" lon="4.36488">
        <ele>562</ele>
        <time>2017-03-02T14:12:36Z</time>
      </trkpt>
      <trkpt lat="45.77424" lon="4.36494">
        <ele>562</ele>
        <time>2017-03-02T14:12:48Z</time>
      </trkpt>
      <trkpt lat="45.77426" lon="4.36494">
        <ele>562</ele>
        <time>2017-03-02T14:12:49Z</time>
      </trkpt>
      <trkpt lat="45.77434" lon="4.36499">
        <ele>562</ele>
        <time>2017-03-02T14:12:57Z</time>
      </trkpt>
      <trkpt lat="45.77435" lon="4.36498">
        <ele>562</ele>
        <time>2017-03-02T14:12:58Z</time>
      </trkpt>
      <trkpt lat="45.77443" lon="4.365">
        <ele>562</ele>
        <time>2017-03-02T14:13:05Z</time>
      </trkpt>
      <trkpt lat="45.77444" lon="4.365">
        <ele>561</ele>
        <time>2017-03-02T14:13:06Z</time>
      </trkpt>
      <trkpt lat="45.77452" lon="4.36505">
        <ele>561</ele>
        <time>2017-03-02T14:13:13Z</time>
      </trkpt>
      <trkpt lat="45.77453" lon="4.36506">
        <ele>562</ele>
        <time>2017-03-02T14:13:14Z</time>
      </trkpt>
      <trkpt lat="45.77459" lon="4.36515">
        <ele>562</ele>
        <time>2017-03-02T14:13:22Z</time>
      </trkpt>
      <trkpt lat="45.7746" lon="4.36516">
        <ele>562</ele>
        <time>2017-03-02T14:13:23Z</time>
      </trkpt>
      <trkpt lat="45.77466" lon="4.36524">
        <ele>562</ele>
        <time>2017-03-02T14:13:30Z</time>
      </trkpt>
      <trkpt lat="45.77467" lon="4.36525">
        <ele>562</ele>
        <time>2017-03-02T14:13:31Z</time>
      </trkpt>
      <trkpt lat="45.77474" lon="4.36531">
        <ele>562</ele>
        <time>2017-03-02T14:13:38Z</time>
      </trkpt>
      <trkpt lat="45.77475" lon="4.36532">
        <ele>562</ele>
        <time>2017-03-02T14:13:39Z</time>
      </trkpt>
      <trkpt lat="45.77482" lon="4.36539">
        <ele>562</ele>
        <time>2017-03-02T14:13:46Z</time>
      </trkpt>
      <trkpt lat="45.77483" lon="4.3654">
        <ele>562</ele>
        <time>2017-03-02T14:13:47Z</time>
      </trkpt>
      <trkpt lat="45.77488" lon="4.36547">
        <ele>562</ele>
        <time>2017-03-02T14:13:52Z</time>
      </trkpt>
      <trkpt lat="45.7749" lon="4.36548">
        <ele>562</ele>
        <time>2017-03-02T14:13:53Z</time>
      </trkpt>
      <trkpt lat="45.77496" lon="4.36556">
        <ele>562</ele>
        <time>2017-03-02T14:13:59Z</time>
      </trkpt>
      <trkpt lat="45.77497" lon="4.36558">
        <ele>562</ele>
        <time>2017-03-02T14:14:00Z</time>
      </trkpt>
      <trkpt lat="45.77502" lon="4.36567">
        <ele>563</ele>
        <time>2017-03-02T14:14:06Z</time>
      </trkpt>
      <trkpt lat="45.77503" lon="4.36569">
        <ele>563</ele>
        <time>2017-03-02T14:14:07Z</time>
      </trkpt>
      <trkpt lat="45.7751" lon="4.36574">
        <ele>563</ele>
        <time>2017-03-02T14:14:13Z</time>
      </trkpt>
      <trkpt lat="45.77511" lon="4.36575">
        <ele>563</ele>
        <time>2017-03-02T14:14:14Z</time>
      </trkpt>
      <trkpt lat="45.77518" lon="4.36582">
        <ele>563</ele>
        <time>2017-03-02T14:14:20Z</time>
      </trkpt>
      <trkpt lat="45.77519" lon="4.36583">
        <ele>563</ele>
        <time>2017-03-02T14:14:21Z</time>
      </trkpt>
      <trkpt lat="45.77525" lon="4.36592">
        <ele>563</ele>
        <time>2017-03-02T14:14:27Z</time>
      </trkpt>
      <trkpt lat="45.77526" lon="4.36593">
        <ele>563</ele>
        <time>2017-03-02T14:14:28Z</time>
      </trkpt>
      <trkpt lat="45.77534" lon="4.366">
        <ele>563</ele>
        <time>2017-03-02T14:14:36Z</time>
      </trkpt>
      <trkpt lat="45.77535" lon="4.36601">
        <ele>563</ele>
        <time>2017-03-02T14:14:37Z</time>
      </trkpt>
      <trkpt lat="45.77541" lon="4.36609">
        <ele>563</ele>
        <time>2017-03-02T14:14:44Z</time>
      </trkpt>
      <trkpt lat="45.77542" lon="4.3661">
        <ele>563</ele>
        <time>2017-03-02T14:14:45Z</time>
      </trkpt>
      <trkpt lat="45.77548" lon="4.36619">
        <ele>564</ele>
        <time>2017-03-02T14:14:53Z</time>
      </trkpt>
      <trkpt lat="45.77549" lon="4.3662">
        <ele>564</ele>
        <time>2017-03-02T14:14:54Z</time>
      </trkpt>
      <trkpt lat="45.77555" lon="4.3663">
        <ele>564</ele>
        <time>2017-03-02T14:15:00Z</time>
      </trkpt>
      <trkpt lat="45.77555" lon="4.36632">
        <ele>564</ele>
        <time>2017-03-02T14:15:01Z</time>
      </trkpt>
      <trkpt lat="45.77554" lon="4.36644">
        <ele>564</ele>
        <time>2017-03-02T14:15:07Z</time>
      </trkpt>
      <trkpt lat="45.77553" lon="4.36646">
        <ele>564</ele>
        <time>2017-03-02T14:15:08Z</time>
      </trkpt>
      <trkpt lat="45.77551" lon="4.36658">
        <ele>564</ele>
        <time>2017-03-02T14:15:14Z</time>
      </trkpt>
      <trkpt lat="45.77551" lon="4.3666">
        <ele>564</ele>
        <time>2017-03-02T14:15:15Z</time>
      </trkpt>
      <trkpt lat="45.77548" lon="4.36671">
        <ele>565</ele>
        <time>2017-03-02T14:15:21Z</time>
      </trkpt>
      <trkpt lat="45.77547" lon="4.36673">
        <ele>565</ele>
        <time>2017-03-02T14:15:22Z</time>
      </trkpt>
      <trkpt lat="45.77543" lon="4.36683">
        <ele>565</ele>
        <time>2017-03-02T14:15:28Z</time>
      </trkpt>
      <trkpt lat="45.77542" lon="4.36685">
        <ele>565</ele>
        <time>2017-03-02T14:15:29Z</time>
      </trkpt>
      <trkpt lat="45.77539" lon="4.36696">
        <ele>565</ele>
        <time>2017-03-02T14:15:35Z</time>
      </trkpt>
      <trkpt lat="45.77538" lon="4.36698">
        <ele>565</ele>
        <time>2017-03-02T14:15:36Z</time>
      </trkpt>
      <trkpt lat="45.77537" lon="4.3671">
        <ele>565</ele>
        <time>2017-03-02T14:15:43Z</time>
      </trkpt>
      <trkpt lat="45.77537" lon="4.36711">
        <ele>565</ele>
        <time>2017-03-02T14:15:44Z</time>
      </trkpt>
      <trkpt lat="45.77541" lon="4.36723">
        <ele>565</ele>
        <time>2017-03-02T14:15:52Z</time>
      </trkpt>
      <trkpt lat="45.77541" lon="4.36723">
        <ele>565</ele>
        <time>2017-03-02T14:15:53Z</time>
      </trkpt>
      <trkpt lat="45.77547" lon="4.36731">
        <ele>565</ele>
        <time>2017-03-02T14:16:01Z</time>
      </trkpt>
      <trkpt lat="45.77548" lon="4.36732">
        <ele>565</ele>
        <time>2017-03-02T14:16:02Z</time>
      </trkpt>
      <trkpt lat="45.77554" lon="4.36739">
        <ele>566</ele>
        <time>2017-03-02T14:16:09Z</time>
      </trkpt>
      <trkpt lat="45.77555" lon="4.3674">
        <ele>566</ele>
        <time>2017-03-02T14:16:10Z</time>
      </trkpt>
      <trkpt lat="45.77562" lon="4.36747">
        <ele>566</ele>
        <time>2017-03-02T14:16:17Z</time>
      </trkpt>
      <trkpt lat="45.77563" lon="4.36748">
        <ele>566</ele>
        <time>2017-03-02T14:16:18Z</time>
      </trkpt>
      <trkpt lat="45.77569" lon="4.36756">
        <ele>569</ele>
        <time>2017-03-02T14:16:27Z</time>
      </trkpt>
      <trkpt lat="45.7757" lon="4.36757">
        <ele>569</ele>
        <time>2017-03-02T14:16:28Z</time>
      </trkpt>
      <trkpt lat="45.77577" lon="4.36765">
        <ele>569</ele>
        <time>2017-03-02T14:16:37Z</time>
      </trkpt>
      <trkpt lat="45.77578" lon="4.36766">
        <ele>569</ele>
        <time>2017-03-02T14:16:38Z</time>
      </trkpt>
      <trkpt lat="45.77584" lon="4.36775">
        <ele>573</ele>
        <time>2017-03-02T14:16:46Z</time>
      </trkpt>
      <trkpt lat="45.77585" lon="4.36776">
        <ele>574</ele>
        <time>2017-03-02T14:16:47Z</time>
      </trkpt>
      <trkpt lat="45.77592" lon="4.36779">
        <ele>574</ele>
        <time>2017-03-02T14:16:53Z</time>
      </trkpt>
      <trkpt lat="45.77593" lon="4.3678">
        <ele>574</ele>
        <time>2017-03-02T14:16:54Z</time>
      </trkpt>
      <trkpt lat="45.77602" lon="4.36779">
        <ele>574</ele>
        <time>2017-03-02T14:17:01Z</time>
      </trkpt>
      <trkpt lat="45.77603" lon="4.36779">
        <ele>575</ele>
        <time>2017-03-02T14:17:02Z</time>
      </trkpt>
      <trkpt lat="45.77611" lon="4.36775">
        <ele>575</ele>
        <time>2017-03-02T14:17:09Z</time>
      </trkpt>
      <trkpt lat="45.77612" lon="4.36775">
        <ele>575</ele>
        <time>2017-03-02T14:17:10Z</time>
      </trkpt>
      <trkpt lat="45.77619" lon="4.3677">
        <ele>575</ele>
        <time>2017-03-02T14:17:17Z</time>
      </trkpt>
      <trkpt lat="45.7762" lon="4.36769">
        <ele>575</ele>
        <time>2017-03-02T14:17:18Z</time>
      </trkpt>
      <trkpt lat="45.77626" lon="4.3676">
        <ele>575</ele>
        <time>2017-03-02T14:17:25Z</time>
      </trkpt>
      <trkpt lat="45.77627" lon="4.36759">
        <ele>575</ele>
        <time>2017-03-02T14:17:26Z</time>
      </trkpt>
      <trkpt lat="45.77634" lon="4.36752">
        <ele>575</ele>
        <time>2017-03-02T14:17:32Z</time>
      </trkpt>
      <trkpt lat="45.77635" lon="4.36751">
        <ele>575</ele>
        <time>2017-03-02T14:17:33Z</time>
      </trkpt>
      <trkpt lat="45.77643" lon="4.36746">
        <ele>572</ele>
        <time>2017-03-02T14:17:39Z</time>
      </trkpt>
      <trkpt lat="45.77644" lon="4.36745">
        <ele>572</ele>
        <time>2017-03-02T14:17:40Z</time>
      </trkpt>
      <trkpt lat="45.77652" lon="4.3674">
        <ele>572</ele>
        <time>2017-03-02T14:17:46Z</time>
      </trkpt>
      <trkpt lat="45.77653" lon="4.36739">
        <ele>572</ele>
        <time>2017-03-02T14:17:47Z</time>
      </trkpt>
      <trkpt lat="45.77662" lon="4.36738">
        <ele>573</ele>
        <time>2017-03-02T14:17:55Z</time>
      </trkpt>
      <trkpt lat="45.77663" lon="4.36738">
        <ele>573</ele>
        <time>2017-03-02T14:17:56Z</time>
      </trkpt>
      <trkpt lat="45.7767" lon="4.36743">
        <ele>574</ele>
        <time>2017-03-02T14:18:04Z</time>
      </trkpt>
      <trkpt lat="45.77671" lon="4.36744">
        <ele>574</ele>
        <time>2017-03-02T14:18:05Z</time>
      </trkpt>
      <trkpt lat="45.77678" lon="4.36752">
        <ele>576</ele>
        <time>2017-03-02T14:18:14Z</time>
      </trkpt>
      <trkpt lat="45.77679" lon="4.36753">
        <ele>576</ele>
        <time>2017-03-02T14:18:15Z</time>
      </trkpt>
      <trkpt lat="45.77684" lon="4.36761">
        <ele>577</ele>
        <time>2017-03-02T14:18:22Z</time>
      </trkpt>
      <trkpt lat="45.77685" lon="4.36762">
        <ele>577</ele>
        <time>2017-03-02T14:18:23Z</time>
      </trkpt>
      <trkpt lat="45.77692" lon="4.36769">
        <ele>577</ele>
        <time>2017-03-02T14:18:30Z</time>
      </trkpt>
      <trkpt lat="45.77693" lon="4.3677">
        <ele>577</ele>
        <time>2017-03-02T14:18:31Z</time>
      </trkpt>
      <trkpt lat="45.777" lon="4.36777">
        <ele>577</ele>
        <time>2017-03-02T14:18:37Z</time>
      </trkpt>
      <trkpt lat="45.77701" lon="4.36777">
        <ele>577</ele>
        <time>2017-03-02T14:18:38Z</time>
      </trkpt>
      <trkpt lat="45.77709" lon="4.36782">
        <ele>577</ele>
        <time>2017-03-02T14:18:46Z</time>
      </trkpt>
      <trkpt lat="45.7771" lon="4.36782">
        <ele>577</ele>
        <time>2017-03-02T14:18:47Z</time>
      </trkpt>
      <trkpt lat="45.77717" lon="4.36789">
        <ele>577</ele>
        <time>2017-03-02T14:18:54Z</time>
      </trkpt>
      <trkpt lat="45.77719" lon="4.3679">
        <ele>577</ele>
        <time>2017-03-02T14:18:55Z</time>
      </trkpt>
      <trkpt lat="45.77725" lon="4.36798">
        <ele>578</ele>
        <time>2017-03-02T14:19:00Z</time>
      </trkpt>
      <trkpt lat="45.77726" lon="4.368">
        <ele>578</ele>
        <time>2017-03-02T14:19:01Z</time>
      </trkpt>
      <trkpt lat="45.77733" lon="4.36806">
        <ele>578</ele>
        <time>2017-03-02T14:19:08Z</time>
      </trkpt>
      <trkpt lat="45.77733" lon="4.36807">
        <ele>578</ele>
        <time>2017-03-02T14:19:09Z</time>
      </trkpt>
      <trkpt lat="45.77739" lon="4.36815">
        <ele>578</ele>
        <time>2017-03-02T14:19:16Z</time>
      </trkpt>
      <trkpt lat="45.7774" lon="4.36816">
        <ele>578</ele>
        <time>2017-03-02T14:19:17Z</time>
      </trkpt>
      <trkpt lat="45.77746" lon="4.36825">
        <ele>578</ele>
        <time>2017-03-02T14:19:23Z</time>
      </trkpt>
      <trkpt lat="45.77747" lon="4.36826">
        <ele>578</ele>
        <time>2017-03-02T14:19:24Z</time>
      </trkpt>
      <trkpt lat="45.77754" lon="4.36833">
        <ele>576</ele>
        <time>2017-03-02T14:19:31Z</time>
      </trkpt>
      <trkpt lat="45.77755" lon="4.36834">
        <ele>577</ele>
        <time>2017-03-02T14:19:32Z</time>
      </trkpt>
      <trkpt lat="45.77759" lon="4.36844">
        <ele>575</ele>
        <time>2017-03-02T14:19:39Z</time>
      </trkpt>
      <trkpt lat="45.77759" lon="4.36846">
        <ele>575</ele>
        <time>2017-03-02T14:19:40Z</time>
      </trkpt>
      <trkpt lat="45.77762" lon="4.36856">
        <ele>573</ele>
        <time>2017-03-02T14:19:46Z</time>
      </trkpt>
      <trkpt lat="45.77763" lon="4.36858">
        <ele>573</ele>
        <time>2017-03-02T14:19:47Z</time>
      </trkpt>
      <trkpt lat="45.77766" lon="4.36869">
        <ele>573</ele>
        <time>2017-03-02T14:19:53Z</time>
      </trkpt>
      <trkpt lat="45.77766" lon="4.3687">
        <ele>573</ele>
        <time>2017-03-02T14:19:54Z</time>
      </trkpt>
      <trkpt lat="45.77769" lon="4.36882">
        <ele>573</ele>
        <time>2017-03-02T14:20:01Z</time>
      </trkpt>
      <trkpt lat="45.77769" lon="4.36883">
        <ele>573</ele>
        <time>2017-03-02T14:20:02Z</time>
      </trkpt>
      <trkpt lat="45.77771" lon="4.36895">
        <ele>574</ele>
        <time>2017-03-02T14:20:09Z</time>
      </trkpt>
      <trkpt lat="45.77772" lon="4.36896">
        <ele>574</ele>
        <time>2017-03-02T14:20:10Z</time>
      </trkpt>
      <trkpt lat="45.77776" lon="4.36907">
        <ele>574</ele>
        <time>2017-03-02T14:20:17Z</time>
      </trkpt>
      <trkpt lat="45.77777" lon="4.36909">
        <ele>574</ele>
        <time>2017-03-02T14:20:18Z</time>
      </trkpt>
      <trkpt lat="45.77782" lon="4.36918">
        <ele>574</ele>
        <time>2017-03-02T14:20:24Z</time>
      </trkpt>
      <trkpt lat="45.77782" lon="4.36919">
        <ele>574</ele>
        <time>2017-03-02T14:20:25Z</time>
      </trkpt>
      <trkpt lat="45.77788" lon="4.36929">
        <ele>574</ele>
        <time>2017-03-02T14:20:34Z</time>
      </trkpt>
      <trkpt lat="45.77788" lon="4.3693">
        <ele>574</ele>
        <time>2017-03-02T14:20:35Z</time>
      </trkpt>
      <trkpt lat="45.77793" lon="4.36941">
        <ele>573</ele>
        <time>2017-03-02T14:20:46Z</time>
      </trkpt>
      <trkpt lat="45.77793" lon="4.36942">
        <ele>573</ele>
        <time>2017-03-02T14:20:47Z</time>
      </trkpt>
      <trkpt lat="45.77796" lon="4.36952">
        <ele>573</ele>
        <time>2017-03-02T14:20:53Z</time>
      </trkpt>
      <trkpt lat="45.77797" lon="4.36954">
        <ele>573</ele>
        <time>2017-03-02T14:20:54Z</time>
      </trkpt>
      <trkpt lat="45.77801" lon="4.36964">
        <ele>572</ele>
        <time>2017-03-02T14:20:59Z</time>
      </trkpt>
      <trkpt lat="45.77802" lon="4.36966">
        <ele>572</ele>
        <time>2017-03-02T14:21:00Z</time>
      </trkpt>
      <trkpt lat="45.77804" lon="4.36978">
        <ele>572</ele>
        <time>2017-03-02T14:21:05Z</time>
      </trkpt>
      <trkpt lat="45.77805" lon="4.3698">
        <ele>572</ele>
        <time>2017-03-02T14:21:06Z</time>
      </trkpt>
      <trkpt lat="45.77806" lon="4.36991">
        <ele>572</ele>
        <time>2017-03-02T14:21:11Z</time>
      </trkpt>
      <trkpt lat="45.77806" lon="4.36993">
        <ele>572</ele>
        <time>2017-03-02T14:21:12Z</time>
      </trkpt>
      <trkpt lat="45.77807" lon="4.37006">
        <ele>571</ele>
        <time>2017-03-02T14:21:18Z</time>
      </trkpt>
      <trkpt lat="45.77807" lon="4.37008">
        <ele>571</ele>
        <time>2017-03-02T14:21:19Z</time>
      </trkpt>
      <trkpt lat="45.77805" lon="4.3702">
        <ele>571</ele>
        <time>2017-03-02T14:21:26Z</time>
      </trkpt>
      <trkpt lat="45.77806" lon="4.37022">
        <ele>571</ele>
        <time>2017-03-02T14:21:27Z</time>
      </trkpt>
      <trkpt lat="45.77806" lon="4.37034">
        <ele>571</ele>
        <time>2017-03-02T14:21:33Z</time>
      </trkpt>
      <trkpt lat="45.77806" lon="4.37036">
        <ele>571</ele>
        <time>2017-03-02T14:21:34Z</time>
      </trkpt>
      <trkpt lat="45.77805" lon="4.37047">
        <ele>571</ele>
        <time>2017-03-02T14:21:39Z</time>
      </trkpt>
      <trkpt lat="45.77805" lon="4.37049">
        <ele>571</ele>
        <time>2017-03-02T14:21:40Z</time>
      </trkpt>
      <trkpt lat="45.77804" lon="4.3706">
        <ele>571</ele>
        <time>2017-03-02T14:21:46Z</time>
      </trkpt>
      <trkpt lat="45.77804" lon="4.37062">
        <ele>571</ele>
        <time>2017-03-02T14:21:47Z</time>
      </trkpt>
      <trkpt lat="45.77805" lon="4.37073">
        <ele>571</ele>
        <time>2017-03-02T14:21:53Z</time>
      </trkpt>
      <trkpt lat="45.77804" lon="4.37075">
        <ele>571</ele>
        <time>2017-03-02T14:21:54Z</time>
      </trkpt>
      <trkpt lat="45.77803" lon="4.37087">
        <ele>570</ele>
        <time>2017-03-02T14:22:00Z</time>
      </trkpt>
      <trkpt lat="45.77803" lon="4.37089">
        <ele>570</ele>
        <time>2017-03-02T14:22:01Z</time>
      </trkpt>
      <trkpt lat="45.77803" lon="4.37101">
        <ele>569</ele>
        <time>2017-03-02T14:22:08Z</time>
      </trkpt>
      <trkpt lat="45.77802" lon="4.37103">
        <ele>569</ele>
        <time>2017-03-02T14:22:09Z</time>
      </trkpt>
      <trkpt lat="45.778" lon="4.37115">
        <ele>569</ele>
        <time>2017-03-02T14:22:15Z</time>
      </trkpt>
      <trkpt lat="45.77799" lon="4.37116">
        <ele>569</ele>
        <time>2017-03-02T14:22:16Z</time>
      </trkpt>
      <trkpt lat="45.77799" lon="4.37129">
        <ele>569</ele>
        <time>2017-03-02T14:22:22Z</time>
      </trkpt>
      <trkpt lat="45.77799" lon="4.37132">
        <ele>569</ele>
        <time>2017-03-02T14:22:23Z</time>
      </trkpt>
      <trkpt lat="45.77799" lon="4.37143">
        <ele>569</ele>
        <time>2017-03-02T14:22:29Z</time>
      </trkpt>
      <trkpt lat="45.77798" lon="4.37145">
        <ele>569</ele>
        <time>2017-03-02T14:22:30Z</time>
      </trkpt>
      <trkpt lat="45.77797" lon="4.37157">
        <ele>569</ele>
        <time>2017-03-02T14:22:37Z</time>
      </trkpt>
      <trkpt lat="45.77797" lon="4.37159">
        <ele>569</ele>
        <time>2017-03-02T14:22:38Z</time>
      </trkpt>
      <trkpt lat="45.77799" lon="4.3717">
        <ele>568</ele>
        <time>2017-03-02T14:22:44Z</time>
      </trkpt>
      <trkpt lat="45.77799" lon="4.37172">
        <ele>568</ele>
        <time>2017-03-02T14:22:45Z</time>
      </trkpt>
      <trkpt lat="45.778" lon="4.37185">
        <ele>567</ele>
        <time>2017-03-02T14:22:51Z</time>
      </trkpt>
      <trkpt lat="45.77801" lon="4.37187">
        <ele>567</ele>
        <time>2017-03-02T14:22:52Z</time>
      </trkpt>
      <trkpt lat="45.77803" lon="4.37198">
        <ele>567</ele>
        <time>2017-03-02T14:22:58Z</time>
      </trkpt>
      <trkpt lat="45.77803" lon="4.372">
        <ele>567</ele>
        <time>2017-03-02T14:22:59Z</time>
      </trkpt>
      <trkpt lat="45.77805" lon="4.37212">
        <ele>567</ele>
        <time>2017-03-02T14:23:06Z</time>
      </trkpt>
      <trkpt lat="45.77805" lon="4.37214">
        <ele>567</ele>
        <time>2017-03-02T14:23:07Z</time>
      </trkpt>
      <trkpt lat="45.77807" lon="4.37226">
        <ele>566</ele>
        <time>2017-03-02T14:23:13Z</time>
      </trkpt>
      <trkpt lat="45.77807" lon="4.37229">
        <ele>566</ele>
        <time>2017-03-02T14:23:14Z</time>
      </trkpt>
      <trkpt lat="45.77806" lon="4.3724">
        <ele>566</ele>
        <time>2017-03-02T14:23:19Z</time>
      </trkpt>
      <trkpt lat="45.77806" lon="4.37242">
        <ele>566</ele>
        <time>2017-03-02T14:23:20Z</time>
      </trkpt>
      <trkpt lat="45.77807" lon="4.37255">
        <ele>564</ele>
        <time>2017-03-02T14:23:27Z</time>
      </trkpt>
      <trkpt lat="45.77807" lon="4.37256">
        <ele>564</ele>
        <time>2017-03-02T14:23:28Z</time>
      </trkpt>
      <trkpt lat="45.77807" lon="4.37268">
        <ele>564</ele>
        <time>2017-03-02T14:23:35Z</time>
      </trkpt>
      <trkpt lat="45.77806" lon="4.3727">
        <ele>564</ele>
        <time>2017-03-02T14:23:36Z</time>
      </trkpt>
      <trkpt lat="45.77806" lon="4.37281">
        <ele>564</ele>
        <time>2017-03-02T14:23:42Z</time>
      </trkpt>
      <trkpt lat="45.77806" lon="4.37283">
        <ele>564</ele>
        <time>2017-03-02T14:23:43Z</time>
      </trkpt>
      <trkpt lat="45.77802" lon="4.37294">
        <ele>563</ele>
        <time>2017-03-02T14:23:51Z</time>
      </trkpt>
      <trkpt lat="45.77801" lon="4.37294">
        <ele>563</ele>
        <time>2017-03-02T14:23:52Z</time>
      </trkpt>
      <trkpt lat="45.77797" lon="4.37304">
        <ele>563</ele>
        <time>2017-03-02T14:24:45Z</time>
      </trkpt>
      <trkpt lat="45.77797" lon="4.37306">
        <ele>563</ele>
        <time>2017-03-02T14:24:46Z</time>
      </trkpt>
      <trkpt lat="45.77802" lon="4.37295">
        <ele>563</ele>
        <time>2017-03-02T14:26:00Z</time>
      </trkpt>
      <trkpt lat="45.77803" lon="4.37294">
        <ele>563</ele>
        <time>2017-03-02T14:26:01Z</time>
      </trkpt>
      <trkpt lat="45.77812" lon="4.37295">
        <ele>564</ele>
        <time>2017-03-02T14:26:08Z</time>
      </trkpt>
      <trkpt lat="45.77813" lon="4.37297">
        <ele>564</ele>
        <time>2017-03-02T14:26:09Z</time>
      </trkpt>
      <trkpt lat="45.77818" lon="4.37306">
        <ele>564</ele>
        <time>2017-03-02T14:26:16Z</time>
      </trkpt>
      <trkpt lat="45.77819" lon="4.37308">
        <ele>564</ele>
        <time>2017-03-02T14:26:17Z</time>
      </trkpt>
      <trkpt lat="45.77825" lon="4.37316">
        <ele>564</ele>
        <time>2017-03-02T14:26:24Z</time>
      </trkpt>
      <trkpt lat="45.77826" lon="4.37317">
        <ele>564</ele>
        <time>2017-03-02T14:26:25Z</time>
      </trkpt>
      <trkpt lat="45.77832" lon="4.37326">
        <ele>564</ele>
        <time>2017-03-02T14:26:32Z</time>
      </trkpt>
      <trkpt lat="45.77832" lon="4.37326">
        <ele>565</ele>
        <time>2017-03-02T14:26:33Z</time>
      </trkpt>
      <trkpt lat="45.77838" lon="4.37335">
        <ele>565</ele>
        <time>2017-03-02T14:26:40Z</time>
      </trkpt>
      <trkpt lat="45.77839" lon="4.37336">
        <ele>564</ele>
        <time>2017-03-02T14:26:41Z</time>
      </trkpt>
      <trkpt lat="45.77843" lon="4.37346">
        <ele>564</ele>
        <time>2017-03-02T14:26:47Z</time>
      </trkpt>
      <trkpt lat="45.77844" lon="4.37348">
        <ele>564</ele>
        <time>2017-03-02T14:26:48Z</time>
      </trkpt>
      <trkpt lat="45.77848" lon="4.37359">
        <ele>563</ele>
        <time>2017-03-02T14:26:55Z</time>
      </trkpt>
      <trkpt lat="45.77848" lon="4.37361">
        <ele>563</ele>
        <time>2017-03-02T14:26:56Z</time>
      </trkpt>
      <trkpt lat="45.77852" lon="4.37371">
        <ele>563</ele>
        <time>2017-03-02T14:27:02Z</time>
      </trkpt>
      <trkpt lat="45.77852" lon="4.37373">
        <ele>563</ele>
        <time>2017-03-02T14:27:03Z</time>
      </trkpt>
      <trkpt lat="45.77854" lon="4.37384">
        <ele>563</ele>
        <time>2017-03-02T14:27:09Z</time>
      </trkpt>
      <trkpt lat="45.77855" lon="4.37386">
        <ele>563</ele>
        <time>2017-03-02T14:27:10Z</time>
      </trkpt>
      <trkpt lat="45.77856" lon="4.37397">
        <ele>563</ele>
        <time>2017-03-02T14:27:16Z</time>
      </trkpt>
      <trkpt lat="45.77856" lon="4.37399">
        <ele>563</ele>
        <time>2017-03-02T14:27:17Z</time>
      </trkpt>
      <trkpt lat="45.77857" lon="4.37411">
        <ele>563</ele>
        <time>2017-03-02T14:27:23Z</time>
      </trkpt>
      <trkpt lat="45.77857" lon="4.37412">
        <ele>563</ele>
        <time>2017-03-02T14:27:24Z</time>
      </trkpt>
      <trkpt lat="45.77857" lon="4.37424">
        <ele>564</ele>
        <time>2017-03-02T14:27:30Z</time>
      </trkpt>
      <trkpt lat="45.77857" lon="4.37426">
        <ele>564</ele>
        <time>2017-03-02T14:27:31Z</time>
      </trkpt>
      <trkpt lat="45.77858" lon="4.37437">
        <ele>565</ele>
        <time>2017-03-02T14:27:37Z</time>
      </trkpt>
      <trkpt lat="45.77858" lon="4.37439">
        <ele>565</ele>
        <time>2017-03-02T14:27:38Z</time>
      </trkpt>
      <trkpt lat="45.7786" lon="4.37449">
        <ele>565</ele>
        <time>2017-03-02T14:27:44Z</time>
      </trkpt>
      <trkpt lat="45.7786" lon="4.37451">
        <ele>565</ele>
        <time>2017-03-02T14:27:45Z</time>
      </trkpt>
      <trkpt lat="45.77863" lon="4.37461">
        <ele>565</ele>
        <time>2017-03-02T14:27:51Z</time>
      </trkpt>
      <trkpt lat="45.77864" lon="4.37463">
        <ele>565</ele>
        <time>2017-03-02T14:27:52Z</time>
      </trkpt>
      <trkpt lat="45.77866" lon="4.37474">
        <ele>565</ele>
        <time>2017-03-02T14:27:58Z</time>
      </trkpt>
      <trkpt lat="45.77867" lon="4.37476">
        <ele>565</ele>
        <time>2017-03-02T14:27:59Z</time>
      </trkpt>
      <trkpt lat="45.77869" lon="4.37487">
        <ele>565</ele>
        <time>2017-03-02T14:28:05Z</time>
      </trkpt>
      <trkpt lat="45.77869" lon="4.37489">
        <ele>565</ele>
        <time>2017-03-02T14:28:06Z</time>
      </trkpt>
      <trkpt lat="45.77871" lon="4.375">
        <ele>565</ele>
        <time>2017-03-02T14:28:12Z</time>
      </trkpt>
      <trkpt lat="45.77871" lon="4.37501">
        <ele>569</ele>
        <time>2017-03-02T14:28:13Z</time>
      </trkpt>
      <trkpt lat="45.77873" lon="4.37512">
        <ele>569</ele>
        <time>2017-03-02T14:28:19Z</time>
      </trkpt>
      <trkpt lat="45.77874" lon="4.37514">
        <ele>569</ele>
        <time>2017-03-02T14:28:20Z</time>
      </trkpt>
      <trkpt lat="45.77877" lon="4.37525">
        <ele>569</ele>
        <time>2017-03-02T14:28:26Z</time>
      </trkpt>
      <trkpt lat="45.77878" lon="4.37527">
        <ele>569</ele>
        <time>2017-03-02T14:28:27Z</time>
      </trkpt>
      <trkpt lat="45.77882" lon="4.37536">
        <ele>570</ele>
        <time>2017-03-02T14:28:33Z</time>
      </trkpt>
      <trkpt lat="45.77883" lon="4.37538">
        <ele>570</ele>
        <time>2017-03-02T14:28:34Z</time>
      </trkpt>
      <trkpt lat="45.77888" lon="4.37548">
        <ele>570</ele>
        <time>2017-03-02T14:28:47Z</time>
      </trkpt>
      <trkpt lat="45.77889" lon="4.37548">
        <ele>570</ele>
        <time>2017-03-02T14:28:48Z</time>
      </trkpt>
      <trkpt lat="45.77895" lon="4.37554">
        <ele>570</ele>
        <time>2017-03-02T14:29:02Z</time>
      </trkpt>
      <trkpt lat="45.77896" lon="4.37555">
        <ele>570</ele>
        <time>2017-03-02T14:29:03Z</time>
      </trkpt>
      <trkpt lat="45.77903" lon="4.37562">
        <ele>571</ele>
        <time>2017-03-02T14:29:10Z</time>
      </trkpt>
      <trkpt lat="45.77904" lon="4.37563">
        <ele>571</ele>
        <time>2017-03-02T14:29:11Z</time>
      </trkpt>
      <trkpt lat="45.77911" lon="4.37569">
        <ele>571</ele>
        <time>2017-03-02T14:29:17Z</time>
      </trkpt>
      <trkpt lat="45.77912" lon="4.37569">
        <ele>571</ele>
        <time>2017-03-02T14:29:18Z</time>
      </trkpt>
      <trkpt lat="45.7792" lon="4.37573">
        <ele>568</ele>
        <time>2017-03-02T14:29:24Z</time>
      </trkpt>
      <trkpt lat="45.77921" lon="4.37574">
        <ele>568</ele>
        <time>2017-03-02T14:29:25Z</time>
      </trkpt>
      <trkpt lat="45.77928" lon="4.37578">
        <ele>568</ele>
        <time>2017-03-02T14:29:32Z</time>
      </trkpt>
      <trkpt lat="45.77929" lon="4.37579">
        <ele>568</ele>
        <time>2017-03-02T14:29:33Z</time>
      </trkpt>
      <trkpt lat="45.77936" lon="4.37587">
        <ele>570</ele>
        <time>2017-03-02T14:29:40Z</time>
      </trkpt>
      <trkpt lat="45.77937" lon="4.37588">
        <ele>570</ele>
        <time>2017-03-02T14:29:41Z</time>
      </trkpt>
      <trkpt lat="45.77942" lon="4.37597">
        <ele>570</ele>
        <time>2017-03-02T14:29:47Z</time>
      </trkpt>
      <trkpt lat="45.77943" lon="4.37599">
        <ele>570</ele>
        <time>2017-03-02T14:29:48Z</time>
      </trkpt>
      <trkpt lat="45.77946" lon="4.37609">
        <ele>570</ele>
        <time>2017-03-02T14:29:54Z</time>
      </trkpt>
      <trkpt lat="45.77946" lon="4.37611">
        <ele>570</ele>
        <time>2017-03-02T14:29:55Z</time>
      </trkpt>
      <trkpt lat="45.77947" lon="4.37623">
        <ele>571</ele>
        <time>2017-03-02T14:30:01Z</time>
      </trkpt>
      <trkpt lat="45.77948" lon="4.37626">
        <ele>571</ele>
        <time>2017-03-02T14:30:02Z</time>
      </trkpt>
      <trkpt lat="45.77948" lon="4.37637">
        <ele>571</ele>
        <time>2017-03-02T14:30:08Z</time>
      </trkpt>
      <trkpt lat="45.77948" lon="4.37639">
        <ele>571</ele>
        <time>2017-03-02T14:30:09Z</time>
      </trkpt>
      <trkpt lat="45.77949" lon="4.3765">
        <ele>572</ele>
        <time>2017-03-02T14:30:15Z</time>
      </trkpt>
      <trkpt lat="45.77949" lon="4.37652">
        <ele>572</ele>
        <time>2017-03-02T14:30:16Z</time>
      </trkpt>
      <trkpt lat="45.7795" lon="4.37664">
        <ele>572</ele>
        <time>2017-03-02T14:30:23Z</time>
      </trkpt>
      <trkpt lat="45.77951" lon="4.37665">
        <ele>572</ele>
        <time>2017-03-02T14:30:24Z</time>
      </trkpt>
      <trkpt lat="45.77954" lon="4.37676">
        <ele>577</ele>
        <time>2017-03-02T14:30:32Z</time>
      </trkpt>
      <trkpt lat="45.77954" lon="4.37678">
        <ele>577</ele>
        <time>2017-03-02T14:30:33Z</time>
      </trkpt>
      <trkpt lat="45.77958" lon="4.37689">
        <ele>576</ele>
        <time>2017-03-02T14:30:39Z</time>
      </trkpt>
      <trkpt lat="45.77959" lon="4.37691">
        <ele>576</ele>
        <time>2017-03-02T14:30:40Z</time>
      </trkpt>
      <trkpt lat="45.77962" lon="4.37701">
        <ele>576</ele>
        <time>2017-03-02T14:30:46Z</time>
      </trkpt>
      <trkpt lat="45.77963" lon="4.37702">
        <ele>576</ele>
        <time>2017-03-02T14:30:47Z</time>
      </trkpt>
      <trkpt lat="45.77968" lon="4.37711">
        <ele>576</ele>
        <time>2017-03-02T14:30:53Z</time>
      </trkpt>
      <trkpt lat="45.77968" lon="4.37713">
        <ele>576</ele>
        <time>2017-03-02T14:30:54Z</time>
      </trkpt>
      <trkpt lat="45.77973" lon="4.37723">
        <ele>576</ele>
        <time>2017-03-02T14:31:01Z</time>
      </trkpt>
      <trkpt lat="45.77974" lon="4.37725">
        <ele>576</ele>
        <time>2017-03-02T14:31:02Z</time>
      </trkpt>
      <trkpt lat="45.77979" lon="4.37733">
        <ele>576</ele>
        <time>2017-03-02T14:31:08Z</time>
      </trkpt>
      <trkpt lat="45.7798" lon="4.37735">
        <ele>576</ele>
        <time>2017-03-02T14:31:09Z</time>
      </trkpt>
      <trkpt lat="45.77985" lon="4.37745">
        <ele>576</ele>
        <time>2017-03-02T14:31:16Z</time>
      </trkpt>
      <trkpt lat="45.77985" lon="4.37747">
        <ele>576</ele>
        <time>2017-03-02T14:31:17Z</time>
      </trkpt>
      <trkpt lat="45.77989" lon="4.37758">
        <ele>578</ele>
        <time>2017-03-02T14:31:23Z</time>
      </trkpt>
      <trkpt lat="45.7799" lon="4.3776">
        <ele>578</ele>
        <time>2017-03-02T14:31:24Z</time>
      </trkpt>
      <trkpt lat="45.77992" lon="4.37771">
        <ele>579</ele>
        <time>2017-03-02T14:31:29Z</time>
      </trkpt>
      <trkpt lat="45.77993" lon="4.37773">
        <ele>579</ele>
        <time>2017-03-02T14:31:30Z</time>
      </trkpt>
      <trkpt lat="45.77995" lon="4.37784">
        <ele>580</ele>
        <time>2017-03-02T14:31:35Z</time>
      </trkpt>
      <trkpt lat="45.77995" lon="4.37786">
        <ele>580</ele>
        <time>2017-03-02T14:31:36Z</time>
      </trkpt>
      <trkpt lat="45.77995" lon="4.37797">
        <ele>581</ele>
        <time>2017-03-02T14:31:41Z</time>
      </trkpt>
      <trkpt lat="45.77996" lon="4.37799">
        <ele>581</ele>
        <time>2017-03-02T14:31:42Z</time>
      </trkpt>
      <trkpt lat="45.77996" lon="4.3781">
        <ele>582</ele>
        <time>2017-03-02T14:31:47Z</time>
      </trkpt>
      <trkpt lat="45.77995" lon="4.37812">
        <ele>582</ele>
        <time>2017-03-02T14:31:48Z</time>
      </trkpt>
      <trkpt lat="45.77996" lon="4.37824">
        <ele>582</ele>
        <time>2017-03-02T14:31:54Z</time>
      </trkpt>
      <trkpt lat="45.77996" lon="4.37826">
        <ele>582</ele>
        <time>2017-03-02T14:31:55Z</time>
      </trkpt>
      <trkpt lat="45.77996" lon="4.37838">
        <ele>582</ele>
        <time>2017-03-02T14:32:01Z</time>
      </trkpt>
      <trkpt lat="45.77996" lon="4.37839">
        <ele>582</ele>
        <time>2017-03-02T14:32:02Z</time>
      </trkpt>
      <trkpt lat="45.77997" lon="4.37851">
        <ele>583</ele>
        <time>2017-03-02T14:32:08Z</time>
      </trkpt>
      <trkpt lat="45.77997" lon="4.37853">
        <ele>583</ele>
        <time>2017-03-02T14:32:09Z</time>
      </trkpt>
      <trkpt lat="45.77998" lon="4.37864">
        <ele>583</ele>
        <time>2017-03-02T14:32:15Z</time>
      </trkpt>
      <trkpt lat="45.77998" lon="4.37866">
        <ele>583</ele>
        <time>2017-03-02T14:32:16Z</time>
      </trkpt>
      <trkpt lat="45.77999" lon="4.37878">
        <ele>583</ele>
        <time>2017-03-02T14:32:23Z</time>
      </trkpt>
      <trkpt lat="45.77999" lon="4.3788">
        <ele>583</ele>
        <time>2017-03-02T14:32:24Z</time>
      </trkpt>
      <trkpt lat="45.78003" lon="4.3789">
        <ele>579</ele>
        <time>2017-03-02T14:32:30Z</time>
      </trkpt>
      <trkpt lat="45.78003" lon="4.37892">
        <ele>579</ele>
        <time>2017-03-02T14:32:31Z</time>
      </trkpt>
      <trkpt lat="45.78006" lon="4.37903">
        <ele>580</ele>
        <time>2017-03-02T14:32:37Z</time>
      </trkpt>
      <trkpt lat="45.78006" lon="4.37905">
        <ele>580</ele>
        <time>2017-03-02T14:32:38Z</time>
      </trkpt>
      <trkpt lat="45.78009" lon="4.37916">
        <ele>581</ele>
        <time>2017-03-02T14:32:44Z</time>
      </trkpt>
      <trkpt lat="45.7801" lon="4.37917">
        <ele>582</ele>
        <time>2017-03-02T14:32:45Z</time>
      </trkpt>
      <trkpt lat="45.78012" lon="4.37929">
        <ele>582</ele>
        <time>2017-03-02T14:32:52Z</time>
      </trkpt>
      <trkpt lat="45.78013" lon="4.37931">
        <ele>582</ele>
        <time>2017-03-02T14:32:53Z</time>
      </trkpt>
      <trkpt lat="45.78019" lon="4.3794">
        <ele>582</ele>
        <time>2017-03-02T14:33:00Z</time>
      </trkpt>
      <trkpt lat="45.7802" lon="4.3794">
        <ele>581</ele>
        <time>2017-03-02T14:33:01Z</time>
      </trkpt>
      <trkpt lat="45.78026" lon="4.3795">
        <ele>581</ele>
        <time>2017-03-02T14:33:09Z</time>
      </trkpt>
      <trkpt lat="45.78027" lon="4.37951">
        <ele>581</ele>
        <time>2017-03-02T14:33:10Z</time>
      </trkpt>
      <trkpt lat="45.78031" lon="4.3796">
        <ele>581</ele>
        <time>2017-03-02T14:33:16Z</time>
      </trkpt>
      <trkpt lat="45.78032" lon="4.37962">
        <ele>581</ele>
        <time>2017-03-02T14:33:17Z</time>
      </trkpt>
      <trkpt lat="45.78038" lon="4.3797">
        <ele>581</ele>
        <time>2017-03-02T14:33:23Z</time>
      </trkpt>
      <trkpt lat="45.78039" lon="4.37972">
        <ele>581</ele>
        <time>2017-03-02T14:33:24Z</time>
      </trkpt>
      <trkpt lat="45.78042" lon="4.37984">
        <ele>582</ele>
        <time>2017-03-02T14:33:30Z</time>
      </trkpt>
      <trkpt lat="45.78042" lon="4.37986">
        <ele>582</ele>
        <time>2017-03-02T14:33:31Z</time>
      </trkpt>
      <trkpt lat="45.78046" lon="4.37996">
        <ele>582</ele>
        <time>2017-03-02T14:33:37Z</time>
      </trkpt>
      <trkpt lat="45.78047" lon="4.37997">
        <ele>582</ele>
        <time>2017-03-02T14:33:38Z</time>
      </trkpt>
      <trkpt lat="45.78052" lon="4.38008">
        <ele>583</ele>
        <time>2017-03-02T14:33:44Z</time>
      </trkpt>
      <trkpt lat="45.78052" lon="4.38009">
        <ele>583</ele>
        <time>2017-03-02T14:33:45Z</time>
      </trkpt>
      <trkpt lat="45.78053" lon="4.38021">
        <ele>583</ele>
        <time>2017-03-02T14:33:52Z</time>
      </trkpt>
      <trkpt lat="45.78054" lon="4.38022">
        <ele>583</ele>
        <time>2017-03-02T14:33:53Z</time>
      </trkpt>
      <trkpt lat="45.78059" lon="4.38032">
        <ele>583</ele>
        <time>2017-03-02T14:33:59Z</time>
      </trkpt>
      <trkpt lat="45.78059" lon="4.38034">
        <ele>583</ele>
        <time>2017-03-02T14:34:00Z</time>
      </trkpt>
      <trkpt lat="45.78062" lon="4.38044">
        <ele>583</ele>
        <time>2017-03-02T14:34:06Z</time>
      </trkpt>
      <trkpt lat="45.78063" lon="4.38046">
        <ele>583</ele>
        <time>2017-03-02T14:34:07Z</time>
      </trkpt>
      <trkpt lat="45.78067" lon="4.38057">
        <ele>583</ele>
        <time>2017-03-02T14:34:13Z</time>
      </trkpt>
      <trkpt lat="45.78068" lon="4.38059">
        <ele>583</ele>
        <time>2017-03-02T14:34:14Z</time>
      </trkpt>
      <trkpt lat="45.78071" lon="4.38068">
        <ele>583</ele>
        <time>2017-03-02T14:34:19Z</time>
      </trkpt>
      <trkpt lat="45.78072" lon="4.3807">
        <ele>583</ele>
        <time>2017-03-02T14:34:20Z</time>
      </trkpt>
      <trkpt lat="45.78076" lon="4.38081">
        <ele>583</ele>
        <time>2017-03-02T14:34:26Z</time>
      </trkpt>
      <trkpt lat="45.78076" lon="4.38083">
        <ele>583</ele>
        <time>2017-03-02T14:34:27Z</time>
      </trkpt>
      <trkpt lat="45.7808" lon="4.38093">
        <ele>583</ele>
        <time>2017-03-02T14:34:33Z</time>
      </trkpt>
      <trkpt lat="45.78081" lon="4.38095">
        <ele>583</ele>
        <time>2017-03-02T14:34:34Z</time>
      </trkpt>
      <trkpt lat="45.78084" lon="4.38105">
        <ele>583</ele>
        <time>2017-03-02T14:34:40Z</time>
      </trkpt>
      <trkpt lat="45.78085" lon="4.38107">
        <ele>583</ele>
        <time>2017-03-02T14:34:41Z</time>
      </trkpt>
      <trkpt lat="45.78089" lon="4.38118">
        <ele>583</ele>
        <time>2017-03-02T14:34:47Z</time>
      </trkpt>
      <trkpt lat="45.7809" lon="4.3812">
        <ele>583</ele>
        <time>2017-03-02T14:34:48Z</time>
      </trkpt>
      <trkpt lat="45.78094" lon="4.3813">
        <ele>583</ele>
        <time>2017-03-02T14:34:54Z</time>
      </trkpt>
      <trkpt lat="45.78094" lon="4.38132">
        <ele>583</ele>
        <time>2017-03-02T14:34:55Z</time>
      </trkpt>
      <trkpt lat="45.78099" lon="4.38143">
        <ele>583</ele>
        <time>2017-03-02T14:35:02Z</time>
      </trkpt>
      <trkpt lat="45.78099" lon="4.38144">
        <ele>583</ele>
        <time>2017-03-02T14:35:03Z</time>
      </trkpt>
      <trkpt lat="45.78103" lon="4.38155">
        <ele>583</ele>
        <time>2017-03-02T14:35:10Z</time>
      </trkpt>
      <trkpt lat="45.78104" lon="4.38157">
        <ele>583</ele>
        <time>2017-03-02T14:35:11Z</time>
      </trkpt>
      <trkpt lat="45.78108" lon="4.38168">
        <ele>584</ele>
        <time>2017-03-02T14:35:17Z</time>
      </trkpt>
      <trkpt lat="45.78108" lon="4.38169">
        <ele>584</ele>
        <time>2017-03-02T14:35:18Z</time>
      </trkpt>
      <trkpt lat="45.78112" lon="4.3818">
        <ele>584</ele>
        <time>2017-03-02T14:35:24Z</time>
      </trkpt>
      <trkpt lat="45.78112" lon="4.38182">
        <ele>584</ele>
        <time>2017-03-02T14:35:25Z</time>
      </trkpt>
      <trkpt lat="45.78116" lon="4.38193">
        <ele>584</ele>
        <time>2017-03-02T14:35:31Z</time>
      </trkpt>
      <trkpt lat="45.78116" lon="4.38194">
        <ele>584</ele>
        <time>2017-03-02T14:35:32Z</time>
      </trkpt>
      <trkpt lat="45.78119" lon="4.38205">
        <ele>584</ele>
        <time>2017-03-02T14:35:38Z</time>
      </trkpt>
      <trkpt lat="45.7812" lon="4.38207">
        <ele>584</ele>
        <time>2017-03-02T14:35:39Z</time>
      </trkpt>
      <trkpt lat="45.78122" lon="4.38219">
        <ele>584</ele>
        <time>2017-03-02T14:35:45Z</time>
      </trkpt>
      <trkpt lat="45.78122" lon="4.3822">
        <ele>585</ele>
        <time>2017-03-02T14:35:46Z</time>
      </trkpt>
      <trkpt lat="45.78124" lon="4.38232">
        <ele>585</ele>
        <time>2017-03-02T14:35:52Z</time>
      </trkpt>
      <trkpt lat="45.78124" lon="4.38234">
        <ele>585</ele>
        <time>2017-03-02T14:35:53Z</time>
      </trkpt>
      <trkpt lat="45.78125" lon="4.38246">
        <ele>585</ele>
        <time>2017-03-02T14:35:59Z</time>
      </trkpt>
      <trkpt lat="45.78125" lon="4.38247">
        <ele>585</ele>
        <time>2017-03-02T14:36:00Z</time>
      </trkpt>
      <trkpt lat="45.78126" lon="4.38259">
        <ele>586</ele>
        <time>2017-03-02T14:36:06Z</time>
      </trkpt>
      <trkpt lat="45.78126" lon="4.38261">
        <ele>586</ele>
        <time>2017-03-02T14:36:07Z</time>
      </trkpt>
      <trkpt lat="45.78127" lon="4.38272">
        <ele>586</ele>
        <time>2017-03-02T14:36:13Z</time>
      </trkpt>
      <trkpt lat="45.78127" lon="4.38274">
        <ele>586</ele>
        <time>2017-03-02T14:36:14Z</time>
      </trkpt>
      <trkpt lat="45.78127" lon="4.38286">
        <ele>587</ele>
        <time>2017-03-02T14:36:20Z</time>
      </trkpt>
      <trkpt lat="45.78127" lon="4.38288">
        <ele>587</ele>
        <time>2017-03-02T14:36:21Z</time>
      </trkpt>
      <trkpt lat="45.78127" lon="4.383">
        <ele>587</ele>
        <time>2017-03-02T14:36:28Z</time>
      </trkpt>
      <trkpt lat="45.78127" lon="4.38302">
        <ele>587</ele>
        <time>2017-03-02T14:36:29Z</time>
      </trkpt>
      <trkpt lat="45.78127" lon="4.38313">
        <ele>587</ele>
        <time>2017-03-02T14:36:35Z</time>
      </trkpt>
      <trkpt lat="45.78127" lon="4.38315">
        <ele>587</ele>
        <time>2017-03-02T14:36:36Z</time>
      </trkpt>
      <trkpt lat="45.78124" lon="4.38327">
        <ele>587</ele>
        <time>2017-03-02T14:36:42Z</time>
      </trkpt>
      <trkpt lat="45.78123" lon="4.38329">
        <ele>587</ele>
        <time>2017-03-02T14:36:43Z</time>
      </trkpt>
      <trkpt lat="45.78122" lon="4.3834">
        <ele>589</ele>
        <time>2017-03-02T14:36:49Z</time>
      </trkpt>
      <trkpt lat="45.78122" lon="4.38342">
        <ele>589</ele>
        <time>2017-03-02T14:36:50Z</time>
      </trkpt>
      <trkpt lat="45.78121" lon="4.38354">
        <ele>589</ele>
        <time>2017-03-02T14:36:56Z</time>
      </trkpt>
      <trkpt lat="45.78121" lon="4.38356">
        <ele>590</ele>
        <time>2017-03-02T14:36:57Z</time>
      </trkpt>
      <trkpt lat="45.78117" lon="4.38366">
        <ele>590</ele>
        <time>2017-03-02T14:37:04Z</time>
      </trkpt>
      <trkpt lat="45.78116" lon="4.38368">
        <ele>590</ele>
        <time>2017-03-02T14:37:05Z</time>
      </trkpt>
      <trkpt lat="45.78112" lon="4.38378">
        <ele>590</ele>
        <time>2017-03-02T14:37:15Z</time>
      </trkpt>
      <trkpt lat="45.78112" lon="4.3838">
        <ele>590</ele>
        <time>2017-03-02T14:37:16Z</time>
      </trkpt>
      <trkpt lat="45.78105" lon="4.38388">
        <ele>590</ele>
        <time>2017-03-02T14:37:25Z</time>
      </trkpt>
      <trkpt lat="45.78104" lon="4.38389">
        <ele>590</ele>
        <time>2017-03-02T14:37:26Z</time>
      </trkpt>
      <trkpt lat="45.78098" lon="4.38397">
        <ele>590</ele>
        <time>2017-03-02T14:37:33Z</time>
      </trkpt>
      <trkpt lat="45.78097" lon="4.38399">
        <ele>590</ele>
        <time>2017-03-02T14:37:34Z</time>
      </trkpt>
      <trkpt lat="45.78091" lon="4.38407">
        <ele>590</ele>
        <time>2017-03-02T14:37:41Z</time>
      </trkpt>
      <trkpt lat="45.7809" lon="4.38408">
        <ele>589</ele>
        <time>2017-03-02T14:37:42Z</time>
      </trkpt>
      <trkpt lat="45.78084" lon="4.38415">
        <ele>589</ele>
        <time>2017-03-02T14:37:48Z</time>
      </trkpt>
      <trkpt lat="45.78083" lon="4.38417">
        <ele>589</ele>
        <time>2017-03-02T14:37:49Z</time>
      </trkpt>
      <trkpt lat="45.78075" lon="4.38422">
        <ele>588</ele>
        <time>2017-03-02T14:37:55Z</time>
      </trkpt>
      <trkpt lat="45.78074" lon="4.38423">
        <ele>588</ele>
        <time>2017-03-02T14:37:56Z</time>
      </trkpt>
      <trkpt lat="45.78066" lon="4.38427">
        <ele>587</ele>
        <time>2017-03-02T14:38:02Z</time>
      </trkpt>
      <trkpt lat="45.78065" lon="4.38428">
        <ele>587</ele>
        <time>2017-03-02T14:38:03Z</time>
      </trkpt>
      <trkpt lat="45.78057" lon="4.38433">
        <ele>586</ele>
        <time>2017-03-02T14:38:09Z</time>
      </trkpt>
      <trkpt lat="45.78056" lon="4.38433">
        <ele>586</ele>
        <time>2017-03-02T14:38:10Z</time>
      </trkpt>
      <trkpt lat="45.78048" lon="4.38439">
        <ele>585</ele>
        <time>2017-03-02T14:38:16Z</time>
      </trkpt>
      <trkpt lat="45.78047" lon="4.3844">
        <ele>585</ele>
        <time>2017-03-02T14:38:17Z</time>
      </trkpt>
      <trkpt lat="45.78039" lon="4.38443">
        <ele>585</ele>
        <time>2017-03-02T14:38:23Z</time>
      </trkpt>
      <trkpt lat="45.78038" lon="4.38444">
        <ele>584</ele>
        <time>2017-03-02T14:38:24Z</time>
      </trkpt>
      <trkpt lat="45.78031" lon="4.38451">
        <ele>584</ele>
        <time>2017-03-02T14:38:30Z</time>
      </trkpt>
      <trkpt lat="45.7803" lon="4.38452">
        <ele>584</ele>
        <time>2017-03-02T14:38:31Z</time>
      </trkpt>
      <trkpt lat="45.78022" lon="4.38457">
        <ele>584</ele>
        <time>2017-03-02T14:38:38Z</time>
      </trkpt>
      <trkpt lat="45.78021" lon="4.38457">
        <ele>584</ele>
        <time>2017-03-02T14:38:39Z</time>
      </trkpt>
      <trkpt lat="45.78013" lon="4.38463">
        <ele>583</ele>
        <time>2017-03-02T14:38:46Z</time>
      </trkpt>
      <trkpt lat="45.78012" lon="4.38464">
        <ele>583</ele>
        <time>2017-03-02T14:38:47Z</time>
      </trkpt>
      <trkpt lat="45.78004" lon="4.3847">
        <ele>583</ele>
        <time>2017-03-02T14:38:54Z</time>
      </trkpt>
      <trkpt lat="45.78003" lon="4.38471">
        <ele>583</ele>
        <time>2017-03-02T14:38:55Z</time>
      </trkpt>
      <trkpt lat="45.77995" lon="4.38474">
        <ele>577</ele>
        <time>2017-03-02T14:39:01Z</time>
      </trkpt>
      <trkpt lat="45.77994" lon="4.38475">
        <ele>577</ele>
        <time>2017-03-02T14:39:02Z</time>
      </trkpt>
      <trkpt lat="45.77987" lon="4.38482">
        <ele>577</ele>
        <time>2017-03-02T14:39:10Z</time>
      </trkpt>
      <trkpt lat="45.77986" lon="4.38483">
        <ele>577</ele>
        <time>2017-03-02T14:39:11Z</time>
      </trkpt>
      <trkpt lat="45.77979" lon="4.38489">
        <ele>577</ele>
        <time>2017-03-02T14:39:17Z</time>
      </trkpt>
      <trkpt lat="45.77978" lon="4.3849">
        <ele>577</ele>
        <time>2017-03-02T14:39:18Z</time>
      </trkpt>
      <trkpt lat="45.7797" lon="4.38494">
        <ele>576</ele>
        <time>2017-03-02T14:39:24Z</time>
      </trkpt>
      <trkpt lat="45.77969" lon="4.38496">
        <ele>576</ele>
        <time>2017-03-02T14:39:25Z</time>
      </trkpt>
      <trkpt lat="45.77962" lon="4.38503">
        <ele>575</ele>
        <time>2017-03-02T14:39:31Z</time>
      </trkpt>
      <trkpt lat="45.77961" lon="4.38504">
        <ele>575</ele>
        <time>2017-03-02T14:39:32Z</time>
      </trkpt>
      <trkpt lat="45.77953" lon="4.38508">
        <ele>574</ele>
        <time>2017-03-02T14:39:38Z</time>
      </trkpt>
      <trkpt lat="45.77952" lon="4.38509">
        <ele>574</ele>
        <time>2017-03-02T14:39:39Z</time>
      </trkpt>
      <trkpt lat="45.77945" lon="4.38515">
        <ele>574</ele>
        <time>2017-03-02T14:39:46Z</time>
      </trkpt>
      <trkpt lat="45.77944" lon="4.38516">
        <ele>574</ele>
        <time>2017-03-02T14:39:47Z</time>
      </trkpt>
      <trkpt lat="45.77937" lon="4.3852">
        <ele>573</ele>
        <time>2017-03-02T14:39:54Z</time>
      </trkpt>
      <trkpt lat="45.77935" lon="4.38521">
        <ele>573</ele>
        <time>2017-03-02T14:39:55Z</time>
      </trkpt>
      <trkpt lat="45.77928" lon="4.38529">
        <ele>573</ele>
        <time>2017-03-02T14:40:02Z</time>
      </trkpt>
      <trkpt lat="45.77927" lon="4.3853">
        <ele>573</ele>
        <time>2017-03-02T14:40:03Z</time>
      </trkpt>
      <trkpt lat="45.77921" lon="4.38535">
        <ele>573</ele>
        <time>2017-03-02T14:40:08Z</time>
      </trkpt>
      <trkpt lat="45.77919" lon="4.38536">
        <ele>573</ele>
        <time>2017-03-02T14:40:09Z</time>
      </trkpt>
      <trkpt lat="45.77912" lon="4.3854">
        <ele>567</ele>
        <time>2017-03-02T14:40:29Z</time>
      </trkpt>
      <trkpt lat="45.77911" lon="4.38541">
        <ele>567</ele>
        <time>2017-03-02T14:40:30Z</time>
      </trkpt>
      <trkpt lat="45.77903" lon="4.38545">
        <ele>567</ele>
        <time>2017-03-02T14:40:45Z</time>
      </trkpt>
      <trkpt lat="45.77902" lon="4.38545">
        <ele>567</ele>
        <time>2017-03-02T14:40:46Z</time>
      </trkpt>
      <trkpt lat="45.77894" lon="4.38552">
        <ele>566</ele>
        <time>2017-03-02T14:40:53Z</time>
      </trkpt>
      <trkpt lat="45.77893" lon="4.38553">
        <ele>566</ele>
        <time>2017-03-02T14:40:54Z</time>
      </trkpt>
      <trkpt lat="45.77885" lon="4.38559">
        <ele>566</ele>
        <time>2017-03-02T14:41:00Z</time>
      </trkpt>
      <trkpt lat="45.77884" lon="4.38559">
        <ele>566</ele>
        <time>2017-03-02T14:41:01Z</time>
      </trkpt>
      <trkpt lat="45.77876" lon="4.38564">
        <ele>565</ele>
        <time>2017-03-02T14:41:08Z</time>
      </trkpt>
      <trkpt lat="45.77875" lon="4.38564">
        <ele>565</ele>
        <time>2017-03-02T14:41:09Z</time>
      </trkpt>
      <trkpt lat="45.77867" lon="4.38571">
        <ele>565</ele>
        <time>2017-03-02T14:41:15Z</time>
      </trkpt>
      <trkpt lat="45.77866" lon="4.38571">
        <ele>564</ele>
        <time>2017-03-02T14:41:16Z</time>
      </trkpt>
      <trkpt lat="45.77858" lon="4.38575">
        <ele>564</ele>
        <time>2017-03-02T14:41:38Z</time>
      </trkpt>
      <trkpt lat="45.77858" lon="4.38576">
        <ele>564</ele>
        <time>2017-03-02T14:41:39Z</time>
      </trkpt>
      <trkpt lat="45.77866" lon="4.38573">
        <ele>564</ele>
        <time>2017-03-02T14:42:39Z</time>
      </trkpt>
      <trkpt lat="45.77867" lon="4.38572">
        <ele>564</ele>
        <time>2017-03-02T14:42:40Z</time>
      </trkpt>
      <trkpt lat="45.77876" lon="4.3857">
        <ele>565</ele>
        <time>2017-03-02T14:42:47Z</time>
      </trkpt>
      <trkpt lat="45.77877" lon="4.3857">
        <ele>565</ele>
        <time>2017-03-02T14:42:48Z</time>
      </trkpt>
      <trkpt lat="45.77885" lon="4.38567">
        <ele>566</ele>
        <time>2017-03-02T14:42:55Z</time>
      </trkpt>
      <trkpt lat="45.77886" lon="4.38566">
        <ele>566</ele>
        <time>2017-03-02T14:42:56Z</time>
      </trkpt>
      <trkpt lat="45.77892" lon="4.38559">
        <ele>566</ele>
        <time>2017-03-02T14:43:04Z</time>
      </trkpt>
      <trkpt lat="45.77893" lon="4.38558">
        <ele>566</ele>
        <time>2017-03-02T14:43:05Z</time>
      </trkpt>
      <trkpt lat="45.77899" lon="4.38551">
        <ele>566</ele>
        <time>2017-03-02T14:43:13Z</time>
      </trkpt>
      <trkpt lat="45.779" lon="4.3855">
        <ele>566</ele>
        <time>2017-03-02T14:43:14Z</time>
      </trkpt>
      <trkpt lat="45.77906" lon="4.38542">
        <ele>567</ele>
        <time>2017-03-02T14:43:22Z</time>
      </trkpt>
      <trkpt lat="45.77907" lon="4.38542">
        <ele>567</ele>
        <time>2017-03-02T14:43:23Z</time>
      </trkpt>
      <trkpt lat="45.77914" lon="4.38534">
        <ele>567</ele>
        <time>2017-03-02T14:43:31Z</time>
      </trkpt>
      <trkpt lat="45.77914" lon="4.38532">
        <ele>567</ele>
        <time>2017-03-02T14:43:32Z</time>
      </trkpt>
      <trkpt lat="45.77921" lon="4.38525">
        <ele>573</ele>
        <time>2017-03-02T14:43:40Z</time>
      </trkpt>
      <trkpt lat="45.77922" lon="4.38523">
        <ele>573</ele>
        <time>2017-03-02T14:43:41Z</time>
      </trkpt>
      <trkpt lat="45.7793" lon="4.38517">
        <ele>573</ele>
        <time>2017-03-02T14:43:48Z</time>
      </trkpt>
      <trkpt lat="45.77931" lon="4.38517">
        <ele>573</ele>
        <time>2017-03-02T14:43:49Z</time>
      </trkpt>
      <trkpt lat="45.77938" lon="4.38511">
        <ele>573</ele>
        <time>2017-03-02T14:43:58Z</time>
      </trkpt>
      <trkpt lat="45.77939" lon="4.38511">
        <ele>573</ele>
        <time>2017-03-02T14:43:59Z</time>
      </trkpt>
      <trkpt lat="45.77947" lon="4.38507">
        <ele>574</ele>
        <time>2017-03-02T14:44:09Z</time>
      </trkpt>
      <trkpt lat="45.77948" lon="4.38507">
        <ele>574</ele>
        <time>2017-03-02T14:44:10Z</time>
      </trkpt>
      <trkpt lat="45.77956" lon="4.38502">
        <ele>575</ele>
        <time>2017-03-02T14:44:18Z</time>
      </trkpt>
      <trkpt lat="45.77957" lon="4.38502">
        <ele>575</ele>
        <time>2017-03-02T14:44:19Z</time>
      </trkpt>
      <trkpt lat="45.77965" lon="4.38498">
        <ele>576</ele>
        <time>2017-03-02T14:44:26Z</time>
      </trkpt>
      <trkpt lat="45.77966" lon="4.38497">
        <ele>576</ele>
        <time>2017-03-02T14:44:27Z</time>
      </trkpt>
      <trkpt lat="45.77974" lon="4.38493">
        <ele>577</ele>
        <time>2017-03-02T14:44:33Z</time>
      </trkpt>
      <trkpt lat="45.77975" lon="4.38492">
        <ele>577</ele>
        <time>2017-03-02T14:44:34Z</time>
      </trkpt>
      <trkpt lat="45.77983" lon="4.38488">
        <ele>577</ele>
        <time>2017-03-02T14:44:40Z</time>
      </trkpt>
      <trkpt lat="45.77984" lon="4.38487">
        <ele>578</ele>
        <time>2017-03-02T14:44:41Z</time>
      </trkpt>
      <trkpt lat="45.77991" lon="4.38481">
        <ele>578</ele>
        <time>2017-03-02T14:44:47Z</time>
      </trkpt>
      <trkpt lat="45.77992" lon="4.3848">
        <ele>578</ele>
        <time>2017-03-02T14:44:48Z</time>
      </trkpt>
      <trkpt lat="45.78" lon="4.38476">
        <ele>583</ele>
        <time>2017-03-02T14:44:55Z</time>
      </trkpt>
      <trkpt lat="45.78001" lon="4.38475">
        <ele>583</ele>
        <time>2017-03-02T14:44:56Z</time>
      </trkpt>
      <trkpt lat="45.7801" lon="4.38471">
        <ele>583</ele>
        <time>2017-03-02T14:45:03Z</time>
      </trkpt>
      <trkpt lat="45.78011" lon="4.3847">
        <ele>583</ele>
        <time>2017-03-02T14:45:04Z</time>
      </trkpt>
      <trkpt lat="45.78019" lon="4.38465">
        <ele>584</ele>
        <time>2017-03-02T14:45:11Z</time>
      </trkpt>
      <trkpt lat="45.7802" lon="4.38464">
        <ele>584</ele>
        <time>2017-03-02T14:45:12Z</time>
      </trkpt>
      <trkpt lat="45.78026" lon="4.38456">
        <ele>584</ele>
        <time>2017-03-02T14:45:20Z</time>
      </trkpt>
      <trkpt lat="45.78027" lon="4.38455">
        <ele>584</ele>
        <time>2017-03-02T14:45:21Z</time>
      </trkpt>
      <trkpt lat="45.78035" lon="4.38449">
        <ele>584</ele>
        <time>2017-03-02T14:45:29Z</time>
      </trkpt>
      <trkpt lat="45.78036" lon="4.38448">
        <ele>584</ele>
        <time>2017-03-02T14:45:30Z</time>
      </trkpt>
      <trkpt lat="45.78043" lon="4.38442">
        <ele>585</ele>
        <time>2017-03-02T14:45:37Z</time>
      </trkpt>
      <trkpt lat="45.78044" lon="4.38441">
        <ele>585</ele>
        <time>2017-03-02T14:45:38Z</time>
      </trkpt>
      <trkpt lat="45.78051" lon="4.38437">
        <ele>585</ele>
        <time>2017-03-02T14:45:44Z</time>
      </trkpt>
      <trkpt lat="45.78052" lon="4.38436">
        <ele>585</ele>
        <time>2017-03-02T14:45:45Z</time>
      </trkpt>
      <trkpt lat="45.7806" lon="4.38431">
        <ele>586</ele>
        <time>2017-03-02T14:45:51Z</time>
      </trkpt>
      <trkpt lat="45.78061" lon="4.3843">
        <ele>586</ele>
        <time>2017-03-02T14:45:52Z</time>
      </trkpt>
      <trkpt lat="45.78067" lon="4.38423">
        <ele>587</ele>
        <time>2017-03-02T14:45:59Z</time>
      </trkpt>
      <trkpt lat="45.78068" lon="4.38421">
        <ele>587</ele>
        <time>2017-03-02T14:46:00Z</time>
      </trkpt>
      <trkpt lat="45.78075" lon="4.38414">
        <ele>586</ele>
        <time>2017-03-02T14:46:07Z</time>
      </trkpt>
      <trkpt lat="45.78076" lon="4.38413">
        <ele>587</ele>
        <time>2017-03-02T14:46:08Z</time>
      </trkpt>
      <trkpt lat="45.78083" lon="4.38407">
        <ele>586</ele>
        <time>2017-03-02T14:46:14Z</time>
      </trkpt>
      <trkpt lat="45.78084" lon="4.38406">
        <ele>589</ele>
        <time>2017-03-02T14:46:15Z</time>
      </trkpt>
      <trkpt lat="45.78091" lon="4.38402">
        <ele>590</ele>
        <time>2017-03-02T14:46:21Z</time>
      </trkpt>
      <trkpt lat="45.78092" lon="4.38402">
        <ele>590</ele>
        <time>2017-03-02T14:46:22Z</time>
      </trkpt>
      <trkpt lat="45.78099" lon="4.38396">
        <ele>590</ele>
        <time>2017-03-02T14:46:28Z</time>
      </trkpt>
      <trkpt lat="45.781" lon="4.38395">
        <ele>590</ele>
        <time>2017-03-02T14:46:29Z</time>
      </trkpt>
      <trkpt lat="45.78107" lon="4.38386">
        <ele>590</ele>
        <time>2017-03-02T14:46:36Z</time>
      </trkpt>
      <trkpt lat="45.78108" lon="4.38387">
        <ele>590</ele>
        <time>2017-03-02T14:46:37Z</time>
      </trkpt>
      <trkpt lat="45.78106" lon="4.38399">
        <ele>590</ele>
        <time>2017-03-02T14:46:43Z</time>
      </trkpt>
      <trkpt lat="45.78106" lon="4.38401">
        <ele>590</ele>
        <time>2017-03-02T14:46:44Z</time>
      </trkpt>
      <trkpt lat="45.78101" lon="4.38411">
        <ele>590</ele>
        <time>2017-03-02T14:46:50Z</time>
      </trkpt>
      <trkpt lat="45.78101" lon="4.38412">
        <ele>590</ele>
        <time>2017-03-02T14:46:51Z</time>
      </trkpt>
      <trkpt lat="45.78096" lon="4.38422">
        <ele>592</ele>
        <time>2017-03-02T14:46:58Z</time>
      </trkpt>
      <trkpt lat="45.78095" lon="4.38423">
        <ele>592</ele>
        <time>2017-03-02T14:46:59Z</time>
      </trkpt>
      <trkpt lat="45.78091" lon="4.38433">
        <ele>592</ele>
        <time>2017-03-02T14:47:05Z</time>
      </trkpt>
      <trkpt lat="45.7809" lon="4.38434">
        <ele>592</ele>
        <time>2017-03-02T14:47:06Z</time>
      </trkpt>
      <trkpt lat="45.78086" lon="4.38446">
        <ele>593</ele>
        <time>2017-03-02T14:47:13Z</time>
      </trkpt>
      <trkpt lat="45.78086" lon="4.38447">
        <ele>593</ele>
        <time>2017-03-02T14:47:14Z</time>
      </trkpt>
      <trkpt lat="45.78082" lon="4.38459">
        <ele>587</ele>
        <time>2017-03-02T14:47:21Z</time>
      </trkpt>
      <trkpt lat="45.78082" lon="4.38461">
        <ele>587</ele>
        <time>2017-03-02T14:47:22Z</time>
      </trkpt>
      <trkpt lat="45.78079" lon="4.38471">
        <ele>588</ele>
        <time>2017-03-02T14:47:28Z</time>
      </trkpt>
      <trkpt lat="45.78079" lon="4.38473">
        <ele>588</ele>
        <time>2017-03-02T14:47:29Z</time>
      </trkpt>
      <trkpt lat="45.78077" lon="4.38485">
        <ele>589</ele>
        <time>2017-03-02T14:47:35Z</time>
      </trkpt>
      <trkpt lat="45.78077" lon="4.38486">
        <ele>589</ele>
        <time>2017-03-02T14:47:36Z</time>
      </trkpt>
      <trkpt lat="45.78077" lon="4.38498">
        <ele>590</ele>
        <time>2017-03-02T14:47:42Z</time>
      </trkpt>
      <trkpt lat="45.78076" lon="4.385">
        <ele>590</ele>
        <time>2017-03-02T14:47:43Z</time>
      </trkpt>
      <trkpt lat="45.78076" lon="4.38512">
        <ele>589</ele>
        <time>2017-03-02T14:47:49Z</time>
      </trkpt>
      <trkpt lat="45.78076" lon="4.38514">
        <ele>589</ele>
        <time>2017-03-02T14:47:50Z</time>
      </trkpt>
      <trkpt lat="45.78075" lon="4.38525">
        <ele>588</ele>
        <time>2017-03-02T14:47:56Z</time>
      </trkpt>
      <trkpt lat="45.78075" lon="4.38527">
        <ele>588</ele>
        <time>2017-03-02T14:47:57Z</time>
      </trkpt>
      <trkpt lat="45.78072" lon="4.38538">
        <ele>587</ele>
        <time>2017-03-02T14:48:03Z</time>
      </trkpt>
      <trkpt lat="45.78071" lon="4.38539">
        <ele>587</ele>
        <time>2017-03-02T14:48:04Z</time>
      </trkpt>
      <trkpt lat="45.7807" lon="4.38551">
        <ele>587</ele>
        <time>2017-03-02T14:48:10Z</time>
      </trkpt>
      <trkpt lat="45.7807" lon="4.38553">
        <ele>587</ele>
        <time>2017-03-02T14:48:11Z</time>
      </trkpt>
      <trkpt lat="45.78069" lon="4.38564">
        <ele>587</ele>
        <time>2017-03-02T14:48:17Z</time>
      </trkpt>
      <trkpt lat="45.78069" lon="4.38566">
        <ele>587</ele>
        <time>2017-03-02T14:48:18Z</time>
      </trkpt>
      <trkpt lat="45.78073" lon="4.38576">
        <ele>588</ele>
        <time>2017-03-02T14:48:24Z</time>
      </trkpt>
      <trkpt lat="45.78074" lon="4.38578">
        <ele>588</ele>
        <time>2017-03-02T14:48:25Z</time>
      </trkpt>
      <trkpt lat="45.78075" lon="4.38589">
        <ele>587</ele>
        <time>2017-03-02T14:48:31Z</time>
      </trkpt>
      <trkpt lat="45.78075" lon="4.38591">
        <ele>587</ele>
        <time>2017-03-02T14:48:32Z</time>
      </trkpt>
      <trkpt lat="45.78077" lon="4.38603">
        <ele>585</ele>
        <time>2017-03-02T14:48:38Z</time>
      </trkpt>
      <trkpt lat="45.78077" lon="4.38604">
        <ele>585</ele>
        <time>2017-03-02T14:48:39Z</time>
      </trkpt>
      <trkpt lat="45.78078" lon="4.38616">
        <ele>584</ele>
        <time>2017-03-02T14:48:46Z</time>
      </trkpt>
      <trkpt lat="45.78078" lon="4.38618">
        <ele>584</ele>
        <time>2017-03-02T14:48:47Z</time>
      </trkpt>
      <trkpt lat="45.78079" lon="4.3863">
        <ele>583</ele>
        <time>2017-03-02T14:48:54Z</time>
      </trkpt>
      <trkpt lat="45.7808" lon="4.38632">
        <ele>583</ele>
        <time>2017-03-02T14:48:55Z</time>
      </trkpt>
      <trkpt lat="45.7808" lon="4.38644">
        <ele>583</ele>
        <time>2017-03-02T14:49:02Z</time>
      </trkpt>
      <trkpt lat="45.7808" lon="4.38646">
        <ele>583</ele>
        <time>2017-03-02T14:49:03Z</time>
      </trkpt>
      <trkpt lat="45.7808" lon="4.38658">
        <ele>583</ele>
        <time>2017-03-02T14:49:11Z</time>
      </trkpt>
      <trkpt lat="45.7808" lon="4.3866">
        <ele>583</ele>
        <time>2017-03-02T14:49:12Z</time>
      </trkpt>
      <trkpt lat="45.78081" lon="4.38671">
        <ele>583</ele>
        <time>2017-03-02T14:49:17Z</time>
      </trkpt>
      <trkpt lat="45.78081" lon="4.38673">
        <ele>582</ele>
        <time>2017-03-02T14:49:18Z</time>
      </trkpt>
      <trkpt lat="45.7808" lon="4.38685">
        <ele>580</ele>
        <time>2017-03-02T14:49:23Z</time>
      </trkpt>
      <trkpt lat="45.7808" lon="4.38687">
        <ele>580</ele>
        <time>2017-03-02T14:49:24Z</time>
      </trkpt>
      <trkpt lat="45.7808" lon="4.38698">
        <ele>579</ele>
        <time>2017-03-02T14:49:30Z</time>
      </trkpt>
      <trkpt lat="45.7808" lon="4.387">
        <ele>579</ele>
        <time>2017-03-02T14:49:31Z</time>
      </trkpt>
      <trkpt lat="45.78081" lon="4.38711">
        <ele>578</ele>
        <time>2017-03-02T14:49:37Z</time>
      </trkpt>
      <trkpt lat="45.78081" lon="4.38713">
        <ele>578</ele>
        <time>2017-03-02T14:49:38Z</time>
      </trkpt>
      <trkpt lat="45.78082" lon="4.38725">
        <ele>578</ele>
        <time>2017-03-02T14:49:45Z</time>
      </trkpt>
      <trkpt lat="45.78082" lon="4.38727">
        <ele>578</ele>
        <time>2017-03-02T14:49:46Z</time>
      </trkpt>
      <trkpt lat="45.78083" lon="4.3874">
        <ele>578</ele>
        <time>2017-03-02T14:49:52Z</time>
      </trkpt>
      <trkpt lat="45.78083" lon="4.38742">
        <ele>578</ele>
        <time>2017-03-02T14:49:53Z</time>
      </trkpt>
      <trkpt lat="45.78085" lon="4.38753">
        <ele>578</ele>
        <time>2017-03-02T14:49:59Z</time>
      </trkpt>
      <trkpt lat="45.78085" lon="4.38754">
        <ele>578</ele>
        <time>2017-03-02T14:50:00Z</time>
      </trkpt>
      <trkpt lat="45.78085" lon="4.38767">
        <ele>577</ele>
        <time>2017-03-02T14:50:07Z</time>
      </trkpt>
      <trkpt lat="45.78085" lon="4.38769">
        <ele>577</ele>
        <time>2017-03-02T14:50:08Z</time>
      </trkpt>
      <trkpt lat="45.78087" lon="4.3878">
        <ele>576</ele>
        <time>2017-03-02T14:50:16Z</time>
      </trkpt>
      <trkpt lat="45.78087" lon="4.38781">
        <ele>576</ele>
        <time>2017-03-02T14:50:17Z</time>
      </trkpt>
      <trkpt lat="45.78091" lon="4.38791">
        <ele>576</ele>
        <time>2017-03-02T14:50:23Z</time>
      </trkpt>
      <trkpt lat="45.78092" lon="4.38793">
        <ele>576</ele>
        <time>2017-03-02T14:50:24Z</time>
      </trkpt>
      <trkpt lat="45.78093" lon="4.38805">
        <ele>575</ele>
        <time>2017-03-02T14:50:31Z</time>
      </trkpt>
      <trkpt lat="45.78094" lon="4.38807">
        <ele>575</ele>
        <time>2017-03-02T14:50:32Z</time>
      </trkpt>
      <trkpt lat="45.78097" lon="4.38817">
        <ele>575</ele>
        <time>2017-03-02T14:50:39Z</time>
      </trkpt>
      <trkpt lat="45.78098" lon="4.38819">
        <ele>575</ele>
        <time>2017-03-02T14:50:40Z</time>
      </trkpt>
      <trkpt lat="45.781" lon="4.38829">
        <ele>574</ele>
        <time>2017-03-02T14:50:46Z</time>
      </trkpt>
      <trkpt lat="45.781" lon="4.38831">
        <ele>574</ele>
        <time>2017-03-02T14:50:47Z</time>
      </trkpt>
      <trkpt lat="45.78104" lon="4.38842">
        <ele>571</ele>
        <time>2017-03-02T14:50:54Z</time>
      </trkpt>
      <trkpt lat="45.78104" lon="4.38844">
        <ele>571</ele>
        <time>2017-03-02T14:50:55Z</time>
      </trkpt>
      <trkpt lat="45.7811" lon="4.38853">
        <ele>571</ele>
        <time>2017-03-02T14:51:02Z</time>
      </trkpt>
      <trkpt lat="45.78111" lon="4.38853">
        <ele>571</ele>
        <time>2017-03-02T14:51:03Z</time>
      </trkpt>
      <trkpt lat="45.78116" lon="4.38862">
        <ele>570</ele>
        <time>2017-03-02T14:51:10Z</time>
      </trkpt>
      <trkpt lat="45.78117" lon="4.38864">
        <ele>570</ele>
        <time>2017-03-02T14:51:11Z</time>
      </trkpt>
      <trkpt lat="45.78121" lon="4.38874">
        <ele>570</ele>
        <time>2017-03-02T14:51:19Z</time>
      </trkpt>
      <trkpt lat="45.78121" lon="4.38876">
        <ele>570</ele>
        <time>2017-03-02T14:51:20Z</time>
      </trkpt>
      <trkpt lat="45.78125" lon="4.38885">
        <ele>569</ele>
        <time>2017-03-02T14:51:26Z</time>
      </trkpt>
      <trkpt lat="45.78126" lon="4.38887">
        <ele>569</ele>
        <time>2017-03-02T14:51:27Z</time>
      </trkpt>
      <trkpt lat="45.78128" lon="4.38899">
        <ele>569</ele>
        <time>2017-03-02T14:51:33Z</time>
      </trkpt>
      <trkpt lat="45.78129" lon="4.38901">
        <ele>569</ele>
        <time>2017-03-02T14:51:34Z</time>
      </trkpt>
      <trkpt lat="45.78132" lon="4.38911">
        <ele>569</ele>
        <time>2017-03-02T14:51:39Z</time>
      </trkpt>
      <trkpt lat="45.78132" lon="4.38913">
        <ele>568</ele>
        <time>2017-03-02T14:51:40Z</time>
      </trkpt>
      <trkpt lat="45.78132" lon="4.38925">
        <ele>565</ele>
        <time>2017-03-02T14:51:47Z</time>
      </trkpt>
      <trkpt lat="45.78132" lon="4.38927">
        <ele>565</ele>
        <time>2017-03-02T14:51:48Z</time>
      </trkpt>
      <trkpt lat="45.78133" lon="4.38939">
        <ele>565</ele>
        <time>2017-03-02T14:51:55Z</time>
      </trkpt>
      <trkpt lat="45.78133" lon="4.38941">
        <ele>565</ele>
        <time>2017-03-02T14:51:56Z</time>
      </trkpt>
      <trkpt lat="45.78133" lon="4.38953">
        <ele>564</ele>
        <time>2017-03-02T14:52:02Z</time>
      </trkpt>
      <trkpt lat="45.78133" lon="4.38954">
        <ele>564</ele>
        <time>2017-03-02T14:52:03Z</time>
      </trkpt>
      <trkpt lat="45.78133" lon="4.38967">
        <ele>564</ele>
        <time>2017-03-02T14:52:09Z</time>
      </trkpt>
      <trkpt lat="45.78133" lon="4.38969">
        <ele>564</ele>
        <time>2017-03-02T14:52:10Z</time>
      </trkpt>
      <trkpt lat="45.78133" lon="4.3898">
        <ele>564</ele>
        <time>2017-03-02T14:52:15Z</time>
      </trkpt>
      <trkpt lat="45.78133" lon="4.38982">
        <ele>564</ele>
        <time>2017-03-02T14:52:16Z</time>
      </trkpt>
      <trkpt lat="45.78132" lon="4.38994">
        <ele>564</ele>
        <time>2017-03-02T14:52:22Z</time>
      </trkpt>
      <trkpt lat="45.78132" lon="4.38996">
        <ele>564</ele>
        <time>2017-03-02T14:52:23Z</time>
      </trkpt>
      <trkpt lat="45.78132" lon="4.39007">
        <ele>562</ele>
        <time>2017-03-02T14:52:28Z</time>
      </trkpt>
      <trkpt lat="45.78132" lon="4.39009">
        <ele>562</ele>
        <time>2017-03-02T14:52:29Z</time>
      </trkpt>
      <trkpt lat="45.78134" lon="4.3902">
        <ele>562</ele>
        <time>2017-03-02T14:52:35Z</time>
      </trkpt>
      <trkpt lat="45.78135" lon="4.39022">
        <ele>562</ele>
        <time>2017-03-02T14:52:36Z</time>
      </trkpt>
      <trkpt lat="45.78135" lon="4.39033">
        <ele>562</ele>
        <time>2017-03-02T14:52:42Z</time>
      </trkpt>
      <trkpt lat="45.78135" lon="4.39035">
        <ele>562</ele>
        <time>2017-03-02T14:52:43Z</time>
      </trkpt>
      <trkpt lat="45.78136" lon="4.39047">
        <ele>562</ele>
        <time>2017-03-02T14:52:49Z</time>
      </trkpt>
      <trkpt lat="45.78136" lon="4.39049">
        <ele>562</ele>
        <time>2017-03-02T14:52:50Z</time>
      </trkpt>
      <trkpt lat="45.78135" lon="4.3906">
        <ele>562</ele>
        <time>2017-03-02T14:52:55Z</time>
      </trkpt>
      <trkpt lat="45.78134" lon="4.39062">
        <ele>562</ele>
        <time>2017-03-02T14:52:56Z</time>
      </trkpt>
      <trkpt lat="45.78133" lon="4.39073">
        <ele>562</ele>
        <time>2017-03-02T14:53:01Z</time>
      </trkpt>
      <trkpt lat="45.78133" lon="4.39075">
        <ele>562</ele>
        <time>2017-03-02T14:53:02Z</time>
      </trkpt>
      <trkpt lat="45.78133" lon="4.39086">
        <ele>560</ele>
        <time>2017-03-02T14:53:07Z</time>
      </trkpt>
      <trkpt lat="45.78133" lon="4.39088">
        <ele>560</ele>
        <time>2017-03-02T14:53:08Z</time>
      </trkpt>
      <trkpt lat="45.78133" lon="4.391">
        <ele>560</ele>
        <time>2017-03-02T14:53:14Z</time>
      </trkpt>
      <trkpt lat="45.78133" lon="4.39103">
        <ele>560</ele>
        <time>2017-03-02T14:53:15Z</time>
      </trkpt>
      <trkpt lat="45.78133" lon="4.39114">
        <ele>560</ele>
        <time>2017-03-02T14:53:20Z</time>
      </trkpt>
      <trkpt lat="45.78133" lon="4.39116">
        <ele>560</ele>
        <time>2017-03-02T14:53:21Z</time>
      </trkpt>
      <trkpt lat="45.78134" lon="4.39128">
        <ele>560</ele>
        <time>2017-03-02T14:53:28Z</time>
      </trkpt>
      <trkpt lat="45.78134" lon="4.3913">
        <ele>560</ele>
        <time>2017-03-02T14:53:29Z</time>
      </trkpt>
      <trkpt lat="45.78136" lon="4.39142">
        <ele>559</ele>
        <time>2017-03-02T14:53:36Z</time>
      </trkpt>
      <trkpt lat="45.78137" lon="4.39143">
        <ele>560</ele>
        <time>2017-03-02T14:53:37Z</time>
      </trkpt>
      <trkpt lat="45.78136" lon="4.39155">
        <ele>559</ele>
        <time>2017-03-02T14:53:45Z</time>
      </trkpt>
      <trkpt lat="45.78136" lon="4.39156">
        <ele>559</ele>
        <time>2017-03-02T14:53:46Z</time>
      </trkpt>
      <trkpt lat="45.78139" lon="4.39167">
        <ele>557</ele>
        <time>2017-03-02T14:53:52Z</time>
      </trkpt>
      <trkpt lat="45.7814" lon="4.39169">
        <ele>557</ele>
        <time>2017-03-02T14:53:53Z</time>
      </trkpt>
      <trkpt lat="45.78143" lon="4.3918">
        <ele>557</ele>
        <time>2017-03-02T14:53:59Z</time>
      </trkpt>
      <trkpt lat="45.78144" lon="4.39181">
        <ele>557</ele>
        <time>2017-03-02T14:54:00Z</time>
      </trkpt>
      <trkpt lat="45.78148" lon="4.39192">
        <ele>557</ele>
        <time>2017-03-02T14:54:07Z</time>
      </trkpt>
      <trkpt lat="45.78148" lon="4.39194">
        <ele>557</ele>
        <time>2017-03-02T14:54:08Z</time>
      </trkpt>
      <trkpt lat="45.78153" lon="4.39203">
        <ele>556</ele>
        <time>2017-03-02T14:54:15Z</time>
      </trkpt>
      <trkpt lat="45.78153" lon="4.39205">
        <ele>556</ele>
        <time>2017-03-02T14:54:16Z</time>
      </trkpt>
      <trkpt lat="45.78156" lon="4.39216">
        <ele>556</ele>
        <time>2017-03-02T14:54:21Z</time>
      </trkpt>
      <trkpt lat="45.78156" lon="4.39217">
        <ele>555</ele>
        <time>2017-03-02T14:54:22Z</time>
      </trkpt>
      <trkpt lat="45.7816" lon="4.39228">
        <ele>555</ele>
        <time>2017-03-02T14:54:28Z</time>
      </trkpt>
      <trkpt lat="45.7816" lon="4.3923">
        <ele>555</ele>
        <time>2017-03-02T14:54:29Z</time>
      </trkpt>
      <trkpt lat="45.7816" lon="4.39241">
        <ele>554</ele>
        <time>2017-03-02T14:54:34Z</time>
      </trkpt>
      <trkpt lat="45.7816" lon="4.39243">
        <ele>554</ele>
        <time>2017-03-02T14:54:35Z</time>
      </trkpt>
      <trkpt lat="45.78158" lon="4.39254">
        <ele>553</ele>
        <time>2017-03-02T14:54:41Z</time>
      </trkpt>
      <trkpt lat="45.78157" lon="4.39256">
        <ele>553</ele>
        <time>2017-03-02T14:54:42Z</time>
      </trkpt>
      <trkpt lat="45.78157" lon="4.39268">
        <ele>552</ele>
        <time>2017-03-02T14:54:48Z</time>
      </trkpt>
      <trkpt lat="45.78157" lon="4.3927">
        <ele>552</ele>
        <time>2017-03-02T14:54:49Z</time>
      </trkpt>
      <trkpt lat="45.78157" lon="4.39283">
        <ele>552</ele>
        <time>2017-03-02T14:54:55Z</time>
      </trkpt>
      <trkpt lat="45.78157" lon="4.39284">
        <ele>552</ele>
        <time>2017-03-02T14:54:56Z</time>
      </trkpt>
      <trkpt lat="45.78161" lon="4.39296">
        <ele>552</ele>
        <time>2017-03-02T14:55:03Z</time>
      </trkpt>
      <trkpt lat="45.78161" lon="4.39298">
        <ele>552</ele>
        <time>2017-03-02T14:55:04Z</time>
      </trkpt>
      <trkpt lat="45.78163" lon="4.39309">
        <ele>551</ele>
        <time>2017-03-02T14:55:10Z</time>
      </trkpt>
      <trkpt lat="45.78163" lon="4.3931">
        <ele>551</ele>
        <time>2017-03-02T14:55:11Z</time>
      </trkpt>
      <trkpt lat="45.78168" lon="4.39319">
        <ele>550</ele>
        <time>2017-03-02T14:55:17Z</time>
      </trkpt>
      <trkpt lat="45.78169" lon="4.39321">
        <ele>550</ele>
        <time>2017-03-02T14:55:18Z</time>
      </trkpt>
      <trkpt lat="45.78171" lon="4.39334">
        <ele>550</ele>
        <time>2017-03-02T14:55:26Z</time>
      </trkpt>
      <trkpt lat="45.7817" lon="4.39335">
        <ele>550</ele>
        <time>2017-03-02T14:55:27Z</time>
      </trkpt>
      <trkpt lat="45.7817" lon="4.39348">
        <ele>552</ele>
        <time>2017-03-02T14:55:35Z</time>
      </trkpt>
      <trkpt lat="45.7817" lon="4.3935">
        <ele>552</ele>
        <time>2017-03-02T14:55:36Z</time>
      </trkpt>
      <trkpt lat="45.7817" lon="4.39361">
        <ele>553</ele>
        <time>2017-03-02T14:55:42Z</time>
      </trkpt>
      <trkpt lat="45.78169" lon="4.39363">
        <ele>554</ele>
        <time>2017-03-02T14:55:43Z</time>
      </trkpt>
      <trkpt lat="45.78165" lon="4.39373">
        <ele>553</ele>
        <time>2017-03-02T14:55:50Z</time>
      </trkpt>
      <trkpt lat="45.78165" lon="4.39375">
        <ele>554</ele>
        <time>2017-03-02T14:55:51Z</time>
      </trkpt>
      <trkpt lat="45.78159" lon="4.39384">
        <ele>554</ele>
        <time>2017-03-02T14:56:12Z</time>
      </trkpt>
      <trkpt lat="45.78158" lon="4.39384">
        <ele>554</ele>
        <time>2017-03-02T14:56:13Z</time>
      </trkpt>
      <trkpt lat="45.78156" lon="4.39396">
        <ele>555</ele>
        <time>2017-03-02T14:56:30Z</time>
      </trkpt>
      <trkpt lat="45.78155" lon="4.39397">
        <ele>555</ele>
        <time>2017-03-02T14:56:31Z</time>
      </trkpt>
      <trkpt lat="45.78157" lon="4.39409">
        <ele>556</ele>
        <time>2017-03-02T14:56:40Z</time>
      </trkpt>
      <trkpt lat="45.78157" lon="4.3941">
        <ele>556</ele>
        <time>2017-03-02T14:56:41Z</time>
      </trkpt>
      <trkpt lat="45.78156" lon="4.39421">
        <ele>558</ele>
        <time>2017-03-02T14:56:51Z</time>
      </trkpt>
      <trkpt lat="45.78156" lon="4.39423">
        <ele>558</ele>
        <time>2017-03-02T14:56:52Z</time>
      </trkpt>
      <trkpt lat="45.78157" lon="4.39434">
        <ele>558</ele>
        <time>2017-03-02T14:56:59Z</time>
      </trkpt>
      <trkpt lat="45.78157" lon="4.39436">
        <ele>558</ele>
        <time>2017-03-02T14:57:00Z</time>
      </trkpt>
      <trkpt lat="45.78159" lon="4.39448">
        <ele>559</ele>
        <time>2017-03-02T14:57:08Z</time>
      </trkpt>
      <trkpt lat="45.78159" lon="4.39449">
        <ele>559</ele>
        <time>2017-03-02T14:57:09Z</time>
      </trkpt>
      <trkpt lat="45.78158" lon="4.39461">
        <ele>559</ele>
        <time>2017-03-02T14:57:19Z</time>
      </trkpt>
      <trkpt lat="45.78158" lon="4.39463">
        <ele>559</ele>
        <time>2017-03-02T14:57:20Z</time>
      </trkpt>
      <trkpt lat="45.78158" lon="4.39475">
        <ele>560</ele>
        <time>2017-03-02T14:57:29Z</time>
      </trkpt>
      <trkpt lat="45.78158" lon="4.39477">
        <ele>560</ele>
        <time>2017-03-02T14:57:30Z</time>
      </trkpt>
      <trkpt lat="45.78155" lon="4.39488">
        <ele>561</ele>
        <time>2017-03-02T14:57:39Z</time>
      </trkpt>
      <trkpt lat="45.78154" lon="4.39489">
        <ele>561</ele>
        <time>2017-03-02T14:57:40Z</time>
      </trkpt>
      <trkpt lat="45.78148" lon="4.39498">
        <ele>561</ele>
        <time>2017-03-02T14:57:48Z</time>
      </trkpt>
      <trkpt lat="45.78148" lon="4.39498">
        <ele>561</ele>
        <time>2017-03-02T14:57:49Z</time>
      </trkpt>
      <trkpt lat="45.78139" lon="4.39502">
        <ele>563</ele>
        <time>2017-03-02T14:57:57Z</time>
      </trkpt>
      <trkpt lat="45.78138" lon="4.39502">
        <ele>563</ele>
        <time>2017-03-02T14:57:58Z</time>
      </trkpt>
      <trkpt lat="45.7813" lon="4.39507">
        <ele>563</ele>
        <time>2017-03-02T14:58:06Z</time>
      </trkpt>
      <trkpt lat="45.78129" lon="4.39507">
        <ele>563</ele>
        <time>2017-03-02T14:58:07Z</time>
      </trkpt>
      <trkpt lat="45.78121" lon="4.39514">
        <ele>563</ele>
        <time>2017-03-02T14:58:13Z</time>
      </trkpt>
      <trkpt lat="45.7812" lon="4.39515">
        <ele>563</ele>
        <time>2017-03-02T14:58:14Z</time>
      </trkpt>
      <trkpt lat="45.78114" lon="4.39523">
        <ele>563</ele>
        <time>2017-03-02T14:58:23Z</time>
      </trkpt>
      <trkpt lat="45.78114" lon="4.39525">
        <ele>563</ele>
        <time>2017-03-02T14:58:24Z</time>
      </trkpt>
      <trkpt lat="45.7811" lon="4.39535">
        <ele>563</ele>
        <time>2017-03-02T14:58:30Z</time>
      </trkpt>
      <trkpt lat="45.78109" lon="4.39536">
        <ele>563</ele>
        <time>2017-03-02T14:58:31Z</time>
      </trkpt>
      <trkpt lat="45.78104" lon="4.39547">
        <ele>563</ele>
        <time>2017-03-02T14:58:38Z</time>
      </trkpt>
      <trkpt lat="45.78103" lon="4.39548">
        <ele>563</ele>
        <time>2017-03-02T14:58:39Z</time>
      </trkpt>
      <trkpt lat="45.78099" lon="4.39559">
        <ele>563</ele>
        <time>2017-03-02T14:58:47Z</time>
      </trkpt>
      <trkpt lat="45.78099" lon="4.39561">
        <ele>563</ele>
        <time>2017-03-02T14:58:48Z</time>
      </trkpt>
      <trkpt lat="45.78098" lon="4.39573">
        <ele>563</ele>
        <time>2017-03-02T14:58:55Z</time>
      </trkpt>
      <trkpt lat="45.78097" lon="4.39575">
        <ele>563</ele>
        <time>2017-03-02T14:58:56Z</time>
      </trkpt>
      <trkpt lat="45.78097" lon="4.39586">
        <ele>565</ele>
        <time>2017-03-02T14:59:02Z</time>
      </trkpt>
      <trkpt lat="45.78097" lon="4.39588">
        <ele>566</ele>
        <time>2017-03-02T14:59:03Z</time>
      </trkpt>
      <trkpt lat="45.78098" lon="4.39599">
        <ele>567</ele>
        <time>2017-03-02T14:59:09Z</time>
      </trkpt>
      <trkpt lat="45.78098" lon="4.39602">
        <ele>567</ele>
        <time>2017-03-02T14:59:10Z</time>
      </trkpt>
      <trkpt lat="45.78097" lon="4.39614">
        <ele>568</ele>
        <time>2017-03-02T14:59:18Z</time>
      </trkpt>
      <trkpt lat="45.78097" lon="4.39616">
        <ele>568</ele>
        <time>2017-03-02T14:59:19Z</time>
      </trkpt>
      <trkpt lat="45.78097" lon="4.39627">
        <ele>569</ele>
        <time>2017-03-02T14:59:25Z</time>
      </trkpt>
      <trkpt lat="45.78097" lon="4.39629">
        <ele>569</ele>
        <time>2017-03-02T14:59:26Z</time>
      </trkpt>
      <trkpt lat="45.78095" lon="4.3964">
        <ele>570</ele>
        <time>2017-03-02T14:59:33Z</time>
      </trkpt>
      <trkpt lat="45.78095" lon="4.39641">
        <ele>570</ele>
        <time>2017-03-02T14:59:34Z</time>
      </trkpt>
      <trkpt lat="45.78095" lon="4.39653">
        <ele>571</ele>
        <time>2017-03-02T14:59:41Z</time>
      </trkpt>
      <trkpt lat="45.78095" lon="4.39654">
        <ele>571</ele>
        <time>2017-03-02T14:59:42Z</time>
      </trkpt>
      <trkpt lat="45.78097" lon="4.39666">
        <ele>571</ele>
        <time>2017-03-02T14:59:50Z</time>
      </trkpt>
      <trkpt lat="45.78097" lon="4.39668">
        <ele>574</ele>
        <time>2017-03-02T14:59:51Z</time>
      </trkpt>
      <trkpt lat="45.78099" lon="4.3968">
        <ele>575</ele>
        <time>2017-03-02T14:59:59Z</time>
      </trkpt>
      <trkpt lat="45.78099" lon="4.39681">
        <ele>575</ele>
        <time>2017-03-02T15:00:00Z</time>
      </trkpt>
      <trkpt lat="45.78097" lon="4.39694">
        <ele>576</ele>
        <time>2017-03-02T15:00:10Z</time>
      </trkpt>
      <trkpt lat="45.78097" lon="4.39695">
        <ele>576</ele>
        <time>2017-03-02T15:00:11Z</time>
      </trkpt>
      <trkpt lat="45.78097" lon="4.39707">
        <ele>576</ele>
        <time>2017-03-02T15:00:19Z</time>
      </trkpt>
      <trkpt lat="45.78098" lon="4.39708">
        <ele>576</ele>
        <time>2017-03-02T15:00:20Z</time>
      </trkpt>
      <trkpt lat="45.78101" lon="4.3972">
        <ele>577</ele>
        <time>2017-03-02T15:00:28Z</time>
      </trkpt>
      <trkpt lat="45.78101" lon="4.39721">
        <ele>577</ele>
        <time>2017-03-02T15:00:29Z</time>
      </trkpt>
      <trkpt lat="45.78099" lon="4.39733">
        <ele>577</ele>
        <time>2017-03-02T15:00:38Z</time>
      </trkpt>
      <trkpt lat="45.78099" lon="4.39735">
        <ele>577</ele>
        <time>2017-03-02T15:00:39Z</time>
      </trkpt>
      <trkpt lat="45.78101" lon="4.39746">
        <ele>578</ele>
        <time>2017-03-02T15:00:47Z</time>
      </trkpt>
      <trkpt lat="45.78101" lon="4.39748">
        <ele>578</ele>
        <time>2017-03-02T15:00:48Z</time>
      </trkpt>
      <trkpt lat="45.78102" lon="4.39759">
        <ele>581</ele>
        <time>2017-03-02T15:00:55Z</time>
      </trkpt>
      <trkpt lat="45.78102" lon="4.3976">
        <ele>581</ele>
        <time>2017-03-02T15:00:56Z</time>
      </trkpt>
      <trkpt lat="45.78104" lon="4.39771">
        <ele>581</ele>
        <time>2017-03-02T15:01:03Z</time>
      </trkpt>
      <trkpt lat="45.78104" lon="4.39773">
        <ele>581</ele>
        <time>2017-03-02T15:01:04Z</time>
      </trkpt>
      <trkpt lat="45.78103" lon="4.39785">
        <ele>582</ele>
        <time>2017-03-02T15:01:16Z</time>
      </trkpt>
      <trkpt lat="45.78103" lon="4.39787">
        <ele>582</ele>
        <time>2017-03-02T15:01:17Z</time>
      </trkpt>
      <trkpt lat="45.78106" lon="4.39799">
        <ele>582</ele>
        <time>2017-03-02T15:01:25Z</time>
      </trkpt>
      <trkpt lat="45.78106" lon="4.39801">
        <ele>582</ele>
        <time>2017-03-02T15:01:26Z</time>
      </trkpt>
      <trkpt lat="45.78108" lon="4.39812">
        <ele>583</ele>
        <time>2017-03-02T15:01:32Z</time>
      </trkpt>
      <trkpt lat="45.78108" lon="4.39813">
        <ele>583</ele>
        <time>2017-03-02T15:01:33Z</time>
      </trkpt>
      <trkpt lat="45.78108" lon="4.39826">
        <ele>583</ele>
        <time>2017-03-02T15:01:40Z</time>
      </trkpt>
      <trkpt lat="45.78108" lon="4.39827">
        <ele>583</ele>
        <time>2017-03-02T15:01:41Z</time>
      </trkpt>
      <trkpt lat="45.78107" lon="4.3984">
        <ele>587</ele>
        <time>2017-03-02T15:01:49Z</time>
      </trkpt>
      <trkpt lat="45.78107" lon="4.39841">
        <ele>587</ele>
        <time>2017-03-02T15:01:50Z</time>
      </trkpt>
      <trkpt lat="45.78109" lon="4.39853">
        <ele>587</ele>
        <time>2017-03-02T15:01:57Z</time>
      </trkpt>
      <trkpt lat="45.78109" lon="4.39854">
        <ele>587</ele>
        <time>2017-03-02T15:01:58Z</time>
      </trkpt>
      <trkpt lat="45.78111" lon="4.39866">
        <ele>588</ele>
        <time>2017-03-02T15:02:05Z</time>
      </trkpt>
      <trkpt lat="45.78111" lon="4.39867">
        <ele>588</ele>
        <time>2017-03-02T15:02:06Z</time>
      </trkpt>
      <trkpt lat="45.78116" lon="4.39876">
        <ele>589</ele>
        <time>2017-03-02T15:02:14Z</time>
      </trkpt>
      <trkpt lat="45.78117" lon="4.39878">
        <ele>589</ele>
        <time>2017-03-02T15:02:15Z</time>
      </trkpt>
      <trkpt lat="45.78121" lon="4.39887">
        <ele>590</ele>
        <time>2017-03-02T15:02:21Z</time>
      </trkpt>
      <trkpt lat="45.78122" lon="4.39889">
        <ele>590</ele>
        <time>2017-03-02T15:02:22Z</time>
      </trkpt>
      <trkpt lat="45.78124" lon="4.399">
        <ele>590</ele>
        <time>2017-03-02T15:02:30Z</time>
      </trkpt>
      <trkpt lat="45.78124" lon="4.39902">
        <ele>590</ele>
        <time>2017-03-02T15:02:31Z</time>
      </trkpt>
      <trkpt lat="45.78128" lon="4.39913">
        <ele>591</ele>
        <time>2017-03-02T15:02:40Z</time>
      </trkpt>
      <trkpt lat="45.78129" lon="4.39913">
        <ele>591</ele>
        <time>2017-03-02T15:02:41Z</time>
      </trkpt>
      <trkpt lat="45.78133" lon="4.39925">
        <ele>596</ele>
        <time>2017-03-02T15:02:51Z</time>
      </trkpt>
      <trkpt lat="45.78133" lon="4.39926">
        <ele>596</ele>
        <time>2017-03-02T15:02:52Z</time>
      </trkpt>
      <trkpt lat="45.78134" lon="4.39939">
        <ele>596</ele>
        <time>2017-03-02T15:03:01Z</time>
      </trkpt>
      <trkpt lat="45.78134" lon="4.3994">
        <ele>596</ele>
        <time>2017-03-02T15:03:02Z</time>
      </trkpt>
      <trkpt lat="45.78135" lon="4.39952">
        <ele>597</ele>
        <time>2017-03-02T15:03:10Z</time>
      </trkpt>
      <trkpt lat="45.78135" lon="4.39954">
        <ele>597</ele>
        <time>2017-03-02T15:03:11Z</time>
      </trkpt>
      <trkpt lat="45.78132" lon="4.39965">
        <ele>597</ele>
        <time>2017-03-02T15:03:20Z</time>
      </trkpt>
      <trkpt lat="45.78131" lon="4.39967">
        <ele>597</ele>
        <time>2017-03-02T15:03:21Z</time>
      </trkpt>
      <trkpt lat="45.7813" lon="4.39978">
        <ele>598</ele>
        <time>2017-03-02T15:03:29Z</time>
      </trkpt>
      <trkpt lat="45.7813" lon="4.3998">
        <ele>598</ele>
        <time>2017-03-02T15:03:30Z</time>
      </trkpt>
      <trkpt lat="45.78132" lon="4.39992">
        <ele>598</ele>
        <time>2017-03-02T15:03:39Z</time>
      </trkpt>
      <trkpt lat="45.78132" lon="4.39993">
        <ele>598</ele>
        <time>2017-03-02T15:03:40Z</time>
      </trkpt>
      <trkpt lat="45.78134" lon="4.40005">
        <ele>603</ele>
        <time>2017-03-02T15:03:48Z</time>
      </trkpt>
      <trkpt lat="45.78134" lon="4.40007">
        <ele>603</ele>
        <time>2017-03-02T15:03:49Z</time>
      </trkpt>
      <trkpt lat="45.78139" lon="4.40017">
        <ele>604</ele>
        <time>2017-03-02T15:03:58Z</time>
      </trkpt>
      <trkpt lat="45.7814" lon="4.40018">
        <ele>604</ele>
        <time>2017-03-02T15:03:59Z</time>
      </trkpt>
      <trkpt lat="45.78142" lon="4.40031">
        <ele>604</ele>
        <time>2017-03-02T15:04:09Z</time>
      </trkpt>
      <trkpt lat="45.78142" lon="4.40032">
        <ele>605</ele>
        <time>2017-03-02T15:04:10Z</time>
      </trkpt>
      <trkpt lat="45.78144" lon="4.40044">
        <ele>605</ele>
        <time>2017-03-02T15:04:19Z</time>
      </trkpt>
      <trkpt lat="45.78144" lon="4.40046">
        <ele>605</ele>
        <time>2017-03-02T15:04:20Z</time>
      </trkpt>
      <trkpt lat="45.78142" lon="4.40057">
        <ele>606</ele>
        <time>2017-03-02T15:04:29Z</time>
      </trkpt>
      <trkpt lat="45.78141" lon="4.40058">
        <ele>606</ele>
        <time>2017-03-02T15:04:30Z</time>
      </trkpt>
      <trkpt lat="45.78134" lon="4.40066">
        <ele>606</ele>
        <time>2017-03-02T15:04:37Z</time>
      </trkpt>
      <trkpt lat="45.78133" lon="4.40067">
        <ele>606</ele>
        <time>2017-03-02T15:04:38Z</time>
      </trkpt>
      <trkpt lat="45.78126" lon="4.40075">
        <ele>606</ele>
        <time>2017-03-02T15:04:44Z</time>
      </trkpt>
      <trkpt lat="45.78125" lon="4.40076">
        <ele>606</ele>
        <time>2017-03-02T15:04:45Z</time>
      </trkpt>
      <trkpt lat="45.7812" lon="4.40086">
        <ele>610</ele>
        <time>2017-03-02T15:04:52Z</time>
      </trkpt>
      <trkpt lat="45.78119" lon="4.40087">
        <ele>610</ele>
        <time>2017-03-02T15:04:53Z</time>
      </trkpt>
      <trkpt lat="45.78112" lon="4.40094">
        <ele>609</ele>
        <time>2017-03-02T15:05:00Z</time>
      </trkpt>
      <trkpt lat="45.78111" lon="4.40095">
        <ele>609</ele>
        <time>2017-03-02T15:05:01Z</time>
      </trkpt>
      <trkpt lat="45.78104" lon="4.40101">
        <ele>609</ele>
        <time>2017-03-02T15:05:08Z</time>
      </trkpt>
      <trkpt lat="45.78103" lon="4.40102">
        <ele>609</ele>
        <time>2017-03-02T15:05:09Z</time>
      </trkpt>
      <trkpt lat="45.78096" lon="4.4011">
        <ele>609</ele>
        <time>2017-03-02T15:05:17Z</time>
      </trkpt>
      <trkpt lat="45.78095" lon="4.40111">
        <ele>609</ele>
        <time>2017-03-02T15:05:18Z</time>
      </trkpt>
      <trkpt lat="45.78089" lon="4.40119">
        <ele>609</ele>
        <time>2017-03-02T15:05:24Z</time>
      </trkpt>
      <trkpt lat="45.78088" lon="4.4012">
        <ele>609</ele>
        <time>2017-03-02T15:05:25Z</time>
      </trkpt>
      <trkpt lat="45.78082" lon="4.40126">
        <ele>602</ele>
        <time>2017-03-02T15:05:32Z</time>
      </trkpt>
      <trkpt lat="45.78081" lon="4.40127">
        <ele>602</ele>
        <time>2017-03-02T15:05:33Z</time>
      </trkpt>
      <trkpt lat="45.78074" lon="4.40135">
        <ele>602</ele>
        <time>2017-03-02T15:05:39Z</time>
      </trkpt>
      <trkpt lat="45.78073" lon="4.40137">
        <ele>602</ele>
        <time>2017-03-02T15:05:40Z</time>
      </trkpt>
      <trkpt lat="45.78069" lon="4.40146">
        <ele>602</ele>
        <time>2017-03-02T15:05:45Z</time>
      </trkpt>
      <trkpt lat="45.78067" lon="4.40147">
        <ele>602</ele>
        <time>2017-03-02T15:05:46Z</time>
      </trkpt>
      <trkpt lat="45.78063" lon="4.40156">
        <ele>603</ele>
        <time>2017-03-02T15:05:52Z</time>
      </trkpt>
      <trkpt lat="45.78062" lon="4.40158">
        <ele>602</ele>
        <time>2017-03-02T15:05:53Z</time>
      </trkpt>
      <trkpt lat="45.78057" lon="4.40166">
        <ele>602</ele>
        <time>2017-03-02T15:05:59Z</time>
      </trkpt>
      <trkpt lat="45.78056" lon="4.40168">
        <ele>605</ele>
        <time>2017-03-02T15:06:00Z</time>
      </trkpt>
      <trkpt lat="45.78052" lon="4.40178">
        <ele>605</ele>
        <time>2017-03-02T15:06:06Z</time>
      </trkpt>
      <trkpt lat="45.78051" lon="4.4018">
        <ele>605</ele>
        <time>2017-03-02T15:06:07Z</time>
      </trkpt>
      <trkpt lat="45.78047" lon="4.4019">
        <ele>605</ele>
        <time>2017-03-02T15:06:13Z</time>
      </trkpt>
      <trkpt lat="45.78047" lon="4.40192">
        <ele>605</ele>
        <time>2017-03-02T15:06:14Z</time>
      </trkpt>
      <trkpt lat="45.78041" lon="4.40201">
        <ele>605</ele>
        <time>2017-03-02T15:06:21Z</time>
      </trkpt>
      <trkpt lat="45.7804" lon="4.40202">
        <ele>605</ele>
        <time>2017-03-02T15:06:22Z</time>
      </trkpt>
      <trkpt lat="45.78035" lon="4.40211">
        <ele>605</ele>
        <time>2017-03-02T15:06:29Z</time>
      </trkpt>
      <trkpt lat="45.78034" lon="4.40213">
        <ele>605</ele>
        <time>2017-03-02T15:06:30Z</time>
      </trkpt>
      <trkpt lat="45.78028" lon="4.40222">
        <ele>605</ele>
        <time>2017-03-02T15:06:37Z</time>
      </trkpt>
      <trkpt lat="45.78027" lon="4.40223">
        <ele>605</ele>
        <time>2017-03-02T15:06:38Z</time>
      </trkpt>
      <trkpt lat="45.7802" lon="4.40231">
        <ele>605</ele>
        <time>2017-03-02T15:06:47Z</time>
      </trkpt>
      <trkpt lat="45.78019" lon="4.40231">
        <ele>605</ele>
        <time>2017-03-02T15:06:48Z</time>
      </trkpt>
      <trkpt lat="45.78012" lon="4.40235">
        <ele>605</ele>
        <time>2017-03-02T15:06:54Z</time>
      </trkpt>
      <trkpt lat="45.7801" lon="4.40236">
        <ele>605</ele>
        <time>2017-03-02T15:06:55Z</time>
      </trkpt>
      <trkpt lat="45.78002" lon="4.40241">
        <ele>605</ele>
        <time>2017-03-02T15:07:04Z</time>
      </trkpt>
      <trkpt lat="45.78001" lon="4.40241">
        <ele>605</ele>
        <time>2017-03-02T15:07:05Z</time>
      </trkpt>
      <trkpt lat="45.77992" lon="4.40245">
        <ele>604</ele>
        <time>2017-03-02T15:07:12Z</time>
      </trkpt>
      <trkpt lat="45.77991" lon="4.40245">
        <ele>604</ele>
        <time>2017-03-02T15:07:13Z</time>
      </trkpt>
      <trkpt lat="45.77982" lon="4.40244">
        <ele>603</ele>
        <time>2017-03-02T15:07:20Z</time>
      </trkpt>
      <trkpt lat="45.77981" lon="4.40244">
        <ele>603</ele>
        <time>2017-03-02T15:07:21Z</time>
      </trkpt>
      <trkpt lat="45.77973" lon="4.4024">
        <ele>602</ele>
        <time>2017-03-02T15:07:29Z</time>
      </trkpt>
      <trkpt lat="45.77973" lon="4.4024">
        <ele>602</ele>
        <time>2017-03-02T15:07:30Z</time>
      </trkpt>
      <trkpt lat="45.77967" lon="4.40232">
        <ele>602</ele>
        <time>2017-03-02T15:07:37Z</time>
      </trkpt>
      <trkpt lat="45.77966" lon="4.4023">
        <ele>602</ele>
        <time>2017-03-02T15:07:38Z</time>
      </trkpt>
      <trkpt lat="45.77966" lon="4.40219">
        <ele>601</ele>
        <time>2017-03-02T15:07:45Z</time>
      </trkpt>
      <trkpt lat="45.77966" lon="4.40217">
        <ele>601</ele>
        <time>2017-03-02T15:07:46Z</time>
      </trkpt>
      <trkpt lat="45.77965" lon="4.40206">
        <ele>601</ele>
        <time>2017-03-02T15:07:54Z</time>
      </trkpt>
      <trkpt lat="45.77965" lon="4.40204">
        <ele>601</ele>
        <time>2017-03-02T15:07:55Z</time>
      </trkpt>
      <trkpt lat="45.77963" lon="4.40193">
        <ele>600</ele>
        <time>2017-03-02T15:08:02Z</time>
      </trkpt>
      <trkpt lat="45.77962" lon="4.40191">
        <ele>600</ele>
        <time>2017-03-02T15:08:03Z</time>
      </trkpt>
      <trkpt lat="45.77958" lon="4.40181">
        <ele>600</ele>
        <time>2017-03-02T15:08:10Z</time>
      </trkpt>
      <trkpt lat="45.77957" lon="4.40179">
        <ele>599</ele>
        <time>2017-03-02T15:08:11Z</time>
      </trkpt>
      <trkpt lat="45.77955" lon="4.40168">
        <ele>599</ele>
        <time>2017-03-02T15:08:17Z</time>
      </trkpt>
      <trkpt lat="45.77954" lon="4.40166">
        <ele>595</ele>
        <time>2017-03-02T15:08:18Z</time>
      </trkpt>
      <trkpt lat="45.7795" lon="4.40156">
        <ele>595</ele>
        <time>2017-03-02T15:08:24Z</time>
      </trkpt>
      <trkpt lat="45.77949" lon="4.40154">
        <ele>595</ele>
        <time>2017-03-02T15:08:25Z</time>
      </trkpt>
      <trkpt lat="45.7794" lon="4.40149">
        <ele>595</ele>
        <time>2017-03-02T15:08:33Z</time>
      </trkpt>
      <trkpt lat="45.7794" lon="4.40148">
        <ele>595</ele>
        <time>2017-03-02T15:08:34Z</time>
      </trkpt>
      <trkpt lat="45.77932" lon="4.40142">
        <ele>595</ele>
        <time>2017-03-02T15:08:43Z</time>
      </trkpt>
      <trkpt lat="45.77931" lon="4.40141">
        <ele>595</ele>
        <time>2017-03-02T15:08:44Z</time>
      </trkpt>
      <trkpt lat="45.77922" lon="4.40139">
        <ele>594</ele>
        <time>2017-03-02T15:08:53Z</time>
      </trkpt>
      <trkpt lat="45.77921" lon="4.40138">
        <ele>594</ele>
        <time>2017-03-02T15:08:54Z</time>
      </trkpt>
      <trkpt lat="45.77913" lon="4.40139">
        <ele>597</ele>
        <time>2017-03-02T15:09:02Z</time>
      </trkpt>
      <trkpt lat="45.77912" lon="4.40139">
        <ele>597</ele>
        <time>2017-03-02T15:09:03Z</time>
      </trkpt>
      <trkpt lat="45.77904" lon="4.40137">
        <ele>597</ele>
        <time>2017-03-02T15:09:11Z</time>
      </trkpt>
      <trkpt lat="45.77903" lon="4.40137">
        <ele>597</ele>
        <time>2017-03-02T15:09:12Z</time>
      </trkpt>
      <trkpt lat="45.77894" lon="4.4014">
        <ele>597</ele>
        <time>2017-03-02T15:09:20Z</time>
      </trkpt>
      <trkpt lat="45.77893" lon="4.4014">
        <ele>597</ele>
        <time>2017-03-02T15:09:21Z</time>
      </trkpt>
      <trkpt lat="45.77885" lon="4.40144">
        <ele>598</ele>
        <time>2017-03-02T15:09:29Z</time>
      </trkpt>
      <trkpt lat="45.77885" lon="4.40144">
        <ele>598</ele>
        <time>2017-03-02T15:09:30Z</time>
      </trkpt>
      <trkpt lat="45.77876" lon="4.40145">
        <ele>598</ele>
        <time>2017-03-02T15:09:38Z</time>
      </trkpt>
      <trkpt lat="45.77875" lon="4.40145">
        <ele>598</ele>
        <time>2017-03-02T15:09:39Z</time>
      </trkpt>
      <trkpt lat="45.77867" lon="4.40146">
        <ele>599</ele>
        <time>2017-03-02T15:09:47Z</time>
      </trkpt>
      <trkpt lat="45.77866" lon="4.40147">
        <ele>599</ele>
        <time>2017-03-02T15:09:48Z</time>
      </trkpt>
      <trkpt lat="45.77858" lon="4.40148">
        <ele>600</ele>
        <time>2017-03-02T15:09:57Z</time>
      </trkpt>
      <trkpt lat="45.77857" lon="4.40148">
        <ele>600</ele>
        <time>2017-03-02T15:09:58Z</time>
      </trkpt>
      <trkpt lat="45.77849" lon="4.40154">
        <ele>601</ele>
        <time>2017-03-02T15:10:07Z</time>
      </trkpt>
      <trkpt lat="45.77848" lon="4.40154">
        <ele>601</ele>
        <time>2017-03-02T15:10:08Z</time>
      </trkpt>
      <trkpt lat="45.7784" lon="4.40157">
        <ele>602</ele>
        <time>2017-03-02T15:10:15Z</time>
      </trkpt>
      <trkpt lat="45.77839" lon="4.40158">
        <ele>603</ele>
        <time>2017-03-02T15:10:16Z</time>
      </trkpt>
      <trkpt lat="45.7783" lon="4.40162">
        <ele>605</ele>
        <time>2017-03-02T15:10:24Z</time>
      </trkpt>
      <trkpt lat="45.77829" lon="4.40162">
        <ele>605</ele>
        <time>2017-03-02T15:10:25Z</time>
      </trkpt>
      <trkpt lat="45.77821" lon="4.40165">
        <ele>605</ele>
        <time>2017-03-02T15:10:34Z</time>
      </trkpt>
      <trkpt lat="45.7782" lon="4.40165">
        <ele>605</ele>
        <time>2017-03-02T15:10:35Z</time>
      </trkpt>
      <trkpt lat="45.77812" lon="4.40166">
        <ele>605</ele>
        <time>2017-03-02T15:10:43Z</time>
      </trkpt>
      <trkpt lat="45.77811" lon="4.40166">
        <ele>605</ele>
        <time>2017-03-02T15:10:44Z</time>
      </trkpt>
      <trkpt lat="45.77803" lon="4.40169">
        <ele>608</ele>
        <time>2017-03-02T15:10:51Z</time>
      </trkpt>
      <trkpt lat="45.77802" lon="4.4017">
        <ele>608</ele>
        <time>2017-03-02T15:10:52Z</time>
      </trkpt>
      <trkpt lat="45.77794" lon="4.40176">
        <ele>609</ele>
        <time>2017-03-02T15:10:59Z</time>
      </trkpt>
      <trkpt lat="45.77793" lon="4.40177">
        <ele>609</ele>
        <time>2017-03-02T15:11:00Z</time>
      </trkpt>
      <trkpt lat="45.77788" lon="4.40186">
        <ele>609</ele>
        <time>2017-03-02T15:11:07Z</time>
      </trkpt>
      <trkpt lat="45.77788" lon="4.40188">
        <ele>609</ele>
        <time>2017-03-02T15:11:08Z</time>
      </trkpt>
      <trkpt lat="45.77784" lon="4.40198">
        <ele>610</ele>
        <time>2017-03-02T15:11:17Z</time>
      </trkpt>
      <trkpt lat="45.77784" lon="4.402">
        <ele>610</ele>
        <time>2017-03-02T15:11:18Z</time>
      </trkpt>
      <trkpt lat="45.7778" lon="4.40211">
        <ele>611</ele>
        <time>2017-03-02T15:11:26Z</time>
      </trkpt>
      <trkpt lat="45.7778" lon="4.40213">
        <ele>611</ele>
        <time>2017-03-02T15:11:27Z</time>
      </trkpt>
      <trkpt lat="45.77773" lon="4.40222">
        <ele>612</ele>
        <time>2017-03-02T15:11:36Z</time>
      </trkpt>
      <trkpt lat="45.77773" lon="4.40223">
        <ele>612</ele>
        <time>2017-03-02T15:11:37Z</time>
      </trkpt>
      <trkpt lat="45.77766" lon="4.40229">
        <ele>613</ele>
        <time>2017-03-02T15:11:45Z</time>
      </trkpt>
      <trkpt lat="45.77765" lon="4.40231">
        <ele>613</ele>
        <time>2017-03-02T15:11:46Z</time>
      </trkpt>
      <trkpt lat="45.77757" lon="4.40236">
        <ele>614</ele>
        <time>2017-03-02T15:11:53Z</time>
      </trkpt>
      <trkpt lat="45.77756" lon="4.40236">
        <ele>615</ele>
        <time>2017-03-02T15:11:54Z</time>
      </trkpt>
      <trkpt lat="45.77749" lon="4.40242">
        <ele>617</ele>
        <time>2017-03-02T15:12:02Z</time>
      </trkpt>
      <trkpt lat="45.77748" lon="4.40244">
        <ele>617</ele>
        <time>2017-03-02T15:12:03Z</time>
      </trkpt>
      <trkpt lat="45.77742" lon="4.40253">
        <ele>620</ele>
        <time>2017-03-02T15:12:11Z</time>
      </trkpt>
      <trkpt lat="45.77741" lon="4.40254">
        <ele>620</ele>
        <time>2017-03-02T15:12:12Z</time>
      </trkpt>
      <trkpt lat="45.77734" lon="4.40259">
        <ele>621</ele>
        <time>2017-03-02T15:12:19Z</time>
      </trkpt>
      <trkpt lat="45.77733" lon="4.4026">
        <ele>621</ele>
        <time>2017-03-02T15:12:20Z</time>
      </trkpt>
      <trkpt lat="45.77725" lon="4.40265">
        <ele>622</ele>
        <time>2017-03-02T15:12:28Z</time>
      </trkpt>
      <trkpt lat="45.77724" lon="4.40266">
        <ele>622</ele>
        <time>2017-03-02T15:12:29Z</time>
      </trkpt>
      <trkpt lat="45.77716" lon="4.40272">
        <ele>623</ele>
        <time>2017-03-02T15:12:37Z</time>
      </trkpt>
      <trkpt lat="45.77715" lon="4.40273">
        <ele>623</ele>
        <time>2017-03-02T15:12:38Z</time>
      </trkpt>
      <trkpt lat="45.77707" lon="4.40278">
        <ele>623</ele>
        <time>2017-03-02T15:12:46Z</time>
      </trkpt>
      <trkpt lat="45.77706" lon="4.40279">
        <ele>623</ele>
        <time>2017-03-02T15:12:47Z</time>
      </trkpt>
      <trkpt lat="45.77701" lon="4.40288">
        <ele>624</ele>
        <time>2017-03-02T15:12:54Z</time>
      </trkpt>
      <trkpt lat="45.777" lon="4.40289">
        <ele>624</ele>
        <time>2017-03-02T15:12:55Z</time>
      </trkpt>
      <trkpt lat="45.77696" lon="4.403">
        <ele>624</ele>
        <time>2017-03-02T15:13:03Z</time>
      </trkpt>
      <trkpt lat="45.77696" lon="4.40301">
        <ele>624</ele>
        <time>2017-03-02T15:13:04Z</time>
      </trkpt>
      <trkpt lat="45.77691" lon="4.40311">
        <ele>625</ele>
        <time>2017-03-02T15:13:11Z</time>
      </trkpt>
      <trkpt lat="45.7769" lon="4.40312">
        <ele>625</ele>
        <time>2017-03-02T15:13:12Z</time>
      </trkpt>
      <trkpt lat="45.77683" lon="4.40319">
        <ele>625</ele>
        <time>2017-03-02T15:13:19Z</time>
      </trkpt>
      <trkpt lat="45.77682" lon="4.4032">
        <ele>625</ele>
        <time>2017-03-02T15:13:20Z</time>
      </trkpt>
      <trkpt lat="45.77675" lon="4.40324">
        <ele>626</ele>
        <time>2017-03-02T15:13:27Z</time>
      </trkpt>
      <trkpt lat="45.77674" lon="4.40325">
        <ele>626</ele>
        <time>2017-03-02T15:13:28Z</time>
      </trkpt>
      <trkpt lat="45.77666" lon="4.40329">
        <ele>627</ele>
        <time>2017-03-02T15:13:35Z</time>
      </trkpt>
      <trkpt lat="45.77665" lon="4.4033">
        <ele>627</ele>
        <time>2017-03-02T15:13:36Z</time>
      </trkpt>
      <trkpt lat="45.77659" lon="4.40336">
        <ele>629</ele>
        <time>2017-03-02T15:13:44Z</time>
      </trkpt>
      <trkpt lat="45.77658" lon="4.40337">
        <ele>629</ele>
        <time>2017-03-02T15:13:45Z</time>
      </trkpt>
      <trkpt lat="45.77651" lon="4.40344">
        <ele>631</ele>
        <time>2017-03-02T15:13:53Z</time>
      </trkpt>
      <trkpt lat="45.7765" lon="4.40345">
        <ele>631</ele>
        <time>2017-03-02T15:13:54Z</time>
      </trkpt>
      <trkpt lat="45.77643" lon="4.40353">
        <ele>632</ele>
        <time>2017-03-02T15:14:01Z</time>
      </trkpt>
      <trkpt lat="45.77643" lon="4.40354">
        <ele>632</ele>
        <time>2017-03-02T15:14:02Z</time>
      </trkpt>
      <trkpt lat="45.77634" lon="4.40358">
        <ele>632</ele>
        <time>2017-03-02T15:14:11Z</time>
      </trkpt>
      <trkpt lat="45.77633" lon="4.40359">
        <ele>632</ele>
        <time>2017-03-02T15:14:12Z</time>
      </trkpt>
      <trkpt lat="45.77626" lon="4.40364">
        <ele>633</ele>
        <time>2017-03-02T15:14:20Z</time>
      </trkpt>
      <trkpt lat="45.77624" lon="4.40364">
        <ele>633</ele>
        <time>2017-03-02T15:14:21Z</time>
      </trkpt>
      <trkpt lat="45.77617" lon="4.40369">
        <ele>633</ele>
        <time>2017-03-02T15:14:28Z</time>
      </trkpt>
      <trkpt lat="45.77616" lon="4.40369">
        <ele>633</ele>
        <time>2017-03-02T15:14:29Z</time>
      </trkpt>
      <trkpt lat="45.77608" lon="4.40374">
        <ele>634</ele>
        <time>2017-03-02T15:14:36Z</time>
      </trkpt>
      <trkpt lat="45.77607" lon="4.40375">
        <ele>634</ele>
        <time>2017-03-02T15:14:37Z</time>
      </trkpt>
      <trkpt lat="45.77599" lon="4.4038">
        <ele>634</ele>
        <time>2017-03-02T15:14:45Z</time>
      </trkpt>
      <trkpt lat="45.77598" lon="4.4038">
        <ele>634</ele>
        <time>2017-03-02T15:14:46Z</time>
      </trkpt>
      <trkpt lat="45.7759" lon="4.40385">
        <ele>635</ele>
        <time>2017-03-02T15:14:54Z</time>
      </trkpt>
      <trkpt lat="45.77589" lon="4.40386">
        <ele>635</ele>
        <time>2017-03-02T15:14:55Z</time>
      </trkpt>
      <trkpt lat="45.77581" lon="4.40392">
        <ele>638</ele>
        <time>2017-03-02T15:15:03Z</time>
      </trkpt>
      <trkpt lat="45.7758" lon="4.40392">
        <ele>638</ele>
        <time>2017-03-02T15:15:04Z</time>
      </trkpt>
      <trkpt lat="45.77572" lon="4.40393">
        <ele>638</ele>
        <time>2017-03-02T15:15:11Z</time>
      </trkpt>
      <trkpt lat="45.77571" lon="4.40393">
        <ele>638</ele>
        <time>2017-03-02T15:15:12Z</time>
      </trkpt>
      <trkpt lat="45.77563" lon="4.40388">
        <ele>638</ele>
        <time>2017-03-02T15:15:19Z</time>
      </trkpt>
      <trkpt lat="45.77562" lon="4.40387">
        <ele>638</ele>
        <time>2017-03-02T15:15:20Z</time>
      </trkpt>
      <trkpt lat="45.77554" lon="4.40381">
        <ele>638</ele>
        <time>2017-03-02T15:15:26Z</time>
      </trkpt>
      <trkpt lat="45.77553" lon="4.40381">
        <ele>638</ele>
        <time>2017-03-02T15:15:27Z</time>
      </trkpt>
      <trkpt lat="45.77544" lon="4.40378">
        <ele>638</ele>
        <time>2017-03-02T15:15:34Z</time>
      </trkpt>
      <trkpt lat="45.77543" lon="4.40377">
        <ele>638</ele>
        <time>2017-03-02T15:15:35Z</time>
      </trkpt>
      <trkpt lat="45.77535" lon="4.40376">
        <ele>638</ele>
        <time>2017-03-02T15:15:43Z</time>
      </trkpt>
      <trkpt lat="45.77534" lon="4.40376">
        <ele>638</ele>
        <time>2017-03-02T15:15:44Z</time>
      </trkpt>
      <trkpt lat="45.77526" lon="4.40372">
        <ele>638</ele>
        <time>2017-03-02T15:15:52Z</time>
      </trkpt>
      <trkpt lat="45.77525" lon="4.40371">
        <ele>638</ele>
        <time>2017-03-02T15:15:53Z</time>
      </trkpt>
      <trkpt lat="45.77523" lon="4.40359">
        <ele>639</ele>
        <time>2017-03-02T15:18:21Z</time>
      </trkpt>
      <trkpt lat="45.77523" lon="4.40357">
        <ele>639</ele>
        <time>2017-03-02T15:18:22Z</time>
      </trkpt>
      <trkpt lat="45.77523" lon="4.40344">
        <ele>639</ele>
        <time>2017-03-02T15:18:28Z</time>
      </trkpt>
      <trkpt lat="45.77523" lon="4.40342">
        <ele>639</ele>
        <time>2017-03-02T15:18:29Z</time>
      </trkpt>
      <trkpt lat="45.77524" lon="4.40332">
        <ele>639</ele>
        <time>2017-03-02T15:18:34Z</time>
      </trkpt>
      <trkpt lat="45.77524" lon="4.40329">
        <ele>639</ele>
        <time>2017-03-02T15:18:35Z</time>
      </trkpt>
      <trkpt lat="45.77523" lon="4.40317">
        <ele>639</ele>
        <time>2017-03-02T15:18:42Z</time>
      </trkpt>
      <trkpt lat="45.77522" lon="4.40315">
        <ele>639</ele>
        <time>2017-03-02T15:18:43Z</time>
      </trkpt>
      <trkpt lat="45.7752" lon="4.40304">
        <ele>639</ele>
        <time>2017-03-02T15:18:49Z</time>
      </trkpt>
      <trkpt lat="45.7752" lon="4.40303">
        <ele>639</ele>
        <time>2017-03-02T15:18:50Z</time>
      </trkpt>
      <trkpt lat="45.77519" lon="4.40291">
        <ele>639</ele>
        <time>2017-03-02T15:18:56Z</time>
      </trkpt>
      <trkpt lat="45.77519" lon="4.40289">
        <ele>639</ele>
        <time>2017-03-02T15:18:57Z</time>
      </trkpt>
      <trkpt lat="45.77518" lon="4.40277">
        <ele>640</ele>
        <time>2017-03-02T15:19:03Z</time>
      </trkpt>
      <trkpt lat="45.77518" lon="4.40275">
        <ele>640</ele>
        <time>2017-03-02T15:19:04Z</time>
      </trkpt>
      <trkpt lat="45.77516" lon="4.40264">
        <ele>640</ele>
        <time>2017-03-02T15:19:10Z</time>
      </trkpt>
      <trkpt lat="45.77515" lon="4.40263">
        <ele>640</ele>
        <time>2017-03-02T15:19:11Z</time>
      </trkpt>
      <trkpt lat="45.77514" lon="4.4025">
        <ele>643</ele>
        <time>2017-03-02T15:19:18Z</time>
      </trkpt>
      <trkpt lat="45.77514" lon="4.40248">
        <ele>643</ele>
        <time>2017-03-02T15:19:19Z</time>
      </trkpt>
      <trkpt lat="45.77514" lon="4.40237">
        <ele>643</ele>
        <time>2017-03-02T15:19:25Z</time>
      </trkpt>
      <trkpt lat="45.77513" lon="4.40235">
        <ele>643</ele>
        <time>2017-03-02T15:19:26Z</time>
      </trkpt>
      <trkpt lat="45.7751" lon="4.40224">
        <ele>643</ele>
        <time>2017-03-02T15:19:33Z</time>
      </trkpt>
      <trkpt lat="45.77509" lon="4.40223">
        <ele>643</ele>
        <time>2017-03-02T15:19:34Z</time>
      </trkpt>
      <trkpt lat="45.77507" lon="4.40212">
        <ele>643</ele>
        <time>2017-03-02T15:19:42Z</time>
      </trkpt>
      <trkpt lat="45.77506" lon="4.4021">
        <ele>643</ele>
        <time>2017-03-02T15:19:43Z</time>
      </trkpt>
      <trkpt lat="45.77499" lon="4.40206">
        <ele>642</ele>
        <time>2017-03-02T15:19:49Z</time>
      </trkpt>
      <trkpt lat="45.77498" lon="4.40206">
        <ele>642</ele>
        <time>2017-03-02T15:19:50Z</time>
      </trkpt>
      <trkpt lat="45.77491" lon="4.40213">
        <ele>641</ele>
        <time>2017-03-02T15:19:57Z</time>
      </trkpt>
      <trkpt lat="45.7749" lon="4.40214">
        <ele>641</ele>
        <time>2017-03-02T15:19:58Z</time>
      </trkpt>
      <trkpt lat="45.77483" lon="4.40219">
        <ele>641</ele>
        <time>2017-03-02T15:20:05Z</time>
      </trkpt>
      <trkpt lat="45.77481" lon="4.4022">
        <ele>641</ele>
        <time>2017-03-02T15:20:06Z</time>
      </trkpt>
      <trkpt lat="45.77475" lon="4.40226">
        <ele>641</ele>
        <time>2017-03-02T15:20:14Z</time>
      </trkpt>
      <trkpt lat="45.77474" lon="4.40227">
        <ele>641</ele>
        <time>2017-03-02T15:20:15Z</time>
      </trkpt>
      <trkpt lat="45.77467" lon="4.40232">
        <ele>640</ele>
        <time>2017-03-02T15:20:20Z</time>
      </trkpt>
      <trkpt lat="45.77465" lon="4.40233">
        <ele>640</ele>
        <time>2017-03-02T15:20:21Z</time>
      </trkpt>
      <trkpt lat="45.77459" lon="4.40239">
        <ele>640</ele>
        <time>2017-03-02T15:20:26Z</time>
      </trkpt>
      <trkpt lat="45.77457" lon="4.40241">
        <ele>640</ele>
        <time>2017-03-02T15:20:27Z</time>
      </trkpt>
      <trkpt lat="45.7745" lon="4.40246">
        <ele>639</ele>
        <time>2017-03-02T15:20:33Z</time>
      </trkpt>
      <trkpt lat="45.77448" lon="4.40247">
        <ele>639</ele>
        <time>2017-03-02T15:20:34Z</time>
      </trkpt>
      <trkpt lat="45.77441" lon="4.40253">
        <ele>639</ele>
        <time>2017-03-02T15:20:40Z</time>
      </trkpt>
      <trkpt lat="45.7744" lon="4.40255">
        <ele>639</ele>
        <time>2017-03-02T15:20:41Z</time>
      </trkpt>
      <trkpt lat="45.77432" lon="4.40259">
        <ele>639</ele>
        <time>2017-03-02T15:20:46Z</time>
      </trkpt>
      <trkpt lat="45.77431" lon="4.40259">
        <ele>639</ele>
        <time>2017-03-02T15:20:47Z</time>
      </trkpt>
      <trkpt lat="45.77423" lon="4.40264">
        <ele>638</ele>
        <time>2017-03-02T15:20:54Z</time>
      </trkpt>
      <trkpt lat="45.77421" lon="4.40265">
        <ele>638</ele>
        <time>2017-03-02T15:20:55Z</time>
      </trkpt>
      <trkpt lat="45.77413" lon="4.40267">
        <ele>637</ele>
        <time>2017-03-02T15:21:01Z</time>
      </trkpt>
      <trkpt lat="45.77412" lon="4.40268">
        <ele>637</ele>
        <time>2017-03-02T15:21:02Z</time>
      </trkpt>
      <trkpt lat="45.77404" lon="4.40272">
        <ele>637</ele>
        <time>2017-03-02T15:21:09Z</time>
      </trkpt>
      <trkpt lat="45.77403" lon="4.40273">
        <ele>637</ele>
        <time>2017-03-02T15:21:10Z</time>
      </trkpt>
      <trkpt lat="45.77395" lon="4.40276">
        <ele>637</ele>
        <time>2017-03-02T15:21:17Z</time>
      </trkpt>
      <trkpt lat="45.77394" lon="4.40277">
        <ele>637</ele>
        <time>2017-03-02T15:21:18Z</time>
      </trkpt>
      <trkpt lat="45.77386" lon="4.40281">
        <ele>637</ele>
        <time>2017-03-02T15:21:24Z</time>
      </trkpt>
      <trkpt lat="45.77384" lon="4.40281">
        <ele>637</ele>
        <time>2017-03-02T15:21:25Z</time>
      </trkpt>
      <trkpt lat="45.77377" lon="4.40285">
        <ele>637</ele>
        <time>2017-03-02T15:21:31Z</time>
      </trkpt>
      <trkpt lat="45.77376" lon="4.40286">
        <ele>637</ele>
        <time>2017-03-02T15:21:32Z</time>
      </trkpt>
      <trkpt lat="45.77368" lon="4.40289">
        <ele>637</ele>
        <time>2017-03-02T15:21:41Z</time>
      </trkpt>
      <trkpt lat="45.77367" lon="4.40289">
        <ele>637</ele>
        <time>2017-03-02T15:21:42Z</time>
      </trkpt>
      <trkpt lat="45.7736" lon="4.40294">
        <ele>637</ele>
        <time>2017-03-02T15:21:48Z</time>
      </trkpt>
      <trkpt lat="45.77358" lon="4.40295">
        <ele>637</ele>
        <time>2017-03-02T15:21:49Z</time>
      </trkpt>
      <trkpt lat="45.77351" lon="4.40299">
        <ele>638</ele>
        <time>2017-03-02T15:21:55Z</time>
      </trkpt>
      <trkpt lat="45.77349" lon="4.40299">
        <ele>638</ele>
        <time>2017-03-02T15:21:56Z</time>
      </trkpt>
      <trkpt lat="45.77342" lon="4.40305">
        <ele>638</ele>
        <time>2017-03-02T15:22:02Z</time>
      </trkpt>
      <trkpt lat="45.7734" lon="4.40306">
        <ele>638</ele>
        <time>2017-03-02T15:22:03Z</time>
      </trkpt>
      <trkpt lat="45.77332" lon="4.40308">
        <ele>634</ele>
        <time>2017-03-02T15:22:08Z</time>
      </trkpt>
      <trkpt lat="45.7733" lon="4.40309">
        <ele>634</ele>
        <time>2017-03-02T15:22:09Z</time>
      </trkpt>
      <trkpt lat="45.77322" lon="4.40313">
        <ele>634</ele>
        <time>2017-03-02T15:22:14Z</time>
      </trkpt>
      <trkpt lat="45.77321" lon="4.40314">
        <ele>634</ele>
        <time>2017-03-02T15:22:15Z</time>
      </trkpt>
      <trkpt lat="45.77313" lon="4.40318">
        <ele>633</ele>
        <time>2017-03-02T15:22:21Z</time>
      </trkpt>
      <trkpt lat="45.77312" lon="4.40319">
        <ele>633</ele>
        <time>2017-03-02T15:22:22Z</time>
      </trkpt>
      <trkpt lat="45.77304" lon="4.40323">
        <ele>632</ele>
        <time>2017-03-02T15:22:29Z</time>
      </trkpt>
      <trkpt lat="45.77302" lon="4.40323">
        <ele>632</ele>
        <time>2017-03-02T15:22:30Z</time>
      </trkpt>
      <trkpt lat="45.77294" lon="4.40328">
        <ele>631</ele>
        <time>2017-03-02T15:22:36Z</time>
      </trkpt>
      <trkpt lat="45.77293" lon="4.40329">
        <ele>631</ele>
        <time>2017-03-02T15:22:37Z</time>
      </trkpt>
      <trkpt lat="45.77286" lon="4.40333">
        <ele>631</ele>
        <time>2017-03-02T15:22:42Z</time>
      </trkpt>
      <trkpt lat="45.77284" lon="4.40334">
        <ele>633</ele>
        <time>2017-03-02T15:22:43Z</time>
      </trkpt>
      <trkpt lat="45.77276" lon="4.40339">
        <ele>632</ele>
        <time>2017-03-02T15:22:49Z</time>
      </trkpt>
      <trkpt lat="45.77275" lon="4.40339">
        <ele>632</ele>
        <time>2017-03-02T15:22:50Z</time>
      </trkpt>
      <trkpt lat="45.77267" lon="4.40344">
        <ele>631</ele>
        <time>2017-03-02T15:22:56Z</time>
      </trkpt>
      <trkpt lat="45.77265" lon="4.40345">
        <ele>631</ele>
        <time>2017-03-02T15:22:57Z</time>
      </trkpt>
      <trkpt lat="45.77258" lon="4.40349">
        <ele>631</ele>
        <time>2017-03-02T15:23:03Z</time>
      </trkpt>
      <trkpt lat="45.77256" lon="4.4035">
        <ele>631</ele>
        <time>2017-03-02T15:23:04Z</time>
      </trkpt>
      <trkpt lat="45.77249" lon="4.40353">
        <ele>623</ele>
        <time>2017-03-02T15:23:10Z</time>
      </trkpt>
      <trkpt lat="45.77247" lon="4.40354">
        <ele>623</ele>
        <time>2017-03-02T15:23:11Z</time>
      </trkpt>
      <trkpt lat="45.77239" lon="4.40358">
        <ele>622</ele>
        <time>2017-03-02T15:23:17Z</time>
      </trkpt>
      <trkpt lat="45.77237" lon="4.40359">
        <ele>622</ele>
        <time>2017-03-02T15:23:18Z</time>
      </trkpt>
      <trkpt lat="45.7723" lon="4.40365">
        <ele>620</ele>
        <time>2017-03-02T15:23:24Z</time>
      </trkpt>
      <trkpt lat="45.77229" lon="4.40367">
        <ele>620</ele>
        <time>2017-03-02T15:23:25Z</time>
      </trkpt>
      <trkpt lat="45.77224" lon="4.40376">
        <ele>619</ele>
        <time>2017-03-02T15:23:31Z</time>
      </trkpt>
      <trkpt lat="45.77223" lon="4.40377">
        <ele>619</ele>
        <time>2017-03-02T15:23:32Z</time>
      </trkpt>
      <trkpt lat="45.77214" lon="4.40375">
        <ele>618</ele>
        <time>2017-03-02T15:23:39Z</time>
      </trkpt>
      <trkpt lat="45.77214" lon="4.40373">
        <ele>618</ele>
        <time>2017-03-02T15:23:40Z</time>
      </trkpt>
      <trkpt lat="45.77211" lon="4.40362">
        <ele>618</ele>
        <time>2017-03-02T15:23:46Z</time>
      </trkpt>
      <trkpt lat="45.77211" lon="4.4036">
        <ele>618</ele>
        <time>2017-03-02T15:23:47Z</time>
      </trkpt>
      <trkpt lat="45.7721" lon="4.40348">
        <ele>618</ele>
        <time>2017-03-02T15:23:53Z</time>
      </trkpt>
      <trkpt lat="45.7721" lon="4.40346">
        <ele>618</ele>
        <time>2017-03-02T15:23:54Z</time>
      </trkpt>
      <trkpt lat="45.7721" lon="4.40334">
        <ele>619</ele>
        <time>2017-03-02T15:24:00Z</time>
      </trkpt>
      <trkpt lat="45.7721" lon="4.40332">
        <ele>617</ele>
        <time>2017-03-02T15:24:01Z</time>
      </trkpt>
      <trkpt lat="45.77211" lon="4.4032">
        <ele>617</ele>
        <time>2017-03-02T15:24:07Z</time>
      </trkpt>
      <trkpt lat="45.77211" lon="4.40318">
        <ele>617</ele>
        <time>2017-03-02T15:24:08Z</time>
      </trkpt>
      <trkpt lat="45.77213" lon="4.40306">
        <ele>616</ele>
        <time>2017-03-02T15:24:14Z</time>
      </trkpt>
      <trkpt lat="45.77214" lon="4.40304">
        <ele>616</ele>
        <time>2017-03-02T15:24:15Z</time>
      </trkpt>
      <trkpt lat="45.77217" lon="4.40293">
        <ele>616</ele>
        <time>2017-03-02T15:24:21Z</time>
      </trkpt>
      <trkpt lat="45.77217" lon="4.40291">
        <ele>616</ele>
        <time>2017-03-02T15:24:22Z</time>
      </trkpt>
      <trkpt lat="45.77221" lon="4.40281">
        <ele>616</ele>
        <time>2017-03-02T15:24:28Z</time>
      </trkpt>
      <trkpt lat="45.77222" lon="4.40279">
        <ele>616</ele>
        <time>2017-03-02T15:24:29Z</time>
      </trkpt>
      <trkpt lat="45.77226" lon="4.40269">
        <ele>616</ele>
        <time>2017-03-02T15:24:35Z</time>
      </trkpt>
      <trkpt lat="45.77227" lon="4.40267">
        <ele>616</ele>
        <time>2017-03-02T15:24:36Z</time>
      </trkpt>
      <trkpt lat="45.7723" lon="4.40256">
        <ele>616</ele>
        <time>2017-03-02T15:24:42Z</time>
      </trkpt>
      <trkpt lat="45.77231" lon="4.40254">
        <ele>616</ele>
        <time>2017-03-02T15:24:43Z</time>
      </trkpt>
      <trkpt lat="45.77234" lon="4.40243">
        <ele>614</ele>
        <time>2017-03-02T15:24:49Z</time>
      </trkpt>
      <trkpt lat="45.77234" lon="4.40241">
        <ele>614</ele>
        <time>2017-03-02T15:24:50Z</time>
      </trkpt>
      <trkpt lat="45.77235" lon="4.40229">
        <ele>613</ele>
        <time>2017-03-02T15:24:56Z</time>
      </trkpt>
      <trkpt lat="45.77235" lon="4.40227">
        <ele>613</ele>
        <time>2017-03-02T15:24:57Z</time>
      </trkpt>
      <trkpt lat="45.77239" lon="4.40217">
        <ele>613</ele>
        <time>2017-03-02T15:25:03Z</time>
      </trkpt>
      <trkpt lat="45.7724" lon="4.40216">
        <ele>613</ele>
        <time>2017-03-02T15:25:04Z</time>
      </trkpt>
      <trkpt lat="45.77246" lon="4.40209">
        <ele>613</ele>
        <time>2017-03-02T15:25:09Z</time>
      </trkpt>
      <trkpt lat="45.77247" lon="4.40207">
        <ele>613</ele>
        <time>2017-03-02T15:25:10Z</time>
      </trkpt>
      <trkpt lat="45.77254" lon="4.40199">
        <ele>619</ele>
        <time>2017-03-02T15:25:16Z</time>
      </trkpt>
      <trkpt lat="45.77256" lon="4.40198">
        <ele>619</ele>
        <time>2017-03-02T15:25:17Z</time>
      </trkpt>
      <trkpt lat="45.77262" lon="4.40189">
        <ele>619</ele>
        <time>2017-03-02T15:25:24Z</time>
      </trkpt>
      <trkpt lat="45.77262" lon="4.40187">
        <ele>618</ele>
        <time>2017-03-02T15:25:25Z</time>
      </trkpt>
      <trkpt lat="45.77266" lon="4.40176">
        <ele>618</ele>
        <time>2017-03-02T15:25:31Z</time>
      </trkpt>
      <trkpt lat="45.77267" lon="4.40175">
        <ele>618</ele>
        <time>2017-03-02T15:25:32Z</time>
      </trkpt>
      <trkpt lat="45.7727" lon="4.40164">
        <ele>620</ele>
        <time>2017-03-02T15:25:38Z</time>
      </trkpt>
      <trkpt lat="45.7727" lon="4.40163">
        <ele>621</ele>
        <time>2017-03-02T15:25:39Z</time>
      </trkpt>
      <trkpt lat="45.77272" lon="4.40151">
        <ele>622</ele>
        <time>2017-03-02T15:25:46Z</time>
      </trkpt>
      <trkpt lat="45.77272" lon="4.4015">
        <ele>622</ele>
        <time>2017-03-02T15:25:47Z</time>
      </trkpt>
      <trkpt lat="45.77268" lon="4.40138">
        <ele>623</ele>
        <time>2017-03-02T15:25:54Z</time>
      </trkpt>
      <trkpt lat="45.77267" lon="4.40137">
        <ele>623</ele>
        <time>2017-03-02T15:25:55Z</time>
      </trkpt>
      <trkpt lat="45.77259" lon="4.40131">
        <ele>624</ele>
        <time>2017-03-02T15:26:02Z</time>
      </trkpt>
      <trkpt lat="45.77258" lon="4.4013">
        <ele>624</ele>
        <time>2017-03-02T15:26:03Z</time>
      </trkpt>
      <trkpt lat="45.77251" lon="4.40122">
        <ele>625</ele>
        <time>2017-03-02T15:26:11Z</time>
      </trkpt>
      <trkpt lat="45.7725" lon="4.40123">
        <ele>625</ele>
        <time>2017-03-02T15:26:12Z</time>
      </trkpt>
      <trkpt lat="45.77242" lon="4.40121">
        <ele>620</ele>
        <time>2017-03-02T15:26:19Z</time>
      </trkpt>
      <trkpt lat="45.77241" lon="4.40121">
        <ele>620</ele>
        <time>2017-03-02T15:26:20Z</time>
      </trkpt>
      <trkpt lat="45.77232" lon="4.4012">
        <ele>620</ele>
        <time>2017-03-02T15:26:27Z</time>
      </trkpt>
      <trkpt lat="45.77231" lon="4.40119">
        <ele>620</ele>
        <time>2017-03-02T15:26:28Z</time>
      </trkpt>
      <trkpt lat="45.77222" lon="4.40117">
        <ele>620</ele>
        <time>2017-03-02T15:26:37Z</time>
      </trkpt>
      <trkpt lat="45.77221" lon="4.40117">
        <ele>620</ele>
        <time>2017-03-02T15:26:38Z</time>
      </trkpt>
      <trkpt lat="45.77214" lon="4.40121">
        <ele>619</ele>
        <time>2017-03-02T15:26:46Z</time>
      </trkpt>
      <trkpt lat="45.77212" lon="4.40122">
        <ele>619</ele>
        <time>2017-03-02T15:26:47Z</time>
      </trkpt>
      <trkpt lat="45.77204" lon="4.40125">
        <ele>618</ele>
        <time>2017-03-02T15:26:54Z</time>
      </trkpt>
      <trkpt lat="45.77203" lon="4.40125">
        <ele>618</ele>
        <time>2017-03-02T15:26:55Z</time>
      </trkpt>
      <trkpt lat="45.77195" lon="4.40127">
        <ele>618</ele>
        <time>2017-03-02T15:27:02Z</time>
      </trkpt>
      <trkpt lat="45.77194" lon="4.40127">
        <ele>618</ele>
        <time>2017-03-02T15:27:03Z</time>
      </trkpt>
      <trkpt lat="45.77185" lon="4.40126">
        <ele>617</ele>
        <time>2017-03-02T15:27:10Z</time>
      </trkpt>
      <trkpt lat="45.77183" lon="4.40127">
        <ele>617</ele>
        <time>2017-03-02T15:27:11Z</time>
      </trkpt>
      <trkpt lat="45.77174" lon="4.40129">
        <ele>617</ele>
        <time>2017-03-02T15:27:17Z</time>
      </trkpt>
      <trkpt lat="45.77173" lon="4.40129">
        <ele>616</ele>
        <time>2017-03-02T15:27:18Z</time>
      </trkpt>
      <trkpt lat="45.77164" lon="4.4013">
        <ele>608</ele>
        <time>2017-03-02T15:27:24Z</time>
      </trkpt>
      <trkpt lat="45.77163" lon="4.4013">
        <ele>608</ele>
        <time>2017-03-02T15:27:25Z</time>
      </trkpt>
      <trkpt lat="45.77155" lon="4.40132">
        <ele>608</ele>
        <time>2017-03-02T15:27:31Z</time>
      </trkpt>
      <trkpt lat="45.77153" lon="4.40132">
        <ele>608</ele>
        <time>2017-03-02T15:27:32Z</time>
      </trkpt>
      <trkpt lat="45.77145" lon="4.40132">
        <ele>607</ele>
        <time>2017-03-02T15:27:39Z</time>
      </trkpt>
      <trkpt lat="45.77143" lon="4.40132">
        <ele>607</ele>
        <time>2017-03-02T15:27:40Z</time>
      </trkpt>
      <trkpt lat="45.77134" lon="4.40131">
        <ele>607</ele>
        <time>2017-03-02T15:27:46Z</time>
      </trkpt>
      <trkpt lat="45.77133" lon="4.40131">
        <ele>606</ele>
        <time>2017-03-02T15:27:47Z</time>
      </trkpt>
      <trkpt lat="45.77125" lon="4.40129">
        <ele>606</ele>
        <time>2017-03-02T15:27:52Z</time>
      </trkpt>
      <trkpt lat="45.77123" lon="4.40129">
        <ele>606</ele>
        <time>2017-03-02T15:27:53Z</time>
      </trkpt>
      <trkpt lat="45.77115" lon="4.40127">
        <ele>605</ele>
        <time>2017-03-02T15:27:59Z</time>
      </trkpt>
      <trkpt lat="45.77114" lon="4.40126">
        <ele>605</ele>
        <time>2017-03-02T15:28:00Z</time>
      </trkpt>
      <trkpt lat="45.77108" lon="4.40117">
        <ele>606</ele>
        <time>2017-03-02T15:28:06Z</time>
      </trkpt>
      <trkpt lat="45.77107" lon="4.40116">
        <ele>605</ele>
        <time>2017-03-02T15:28:07Z</time>
      </trkpt>
      <trkpt lat="45.77099" lon="4.40111">
        <ele>605</ele>
        <time>2017-03-02T15:28:13Z</time>
      </trkpt>
      <trkpt lat="45.77097" lon="4.4011">
        <ele>605</ele>
        <time>2017-03-02T15:28:14Z</time>
      </trkpt>
      <trkpt lat="45.77092" lon="4.401">
        <ele>606</ele>
        <time>2017-03-02T15:28:20Z</time>
      </trkpt>
      <trkpt lat="45.77091" lon="4.40099">
        <ele>606</ele>
        <time>2017-03-02T15:28:21Z</time>
      </trkpt>
      <trkpt lat="45.77085" lon="4.4009">
        <ele>606</ele>
        <time>2017-03-02T15:28:27Z</time>
      </trkpt>
      <trkpt lat="45.77084" lon="4.40089">
        <ele>606</ele>
        <time>2017-03-02T15:28:28Z</time>
      </trkpt>
      <trkpt lat="45.77078" lon="4.40081">
        <ele>604</ele>
        <time>2017-03-02T15:28:34Z</time>
      </trkpt>
      <trkpt lat="45.77078" lon="4.4008">
        <ele>604</ele>
        <time>2017-03-02T15:28:35Z</time>
      </trkpt>
      <trkpt lat="45.7707" lon="4.40074">
        <ele>602</ele>
        <time>2017-03-02T15:28:43Z</time>
      </trkpt>
      <trkpt lat="45.77069" lon="4.40074">
        <ele>602</ele>
        <time>2017-03-02T15:28:44Z</time>
      </trkpt>
      <trkpt lat="45.77065" lon="4.40065">
        <ele>601</ele>
        <time>2017-03-02T15:28:50Z</time>
      </trkpt>
      <trkpt lat="45.77064" lon="4.40063">
        <ele>601</ele>
        <time>2017-03-02T15:28:51Z</time>
      </trkpt>
      <trkpt lat="45.7706" lon="4.40054">
        <ele>601</ele>
        <time>2017-03-02T15:28:56Z</time>
      </trkpt>
      <trkpt lat="45.77058" lon="4.40052">
        <ele>600</ele>
        <time>2017-03-02T15:28:57Z</time>
      </trkpt>
      <trkpt lat="45.77052" lon="4.40044">
        <ele>600</ele>
        <time>2017-03-02T15:29:03Z</time>
      </trkpt>
      <trkpt lat="45.7705" lon="4.40043">
        <ele>600</ele>
        <time>2017-03-02T15:29:04Z</time>
      </trkpt>
      <trkpt lat="45.77042" lon="4.40039">
        <ele>599</ele>
        <time>2017-03-02T15:29:10Z</time>
      </trkpt>
      <trkpt lat="45.77042" lon="4.40038">
        <ele>599</ele>
        <time>2017-03-02T15:29:11Z</time>
      </trkpt>
      <trkpt lat="45.77043" lon="4.40025">
        <ele>600</ele>
        <time>2017-03-02T15:29:17Z</time>
      </trkpt>
      <trkpt lat="45.77042" lon="4.40024">
        <ele>600</ele>
        <time>2017-03-02T15:29:18Z</time>
      </trkpt>
      <trkpt lat="45.77039" lon="4.40014">
        <ele>599</ele>
        <time>2017-03-02T15:30:06Z</time>
      </trkpt>
      <trkpt lat="45.77038" lon="4.40012">
        <ele>599</ele>
        <time>2017-03-02T15:30:07Z</time>
      </trkpt>
      <trkpt lat="45.7703" lon="4.40007">
        <ele>597</ele>
        <time>2017-03-02T15:30:15Z</time>
      </trkpt>
      <trkpt lat="45.77029" lon="4.40006">
        <ele>597</ele>
        <time>2017-03-02T15:30:16Z</time>
      </trkpt>
      <trkpt lat="45.77021" lon="4.39999">
        <ele>598</ele>
        <time>2017-03-02T15:30:22Z</time>
      </trkpt>
      <trkpt lat="45.7702" lon="4.39998">
        <ele>598</ele>
        <time>2017-03-02T15:30:23Z</time>
      </trkpt>
      <trkpt lat="45.77015" lon="4.3999">
        <ele>597</ele>
        <time>2017-03-02T15:30:29Z</time>
      </trkpt>
      <trkpt lat="45.77014" lon="4.39988">
        <ele>597</ele>
        <time>2017-03-02T15:30:30Z</time>
      </trkpt>
      <trkpt lat="45.77012" lon="4.39975">
        <ele>599</ele>
        <time>2017-03-02T15:30:36Z</time>
      </trkpt>
      <trkpt lat="45.77012" lon="4.39973">
        <ele>599</ele>
        <time>2017-03-02T15:30:37Z</time>
      </trkpt>
      <trkpt lat="45.7701" lon="4.39962">
        <ele>600</ele>
        <time>2017-03-02T15:30:42Z</time>
      </trkpt>
      <trkpt lat="45.77009" lon="4.3996">
        <ele>600</ele>
        <time>2017-03-02T15:30:43Z</time>
      </trkpt>
      <trkpt lat="45.77007" lon="4.39948">
        <ele>600</ele>
        <time>2017-03-02T15:30:49Z</time>
      </trkpt>
      <trkpt lat="45.77007" lon="4.39947">
        <ele>600</ele>
        <time>2017-03-02T15:30:50Z</time>
      </trkpt>
      <trkpt lat="45.77003" lon="4.39936">
        <ele>599</ele>
        <time>2017-03-02T15:30:56Z</time>
      </trkpt>
      <trkpt lat="45.77003" lon="4.39934">
        <ele>599</ele>
        <time>2017-03-02T15:30:57Z</time>
      </trkpt>
      <trkpt lat="45.77" lon="4.39924">
        <ele>591</ele>
        <time>2017-03-02T15:31:03Z</time>
      </trkpt>
      <trkpt lat="45.76999" lon="4.39922">
        <ele>592</ele>
        <time>2017-03-02T15:31:04Z</time>
      </trkpt>
      <trkpt lat="45.76997" lon="4.3991">
        <ele>593</ele>
        <time>2017-03-02T15:31:11Z</time>
      </trkpt>
      <trkpt lat="45.76997" lon="4.39909">
        <ele>593</ele>
        <time>2017-03-02T15:31:12Z</time>
      </trkpt>
      <trkpt lat="45.76997" lon="4.39897">
        <ele>592</ele>
        <time>2017-03-02T15:31:19Z</time>
      </trkpt>
      <trkpt lat="45.76997" lon="4.39896">
        <ele>592</ele>
        <time>2017-03-02T15:31:20Z</time>
      </trkpt>
      <trkpt lat="45.76994" lon="4.39884">
        <ele>591</ele>
        <time>2017-03-02T15:31:27Z</time>
      </trkpt>
      <trkpt lat="45.76994" lon="4.39882">
        <ele>591</ele>
        <time>2017-03-02T15:31:28Z</time>
      </trkpt>
      <trkpt lat="45.7699" lon="4.39871">
        <ele>592</ele>
        <time>2017-03-02T15:31:35Z</time>
      </trkpt>
      <trkpt lat="45.76989" lon="4.39869">
        <ele>592</ele>
        <time>2017-03-02T15:31:36Z</time>
      </trkpt>
      <trkpt lat="45.76985" lon="4.39859">
        <ele>592</ele>
        <time>2017-03-02T15:31:43Z</time>
      </trkpt>
      <trkpt lat="45.76984" lon="4.39858">
        <ele>592</ele>
        <time>2017-03-02T15:31:44Z</time>
      </trkpt>
      <trkpt lat="45.76981" lon="4.39848">
        <ele>593</ele>
        <time>2017-03-02T15:31:50Z</time>
      </trkpt>
      <trkpt lat="45.76981" lon="4.39846">
        <ele>593</ele>
        <time>2017-03-02T15:31:51Z</time>
      </trkpt>
      <trkpt lat="45.76978" lon="4.39834">
        <ele>593</ele>
        <time>2017-03-02T15:31:58Z</time>
      </trkpt>
      <trkpt lat="45.76977" lon="4.39832">
        <ele>596</ele>
        <time>2017-03-02T15:31:59Z</time>
      </trkpt>
      <trkpt lat="45.76974" lon="4.39821">
        <ele>596</ele>
        <time>2017-03-02T15:32:09Z</time>
      </trkpt>
      <trkpt lat="45.76973" lon="4.3982">
        <ele>596</ele>
        <time>2017-03-02T15:32:10Z</time>
      </trkpt>
      <trkpt lat="45.76968" lon="4.39811">
        <ele>595</ele>
        <time>2017-03-02T15:32:17Z</time>
      </trkpt>
      <trkpt lat="45.76967" lon="4.3981">
        <ele>595</ele>
        <time>2017-03-02T15:32:18Z</time>
      </trkpt>
      <trkpt lat="45.76962" lon="4.398">
        <ele>595</ele>
        <time>2017-03-02T15:32:24Z</time>
      </trkpt>
      <trkpt lat="45.76962" lon="4.39798">
        <ele>595</ele>
        <time>2017-03-02T15:32:25Z</time>
      </trkpt>
      <trkpt lat="45.76958" lon="4.39788">
        <ele>595</ele>
        <time>2017-03-02T15:32:31Z</time>
      </trkpt>
      <trkpt lat="45.76957" lon="4.39787">
        <ele>595</ele>
        <time>2017-03-02T15:32:32Z</time>
      </trkpt>
      <trkpt lat="45.76952" lon="4.39778">
        <ele>595</ele>
        <time>2017-03-02T15:32:38Z</time>
      </trkpt>
      <trkpt lat="45.76951" lon="4.39777">
        <ele>595</ele>
        <time>2017-03-02T15:32:39Z</time>
      </trkpt>
      <trkpt lat="45.76945" lon="4.3977">
        <ele>595</ele>
        <time>2017-03-02T15:32:45Z</time>
      </trkpt>
      <trkpt lat="45.76944" lon="4.39768">
        <ele>594</ele>
        <time>2017-03-02T15:32:46Z</time>
      </trkpt>
      <trkpt lat="45.76938" lon="4.39759">
        <ele>594</ele>
        <time>2017-03-02T15:32:52Z</time>
      </trkpt>
      <trkpt lat="45.76937" lon="4.39758">
        <ele>594</ele>
        <time>2017-03-02T15:32:53Z</time>
      </trkpt>
      <trkpt lat="45.76932" lon="4.3975">
        <ele>596</ele>
        <time>2017-03-02T15:32:59Z</time>
      </trkpt>
      <trkpt lat="45.76931" lon="4.39748">
        <ele>596</ele>
        <time>2017-03-02T15:33:00Z</time>
      </trkpt>
      <trkpt lat="45.76928" lon="4.39736">
        <ele>597</ele>
        <time>2017-03-02T15:33:07Z</time>
      </trkpt>
      <trkpt lat="45.76927" lon="4.39734">
        <ele>597</ele>
        <time>2017-03-02T15:33:08Z</time>
      </trkpt>
      <trkpt lat="45.76929" lon="4.39723">
        <ele>599</ele>
        <time>2017-03-02T15:33:15Z</time>
      </trkpt>
      <trkpt lat="45.7693" lon="4.39721">
        <ele>599</ele>
        <time>2017-03-02T15:33:16Z</time>
      </trkpt>
      <trkpt lat="45.76933" lon="4.39709">
        <ele>600</ele>
        <time>2017-03-02T15:33:23Z</time>
      </trkpt>
      <trkpt lat="45.76934" lon="4.39708">
        <ele>600</ele>
        <time>2017-03-02T15:33:24Z</time>
      </trkpt>
      <trkpt lat="45.76936" lon="4.39695">
        <ele>601</ele>
        <time>2017-03-02T15:33:31Z</time>
      </trkpt>
      <trkpt lat="45.76936" lon="4.39694">
        <ele>601</ele>
        <time>2017-03-02T15:33:32Z</time>
      </trkpt>
      <trkpt lat="45.76937" lon="4.39682">
        <ele>601</ele>
        <time>2017-03-02T15:33:40Z</time>
      </trkpt>
      <trkpt lat="45.76936" lon="4.3968">
        <ele>601</ele>
        <time>2017-03-02T15:33:41Z</time>
      </trkpt>
      <trkpt lat="45.76936" lon="4.39668">
        <ele>601</ele>
        <time>2017-03-02T15:33:50Z</time>
      </trkpt>
      <trkpt lat="45.76936" lon="4.39667">
        <ele>607</ele>
        <time>2017-03-02T15:33:51Z</time>
      </trkpt>
      <trkpt lat="45.76932" lon="4.39656">
        <ele>607</ele>
        <time>2017-03-02T15:33:59Z</time>
      </trkpt>
      <trkpt lat="45.76931" lon="4.39655">
        <ele>607</ele>
        <time>2017-03-02T15:34:00Z</time>
      </trkpt>
      <trkpt lat="45.76924" lon="4.39648">
        <ele>607</ele>
        <time>2017-03-02T15:34:09Z</time>
      </trkpt>
      <trkpt lat="45.76923" lon="4.39647">
        <ele>607</ele>
        <time>2017-03-02T15:34:10Z</time>
      </trkpt>
      <trkpt lat="45.76917" lon="4.39638">
        <ele>609</ele>
        <time>2017-03-02T15:34:18Z</time>
      </trkpt>
      <trkpt lat="45.76916" lon="4.39638">
        <ele>606</ele>
        <time>2017-03-02T15:34:19Z</time>
      </trkpt>
      <trkpt lat="45.76907" lon="4.39634">
        <ele>607</ele>
        <time>2017-03-02T15:34:27Z</time>
      </trkpt>
      <trkpt lat="45.76906" lon="4.39634">
        <ele>607</ele>
        <time>2017-03-02T15:34:28Z</time>
      </trkpt>
      <trkpt lat="45.76898" lon="4.3963">
        <ele>607</ele>
        <time>2017-03-02T15:34:35Z</time>
      </trkpt>
      <trkpt lat="45.76897" lon="4.39629">
        <ele>607</ele>
        <time>2017-03-02T15:34:36Z</time>
      </trkpt>
      <trkpt lat="45.76888" lon="4.39629">
        <ele>607</ele>
        <time>2017-03-02T15:34:43Z</time>
      </trkpt>
      <trkpt lat="45.76887" lon="4.39629">
        <ele>607</ele>
        <time>2017-03-02T15:34:44Z</time>
      </trkpt>
      <trkpt lat="45.76879" lon="4.39623">
        <ele>607</ele>
        <time>2017-03-02T15:34:53Z</time>
      </trkpt>
      <trkpt lat="45.76878" lon="4.39623">
        <ele>607</ele>
        <time>2017-03-02T15:34:54Z</time>
      </trkpt>
      <trkpt lat="45.76872" lon="4.39614">
        <ele>608</ele>
        <time>2017-03-02T15:35:02Z</time>
      </trkpt>
      <trkpt lat="45.76871" lon="4.39613">
        <ele>608</ele>
        <time>2017-03-02T15:35:03Z</time>
      </trkpt>
      <trkpt lat="45.76867" lon="4.39602">
        <ele>608</ele>
        <time>2017-03-02T15:35:11Z</time>
      </trkpt>
      <trkpt lat="45.76867" lon="4.39601">
        <ele>608</ele>
        <time>2017-03-02T15:35:12Z</time>
      </trkpt>
      <trkpt lat="45.76866" lon="4.39589">
        <ele>609</ele>
        <time>2017-03-02T15:35:21Z</time>
      </trkpt>
      <trkpt lat="45.76866" lon="4.39588">
        <ele>609</ele>
        <time>2017-03-02T15:35:22Z</time>
      </trkpt>
      <trkpt lat="45.76866" lon="4.39575">
        <ele>615</ele>
        <time>2017-03-02T15:35:31Z</time>
      </trkpt>
      <trkpt lat="45.76866" lon="4.39574">
        <ele>615</ele>
        <time>2017-03-02T15:35:32Z</time>
      </trkpt>
      <trkpt lat="45.76868" lon="4.39562">
        <ele>616</ele>
        <time>2017-03-02T15:35:42Z</time>
      </trkpt>
      <trkpt lat="45.76868" lon="4.39561">
        <ele>616</ele>
        <time>2017-03-02T15:35:43Z</time>
      </trkpt>
      <trkpt lat="45.76872" lon="4.3955">
        <ele>616</ele>
        <time>2017-03-02T15:35:53Z</time>
      </trkpt>
      <trkpt lat="45.76872" lon="4.39548">
        <ele>616</ele>
        <time>2017-03-02T15:35:54Z</time>
      </trkpt>
      <trkpt lat="45.76876" lon="4.39538">
        <ele>617</ele>
        <time>2017-03-02T15:36:01Z</time>
      </trkpt>
      <trkpt lat="45.76877" lon="4.39537">
        <ele>617</ele>
        <time>2017-03-02T15:36:02Z</time>
      </trkpt>
      <trkpt lat="45.76881" lon="4.39526">
        <ele>618</ele>
        <time>2017-03-02T15:36:09Z</time>
      </trkpt>
      <trkpt lat="45.76882" lon="4.39525">
        <ele>618</ele>
        <time>2017-03-02T15:36:10Z</time>
      </trkpt>
      <trkpt lat="45.76886" lon="4.39515">
        <ele>619</ele>
        <time>2017-03-02T15:36:16Z</time>
      </trkpt>
      <trkpt lat="45.76887" lon="4.39513">
        <ele>619</ele>
        <time>2017-03-02T15:36:17Z</time>
      </trkpt>
      <trkpt lat="45.76891" lon="4.39503">
        <ele>620</ele>
        <time>2017-03-02T15:36:24Z</time>
      </trkpt>
      <trkpt lat="45.76891" lon="4.39502">
        <ele>620</ele>
        <time>2017-03-02T15:36:25Z</time>
      </trkpt>
      <trkpt lat="45.76893" lon="4.39491">
        <ele>620</ele>
        <time>2017-03-02T15:36:32Z</time>
      </trkpt>
      <trkpt lat="45.76893" lon="4.39489">
        <ele>620</ele>
        <time>2017-03-02T15:36:33Z</time>
      </trkpt>
      <trkpt lat="45.76896" lon="4.39478">
        <ele>619</ele>
        <time>2017-03-02T15:36:39Z</time>
      </trkpt>
      <trkpt lat="45.76897" lon="4.39476">
        <ele>619</ele>
        <time>2017-03-02T15:36:40Z</time>
      </trkpt>
      <trkpt lat="45.76898" lon="4.39464">
        <ele>619</ele>
        <time>2017-03-02T15:36:47Z</time>
      </trkpt>
      <trkpt lat="45.76899" lon="4.39463">
        <ele>619</ele>
        <time>2017-03-02T15:36:48Z</time>
      </trkpt>
      <trkpt lat="45.76902" lon="4.39453">
        <ele>618</ele>
        <time>2017-03-02T15:36:55Z</time>
      </trkpt>
      <trkpt lat="45.76903" lon="4.39452">
        <ele>618</ele>
        <time>2017-03-02T15:36:56Z</time>
      </trkpt>
      <trkpt lat="45.76906" lon="4.39441">
        <ele>619</ele>
        <time>2017-03-02T15:37:03Z</time>
      </trkpt>
      <trkpt lat="45.76907" lon="4.39439">
        <ele>619</ele>
        <time>2017-03-02T15:37:04Z</time>
      </trkpt>
      <trkpt lat="45.76911" lon="4.39428">
        <ele>620</ele>
        <time>2017-03-02T15:37:12Z</time>
      </trkpt>
      <trkpt lat="45.76912" lon="4.39426">
        <ele>621</ele>
        <time>2017-03-02T15:37:13Z</time>
      </trkpt>
      <trkpt lat="45.76915" lon="4.39415">
        <ele>622</ele>
        <time>2017-03-02T15:37:21Z</time>
      </trkpt>
      <trkpt lat="45.76915" lon="4.39414">
        <ele>622</ele>
        <time>2017-03-02T15:37:22Z</time>
      </trkpt>
      <trkpt lat="45.76917" lon="4.39402">
        <ele>620</ele>
        <time>2017-03-02T15:37:29Z</time>
      </trkpt>
      <trkpt lat="45.76917" lon="4.394">
        <ele>627</ele>
        <time>2017-03-02T15:37:30Z</time>
      </trkpt>
      <trkpt lat="45.7692" lon="4.39389">
        <ele>628</ele>
        <time>2017-03-02T15:37:37Z</time>
      </trkpt>
      <trkpt lat="45.76921" lon="4.39387">
        <ele>628</ele>
        <time>2017-03-02T15:37:38Z</time>
      </trkpt>
      <trkpt lat="45.76925" lon="4.39376">
        <ele>628</ele>
        <time>2017-03-02T15:37:46Z</time>
      </trkpt>
      <trkpt lat="45.76925" lon="4.39374">
        <ele>628</ele>
        <time>2017-03-02T15:37:47Z</time>
      </trkpt>
      <trkpt lat="45.76927" lon="4.39363">
        <ele>628</ele>
        <time>2017-03-02T15:37:55Z</time>
      </trkpt>
      <trkpt lat="45.76927" lon="4.39361">
        <ele>628</ele>
        <time>2017-03-02T15:37:56Z</time>
      </trkpt>
      <trkpt lat="45.76929" lon="4.39349">
        <ele>628</ele>
        <time>2017-03-02T15:38:03Z</time>
      </trkpt>
      <trkpt lat="45.76929" lon="4.39348">
        <ele>628</ele>
        <time>2017-03-02T15:38:04Z</time>
      </trkpt>
      <trkpt lat="45.7693" lon="4.39335">
        <ele>627</ele>
        <time>2017-03-02T15:38:12Z</time>
      </trkpt>
      <trkpt lat="45.7693" lon="4.39333">
        <ele>627</ele>
        <time>2017-03-02T15:38:13Z</time>
      </trkpt>
      <trkpt lat="45.76932" lon="4.39322">
        <ele>628</ele>
        <time>2017-03-02T15:38:21Z</time>
      </trkpt>
      <trkpt lat="45.76932" lon="4.3932">
        <ele>628</ele>
        <time>2017-03-02T15:38:22Z</time>
      </trkpt>
      <trkpt lat="45.76934" lon="4.39309">
        <ele>628</ele>
        <time>2017-03-02T15:38:29Z</time>
      </trkpt>
      <trkpt lat="45.76934" lon="4.39308">
        <ele>628</ele>
        <time>2017-03-02T15:38:30Z</time>
      </trkpt>
      <trkpt lat="45.76938" lon="4.39297">
        <ele>629</ele>
        <time>2017-03-02T15:38:37Z</time>
      </trkpt>
      <trkpt lat="45.76938" lon="4.39295">
        <ele>629</ele>
        <time>2017-03-02T15:38:38Z</time>
      </trkpt>
      <trkpt lat="45.76941" lon="4.39283">
        <ele>629</ele>
        <time>2017-03-02T15:38:45Z</time>
      </trkpt>
      <trkpt lat="45.76942" lon="4.39282">
        <ele>629</ele>
        <time>2017-03-02T15:38:46Z</time>
      </trkpt>
      <trkpt lat="45.76942" lon="4.3927">
        <ele>629</ele>
        <time>2017-03-02T15:38:54Z</time>
      </trkpt>
      <trkpt lat="45.76942" lon="4.39269">
        <ele>629</ele>
        <time>2017-03-02T15:38:55Z</time>
      </trkpt>
      <trkpt lat="45.76938" lon="4.39259">
        <ele>629</ele>
        <time>2017-03-02T15:39:24Z</time>
      </trkpt>
      <trkpt lat="45.76937" lon="4.39258">
        <ele>629</ele>
        <time>2017-03-02T15:39:25Z</time>
      </trkpt>
      <trkpt lat="45.76928" lon="4.39258">
        <ele>628</ele>
        <time>2017-03-02T15:39:35Z</time>
      </trkpt>
      <trkpt lat="45.76927" lon="4.39258">
        <ele>628</ele>
        <time>2017-03-02T15:39:36Z</time>
      </trkpt>
      <trkpt lat="45.76919" lon="4.39255">
        <ele>627</ele>
        <time>2017-03-02T15:39:44Z</time>
      </trkpt>
      <trkpt lat="45.76918" lon="4.39255">
        <ele>627</ele>
        <time>2017-03-02T15:39:45Z</time>
      </trkpt>
      <trkpt lat="45.76909" lon="4.39253">
        <ele>625</ele>
        <time>2017-03-02T15:39:52Z</time>
      </trkpt>
      <trkpt lat="45.76908" lon="4.39252">
        <ele>625</ele>
        <time>2017-03-02T15:39:53Z</time>
      </trkpt>
      <trkpt lat="45.76901" lon="4.39247">
        <ele>626</ele>
        <time>2017-03-02T15:40:00Z</time>
      </trkpt>
      <trkpt lat="45.769" lon="4.39246">
        <ele>626</ele>
        <time>2017-03-02T15:40:01Z</time>
      </trkpt>
      <trkpt lat="45.76891" lon="4.3924">
        <ele>625</ele>
        <time>2017-03-02T15:40:08Z</time>
      </trkpt>
      <trkpt lat="45.7689" lon="4.39239">
        <ele>625</ele>
        <time>2017-03-02T15:40:09Z</time>
      </trkpt>
      <trkpt lat="45.76882" lon="4.39235">
        <ele>625</ele>
        <time>2017-03-02T15:40:16Z</time>
      </trkpt>
      <trkpt lat="45.76881" lon="4.39234">
        <ele>625</ele>
        <time>2017-03-02T15:40:17Z</time>
      </trkpt>
      <trkpt lat="45.76873" lon="4.3923">
        <ele>624</ele>
        <time>2017-03-02T15:40:24Z</time>
      </trkpt>
      <trkpt lat="45.76872" lon="4.39229">
        <ele>624</ele>
        <time>2017-03-02T15:40:25Z</time>
      </trkpt>
      <trkpt lat="45.76865" lon="4.39222">
        <ele>624</ele>
        <time>2017-03-02T15:40:32Z</time>
      </trkpt>
      <trkpt lat="45.76863" lon="4.39221">
        <ele>624</ele>
        <time>2017-03-02T15:40:33Z</time>
      </trkpt>
      <trkpt lat="45.76856" lon="4.39215">
        <ele>624</ele>
        <time>2017-03-02T15:40:40Z</time>
      </trkpt>
      <trkpt lat="45.76855" lon="4.39213">
        <ele>624</ele>
        <time>2017-03-02T15:40:41Z</time>
      </trkpt>
      <trkpt lat="45.76848" lon="4.39206">
        <ele>624</ele>
        <time>2017-03-02T15:40:47Z</time>
      </trkpt>
      <trkpt lat="45.76847" lon="4.39205">
        <ele>624</ele>
        <time>2017-03-02T15:40:48Z</time>
      </trkpt>
      <trkpt lat="45.76842" lon="4.39196">
        <ele>624</ele>
        <time>2017-03-02T15:40:54Z</time>
      </trkpt>
      <trkpt lat="45.76841" lon="4.39194">
        <ele>624</ele>
        <time>2017-03-02T15:40:55Z</time>
      </trkpt>
      <trkpt lat="45.76836" lon="4.39186">
        <ele>624</ele>
        <time>2017-03-02T15:41:01Z</time>
      </trkpt>
      <trkpt lat="45.76835" lon="4.39184">
        <ele>624</ele>
        <time>2017-03-02T15:41:02Z</time>
      </trkpt>
      <trkpt lat="45.7683" lon="4.39175">
        <ele>623</ele>
        <time>2017-03-02T15:41:08Z</time>
      </trkpt>
      <trkpt lat="45.7683" lon="4.39173">
        <ele>623</ele>
        <time>2017-03-02T15:41:09Z</time>
      </trkpt>
      <trkpt lat="45.76825" lon="4.39162">
        <ele>622</ele>
        <time>2017-03-02T15:41:16Z</time>
      </trkpt>
      <trkpt lat="45.76824" lon="4.39161">
        <ele>622</ele>
        <time>2017-03-02T15:41:17Z</time>
      </trkpt>
      <trkpt lat="45.76817" lon="4.39155">
        <ele>621</ele>
        <time>2017-03-02T15:41:23Z</time>
      </trkpt>
      <trkpt lat="45.76816" lon="4.39153">
        <ele>621</ele>
        <time>2017-03-02T15:41:24Z</time>
      </trkpt>
      <trkpt lat="45.7681" lon="4.39144">
        <ele>621</ele>
        <time>2017-03-02T15:41:30Z</time>
      </trkpt>
      <trkpt lat="45.76809" lon="4.39143">
        <ele>621</ele>
        <time>2017-03-02T15:41:31Z</time>
      </trkpt>
      <trkpt lat="45.76802" lon="4.39137">
        <ele>620</ele>
        <time>2017-03-02T15:41:37Z</time>
      </trkpt>
      <trkpt lat="45.76801" lon="4.39136">
        <ele>620</ele>
        <time>2017-03-02T15:41:38Z</time>
      </trkpt>
      <trkpt lat="45.76794" lon="4.39129">
        <ele>620</ele>
        <time>2017-03-02T15:41:45Z</time>
      </trkpt>
      <trkpt lat="45.76793" lon="4.39129">
        <ele>620</ele>
        <time>2017-03-02T15:41:46Z</time>
      </trkpt>
      <trkpt lat="45.76785" lon="4.39125">
        <ele>620</ele>
        <time>2017-03-02T15:42:57Z</time>
      </trkpt>
      <trkpt lat="45.76784" lon="4.39124">
        <ele>620</ele>
        <time>2017-03-02T15:42:58Z</time>
      </trkpt>
      <trkpt lat="45.7678" lon="4.39114">
        <ele>619</ele>
        <time>2017-03-02T15:43:08Z</time>
      </trkpt>
      <trkpt lat="45.76779" lon="4.39113">
        <ele>619</ele>
        <time>2017-03-02T15:43:09Z</time>
      </trkpt>
      <trkpt lat="45.76772" lon="4.39106">
        <ele>619</ele>
        <time>2017-03-02T15:43:18Z</time>
      </trkpt>
      <trkpt lat="45.76771" lon="4.39104">
        <ele>619</ele>
        <time>2017-03-02T15:43:19Z</time>
      </trkpt>
      <trkpt lat="45.76766" lon="4.39096">
        <ele>618</ele>
        <time>2017-03-02T15:43:27Z</time>
      </trkpt>
      <trkpt lat="45.76765" lon="4.39095">
        <ele>618</ele>
        <time>2017-03-02T15:43:28Z</time>
      </trkpt>
      <trkpt lat="45.76757" lon="4.39091">
        <ele>618</ele>
        <time>2017-03-02T15:43:34Z</time>
      </trkpt>
      <trkpt lat="45.76756" lon="4.39089">
        <ele>618</ele>
        <time>2017-03-02T15:43:35Z</time>
      </trkpt>
      <trkpt lat="45.7675" lon="4.39083">
        <ele>617</ele>
        <time>2017-03-02T15:43:40Z</time>
      </trkpt>
      <trkpt lat="45.76748" lon="4.39082">
        <ele>616</ele>
        <time>2017-03-02T15:43:41Z</time>
      </trkpt>
      <trkpt lat="45.7674" lon="4.39077">
        <ele>613</ele>
        <time>2017-03-02T15:43:46Z</time>
      </trkpt>
      <trkpt lat="45.76739" lon="4.39076">
        <ele>612</ele>
        <time>2017-03-02T15:43:47Z</time>
      </trkpt>
      <trkpt lat="45.76732" lon="4.39069">
        <ele>610</ele>
        <time>2017-03-02T15:43:52Z</time>
      </trkpt>
      <trkpt lat="45.76731" lon="4.39068">
        <ele>610</ele>
        <time>2017-03-02T15:43:53Z</time>
      </trkpt>
      <trkpt lat="45.76724" lon="4.39064">
        <ele>609</ele>
        <time>2017-03-02T15:43:58Z</time>
      </trkpt>
      <trkpt lat="45.76722" lon="4.39063">
        <ele>609</ele>
        <time>2017-03-02T15:43:59Z</time>
      </trkpt>
      <trkpt lat="45.76715" lon="4.39056">
        <ele>607</ele>
        <time>2017-03-02T15:44:04Z</time>
      </trkpt>
      <trkpt lat="45.76714" lon="4.39055">
        <ele>607</ele>
        <time>2017-03-02T15:44:05Z</time>
      </trkpt>
      <trkpt lat="45.76707" lon="4.39049">
        <ele>607</ele>
        <time>2017-03-02T15:44:10Z</time>
      </trkpt>
      <trkpt lat="45.76705" lon="4.39048">
        <ele>606</ele>
        <time>2017-03-02T15:44:11Z</time>
      </trkpt>
      <trkpt lat="45.76698" lon="4.39043">
        <ele>606</ele>
        <time>2017-03-02T15:44:16Z</time>
      </trkpt>
      <trkpt lat="45.76697" lon="4.39041">
        <ele>605</ele>
        <time>2017-03-02T15:44:17Z</time>
      </trkpt>
      <trkpt lat="45.76691" lon="4.39035">
        <ele>605</ele>
        <time>2017-03-02T15:44:22Z</time>
      </trkpt>
      <trkpt lat="45.7669" lon="4.39033">
        <ele>604</ele>
        <time>2017-03-02T15:44:23Z</time>
      </trkpt>
      <trkpt lat="45.76684" lon="4.39024">
        <ele>603</ele>
        <time>2017-03-02T15:44:29Z</time>
      </trkpt>
      <trkpt lat="45.76683" lon="4.39022">
        <ele>603</ele>
        <time>2017-03-02T15:44:30Z</time>
      </trkpt>
      <trkpt lat="45.76678" lon="4.39014">
        <ele>601</ele>
        <time>2017-03-02T15:44:37Z</time>
      </trkpt>
      <trkpt lat="45.76677" lon="4.39012">
        <ele>601</ele>
        <time>2017-03-02T15:44:38Z</time>
      </trkpt>
      <trkpt lat="45.76672" lon="4.39004">
        <ele>598</ele>
        <time>2017-03-02T15:44:44Z</time>
      </trkpt>
      <trkpt lat="45.76671" lon="4.39002">
        <ele>598</ele>
        <time>2017-03-02T15:44:45Z</time>
      </trkpt>
      <trkpt lat="45.76665" lon="4.38994">
        <ele>594</ele>
        <time>2017-03-02T15:44:51Z</time>
      </trkpt>
      <trkpt lat="45.76664" lon="4.38992">
        <ele>594</ele>
        <time>2017-03-02T15:44:52Z</time>
      </trkpt>
      <trkpt lat="45.76659" lon="4.38982">
        <ele>592</ele>
        <time>2017-03-02T15:44:58Z</time>
      </trkpt>
      <trkpt lat="45.76658" lon="4.38981">
        <ele>592</ele>
        <time>2017-03-02T15:44:59Z</time>
      </trkpt>
      <trkpt lat="45.76652" lon="4.38974">
        <ele>591</ele>
        <time>2017-03-02T15:45:05Z</time>
      </trkpt>
      <trkpt lat="45.76651" lon="4.38972">
        <ele>591</ele>
        <time>2017-03-02T15:45:06Z</time>
      </trkpt>
      <trkpt lat="45.76646" lon="4.38964">
        <ele>590</ele>
        <time>2017-03-02T15:45:12Z</time>
      </trkpt>
      <trkpt lat="45.76645" lon="4.38962">
        <ele>590</ele>
        <time>2017-03-02T15:45:13Z</time>
      </trkpt>
      <trkpt lat="45.76639" lon="4.38956">
        <ele>589</ele>
        <time>2017-03-02T15:45:18Z</time>
      </trkpt>
      <trkpt lat="45.76638" lon="4.38954">
        <ele>589</ele>
        <time>2017-03-02T15:45:19Z</time>
      </trkpt>
      <trkpt lat="45.76632" lon="4.38947">
        <ele>589</ele>
        <time>2017-03-02T15:45:24Z</time>
      </trkpt>
      <trkpt lat="45.76631" lon="4.38945">
        <ele>588</ele>
        <time>2017-03-02T15:45:25Z</time>
      </trkpt>
      <trkpt lat="45.76626" lon="4.38936">
        <ele>588</ele>
        <time>2017-03-02T15:45:32Z</time>
      </trkpt>
      <trkpt lat="45.76625" lon="4.38935">
        <ele>588</ele>
        <time>2017-03-02T15:45:33Z</time>
      </trkpt>
      <trkpt lat="45.7662" lon="4.38926">
        <ele>588</ele>
        <time>2017-03-02T15:45:40Z</time>
      </trkpt>
      <trkpt lat="45.76619" lon="4.38924">
        <ele>588</ele>
        <time>2017-03-02T15:45:41Z</time>
      </trkpt>
      <trkpt lat="45.76615" lon="4.38914">
        <ele>582</ele>
        <time>2017-03-02T15:45:47Z</time>
      </trkpt>
      <trkpt lat="45.76614" lon="4.38912">
        <ele>582</ele>
        <time>2017-03-02T15:45:48Z</time>
      </trkpt>
      <trkpt lat="45.76608" lon="4.38904">
        <ele>583</ele>
        <time>2017-03-02T15:45:54Z</time>
      </trkpt>
      <trkpt lat="45.76607" lon="4.38903">
        <ele>583</ele>
        <time>2017-03-02T15:45:55Z</time>
      </trkpt>
      <trkpt lat="45.76602" lon="4.38893">
        <ele>582</ele>
        <time>2017-03-02T15:46:02Z</time>
      </trkpt>
      <trkpt lat="45.76601" lon="4.38891">
        <ele>582</ele>
        <time>2017-03-02T15:46:03Z</time>
      </trkpt>
      <trkpt lat="45.76596" lon="4.38882">
        <ele>582</ele>
        <time>2017-03-02T15:46:09Z</time>
      </trkpt>
      <trkpt lat="45.76595" lon="4.38881">
        <ele>582</ele>
        <time>2017-03-02T15:46:10Z</time>
      </trkpt>
      <trkpt lat="45.7659" lon="4.38871">
        <ele>582</ele>
        <time>2017-03-02T15:46:17Z</time>
      </trkpt>
      <trkpt lat="45.76589" lon="4.38869">
        <ele>582</ele>
        <time>2017-03-02T15:46:18Z</time>
      </trkpt>
      <trkpt lat="45.76586" lon="4.38858">
        <ele>581</ele>
        <time>2017-03-02T15:46:25Z</time>
      </trkpt>
      <trkpt lat="45.76585" lon="4.38856">
        <ele>581</ele>
        <time>2017-03-02T15:46:26Z</time>
      </trkpt>
      <trkpt lat="45.76581" lon="4.38847">
        <ele>582</ele>
        <time>2017-03-02T15:46:31Z</time>
      </trkpt>
      <trkpt lat="45.7658" lon="4.38845">
        <ele>582</ele>
        <time>2017-03-02T15:46:32Z</time>
      </trkpt>
      <trkpt lat="45.76575" lon="4.38836">
        <ele>582</ele>
        <time>2017-03-02T15:46:38Z</time>
      </trkpt>
      <trkpt lat="45.76575" lon="4.38834">
        <ele>582</ele>
        <time>2017-03-02T15:46:39Z</time>
      </trkpt>
      <trkpt lat="45.76571" lon="4.38823">
        <ele>582</ele>
        <time>2017-03-02T15:46:45Z</time>
      </trkpt>
      <trkpt lat="45.76571" lon="4.38821">
        <ele>582</ele>
        <time>2017-03-02T15:46:46Z</time>
      </trkpt>
      <trkpt lat="45.76565" lon="4.38812">
        <ele>582</ele>
        <time>2017-03-02T15:46:53Z</time>
      </trkpt>
      <trkpt lat="45.76564" lon="4.38811">
        <ele>582</ele>
        <time>2017-03-02T15:46:54Z</time>
      </trkpt>
      <trkpt lat="45.76562" lon="4.38799">
        <ele>582</ele>
        <time>2017-03-02T15:47:01Z</time>
      </trkpt>
      <trkpt lat="45.76561" lon="4.38798">
        <ele>582</ele>
        <time>2017-03-02T15:47:02Z</time>
      </trkpt>
      <trkpt lat="45.76557" lon="4.38787">
        <ele>583</ele>
        <time>2017-03-02T15:47:08Z</time>
      </trkpt>
      <trkpt lat="45.76556" lon="4.38785">
        <ele>583</ele>
        <time>2017-03-02T15:47:09Z</time>
      </trkpt>
      <trkpt lat="45.76553" lon="4.38774">
        <ele>583</ele>
        <time>2017-03-02T15:47:15Z</time>
      </trkpt>
      <trkpt lat="45.76553" lon="4.38772">
        <ele>583</ele>
        <time>2017-03-02T15:47:16Z</time>
      </trkpt>
      <trkpt lat="45.7655" lon="4.38761">
        <ele>583</ele>
        <time>2017-03-02T15:47:22Z</time>
      </trkpt>
      <trkpt lat="45.7655" lon="4.38759">
        <ele>583</ele>
        <time>2017-03-02T15:47:23Z</time>
      </trkpt>
      <trkpt lat="45.76547" lon="4.38747">
        <ele>586</ele>
        <time>2017-03-02T15:47:30Z</time>
      </trkpt>
      <trkpt lat="45.76546" lon="4.38746">
        <ele>586</ele>
        <time>2017-03-02T15:47:31Z</time>
      </trkpt>
      <trkpt lat="45.76539" lon="4.3874">
        <ele>586</ele>
        <time>2017-03-02T15:48:01Z</time>
      </trkpt>
      <trkpt lat="45.76538" lon="4.38739">
        <ele>586</ele>
        <time>2017-03-02T15:48:02Z</time>
      </trkpt>
      <trkpt lat="45.7653" lon="4.38736">
        <ele>586</ele>
        <time>2017-03-02T15:48:10Z</time>
      </trkpt>
      <trkpt lat="45.76529" lon="4.38736">
        <ele>587</ele>
        <time>2017-03-02T15:48:11Z</time>
      </trkpt>
      <trkpt lat="45.7652" lon="4.38734">
        <ele>587</ele>
        <time>2017-03-02T15:48:18Z</time>
      </trkpt>
      <trkpt lat="45.76519" lon="4.38734">
        <ele>587</ele>
        <time>2017-03-02T15:48:19Z</time>
      </trkpt>
      <trkpt lat="45.7651" lon="4.38731">
        <ele>587</ele>
        <time>2017-03-02T15:48:26Z</time>
      </trkpt>
      <trkpt lat="45.76509" lon="4.38731">
        <ele>587</ele>
        <time>2017-03-02T15:48:27Z</time>
      </trkpt>
      <trkpt lat="45.76502" lon="4.38726">
        <ele>587</ele>
        <time>2017-03-02T15:48:35Z</time>
      </trkpt>
      <trkpt lat="45.76501" lon="4.38725">
        <ele>587</ele>
        <time>2017-03-02T15:48:36Z</time>
      </trkpt>
      <trkpt lat="45.76494" lon="4.38717">
        <ele>587</ele>
        <time>2017-03-02T15:48:44Z</time>
      </trkpt>
      <trkpt lat="45.76494" lon="4.38716">
        <ele>587</ele>
        <time>2017-03-02T15:48:45Z</time>
      </trkpt>
      <trkpt lat="45.76487" lon="4.38708">
        <ele>587</ele>
        <time>2017-03-02T15:48:52Z</time>
      </trkpt>
      <trkpt lat="45.76485" lon="4.38707">
        <ele>587</ele>
        <time>2017-03-02T15:48:53Z</time>
      </trkpt>
      <trkpt lat="45.76479" lon="4.38699">
        <ele>587</ele>
        <time>2017-03-02T15:48:59Z</time>
      </trkpt>
      <trkpt lat="45.76478" lon="4.38697">
        <ele>587</ele>
        <time>2017-03-02T15:49:00Z</time>
      </trkpt>
      <trkpt lat="45.76473" lon="4.38689">
        <ele>587</ele>
        <time>2017-03-02T15:49:05Z</time>
      </trkpt>
      <trkpt lat="45.76472" lon="4.38688">
        <ele>587</ele>
        <time>2017-03-02T15:49:06Z</time>
      </trkpt>
      <trkpt lat="45.76466" lon="4.38679">
        <ele>587</ele>
        <time>2017-03-02T15:49:13Z</time>
      </trkpt>
      <trkpt lat="45.76465" lon="4.38677">
        <ele>587</ele>
        <time>2017-03-02T15:49:14Z</time>
      </trkpt>
      <trkpt lat="45.76459" lon="4.38669">
        <ele>587</ele>
        <time>2017-03-02T15:49:21Z</time>
      </trkpt>
      <trkpt lat="45.76458" lon="4.38668">
        <ele>587</ele>
        <time>2017-03-02T15:49:22Z</time>
      </trkpt>
      <trkpt lat="45.76451" lon="4.3866">
        <ele>589</ele>
        <time>2017-03-02T15:49:29Z</time>
      </trkpt>
      <trkpt lat="45.7645" lon="4.38659">
        <ele>589</ele>
        <time>2017-03-02T15:49:30Z</time>
      </trkpt>
      <trkpt lat="45.76443" lon="4.38652">
        <ele>588</ele>
        <time>2017-03-02T15:49:36Z</time>
      </trkpt>
      <trkpt lat="45.76442" lon="4.38651">
        <ele>588</ele>
        <time>2017-03-02T15:49:37Z</time>
      </trkpt>
      <trkpt lat="45.76436" lon="4.38645">
        <ele>588</ele>
        <time>2017-03-02T15:49:43Z</time>
      </trkpt>
      <trkpt lat="45.76435" lon="4.38644">
        <ele>588</ele>
        <time>2017-03-02T15:49:44Z</time>
      </trkpt>
      <trkpt lat="45.76429" lon="4.38634">
        <ele>589</ele>
        <time>2017-03-02T15:49:50Z</time>
      </trkpt>
      <trkpt lat="45.76428" lon="4.38633">
        <ele>589</ele>
        <time>2017-03-02T15:49:51Z</time>
      </trkpt>
      <trkpt lat="45.76423" lon="4.38622">
        <ele>589</ele>
        <time>2017-03-02T15:49:58Z</time>
      </trkpt>
      <trkpt lat="45.76422" lon="4.38621">
        <ele>589</ele>
        <time>2017-03-02T15:49:59Z</time>
      </trkpt>
      <trkpt lat="45.76417" lon="4.38612">
        <ele>589</ele>
        <time>2017-03-02T15:50:05Z</time>
      </trkpt>
      <trkpt lat="45.76416" lon="4.38611">
        <ele>583</ele>
        <time>2017-03-02T15:50:06Z</time>
      </trkpt>
      <trkpt lat="45.76409" lon="4.38606">
        <ele>584</ele>
        <time>2017-03-02T15:50:11Z</time>
      </trkpt>
      <trkpt lat="45.76408" lon="4.38605">
        <ele>584</ele>
        <time>2017-03-02T15:50:12Z</time>
      </trkpt>
      <trkpt lat="45.764" lon="4.38598">
        <ele>584</ele>
        <time>2017-03-02T15:50:18Z</time>
      </trkpt>
      <trkpt lat="45.76399" lon="4.38597">
        <ele>584</ele>
        <time>2017-03-02T15:50:19Z</time>
      </trkpt>
      <trkpt lat="45.76392" lon="4.38593">
        <ele>583</ele>
        <time>2017-03-02T15:50:25Z</time>
      </trkpt>
      <trkpt lat="45.76391" lon="4.38592">
        <ele>583</ele>
        <time>2017-03-02T15:50:26Z</time>
      </trkpt>
      <trkpt lat="45.76385" lon="4.38585">
        <ele>582</ele>
        <time>2017-03-02T15:50:32Z</time>
      </trkpt>
      <trkpt lat="45.76383" lon="4.38583">
        <ele>586</ele>
        <time>2017-03-02T15:50:33Z</time>
      </trkpt>
      <trkpt lat="45.76378" lon="4.38574">
        <ele>586</ele>
        <time>2017-03-02T15:50:38Z</time>
      </trkpt>
      <trkpt lat="45.76377" lon="4.38573">
        <ele>585</ele>
        <time>2017-03-02T15:50:39Z</time>
      </trkpt>
      <trkpt lat="45.76372" lon="4.38563">
        <ele>585</ele>
        <time>2017-03-02T15:50:45Z</time>
      </trkpt>
      <trkpt lat="45.76371" lon="4.38562">
        <ele>585</ele>
        <time>2017-03-02T15:50:46Z</time>
      </trkpt>
      <trkpt lat="45.76365" lon="4.38552">
        <ele>585</ele>
        <time>2017-03-02T15:50:53Z</time>
      </trkpt>
      <trkpt lat="45.76364" lon="4.38551">
        <ele>585</ele>
        <time>2017-03-02T15:50:54Z</time>
      </trkpt>
      <trkpt lat="45.76358" lon="4.38543">
        <ele>585</ele>
        <time>2017-03-02T15:51:00Z</time>
      </trkpt>
      <trkpt lat="45.76357" lon="4.38541">
        <ele>585</ele>
        <time>2017-03-02T15:51:01Z</time>
      </trkpt>
      <trkpt lat="45.76351" lon="4.38533">
        <ele>585</ele>
        <time>2017-03-02T15:51:07Z</time>
      </trkpt>
      <trkpt lat="45.7635" lon="4.38532">
        <ele>585</ele>
        <time>2017-03-02T15:51:08Z</time>
      </trkpt>
      <trkpt lat="45.76342" lon="4.38526">
        <ele>585</ele>
        <time>2017-03-02T15:51:14Z</time>
      </trkpt>
      <trkpt lat="45.76341" lon="4.38525">
        <ele>585</ele>
        <time>2017-03-02T15:51:15Z</time>
      </trkpt>
      <trkpt lat="45.76335" lon="4.38518">
        <ele>584</ele>
        <time>2017-03-02T15:51:21Z</time>
      </trkpt>
      <trkpt lat="45.76334" lon="4.38517">
        <ele>584</ele>
        <time>2017-03-02T15:51:22Z</time>
      </trkpt>
      <trkpt lat="45.76327" lon="4.38511">
        <ele>579</ele>
        <time>2017-03-02T15:51:28Z</time>
      </trkpt>
      <trkpt lat="45.76326" lon="4.3851">
        <ele>579</ele>
        <time>2017-03-02T15:51:29Z</time>
      </trkpt>
      <trkpt lat="45.7632" lon="4.38503">
        <ele>579</ele>
        <time>2017-03-02T15:51:38Z</time>
      </trkpt>
      <trkpt lat="45.76319" lon="4.38503">
        <ele>578</ele>
        <time>2017-03-02T15:51:39Z</time>
      </trkpt>
      <trkpt lat="45.76312" lon="4.38497">
        <ele>580</ele>
        <time>2017-03-02T15:51:45Z</time>
      </trkpt>
      <trkpt lat="45.7631" lon="4.38496">
        <ele>580</ele>
        <time>2017-03-02T15:51:46Z</time>
      </trkpt>
      <trkpt lat="45.76303" lon="4.38491">
        <ele>579</ele>
        <time>2017-03-02T15:51:51Z</time>
      </trkpt>
      <trkpt lat="45.76301" lon="4.38489">
        <ele>579</ele>
        <time>2017-03-02T15:51:52Z</time>
      </trkpt>
      <trkpt lat="45.76295" lon="4.38482">
        <ele>579</ele>
        <time>2017-03-02T15:51:57Z</time>
      </trkpt>
      <trkpt lat="45.76294" lon="4.38481">
        <ele>578</ele>
        <time>2017-03-02T15:51:58Z</time>
      </trkpt>
      <trkpt lat="45.76286" lon="4.38476">
        <ele>578</ele>
        <time>2017-03-02T15:52:04Z</time>
      </trkpt>
      <trkpt lat="45.76285" lon="4.38475">
        <ele>578</ele>
        <time>2017-03-02T15:52:05Z</time>
      </trkpt>
      <trkpt lat="45.76279" lon="4.38466">
        <ele>578</ele>
        <time>2017-03-02T15:52:12Z</time>
      </trkpt>
      <trkpt lat="45.76278" lon="4.38465">
        <ele>578</ele>
        <time>2017-03-02T15:52:13Z</time>
      </trkpt>
      <trkpt lat="45.7627" lon="4.3846">
        <ele>577</ele>
        <time>2017-03-02T15:52:20Z</time>
      </trkpt>
      <trkpt lat="45.76268" lon="4.38459">
        <ele>577</ele>
        <time>2017-03-02T15:52:21Z</time>
      </trkpt>
      <trkpt lat="45.76262" lon="4.3845">
        <ele>577</ele>
        <time>2017-03-02T15:52:27Z</time>
      </trkpt>
      <trkpt lat="45.76261" lon="4.38449">
        <ele>577</ele>
        <time>2017-03-02T15:52:28Z</time>
      </trkpt>
      <trkpt lat="45.76254" lon="4.38443">
        <ele>577</ele>
        <time>2017-03-02T15:52:34Z</time>
      </trkpt>
      <trkpt lat="45.76253" lon="4.38442">
        <ele>576</ele>
        <time>2017-03-02T15:52:35Z</time>
      </trkpt>
      <trkpt lat="45.76248" lon="4.38433">
        <ele>570</ele>
        <time>2017-03-02T15:52:41Z</time>
      </trkpt>
      <trkpt lat="45.76247" lon="4.38432">
        <ele>570</ele>
        <time>2017-03-02T15:52:42Z</time>
      </trkpt>
      <trkpt lat="45.76241" lon="4.38424">
        <ele>570</ele>
        <time>2017-03-02T15:52:48Z</time>
      </trkpt>
      <trkpt lat="45.7624" lon="4.38423">
        <ele>571</ele>
        <time>2017-03-02T15:52:49Z</time>
      </trkpt>
      <trkpt lat="45.76236" lon="4.38412">
        <ele>571</ele>
        <time>2017-03-02T15:52:55Z</time>
      </trkpt>
      <trkpt lat="45.76235" lon="4.38411">
        <ele>571</ele>
        <time>2017-03-02T15:52:56Z</time>
      </trkpt>
      <trkpt lat="45.7623" lon="4.38401">
        <ele>569</ele>
        <time>2017-03-02T15:53:02Z</time>
      </trkpt>
      <trkpt lat="45.76229" lon="4.38399">
        <ele>569</ele>
        <time>2017-03-02T15:53:03Z</time>
      </trkpt>
      <trkpt lat="45.76225" lon="4.38389">
        <ele>568</ele>
        <time>2017-03-02T15:53:08Z</time>
      </trkpt>
      <trkpt lat="45.76224" lon="4.38387">
        <ele>568</ele>
        <time>2017-03-02T15:53:09Z</time>
      </trkpt>
      <trkpt lat="45.76218" lon="4.38377">
        <ele>568</ele>
        <time>2017-03-02T15:53:16Z</time>
      </trkpt>
      <trkpt lat="45.76217" lon="4.38376">
        <ele>568</ele>
        <time>2017-03-02T15:53:17Z</time>
      </trkpt>
      <trkpt lat="45.76213" lon="4.38367">
        <ele>567</ele>
        <time>2017-03-02T15:53:23Z</time>
      </trkpt>
      <trkpt lat="45.76212" lon="4.38365">
        <ele>567</ele>
        <time>2017-03-02T15:53:24Z</time>
      </trkpt>
      <trkpt lat="45.7621" lon="4.38353">
        <ele>567</ele>
        <time>2017-03-02T15:53:31Z</time>
      </trkpt>
      <trkpt lat="45.76209" lon="4.38352">
        <ele>567</ele>
        <time>2017-03-02T15:53:32Z</time>
      </trkpt>
      <trkpt lat="45.7621" lon="4.3834">
        <ele>567</ele>
        <time>2017-03-02T15:53:38Z</time>
      </trkpt>
      <trkpt lat="45.7621" lon="4.38338">
        <ele>567</ele>
        <time>2017-03-02T15:53:39Z</time>
      </trkpt>
      <trkpt lat="45.76208" lon="4.38327">
        <ele>563</ele>
        <time>2017-03-02T15:53:45Z</time>
      </trkpt>
      <trkpt lat="45.76208" lon="4.38325">
        <ele>563</ele>
        <time>2017-03-02T15:53:46Z</time>
      </trkpt>
      <trkpt lat="45.76209" lon="4.38312">
        <ele>563</ele>
        <time>2017-03-02T15:53:57Z</time>
      </trkpt>
      <trkpt lat="45.76209" lon="4.38311">
        <ele>562</ele>
        <time>2017-03-02T15:53:58Z</time>
      </trkpt>
      <trkpt lat="45.76207" lon="4.38299">
        <ele>562</ele>
        <time>2017-03-02T15:54:05Z</time>
      </trkpt>
      <trkpt lat="45.76207" lon="4.38298">
        <ele>562</ele>
        <time>2017-03-02T15:54:06Z</time>
      </trkpt>
      <trkpt lat="45.76208" lon="4.38287">
        <ele>561</ele>
        <time>2017-03-02T15:54:13Z</time>
      </trkpt>
      <trkpt lat="45.76207" lon="4.38285">
        <ele>561</ele>
        <time>2017-03-02T15:54:14Z</time>
      </trkpt>
      <trkpt lat="45.76205" lon="4.38274">
        <ele>560</ele>
        <time>2017-03-02T15:54:20Z</time>
      </trkpt>
      <trkpt lat="45.76205" lon="4.38272">
        <ele>560</ele>
        <time>2017-03-02T15:54:21Z</time>
      </trkpt>
      <trkpt lat="45.76202" lon="4.3826">
        <ele>559</ele>
        <time>2017-03-02T15:54:28Z</time>
      </trkpt>
      <trkpt lat="45.76202" lon="4.38258">
        <ele>559</ele>
        <time>2017-03-02T15:54:29Z</time>
      </trkpt>
      <trkpt lat="45.76197" lon="4.38248">
        <ele>552</ele>
        <time>2017-03-02T15:54:35Z</time>
      </trkpt>
      <trkpt lat="45.76195" lon="4.38247">
        <ele>552</ele>
        <time>2017-03-02T15:54:36Z</time>
      </trkpt>
      <trkpt lat="45.76188" lon="4.38243">
        <ele>551</ele>
        <time>2017-03-02T15:54:42Z</time>
      </trkpt>
      <trkpt lat="45.76187" lon="4.38242">
        <ele>551</ele>
        <time>2017-03-02T15:54:43Z</time>
      </trkpt>
      <trkpt lat="45.76178" lon="4.38239">
        <ele>551</ele>
        <time>2017-03-02T15:54:50Z</time>
      </trkpt>
      <trkpt lat="45.76177" lon="4.38239">
        <ele>551</ele>
        <time>2017-03-02T15:54:51Z</time>
      </trkpt>
      <trkpt lat="45.76182" lon="4.38228">
        <ele>551</ele>
        <time>2017-03-02T15:55:24Z</time>
      </trkpt>
      <trkpt lat="45.76183" lon="4.38228">
        <ele>551</ele>
        <time>2017-03-02T15:55:25Z</time>
      </trkpt>
      <trkpt lat="45.76192" lon="4.38226">
        <ele>551</ele>
        <time>2017-03-02T15:55:32Z</time>
      </trkpt>
      <trkpt lat="45.76193" lon="4.38226">
        <ele>551</ele>
        <time>2017-03-02T15:55:33Z</time>
      </trkpt>
      <trkpt lat="45.76201" lon="4.38224">
        <ele>551</ele>
        <time>2017-03-02T15:55:41Z</time>
      </trkpt>
      <trkpt lat="45.76202" lon="4.38223">
        <ele>551</ele>
        <time>2017-03-02T15:55:42Z</time>
      </trkpt>
      <trkpt lat="45.76211" lon="4.38222">
        <ele>552</ele>
        <time>2017-03-02T15:55:50Z</time>
      </trkpt>
      <trkpt lat="45.76212" lon="4.38222">
        <ele>552</ele>
        <time>2017-03-02T15:55:51Z</time>
      </trkpt>
      <trkpt lat="45.76221" lon="4.3822">
        <ele>552</ele>
        <time>2017-03-02T15:55:58Z</time>
      </trkpt>
      <trkpt lat="45.76222" lon="4.3822">
        <ele>552</ele>
        <time>2017-03-02T15:55:59Z</time>
      </trkpt>
      <trkpt lat="45.7623" lon="4.38218">
        <ele>552</ele>
        <time>2017-03-02T15:56:05Z</time>
      </trkpt>
      <trkpt lat="45.76231" lon="4.38218">
        <ele>552</ele>
        <time>2017-03-02T15:56:06Z</time>
      </trkpt>
      <trkpt lat="45.7624" lon="4.38216">
        <ele>553</ele>
        <time>2017-03-02T15:56:13Z</time>
      </trkpt>
      <trkpt lat="45.76241" lon="4.38216">
        <ele>553</ele>
        <time>2017-03-02T15:56:14Z</time>
      </trkpt>
      <trkpt lat="45.76249" lon="4.38216">
        <ele>553</ele>
        <time>2017-03-02T15:56:22Z</time>
      </trkpt>
      <trkpt lat="45.7625" lon="4.38216">
        <ele>558</ele>
        <time>2017-03-02T15:56:23Z</time>
      </trkpt>
      <trkpt lat="45.76258" lon="4.38217">
        <ele>558</ele>
        <time>2017-03-02T15:56:29Z</time>
      </trkpt>
      <trkpt lat="45.7626" lon="4.38217">
        <ele>558</ele>
        <time>2017-03-02T15:56:30Z</time>
      </trkpt>
      <trkpt lat="45.76268" lon="4.38217">
        <ele>558</ele>
        <time>2017-03-02T15:56:37Z</time>
      </trkpt>
      <trkpt lat="45.76269" lon="4.38216">
        <ele>558</ele>
        <time>2017-03-02T15:56:38Z</time>
      </trkpt>
      <trkpt lat="45.76278" lon="4.38215">
        <ele>558</ele>
        <time>2017-03-02T15:56:44Z</time>
      </trkpt>
      <trkpt lat="45.76279" lon="4.38214">
        <ele>558</ele>
        <time>2017-03-02T15:56:45Z</time>
      </trkpt>
      <trkpt lat="45.76287" lon="4.38216">
        <ele>559</ele>
        <time>2017-03-02T15:56:52Z</time>
      </trkpt>
      <trkpt lat="45.76289" lon="4.38216">
        <ele>559</ele>
        <time>2017-03-02T15:56:53Z</time>
      </trkpt>
      <trkpt lat="45.76297" lon="4.38218">
        <ele>559</ele>
        <time>2017-03-02T15:57:00Z</time>
      </trkpt>
      <trkpt lat="45.76298" lon="4.38218">
        <ele>559</ele>
        <time>2017-03-02T15:57:01Z</time>
      </trkpt>
      <trkpt lat="45.76307" lon="4.38217">
        <ele>560</ele>
        <time>2017-03-02T15:57:08Z</time>
      </trkpt>
      <trkpt lat="45.76308" lon="4.38217">
        <ele>560</ele>
        <time>2017-03-02T15:57:09Z</time>
      </trkpt>
      <trkpt lat="45.76316" lon="4.38217">
        <ele>560</ele>
        <time>2017-03-02T15:57:15Z</time>
      </trkpt>
      <trkpt lat="45.76318" lon="4.38217">
        <ele>560</ele>
        <time>2017-03-02T15:57:16Z</time>
      </trkpt>
      <trkpt lat="45.76326" lon="4.38218">
        <ele>561</ele>
        <time>2017-03-02T15:57:23Z</time>
      </trkpt>
      <trkpt lat="45.76327" lon="4.38218">
        <ele>561</ele>
        <time>2017-03-02T15:57:24Z</time>
      </trkpt>
      <trkpt lat="45.76335" lon="4.38216">
        <ele>565</ele>
        <time>2017-03-02T15:57:31Z</time>
      </trkpt>
      <trkpt lat="45.76336" lon="4.38215">
        <ele>565</ele>
        <time>2017-03-02T15:57:32Z</time>
      </trkpt>
      <trkpt lat="45.76344" lon="4.38212">
        <ele>565</ele>
        <time>2017-03-02T15:57:39Z</time>
      </trkpt>
      <trkpt lat="45.76345" lon="4.38212">
        <ele>565</ele>
        <time>2017-03-02T15:57:40Z</time>
      </trkpt>
      <trkpt lat="45.76354" lon="4.38212">
        <ele>565</ele>
        <time>2017-03-02T15:57:47Z</time>
      </trkpt>
      <trkpt lat="45.76355" lon="4.38213">
        <ele>565</ele>
        <time>2017-03-02T15:57:48Z</time>
      </trkpt>
      <trkpt lat="45.76363" lon="4.38216">
        <ele>565</ele>
        <time>2017-03-02T15:57:56Z</time>
      </trkpt>
      <trkpt lat="45.76364" lon="4.38216">
        <ele>565</ele>
        <time>2017-03-02T15:57:57Z</time>
      </trkpt>
      <trkpt lat="45.76372" lon="4.38219">
        <ele>566</ele>
        <time>2017-03-02T15:58:04Z</time>
      </trkpt>
      <trkpt lat="45.76373" lon="4.3822">
        <ele>566</ele>
        <time>2017-03-02T15:58:05Z</time>
      </trkpt>
      <trkpt lat="45.7638" lon="4.38226">
        <ele>566</ele>
        <time>2017-03-02T15:58:12Z</time>
      </trkpt>
      <trkpt lat="45.76381" lon="4.38226">
        <ele>566</ele>
        <time>2017-03-02T15:58:13Z</time>
      </trkpt>
      <trkpt lat="45.76389" lon="4.3823">
        <ele>567</ele>
        <time>2017-03-02T15:58:20Z</time>
      </trkpt>
      <trkpt lat="45.7639" lon="4.3823">
        <ele>567</ele>
        <time>2017-03-02T15:58:21Z</time>
      </trkpt>
      <trkpt lat="45.76399" lon="4.38233">
        <ele>567</ele>
        <time>2017-03-02T15:58:30Z</time>
      </trkpt>
      <trkpt lat="45.764" lon="4.38233">
        <ele>567</ele>
        <time>2017-03-02T15:58:31Z</time>
      </trkpt>
      <trkpt lat="45.76408" lon="4.38235">
        <ele>567</ele>
        <time>2017-03-02T15:58:38Z</time>
      </trkpt>
      <trkpt lat="45.76409" lon="4.38236">
        <ele>567</ele>
        <time>2017-03-02T15:58:39Z</time>
      </trkpt>
      <trkpt lat="45.76416" lon="4.38244">
        <ele>568</ele>
        <time>2017-03-02T15:58:47Z</time>
      </trkpt>
      <trkpt lat="45.76417" lon="4.38244">
        <ele>568</ele>
        <time>2017-03-02T15:58:48Z</time>
      </trkpt>
      <trkpt lat="45.76425" lon="4.38248">
        <ele>570</ele>
        <time>2017-03-02T15:58:56Z</time>
      </trkpt>
      <trkpt lat="45.76426" lon="4.38249">
        <ele>570</ele>
        <time>2017-03-02T15:58:57Z</time>
      </trkpt>
      <trkpt lat="45.76433" lon="4.38253">
        <ele>574</ele>
        <time>2017-03-02T15:59:03Z</time>
      </trkpt>
      <trkpt lat="45.76435" lon="4.38254">
        <ele>575</ele>
        <time>2017-03-02T15:59:04Z</time>
      </trkpt>
      <trkpt lat="45.76442" lon="4.38257">
        <ele>576</ele>
        <time>2017-03-02T15:59:11Z</time>
      </trkpt>
      <trkpt lat="45.76444" lon="4.38257">
        <ele>576</ele>
        <time>2017-03-02T15:59:12Z</time>
      </trkpt>
      <trkpt lat="45.76452" lon="4.38256">
        <ele>577</ele>
        <time>2017-03-02T15:59:20Z</time>
      </trkpt>
      <trkpt lat="45.76453" lon="4.38256">
        <ele>577</ele>
        <time>2017-03-02T15:59:21Z</time>
      </trkpt>
      <trkpt lat="45.76462" lon="4.38259">
        <ele>578</ele>
        <time>2017-03-02T15:59:29Z</time>
      </trkpt>
      <trkpt lat="45.76463" lon="4.38259">
        <ele>578</ele>
        <time>2017-03-02T15:59:30Z</time>
      </trkpt>
      <trkpt lat="45.7647" lon="4.38258">
        <ele>578</ele>
        <time>2017-03-02T15:59:36Z</time>
      </trkpt>
      <trkpt lat="45.76472" lon="4.38258">
        <ele>578</ele>
        <time>2017-03-02T15:59:37Z</time>
      </trkpt>
      <trkpt lat="45.76481" lon="4.38255">
        <ele>578</ele>
        <time>2017-03-02T15:59:43Z</time>
      </trkpt>
      <trkpt lat="45.76482" lon="4.38255">
        <ele>578</ele>
        <time>2017-03-02T15:59:44Z</time>
      </trkpt>
      <trkpt lat="45.7649" lon="4.38252">
        <ele>577</ele>
        <time>2017-03-02T15:59:51Z</time>
      </trkpt>
      <trkpt lat="45.76491" lon="4.38252">
        <ele>577</ele>
        <time>2017-03-02T15:59:52Z</time>
      </trkpt>
      <trkpt lat="45.765" lon="4.3825">
        <ele>576</ele>
        <time>2017-03-02T15:59:59Z</time>
      </trkpt>
      <trkpt lat="45.76501" lon="4.3825">
        <ele>576</ele>
        <time>2017-03-02T16:00:00Z</time>
      </trkpt>
      <trkpt lat="45.76509" lon="4.3825">
        <ele>577</ele>
        <time>2017-03-02T16:00:08Z</time>
      </trkpt>
      <trkpt lat="45.7651" lon="4.3825">
        <ele>577</ele>
        <time>2017-03-02T16:00:09Z</time>
      </trkpt>
      <trkpt lat="45.76518" lon="4.38252">
        <ele>581</ele>
        <time>2017-03-02T16:00:17Z</time>
      </trkpt>
      <trkpt lat="45.76519" lon="4.38253">
        <ele>581</ele>
        <time>2017-03-02T16:00:18Z</time>
      </trkpt>
      <trkpt lat="45.76527" lon="4.38255">
        <ele>582</ele>
        <time>2017-03-02T16:00:26Z</time>
      </trkpt>
      <trkpt lat="45.76528" lon="4.38256">
        <ele>582</ele>
        <time>2017-03-02T16:00:27Z</time>
      </trkpt>
      <trkpt lat="45.76536" lon="4.38258">
        <ele>583</ele>
        <time>2017-03-02T16:00:35Z</time>
      </trkpt>
      <trkpt lat="45.76538" lon="4.38258">
        <ele>583</ele>
        <time>2017-03-02T16:00:36Z</time>
      </trkpt>
      <trkpt lat="45.76546" lon="4.38259">
        <ele>584</ele>
        <time>2017-03-02T16:00:43Z</time>
      </trkpt>
      <trkpt lat="45.76547" lon="4.38259">
        <ele>584</ele>
        <time>2017-03-02T16:00:44Z</time>
      </trkpt>
      <trkpt lat="45.76555" lon="4.38261">
        <ele>584</ele>
        <time>2017-03-02T16:00:51Z</time>
      </trkpt>
      <trkpt lat="45.76556" lon="4.38261">
        <ele>584</ele>
        <time>2017-03-02T16:00:52Z</time>
      </trkpt>
      <trkpt lat="45.76564" lon="4.38261">
        <ele>584</ele>
        <time>2017-03-02T16:00:59Z</time>
      </trkpt>
      <trkpt lat="45.76565" lon="4.38261">
        <ele>584</ele>
        <time>2017-03-02T16:01:00Z</time>
      </trkpt>
      <trkpt lat="45.76573" lon="4.3826">
        <ele>584</ele>
        <time>2017-03-02T16:01:07Z</time>
      </trkpt>
      <trkpt lat="45.76574" lon="4.3826">
        <ele>584</ele>
        <time>2017-03-02T16:01:08Z</time>
      </trkpt>
      <trkpt lat="45.76583" lon="4.38258">
        <ele>584</ele>
        <time>2017-03-02T16:01:15Z</time>
      </trkpt>
      <trkpt lat="45.76584" lon="4.38258">
        <ele>585</ele>
        <time>2017-03-02T16:01:16Z</time>
      </trkpt>
      <trkpt lat="45.76592" lon="4.38255">
        <ele>585</ele>
        <time>2017-03-02T16:01:24Z</time>
      </trkpt>
      <trkpt lat="45.76593" lon="4.38255">
        <ele>586</ele>
        <time>2017-03-02T16:01:25Z</time>
      </trkpt>
      <trkpt lat="45.76602" lon="4.38252">
        <ele>587</ele>
        <time>2017-03-02T16:01:33Z</time>
      </trkpt>
      <trkpt lat="45.76603" lon="4.38252">
        <ele>587</ele>
        <time>2017-03-02T16:01:34Z</time>
      </trkpt>
      <trkpt lat="45.76611" lon="4.3825">
        <ele>586</ele>
        <time>2017-03-02T16:01:42Z</time>
      </trkpt>
      <trkpt lat="45.76612" lon="4.3825">
        <ele>586</ele>
        <time>2017-03-02T16:01:43Z</time>
      </trkpt>
      <trkpt lat="45.7662" lon="4.38248">
        <ele>586</ele>
        <time>2017-03-02T16:01:50Z</time>
      </trkpt>
      <trkpt lat="45.76621" lon="4.38247">
        <ele>586</ele>
        <time>2017-03-02T16:01:51Z</time>
      </trkpt>
      <trkpt lat="45.76629" lon="4.38243">
        <ele>587</ele>
        <time>2017-03-02T16:01:58Z</time>
      </trkpt>
      <trkpt lat="45.7663" lon="4.38242">
        <ele>587</ele>
        <time>2017-03-02T16:01:59Z</time>
      </trkpt>
      <trkpt lat="45.76638" lon="4.38238">
        <ele>588</ele>
        <time>2017-03-02T16:02:06Z</time>
      </trkpt>
      <trkpt lat="45.76639" lon="4.38237">
        <ele>588</ele>
        <time>2017-03-02T16:02:07Z</time>
      </trkpt>
      <trkpt lat="45.76646" lon="4.38232">
        <ele>588</ele>
        <time>2017-03-02T16:02:14Z</time>
      </trkpt>
      <trkpt lat="45.76647" lon="4.38232">
        <ele>588</ele>
        <time>2017-03-02T16:02:15Z</time>
      </trkpt>
      <trkpt lat="45.76655" lon="4.38227">
        <ele>588</ele>
        <time>2017-03-02T16:02:23Z</time>
      </trkpt>
      <trkpt lat="45.76656" lon="4.38227">
        <ele>588</ele>
        <time>2017-03-02T16:02:24Z</time>
      </trkpt>
      <trkpt lat="45.76664" lon="4.38224">
        <ele>589</ele>
        <time>2017-03-02T16:02:33Z</time>
      </trkpt>
      <trkpt lat="45.76665" lon="4.38224">
        <ele>589</ele>
        <time>2017-03-02T16:02:34Z</time>
      </trkpt>
      <trkpt lat="45.76674" lon="4.38222">
        <ele>594</ele>
        <time>2017-03-02T16:02:43Z</time>
      </trkpt>
      <trkpt lat="45.76675" lon="4.38222">
        <ele>594</ele>
        <time>2017-03-02T16:02:44Z</time>
      </trkpt>
      <trkpt lat="45.76683" lon="4.3822">
        <ele>594</ele>
        <time>2017-03-02T16:02:53Z</time>
      </trkpt>
      <trkpt lat="45.76684" lon="4.3822">
        <ele>594</ele>
        <time>2017-03-02T16:02:54Z</time>
      </trkpt>
      <trkpt lat="45.76693" lon="4.3822">
        <ele>594</ele>
        <time>2017-03-02T16:03:03Z</time>
      </trkpt>
      <trkpt lat="45.76693" lon="4.3822">
        <ele>594</ele>
        <time>2017-03-02T16:03:04Z</time>
      </trkpt>
      <trkpt lat="45.76702" lon="4.38219">
        <ele>595</ele>
        <time>2017-03-02T16:03:13Z</time>
      </trkpt>
      <trkpt lat="45.76703" lon="4.38219">
        <ele>595</ele>
        <time>2017-03-02T16:03:14Z</time>
      </trkpt>
      <trkpt lat="45.76711" lon="4.38218">
        <ele>595</ele>
        <time>2017-03-02T16:03:23Z</time>
      </trkpt>
      <trkpt lat="45.76712" lon="4.38217">
        <ele>595</ele>
        <time>2017-03-02T16:03:24Z</time>
      </trkpt>
      <trkpt lat="45.7672" lon="4.38217">
        <ele>596</ele>
        <time>2017-03-02T16:03:32Z</time>
      </trkpt>
      <trkpt lat="45.76721" lon="4.38216">
        <ele>596</ele>
        <time>2017-03-02T16:03:33Z</time>
      </trkpt>
      <trkpt lat="45.76729" lon="4.38216">
        <ele>596</ele>
        <time>2017-03-02T16:03:40Z</time>
      </trkpt>
      <trkpt lat="45.76731" lon="4.38216">
        <ele>596</ele>
        <time>2017-03-02T16:03:41Z</time>
      </trkpt>
      <trkpt lat="45.76739" lon="4.38214">
        <ele>596</ele>
        <time>2017-03-02T16:03:48Z</time>
      </trkpt>
      <trkpt lat="45.7674" lon="4.38214">
        <ele>596</ele>
        <time>2017-03-02T16:03:49Z</time>
      </trkpt>
      <trkpt lat="45.76748" lon="4.38209">
        <ele>597</ele>
        <time>2017-03-02T16:03:56Z</time>
      </trkpt>
      <trkpt lat="45.76749" lon="4.38208">
        <ele>597</ele>
        <time>2017-03-02T16:03:57Z</time>
      </trkpt>
      <trkpt lat="45.76757" lon="4.38203">
        <ele>599</ele>
        <time>2017-03-02T16:04:04Z</time>
      </trkpt>
      <trkpt lat="45.76758" lon="4.38202">
        <ele>599</ele>
        <time>2017-03-02T16:04:05Z</time>
      </trkpt>
      <trkpt lat="45.76765" lon="4.38196">
        <ele>599</ele>
        <time>2017-03-02T16:04:12Z</time>
      </trkpt>
      <trkpt lat="45.76766" lon="4.38196">
        <ele>599</ele>
        <time>2017-03-02T16:04:13Z</time>
      </trkpt>
      <trkpt lat="45.76774" lon="4.3819">
        <ele>599</ele>
        <time>2017-03-02T16:04:20Z</time>
      </trkpt>
      <trkpt lat="45.76775" lon="4.38189">
        <ele>599</ele>
        <time>2017-03-02T16:04:21Z</time>
      </trkpt>
      <trkpt lat="45.76782" lon="4.38182">
        <ele>599</ele>
        <time>2017-03-02T16:04:28Z</time>
      </trkpt>
      <trkpt lat="45.76783" lon="4.38181">
        <ele>599</ele>
        <time>2017-03-02T16:04:29Z</time>
      </trkpt>
      <trkpt lat="45.76789" lon="4.38176">
        <ele>599</ele>
        <time>2017-03-02T16:04:36Z</time>
      </trkpt>
      <trkpt lat="45.7679" lon="4.38175">
        <ele>599</ele>
        <time>2017-03-02T16:04:37Z</time>
      </trkpt>
      <trkpt lat="45.76798" lon="4.38169">
        <ele>599</ele>
        <time>2017-03-02T16:04:44Z</time>
      </trkpt>
      <trkpt lat="45.76799" lon="4.38168">
        <ele>599</ele>
        <time>2017-03-02T16:04:45Z</time>
      </trkpt>
      <trkpt lat="45.76807" lon="4.38162">
        <ele>602</ele>
        <time>2017-03-02T16:04:52Z</time>
      </trkpt>
      <trkpt lat="45.76808" lon="4.38161">
        <ele>602</ele>
        <time>2017-03-02T16:04:53Z</time>
      </trkpt>
      <trkpt lat="45.76814" lon="4.38152">
        <ele>602</ele>
        <time>2017-03-02T16:05:00Z</time>
      </trkpt>
      <trkpt lat="45.76815" lon="4.38151">
        <ele>602</ele>
        <time>2017-03-02T16:05:01Z</time>
      </trkpt>
      <trkpt lat="45.76821" lon="4.38144">
        <ele>602</ele>
        <time>2017-03-02T16:05:07Z</time>
      </trkpt>
      <trkpt lat="45.76822" lon="4.38142">
        <ele>602</ele>
        <time>2017-03-02T16:05:08Z</time>
      </trkpt>
      <trkpt lat="45.76827" lon="4.38133">
        <ele>602</ele>
        <time>2017-03-02T16:05:14Z</time>
      </trkpt>
      <trkpt lat="45.76828" lon="4.38132">
        <ele>602</ele>
        <time>2017-03-02T16:05:15Z</time>
      </trkpt>
      <trkpt lat="45.76833" lon="4.38123">
        <ele>602</ele>
        <time>2017-03-02T16:05:21Z</time>
      </trkpt>
      <trkpt lat="45.76833" lon="4.38121">
        <ele>602</ele>
        <time>2017-03-02T16:05:22Z</time>
      </trkpt>
      <trkpt lat="45.76839" lon="4.38114">
        <ele>599</ele>
        <time>2017-03-02T16:05:28Z</time>
      </trkpt>
      <trkpt lat="45.7684" lon="4.38113">
        <ele>599</ele>
        <time>2017-03-02T16:05:29Z</time>
      </trkpt>
      <trkpt lat="45.76847" lon="4.38106">
        <ele>599</ele>
        <time>2017-03-02T16:05:36Z</time>
      </trkpt>
      <trkpt lat="45.76848" lon="4.38106">
        <ele>599</ele>
        <time>2017-03-02T16:05:37Z</time>
      </trkpt>
      <trkpt lat="45.76856" lon="4.381">
        <ele>599</ele>
        <time>2017-03-02T16:05:44Z</time>
      </trkpt>
      <trkpt lat="45.76857" lon="4.381">
        <ele>599</ele>
        <time>2017-03-02T16:05:45Z</time>
      </trkpt>
      <trkpt lat="45.76865" lon="4.38097">
        <ele>598</ele>
        <time>2017-03-02T16:05:51Z</time>
      </trkpt>
      <trkpt lat="45.76866" lon="4.38097">
        <ele>598</ele>
        <time>2017-03-02T16:05:52Z</time>
      </trkpt>
      <trkpt lat="45.76875" lon="4.38096">
        <ele>598</ele>
        <time>2017-03-02T16:05:59Z</time>
      </trkpt>
      <trkpt lat="45.76876" lon="4.38095">
        <ele>598</ele>
        <time>2017-03-02T16:06:00Z</time>
      </trkpt>
      <trkpt lat="45.76884" lon="4.3809">
        <ele>597</ele>
        <time>2017-03-02T16:06:07Z</time>
      </trkpt>
      <trkpt lat="45.76886" lon="4.3809">
        <ele>597</ele>
        <time>2017-03-02T16:06:08Z</time>
      </trkpt>
      <trkpt lat="45.76893" lon="4.38088">
        <ele>597</ele>
        <time>2017-03-02T16:06:14Z</time>
      </trkpt>
      <trkpt lat="45.76895" lon="4.38087">
        <ele>596</ele>
        <time>2017-03-02T16:06:15Z</time>
      </trkpt>
      <trkpt lat="45.76903" lon="4.38085">
        <ele>596</ele>
        <time>2017-03-02T16:06:21Z</time>
      </trkpt>
      <trkpt lat="45.76904" lon="4.38084">
        <ele>596</ele>
        <time>2017-03-02T16:06:22Z</time>
      </trkpt>
      <trkpt lat="45.76912" lon="4.3808">
        <ele>596</ele>
        <time>2017-03-02T16:06:29Z</time>
      </trkpt>
      <trkpt lat="45.76914" lon="4.3808">
        <ele>596</ele>
        <time>2017-03-02T16:06:30Z</time>
      </trkpt>
      <trkpt lat="45.76921" lon="4.38078">
        <ele>593</ele>
        <time>2017-03-02T16:06:36Z</time>
      </trkpt>
      <trkpt lat="45.76923" lon="4.38078">
        <ele>593</ele>
        <time>2017-03-02T16:06:37Z</time>
      </trkpt>
      <trkpt lat="45.76931" lon="4.38074">
        <ele>592</ele>
        <time>2017-03-02T16:06:44Z</time>
      </trkpt>
      <trkpt lat="45.76932" lon="4.38073">
        <ele>591</ele>
        <time>2017-03-02T16:06:45Z</time>
      </trkpt>
      <trkpt lat="45.7694" lon="4.38072">
        <ele>590</ele>
        <time>2017-03-02T16:06:51Z</time>
      </trkpt>
      <trkpt lat="45.76941" lon="4.38072">
        <ele>590</ele>
        <time>2017-03-02T16:06:52Z</time>
      </trkpt>
      <trkpt lat="45.76949" lon="4.38067">
        <ele>589</ele>
        <time>2017-03-02T16:06:59Z</time>
      </trkpt>
      <trkpt lat="45.7695" lon="4.38066">
        <ele>589</ele>
        <time>2017-03-02T16:07:00Z</time>
      </trkpt>
      <trkpt lat="45.76958" lon="4.38062">
        <ele>588</ele>
        <time>2017-03-02T16:07:07Z</time>
      </trkpt>
      <trkpt lat="45.76959" lon="4.38062">
        <ele>588</ele>
        <time>2017-03-02T16:07:08Z</time>
      </trkpt>
      <trkpt lat="45.76967" lon="4.38058">
        <ele>588</ele>
        <time>2017-03-02T16:07:15Z</time>
      </trkpt>
      <trkpt lat="45.76968" lon="4.38057">
        <ele>588</ele>
        <time>2017-03-02T16:07:16Z</time>
      </trkpt>
      <trkpt lat="45.76975" lon="4.38051">
        <ele>587</ele>
        <time>2017-03-02T16:07:22Z</time>
      </trkpt>
      <trkpt lat="45.76976" lon="4.3805">
        <ele>587</ele>
        <time>2017-03-02T16:07:23Z</time>
      </trkpt>
      <trkpt lat="45.76983" lon="4.38047">
        <ele>586</ele>
        <time>2017-03-02T16:07:29Z</time>
      </trkpt>
      <trkpt lat="45.76985" lon="4.38047">
        <ele>586</ele>
        <time>2017-03-02T16:07:30Z</time>
      </trkpt>
      <trkpt lat="45.76992" lon="4.38041">
        <ele>586</ele>
        <time>2017-03-02T16:07:37Z</time>
      </trkpt>
      <trkpt lat="45.76993" lon="4.3804">
        <ele>586</ele>
        <time>2017-03-02T16:07:38Z</time>
      </trkpt>
      <trkpt lat="45.77001" lon="4.38035">
        <ele>577</ele>
        <time>2017-03-02T16:07:45Z</time>
      </trkpt>
      <trkpt lat="45.77002" lon="4.38034">
        <ele>577</ele>
        <time>2017-03-02T16:07:46Z</time>
      </trkpt>
      <trkpt lat="45.7701" lon="4.38029">
        <ele>576</ele>
        <time>2017-03-02T16:07:53Z</time>
      </trkpt>
      <trkpt lat="45.77011" lon="4.38028">
        <ele>576</ele>
        <time>2017-03-02T16:07:54Z</time>
      </trkpt>
      <trkpt lat="45.77018" lon="4.38021">
        <ele>576</ele>
        <time>2017-03-02T16:08:01Z</time>
      </trkpt>
      <trkpt lat="45.77019" lon="4.3802">
        <ele>576</ele>
        <time>2017-03-02T16:08:02Z</time>
      </trkpt>
      <trkpt lat="45.77026" lon="4.38013">
        <ele>575</ele>
        <time>2017-03-02T16:08:10Z</time>
      </trkpt>
      <trkpt lat="45.77027" lon="4.38012">
        <ele>575</ele>
        <time>2017-03-02T16:08:11Z</time>
      </trkpt>
      <trkpt lat="45.77034" lon="4.38007">
        <ele>574</ele>
        <time>2017-03-02T16:08:18Z</time>
      </trkpt>
      <trkpt lat="45.77035" lon="4.38006">
        <ele>574</ele>
        <time>2017-03-02T16:08:19Z</time>
      </trkpt>
      <trkpt lat="45.77042" lon="4.38001">
        <ele>573</ele>
        <time>2017-03-02T16:08:27Z</time>
      </trkpt>
      <trkpt lat="45.77044" lon="4.38">
        <ele>573</ele>
        <time>2017-03-02T16:08:28Z</time>
      </trkpt>
      <trkpt lat="45.7705" lon="4.37993">
        <ele>567</ele>
        <time>2017-03-02T16:08:38Z</time>
      </trkpt>
      <trkpt lat="45.77051" lon="4.37992">
        <ele>567</ele>
        <time>2017-03-02T16:08:39Z</time>
      </trkpt>
      <trkpt lat="45.77057" lon="4.37986">
        <ele>567</ele>
        <time>2017-03-02T16:08:50Z</time>
      </trkpt>
      <trkpt lat="45.77058" lon="4.37985">
        <ele>567</ele>
        <time>2017-03-02T16:08:51Z</time>
      </trkpt>
      <trkpt lat="45.77066" lon="4.3798">
        <ele>566</ele>
        <time>2017-03-02T16:08:59Z</time>
      </trkpt>
      <trkpt lat="45.77067" lon="4.3798">
        <ele>566</ele>
        <time>2017-03-02T16:09:00Z</time>
      </trkpt>
      <trkpt lat="45.77075" lon="4.37975">
        <ele>565</ele>
        <time>2017-03-02T16:09:08Z</time>
      </trkpt>
      <trkpt lat="45.77076" lon="4.37975">
        <ele>565</ele>
        <time>2017-03-02T16:09:09Z</time>
      </trkpt>
      <trkpt lat="45.77084" lon="4.37969">
        <ele>557</ele>
        <time>2017-03-02T16:09:16Z</time>
      </trkpt>
      <trkpt lat="45.77085" lon="4.37968">
        <ele>557</ele>
        <time>2017-03-02T16:09:17Z</time>
      </trkpt>
      <trkpt lat="45.77091" lon="4.37962">
        <ele>556</ele>
        <time>2017-03-02T16:09:25Z</time>
      </trkpt>
      <trkpt lat="45.77092" lon="4.37961">
        <ele>555</ele>
        <time>2017-03-02T16:09:26Z</time>
      </trkpt>
      <trkpt lat="45.771" lon="4.37956">
        <ele>555</ele>
        <time>2017-03-02T16:09:34Z</time>
      </trkpt>
      <trkpt lat="45.771" lon="4.37955">
        <ele>554</ele>
        <time>2017-03-02T16:09:35Z</time>
      </trkpt>
      <trkpt lat="45.77108" lon="4.37949">
        <ele>554</ele>
        <time>2017-03-02T16:09:43Z</time>
      </trkpt>
      <trkpt lat="45.77109" lon="4.37948">
        <ele>554</ele>
        <time>2017-03-02T16:09:44Z</time>
      </trkpt>
      <trkpt lat="45.77116" lon="4.37943">
        <ele>553</ele>
        <time>2017-03-02T16:09:52Z</time>
      </trkpt>
      <trkpt lat="45.77117" lon="4.37943">
        <ele>553</ele>
        <time>2017-03-02T16:09:53Z</time>
      </trkpt>
      <trkpt lat="45.77125" lon="4.37937">
        <ele>552</ele>
        <time>2017-03-02T16:10:00Z</time>
      </trkpt>
      <trkpt lat="45.77126" lon="4.37937">
        <ele>552</ele>
        <time>2017-03-02T16:10:01Z</time>
      </trkpt>
      <trkpt lat="45.77133" lon="4.37932">
        <ele>551</ele>
        <time>2017-03-02T16:10:07Z</time>
      </trkpt>
      <trkpt lat="45.77135" lon="4.37931">
        <ele>551</ele>
        <time>2017-03-02T16:10:08Z</time>
      </trkpt>
      <trkpt lat="45.77142" lon="4.37926">
        <ele>550</ele>
        <time>2017-03-02T16:10:14Z</time>
      </trkpt>
      <trkpt lat="45.77143" lon="4.37925">
        <ele>550</ele>
        <time>2017-03-02T16:10:15Z</time>
      </trkpt>
      <trkpt lat="45.77151" lon="4.37921">
        <ele>548</ele>
        <time>2017-03-02T16:10:21Z</time>
      </trkpt>
      <trkpt lat="45.77152" lon="4.3792">
        <ele>548</ele>
        <time>2017-03-02T16:10:22Z</time>
      </trkpt>
      <trkpt lat="45.77158" lon="4.37912">
        <ele>544</ele>
        <time>2017-03-02T16:10:28Z</time>
      </trkpt>
      <trkpt lat="45.77159" lon="4.37911">
        <ele>544</ele>
        <time>2017-03-02T16:10:29Z</time>
      </trkpt>
      <trkpt lat="45.77165" lon="4.37903">
        <ele>544</ele>
        <time>2017-03-02T16:10:35Z</time>
      </trkpt>
      <trkpt lat="45.77166" lon="4.37901">
        <ele>544</ele>
        <time>2017-03-02T16:10:36Z</time>
      </trkpt>
      <trkpt lat="45.77172" lon="4.37893">
        <ele>538</ele>
        <time>2017-03-02T16:10:42Z</time>
      </trkpt>
      <trkpt lat="45.77173" lon="4.37891">
        <ele>537</ele>
        <time>2017-03-02T16:10:43Z</time>
      </trkpt>
      <trkpt lat="45.77179" lon="4.37882">
        <ele>536</ele>
        <time>2017-03-02T16:10:49Z</time>
      </trkpt>
      <trkpt lat="45.7718" lon="4.37881">
        <ele>536</ele>
        <time>2017-03-02T16:10:50Z</time>
      </trkpt>
      <trkpt lat="45.77187" lon="4.37874">
        <ele>535</ele>
        <time>2017-03-02T16:10:56Z</time>
      </trkpt>
      <trkpt lat="45.77188" lon="4.37873">
        <ele>535</ele>
        <time>2017-03-02T16:10:57Z</time>
      </trkpt>
      <trkpt lat="45.77195" lon="4.37865">
        <ele>534</ele>
        <time>2017-03-02T16:11:04Z</time>
      </trkpt>
      <trkpt lat="45.77195" lon="4.37864">
        <ele>534</ele>
        <time>2017-03-02T16:11:05Z</time>
      </trkpt>
      <trkpt lat="45.77201" lon="4.37856">
        <ele>534</ele>
        <time>2017-03-02T16:11:12Z</time>
      </trkpt>
      <trkpt lat="45.77202" lon="4.37855">
        <ele>534</ele>
        <time>2017-03-02T16:11:13Z</time>
      </trkpt>
      <trkpt lat="45.77209" lon="4.37851">
        <ele>533</ele>
        <time>2017-03-02T16:11:20Z</time>
      </trkpt>
      <trkpt lat="45.7721" lon="4.37851">
        <ele>533</ele>
        <time>2017-03-02T16:11:21Z</time>
      </trkpt>
      <trkpt lat="45.77211" lon="4.37838">
        <ele>532</ele>
        <time>2017-03-02T16:11:29Z</time>
      </trkpt>
      <trkpt lat="45.77211" lon="4.37837">
        <ele>533</ele>
        <time>2017-03-02T16:11:30Z</time>
      </trkpt>
      <trkpt lat="45.77205" lon="4.37827">
        <ele>532</ele>
        <time>2017-03-02T16:11:39Z</time>
      </trkpt>
      <trkpt lat="45.77205" lon="4.37825">
        <ele>532</ele>
        <time>2017-03-02T16:11:40Z</time>
      </trkpt>
      <trkpt lat="45.77204" lon="4.37813">
        <ele>532</ele>
        <time>2017-03-02T16:11:56Z</time>
      </trkpt>
      <trkpt lat="45.77204" lon="4.37812">
        <ele>532</ele>
        <time>2017-03-02T16:11:57Z</time>
      </trkpt>
      <trkpt lat="45.77204" lon="4.37799">
        <ele>531</ele>
        <time>2017-03-02T16:12:06Z</time>
      </trkpt>
      <trkpt lat="45.77204" lon="4.37798">
        <ele>531</ele>
        <time>2017-03-02T16:12:07Z</time>
      </trkpt>
      <trkpt lat="45.7721" lon="4.37789">
        <ele>531</ele>
        <time>2017-03-02T16:12:17Z</time>
      </trkpt>
      <trkpt lat="45.77211" lon="4.37788">
        <ele>531</ele>
        <time>2017-03-02T16:12:18Z</time>
      </trkpt>
      <trkpt lat="45.77217" lon="4.37779">
        <ele>530</ele>
        <time>2017-03-02T16:12:25Z</time>
      </trkpt>
      <trkpt lat="45.77218" lon="4.37778">
        <ele>530</ele>
        <time>2017-03-02T16:12:26Z</time>
      </trkpt>
      <trkpt lat="45.77223" lon="4.37768">
        <ele>530</ele>
        <time>2017-03-02T16:12:34Z</time>
      </trkpt>
      <trkpt lat="45.77224" lon="4.37767">
        <ele>529</ele>
        <time>2017-03-02T16:12:35Z</time>
      </trkpt>
      <trkpt lat="45.7723" lon="4.37759">
        <ele>529</ele>
        <time>2017-03-02T16:12:42Z</time>
      </trkpt>
      <trkpt lat="45.77231" lon="4.37758">
        <ele>528</ele>
        <time>2017-03-02T16:12:43Z</time>
      </trkpt>
      <trkpt lat="45.77237" lon="4.3775">
        <ele>527</ele>
        <time>2017-03-02T16:12:50Z</time>
      </trkpt>
      <trkpt lat="45.77238" lon="4.37749">
        <ele>526</ele>
        <time>2017-03-02T16:12:51Z</time>
      </trkpt>
      <trkpt lat="45.77244" lon="4.37741">
        <ele>526</ele>
        <time>2017-03-02T16:12:58Z</time>
      </trkpt>
      <trkpt lat="45.77245" lon="4.3774">
        <ele>526</ele>
        <time>2017-03-02T16:12:59Z</time>
      </trkpt>
      <trkpt lat="45.77251" lon="4.37731">
        <ele>526</ele>
        <time>2017-03-02T16:13:10Z</time>
      </trkpt>
      <trkpt lat="45.77251" lon="4.3773">
        <ele>526</ele>
        <time>2017-03-02T16:13:11Z</time>
      </trkpt>
      <trkpt lat="45.77258" lon="4.37726">
        <ele>526</ele>
        <time>2017-03-02T16:13:23Z</time>
      </trkpt>
      <trkpt lat="45.7726" lon="4.37725">
        <ele>526</ele>
        <time>2017-03-02T16:13:24Z</time>
      </trkpt>
      <trkpt lat="45.77268" lon="4.37723">
        <ele>526</ele>
        <time>2017-03-02T16:13:31Z</time>
      </trkpt>
      <trkpt lat="45.77269" lon="4.37722">
        <ele>526</ele>
        <time>2017-03-02T16:13:32Z</time>
      </trkpt>
      <trkpt lat="45.77268" lon="4.37709">
        <ele>526</ele>
        <time>2017-03-02T16:13:44Z</time>
      </trkpt>
      <trkpt lat="45.77268" lon="4.37708">
        <ele>526</ele>
        <time>2017-03-02T16:13:45Z</time>
      </trkpt>
      <trkpt lat="45.77265" lon="4.37696">
        <ele>526</ele>
        <time>2017-03-02T16:13:54Z</time>
      </trkpt>
      <trkpt lat="45.77265" lon="4.37694">
        <ele>525</ele>
        <time>2017-03-02T16:13:55Z</time>
      </trkpt>
      <trkpt lat="45.77262" lon="4.37682">
        <ele>525</ele>
        <time>2017-03-02T16:14:04Z</time>
      </trkpt>
      <trkpt lat="45.77262" lon="4.3768">
        <ele>525</ele>
        <time>2017-03-02T16:14:05Z</time>
      </trkpt>
      <trkpt lat="45.77261" lon="4.37669">
        <ele>524</ele>
        <time>2017-03-02T16:14:11Z</time>
      </trkpt>
      <trkpt lat="45.77261" lon="4.37667">
        <ele>524</ele>
        <time>2017-03-02T16:14:12Z</time>
      </trkpt>
      <trkpt lat="45.77261" lon="4.37655">
        <ele>524</ele>
        <time>2017-03-02T16:14:18Z</time>
      </trkpt>
      <trkpt lat="45.77261" lon="4.37653">
        <ele>524</ele>
        <time>2017-03-02T16:14:19Z</time>
      </trkpt>
      <trkpt lat="45.7726" lon="4.37642">
        <ele>525</ele>
        <time>2017-03-02T16:14:25Z</time>
      </trkpt>
      <trkpt lat="45.7726" lon="4.3764">
        <ele>525</ele>
        <time>2017-03-02T16:14:26Z</time>
      </trkpt>
      <trkpt lat="45.77258" lon="4.37627">
        <ele>525</ele>
        <time>2017-03-02T16:14:32Z</time>
      </trkpt>
      <trkpt lat="45.77258" lon="4.37625">
        <ele>525</ele>
        <time>2017-03-02T16:14:33Z</time>
      </trkpt>
      <trkpt lat="45.77258" lon="4.37613">
        <ele>525</ele>
        <time>2017-03-02T16:14:39Z</time>
      </trkpt>
      <trkpt lat="45.77257" lon="4.37611">
        <ele>525</ele>
        <time>2017-03-02T16:14:40Z</time>
      </trkpt>
      <trkpt lat="45.77256" lon="4.37599">
        <ele>524</ele>
        <time>2017-03-02T16:14:46Z</time>
      </trkpt>
      <trkpt lat="45.77256" lon="4.37597">
        <ele>524</ele>
        <time>2017-03-02T16:14:47Z</time>
      </trkpt>
      <trkpt lat="45.77257" lon="4.37585">
        <ele>523</ele>
        <time>2017-03-02T16:14:53Z</time>
      </trkpt>
      <trkpt lat="45.77258" lon="4.37583">
        <ele>523</ele>
        <time>2017-03-02T16:14:54Z</time>
      </trkpt>
      <trkpt lat="45.77259" lon="4.37571">
        <ele>524</ele>
        <time>2017-03-02T16:15:00Z</time>
      </trkpt>
      <trkpt lat="45.77259" lon="4.37569">
        <ele>524</ele>
        <time>2017-03-02T16:15:01Z</time>
      </trkpt>
      <trkpt lat="45.77258" lon="4.37558">
        <ele>525</ele>
        <time>2017-03-02T16:15:07Z</time>
      </trkpt>
      <trkpt lat="45.77258" lon="4.37556">
        <ele>525</ele>
        <time>2017-03-02T16:15:08Z</time>
      </trkpt>
      <trkpt lat="45.77257" lon="4.37544">
        <ele>525</ele>
        <time>2017-03-02T16:15:14Z</time>
      </trkpt>
      <trkpt lat="45.77256" lon="4.37542">
        <ele>525</ele>
        <time>2017-03-02T16:15:15Z</time>
      </trkpt>
      <trkpt lat="45.77255" lon="4.3753">
        <ele>525</ele>
        <time>2017-03-02T16:15:21Z</time>
      </trkpt>
      <trkpt lat="45.77255" lon="4.37528">
        <ele>525</ele>
        <time>2017-03-02T16:15:22Z</time>
      </trkpt>
      <trkpt lat="45.77253" lon="4.37516">
        <ele>524</ele>
        <time>2017-03-02T16:15:28Z</time>
      </trkpt>
      <trkpt lat="45.77252" lon="4.37514">
        <ele>524</ele>
        <time>2017-03-02T16:15:29Z</time>
      </trkpt>
      <trkpt lat="45.7725" lon="4.37502">
        <ele>522</ele>
        <time>2017-03-02T16:15:35Z</time>
      </trkpt>
      <trkpt lat="45.7725" lon="4.375">
        <ele>522</ele>
        <time>2017-03-02T16:15:36Z</time>
      </trkpt>
      <trkpt lat="45.77247" lon="4.37489">
        <ele>522</ele>
        <time>2017-03-02T16:15:42Z</time>
      </trkpt>
      <trkpt lat="45.77247" lon="4.37487">
        <ele>522</ele>
        <time>2017-03-02T16:15:43Z</time>
      </trkpt>
      <trkpt lat="45.77243" lon="4.37476">
        <ele>522</ele>
        <time>2017-03-02T16:15:49Z</time>
      </trkpt>
      <trkpt lat="45.77243" lon="4.37475">
        <ele>522</ele>
        <time>2017-03-02T16:15:50Z</time>
      </trkpt>
      <trkpt lat="45.77243" lon="4.37463">
        <ele>523</ele>
        <time>2017-03-02T16:15:56Z</time>
      </trkpt>
      <trkpt lat="45.77243" lon="4.37461">
        <ele>523</ele>
        <time>2017-03-02T16:15:57Z</time>
      </trkpt>
      <trkpt lat="45.77242" lon="4.37448">
        <ele>523</ele>
        <time>2017-03-02T16:16:14Z</time>
      </trkpt>
      <trkpt lat="45.77242" lon="4.37447">
        <ele>523</ele>
        <time>2017-03-02T16:16:15Z</time>
      </trkpt>
      <trkpt lat="45.77242" lon="4.37435">
        <ele>523</ele>
        <time>2017-03-02T16:16:21Z</time>
      </trkpt>
      <trkpt lat="45.77242" lon="4.37433">
        <ele>523</ele>
        <time>2017-03-02T16:16:22Z</time>
      </trkpt>
      <trkpt lat="45.77241" lon="4.37421">
        <ele>523</ele>
        <time>2017-03-02T16:16:28Z</time>
      </trkpt>
      <trkpt lat="45.77241" lon="4.37419">
        <ele>523</ele>
        <time>2017-03-02T16:16:29Z</time>
      </trkpt>
      <trkpt lat="45.77243" lon="4.37407">
        <ele>523</ele>
        <time>2017-03-02T16:16:36Z</time>
      </trkpt>
      <trkpt lat="45.77244" lon="4.37405">
        <ele>523</ele>
        <time>2017-03-02T16:16:37Z</time>
      </trkpt>
      <trkpt lat="45.7725" lon="4.37397">
        <ele>524</ele>
        <time>2017-03-02T16:18:30Z</time>
      </trkpt>
      <trkpt lat="45.77251" lon="4.37395">
        <ele>524</ele>
        <time>2017-03-02T16:18:31Z</time>
      </trkpt>
      <trkpt lat="45.77256" lon="4.37386">
        <ele>524</ele>
        <time>2017-03-02T16:18:39Z</time>
      </trkpt>
      <trkpt lat="45.77257" lon="4.37384">
        <ele>524</ele>
        <time>2017-03-02T16:18:40Z</time>
      </trkpt>
      <trkpt lat="45.77263" lon="4.37376">
        <ele>524</ele>
        <time>2017-03-02T16:18:47Z</time>
      </trkpt>
      <trkpt lat="45.77264" lon="4.37375">
        <ele>524</ele>
        <time>2017-03-02T16:18:48Z</time>
      </trkpt>
      <trkpt lat="45.7727" lon="4.37367">
        <ele>524</ele>
        <time>2017-03-02T16:18:55Z</time>
      </trkpt>
      <trkpt lat="45.77271" lon="4.37366">
        <ele>524</ele>
        <time>2017-03-02T16:18:56Z</time>
      </trkpt>
      <trkpt lat="45.77276" lon="4.37358">
        <ele>524</ele>
        <time>2017-03-02T16:19:02Z</time>
      </trkpt>
      <trkpt lat="45.77277" lon="4.37357">
        <ele>524</ele>
        <time>2017-03-02T16:19:03Z</time>
      </trkpt>
      <trkpt lat="45.77283" lon="4.3735">
        <ele>525</ele>
        <time>2017-03-02T16:19:10Z</time>
      </trkpt>
      <trkpt lat="45.77284" lon="4.37349">
        <ele>525</ele>
        <time>2017-03-02T16:19:11Z</time>
      </trkpt>
      <trkpt lat="45.77292" lon="4.37342">
        <ele>525</ele>
        <time>2017-03-02T16:19:18Z</time>
      </trkpt>
      <trkpt lat="45.77293" lon="4.37341">
        <ele>525</ele>
        <time>2017-03-02T16:19:19Z</time>
      </trkpt>
      <trkpt lat="45.77299" lon="4.37335">
        <ele>525</ele>
        <time>2017-03-02T16:19:25Z</time>
      </trkpt>
      <trkpt lat="45.773" lon="4.37334">
        <ele>525</ele>
        <time>2017-03-02T16:19:26Z</time>
      </trkpt>
      <trkpt lat="45.77306" lon="4.37327">
        <ele>525</ele>
        <time>2017-03-02T16:19:32Z</time>
      </trkpt>
      <trkpt lat="45.77307" lon="4.37326">
        <ele>525</ele>
        <time>2017-03-02T16:19:33Z</time>
      </trkpt>
      <trkpt lat="45.77314" lon="4.37317">
        <ele>525</ele>
        <time>2017-03-02T16:19:40Z</time>
      </trkpt>
      <trkpt lat="45.77315" lon="4.37315">
        <ele>525</ele>
        <time>2017-03-02T16:19:41Z</time>
      </trkpt>
      <trkpt lat="45.77322" lon="4.37311">
        <ele>525</ele>
        <time>2017-03-02T16:19:47Z</time>
      </trkpt>
      <trkpt lat="45.77323" lon="4.3731">
        <ele>525</ele>
        <time>2017-03-02T16:19:48Z</time>
      </trkpt>
      <trkpt lat="45.77329" lon="4.37302">
        <ele>525</ele>
        <time>2017-03-02T16:19:54Z</time>
      </trkpt>
      <trkpt lat="45.7733" lon="4.37301">
        <ele>525</ele>
        <time>2017-03-02T16:19:55Z</time>
      </trkpt>
      <trkpt lat="45.77336" lon="4.37292">
        <ele>530</ele>
        <time>2017-03-02T16:20:02Z</time>
      </trkpt>
      <trkpt lat="45.77337" lon="4.37291">
        <ele>530</ele>
        <time>2017-03-02T16:20:03Z</time>
      </trkpt>
      <trkpt lat="45.77344" lon="4.37283">
        <ele>530</ele>
        <time>2017-03-02T16:20:10Z</time>
      </trkpt>
      <trkpt lat="45.77345" lon="4.37282">
        <ele>530</ele>
        <time>2017-03-02T16:20:11Z</time>
      </trkpt>
      <trkpt lat="45.77351" lon="4.37275">
        <ele>530</ele>
        <time>2017-03-02T16:20:17Z</time>
      </trkpt>
      <trkpt lat="45.77353" lon="4.37274">
        <ele>530</ele>
        <time>2017-03-02T16:20:18Z</time>
      </trkpt>
      <trkpt lat="45.77359" lon="4.37268">
        <ele>530</ele>
        <time>2017-03-02T16:20:24Z</time>
      </trkpt>
      <trkpt lat="45.7736" lon="4.37267">
        <ele>530</ele>
        <time>2017-03-02T16:20:25Z</time>
      </trkpt>
      <trkpt lat="45.77366" lon="4.37259">
        <ele>530</ele>
        <time>2017-03-02T16:20:32Z</time>
      </trkpt>
      <trkpt lat="45.77368" lon="4.37258">
        <ele>530</ele>
        <time>2017-03-02T16:20:33Z</time>
      </trkpt>
      <trkpt lat="45.77373" lon="4.37249">
        <ele>530</ele>
        <time>2017-03-02T16:20:39Z</time>
      </trkpt>
      <trkpt lat="45.77373" lon="4.37247">
        <ele>530</ele>
        <time>2017-03-02T16:20:40Z</time>
      </trkpt>
      <trkpt lat="45.77372" lon="4.37234">
        <ele>531</ele>
        <time>2017-03-02T16:20:47Z</time>
      </trkpt>
      <trkpt lat="45.77372" lon="4.37233">
        <ele>531</ele>
        <time>2017-03-02T16:20:48Z</time>
      </trkpt>
      <trkpt lat="45.77372" lon="4.3722">
        <ele>531</ele>
        <time>2017-03-02T16:20:55Z</time>
      </trkpt>
      <trkpt lat="45.77372" lon="4.37218">
        <ele>531</ele>
        <time>2017-03-02T16:20:56Z</time>
      </trkpt>
      <trkpt lat="45.7737" lon="4.37208">
        <ele>532</ele>
        <time>2017-03-02T16:21:02Z</time>
      </trkpt>
      <trkpt lat="45.77369" lon="4.37206">
        <ele>532</ele>
        <time>2017-03-02T16:21:03Z</time>
      </trkpt>
      <trkpt lat="45.77364" lon="4.37196">
        <ele>532</ele>
        <time>2017-03-02T16:21:10Z</time>
      </trkpt>
      <trkpt lat="45.77363" lon="4.37194">
        <ele>532</ele>
        <time>2017-03-02T16:21:11Z</time>
      </trkpt>
      <trkpt lat="45.77357" lon="4.37184">
        <ele>533</ele>
        <time>2017-03-02T16:21:18Z</time>
      </trkpt>
      <trkpt lat="45.77356" lon="4.37183">
        <ele>533</ele>
        <time>2017-03-02T16:21:19Z</time>
      </trkpt>
      <trkpt lat="45.77349" lon="4.3718">
        <ele>533</ele>
        <time>2017-03-02T16:21:26Z</time>
      </trkpt>
      <trkpt lat="45.77347" lon="4.3718">
        <ele>533</ele>
        <time>2017-03-02T16:21:27Z</time>
      </trkpt>
      <trkpt lat="45.77339" lon="4.37178">
        <ele>534</ele>
        <time>2017-03-02T16:21:33Z</time>
      </trkpt>
      <trkpt lat="45.77338" lon="4.37178">
        <ele>534</ele>
        <time>2017-03-02T16:21:34Z</time>
      </trkpt>
      <trkpt lat="45.77329" lon="4.37176">
        <ele>533</ele>
        <time>2017-03-02T16:21:42Z</time>
      </trkpt>
      <trkpt lat="45.77328" lon="4.37176">
        <ele>533</ele>
        <time>2017-03-02T16:21:43Z</time>
      </trkpt>
      <trkpt lat="45.77319" lon="4.37177">
        <ele>532</ele>
        <time>2017-03-02T16:21:49Z</time>
      </trkpt>
      <trkpt lat="45.77318" lon="4.37178">
        <ele>531</ele>
        <time>2017-03-02T16:21:50Z</time>
      </trkpt>
      <trkpt lat="45.77311" lon="4.37181">
        <ele>530</ele>
        <time>2017-03-02T16:21:56Z</time>
      </trkpt>
      <trkpt lat="45.7731" lon="4.37182">
        <ele>530</ele>
        <time>2017-03-02T16:21:57Z</time>
      </trkpt>
      <trkpt lat="45.77301" lon="4.3718">
        <ele>530</ele>
        <time>2017-03-02T16:22:03Z</time>
      </trkpt>
      <trkpt lat="45.773" lon="4.37179">
        <ele>530</ele>
        <time>2017-03-02T16:22:04Z</time>
      </trkpt>
      <trkpt lat="45.77293" lon="4.37173">
        <ele>529</ele>
        <time>2017-03-02T16:22:11Z</time>
      </trkpt>
      <trkpt lat="45.77292" lon="4.37172">
        <ele>529</ele>
        <time>2017-03-02T16:22:12Z</time>
      </trkpt>
      <trkpt lat="45.77289" lon="4.37162">
        <ele>533</ele>
        <time>2017-03-02T16:22:21Z</time>
      </trkpt>
      <trkpt lat="45.77288" lon="4.3716">
        <ele>533</ele>
        <time>2017-03-02T16:22:22Z</time>
      </trkpt>
      <trkpt lat="45.77285" lon="4.37148">
        <ele>533</ele>
        <time>2017-03-02T16:22:27Z</time>
      </trkpt>
      <trkpt lat="45.77284" lon="4.37146">
        <ele>533</ele>
        <time>2017-03-02T16:22:28Z</time>
      </trkpt>
      <trkpt lat="45.77282" lon="4.37135">
        <ele>533</ele>
        <time>2017-03-02T16:22:33Z</time>
      </trkpt>
      <trkpt lat="45.77281" lon="4.37132">
        <ele>533</ele>
        <time>2017-03-02T16:22:34Z</time>
      </trkpt>
      <trkpt lat="45.77279" lon="4.3712">
        <ele>533</ele>
        <time>2017-03-02T16:22:39Z</time>
      </trkpt>
      <trkpt lat="45.77279" lon="4.37118">
        <ele>534</ele>
        <time>2017-03-02T16:22:40Z</time>
      </trkpt>
      <trkpt lat="45.77277" lon="4.37106">
        <ele>533</ele>
        <time>2017-03-02T16:22:45Z</time>
      </trkpt>
      <trkpt lat="45.77278" lon="4.37105">
        <ele>534</ele>
        <time>2017-03-02T16:22:46Z</time>
      </trkpt>
      <trkpt lat="45.77279" lon="4.37094">
        <ele>534</ele>
        <time>2017-03-02T16:22:52Z</time>
      </trkpt>
      <trkpt lat="45.77279" lon="4.37092">
        <ele>534</ele>
        <time>2017-03-02T16:22:53Z</time>
      </trkpt>
      <trkpt lat="45.77277" lon="4.3708">
        <ele>537</ele>
        <time>2017-03-02T16:23:00Z</time>
      </trkpt>
      <trkpt lat="45.77277" lon="4.37079">
        <ele>537</ele>
        <time>2017-03-02T16:23:01Z</time>
      </trkpt>
      <trkpt lat="45.77277" lon="4.37066">
        <ele>537</ele>
        <time>2017-03-02T16:23:08Z</time>
      </trkpt>
      <trkpt lat="45.77277" lon="4.37064">
        <ele>537</ele>
        <time>2017-03-02T16:23:09Z</time>
      </trkpt>
      <trkpt lat="45.77279" lon="4.37053">
        <ele>538</ele>
        <time>2017-03-02T16:23:15Z</time>
      </trkpt>
      <trkpt lat="45.7728" lon="4.37051">
        <ele>538</ele>
        <time>2017-03-02T16:23:16Z</time>
      </trkpt>
      <trkpt lat="45.77281" lon="4.37039">
        <ele>539</ele>
        <time>2017-03-02T16:23:23Z</time>
      </trkpt>
      <trkpt lat="45.77281" lon="4.37037">
        <ele>539</ele>
        <time>2017-03-02T16:23:24Z</time>
      </trkpt>
      <trkpt lat="45.77279" lon="4.37026">
        <ele>539</ele>
        <time>2017-03-02T16:23:30Z</time>
      </trkpt>
      <trkpt lat="45.77279" lon="4.37024">
        <ele>539</ele>
        <time>2017-03-02T16:23:31Z</time>
      </trkpt>
      <trkpt lat="45.77281" lon="4.37012">
        <ele>540</ele>
        <time>2017-03-02T16:23:38Z</time>
      </trkpt>
      <trkpt lat="45.77281" lon="4.3701">
        <ele>540</ele>
        <time>2017-03-02T16:23:39Z</time>
      </trkpt>
      <trkpt lat="45.77279" lon="4.36998">
        <ele>543</ele>
        <time>2017-03-02T16:23:46Z</time>
      </trkpt>
      <trkpt lat="45.77279" lon="4.36996">
        <ele>543</ele>
        <time>2017-03-02T16:23:47Z</time>
      </trkpt>
      <trkpt lat="45.77276" lon="4.36985">
        <ele>543</ele>
        <time>2017-03-02T16:23:54Z</time>
      </trkpt>
      <trkpt lat="45.77276" lon="4.36983">
        <ele>543</ele>
        <time>2017-03-02T16:23:55Z</time>
      </trkpt>
      <trkpt lat="45.77273" lon="4.36972">
        <ele>543</ele>
        <time>2017-03-02T16:24:03Z</time>
      </trkpt>
      <trkpt lat="45.77272" lon="4.36971">
        <ele>543</ele>
        <time>2017-03-02T16:24:04Z</time>
      </trkpt>
      <trkpt lat="45.77266" lon="4.36962">
        <ele>544</ele>
        <time>2017-03-02T16:24:13Z</time>
      </trkpt>
      <trkpt lat="45.77266" lon="4.3696">
        <ele>544</ele>
        <time>2017-03-02T16:24:14Z</time>
      </trkpt>
      <trkpt lat="45.77261" lon="4.36951">
        <ele>544</ele>
        <time>2017-03-02T16:24:20Z</time>
      </trkpt>
      <trkpt lat="45.7726" lon="4.36949">
        <ele>544</ele>
        <time>2017-03-02T16:24:21Z</time>
      </trkpt>
      <trkpt lat="45.77255" lon="4.36938">
        <ele>544</ele>
        <time>2017-03-02T16:24:28Z</time>
      </trkpt>
      <trkpt lat="45.77255" lon="4.36937">
        <ele>544</ele>
        <time>2017-03-02T16:24:29Z</time>
      </trkpt>
      <trkpt lat="45.7725" lon="4.36926">
        <ele>539</ele>
        <time>2017-03-02T16:24:38Z</time>
      </trkpt>
      <trkpt lat="45.77249" lon="4.36925">
        <ele>540</ele>
        <time>2017-03-02T16:24:39Z</time>
      </trkpt>
      <trkpt lat="45.77247" lon="4.36915">
        <ele>542</ele>
        <time>2017-03-02T16:24:45Z</time>
      </trkpt>
      <trkpt lat="45.77246" lon="4.36913">
        <ele>542</ele>
        <time>2017-03-02T16:24:46Z</time>
      </trkpt>
      <trkpt lat="45.77243" lon="4.36901">
        <ele>540</ele>
        <time>2017-03-02T16:24:52Z</time>
      </trkpt>
      <trkpt lat="45.77243" lon="4.36899">
        <ele>539</ele>
        <time>2017-03-02T16:24:53Z</time>
      </trkpt>
      <trkpt lat="45.77244" lon="4.36886">
        <ele>539</ele>
        <time>2017-03-02T16:25:00Z</time>
      </trkpt>
      <trkpt lat="45.77244" lon="4.36885">
        <ele>538</ele>
        <time>2017-03-02T16:25:01Z</time>
      </trkpt>
      <trkpt lat="45.77245" lon="4.36872">
        <ele>538</ele>
        <time>2017-03-02T16:25:08Z</time>
      </trkpt>
      <trkpt lat="45.77246" lon="4.36871">
        <ele>538</ele>
        <time>2017-03-02T16:25:09Z</time>
      </trkpt>
      <trkpt lat="45.77249" lon="4.3686">
        <ele>539</ele>
        <time>2017-03-02T16:25:16Z</time>
      </trkpt>
      <trkpt lat="45.7725" lon="4.36859">
        <ele>546</ele>
        <time>2017-03-02T16:25:17Z</time>
      </trkpt>
      <trkpt lat="45.77257" lon="4.36852">
        <ele>545</ele>
        <time>2017-03-02T16:25:26Z</time>
      </trkpt>
      <trkpt lat="45.77259" lon="4.36852">
        <ele>545</ele>
        <time>2017-03-02T16:25:27Z</time>
      </trkpt>
      <trkpt lat="45.77263" lon="4.36853">
        <ele>546</ele>
        <time>2017-03-02T16:26:11.032Z</time>
      </trkpt>
    </trkseg>
  </trk>
</gpx>